Wetterdaten: Dienstag, 09.05.2017
Datum Zeit Temp. A. Temp. A. max Feuchte A. Luftdruck Regen Wind Richtung Richtung Sonnenschein ET UV Solar Taupunkt Windchill Windböen
09.05.2017 00:00 5,1 °C 5,1 °C 94 % 1017,5 hPa 0,0 mm 2,1 km/h (1 Bft) W-SW 245 ° 0 min 0,000 mm 0,0 UV-I 0 W/m² 4,2 °C 5,1 °C 3,2 km/h (1 Bft)
09.05.2017 00:01 5,1 °C 5,1 °C 94 % 1017,5 hPa 0,0 mm 1,2 km/h (1 Bft) W-SW 245 ° 0 min 0,000 mm 0,0 UV-I 0 W/m² 4,2 °C 5,1 °C 3,2 km/h (1 Bft)
09.05.2017 00:02 5,1 °C 5,1 °C 94 % 1017,5 hPa 0,2 mm 3,4 km/h (1 Bft) W-SW 238 ° 0 min 0,000 mm 0,0 UV-I 0 W/m² 4,2 °C 5,1 °C 4,8 km/h (1 Bft)
09.05.2017 00:03 5,1 °C 5,1 °C 94 % 1017,5 hPa 0,0 mm 2,6 km/h (1 Bft) S-SW 213 ° 0 min 0,000 mm 0,0 UV-I 0 W/m² 4,2 °C 5,1 °C 6,4 km/h (2 Bft)
09.05.2017 00:04 5,1 °C 5,1 °C 94 % 1017,5 hPa 0,0 mm 2,5 km/h (1 Bft) S-SW 213 ° 0 min 0,000 mm 0,0 UV-I 0 W/m² 4,2 °C 5,1 °C 4,8 km/h (1 Bft)
09.05.2017 00:05 5,1 °C 5,1 °C 94 % 1017,6 hPa 0,0 mm 1,3 km/h (1 Bft) S-SW 213 ° 0 min 0,000 mm 0,0 UV-I 0 W/m² 4,2 °C 5,1 °C 3,2 km/h (1 Bft)
09.05.2017 00:06 5,1 °C 5,1 °C 94 % 1017,5 hPa 0,0 mm 2,9 km/h (1 Bft) S-SW 213 ° 0 min 0,000 mm 0,0 UV-I 0 W/m² 4,2 °C 5,1 °C 3,2 km/h (1 Bft)
09.05.2017 00:07 5,1 °C 5,1 °C 94 % 1017,5 hPa 0,0 mm 4,8 km/h (1 Bft) S-SW 193 ° 0 min 0,000 mm 0,0 UV-I 0 W/m² 4,2 °C 4,3 °C 6,4 km/h (2 Bft)
09.05.2017 00:08 5,1 °C 5,1 °C 94 % 1017,5 hPa 0,0 mm 4,0 km/h (1 Bft) S-SW 193 ° 0 min 0,000 mm 0,0 UV-I 0 W/m² 4,2 °C 5,1 °C 6,4 km/h (2 Bft)
09.05.2017 00:09 5,1 °C 5,1 °C 94 % 1017,5 hPa 0,0 mm 3,2 km/h (1 Bft) S-SW 193 ° 0 min 0,000 mm 0,0 UV-I 0 W/m² 4,2 °C 5,1 °C 4,8 km/h (1 Bft)
09.05.2017 00:10 5,1 °C 5,1 °C 94 % 1017,5 hPa 0,0 mm 3,0 km/h (1 Bft) S-SW 193 ° 0 min 0,000 mm 0,0 UV-I 0 W/m² 4,2 °C 5,1 °C 4,8 km/h (1 Bft)
09.05.2017 00:11 5,1 °C 5,1 °C 94 % 1017,5 hPa 0,0 mm 4,0 km/h (1 Bft) S-SW 193 ° 0 min 0,000 mm 0,0 UV-I 0 W/m² 4,2 °C 5,1 °C 6,4 km/h (2 Bft)
09.05.2017 00:12 5,1 °C 5,1 °C 94 % 1017,6 hPa 0,0 mm 2,8 km/h (1 Bft) S-SW 193 ° 0 min 0,000 mm 0,0 UV-I 0 W/m² 4,2 °C 5,1 °C 4,8 km/h (1 Bft)
09.05.2017 00:13 5,1 °C 5,1 °C 94 % 1017,6 hPa 0,2 mm 1,4 km/h (1 Bft) S-SW 193 ° 0 min 0,000 mm 0,0 UV-I 0 W/m² 4,2 °C 5,1 °C 3,2 km/h (1 Bft)
09.05.2017 00:14 5,1 °C 5,1 °C 94 % 1017,6 hPa 0,0 mm 2,4 km/h (1 Bft) S-SW 193 ° 0 min 0,000 mm 0,0 UV-I 0 W/m² 4,2 °C 5,1 °C 3,2 km/h (1 Bft)
09.05.2017 00:15 5,1 °C 5,1 °C 94 % 1017,6 hPa 0,0 mm 0,7 km/h (0 Bft) S-SW 193 ° 0 min 0,000 mm 0,0 UV-I 0 W/m² 4,2 °C 5,1 °C 3,2 km/h (1 Bft)
09.05.2017 00:16 5,1 °C 5,1 °C 94 % 1017,6 hPa 0,0 mm 2,2 km/h (1 Bft) S-SW 193 ° 0 min 0,000 mm 0,0 UV-I 0 W/m² 4,2 °C 5,1 °C 3,2 km/h (1 Bft)
09.05.2017 00:17 5,1 °C 5,1 °C 94 % 1017,6 hPa 0,0 mm 3,2 km/h (1 Bft) S-SW 193 ° 0 min 0,000 mm 0,0 UV-I 0 W/m² 4,2 °C 5,1 °C 4,8 km/h (1 Bft)
09.05.2017 00:18 5,1 °C 5,1 °C 94 % 1017,6 hPa 0,0 mm 3,2 km/h (1 Bft) S-SW 193 ° 0 min 0,000 mm 0,0 UV-I 0 W/m² 4,2 °C 5,1 °C 4,8 km/h (1 Bft)
09.05.2017 00:19 5,1 °C 5,1 °C 94 % 1017,6 hPa 0,0 mm 3,2 km/h (1 Bft) S-SW 193 ° 0 min 0,000 mm 0,0 UV-I 0 W/m² 4,2 °C 5,1 °C 4,8 km/h (1 Bft)
09.05.2017 00:20 5,0 °C 5,1 °C 94 % 1017,5 hPa 0,0 mm 5,3 km/h (1 Bft) S-SW 193 ° 0 min 0,000 mm 0,0 UV-I 0 W/m² 4,1 °C 4,0 °C 6,4 km/h (2 Bft)
09.05.2017 00:21 5,0 °C 5,0 °C 94 % 1017,6 hPa 0,0 mm 4,1 km/h (1 Bft) S-SW 193 ° 0 min 0,000 mm 0,0 UV-I 0 W/m² 4,1 °C 5,0 °C 4,8 km/h (1 Bft)
09.05.2017 00:22 5,0 °C 5,0 °C 94 % 1017,6 hPa 0,0 mm 3,2 km/h (1 Bft) S-SW 194 ° 0 min 0,000 mm 0,0 UV-I 0 W/m² 4,1 °C 5,0 °C 4,8 km/h (1 Bft)
09.05.2017 00:23 5,0 °C 5,0 °C 94 % 1017,6 hPa 0,0 mm 2,0 km/h (1 Bft) S-SW 194 ° 0 min 0,000 mm 0,0 UV-I 0 W/m² 4,1 °C 5,0 °C 3,2 km/h (1 Bft)
09.05.2017 00:24 5,0 °C 5,1 °C 94 % 1017,5 hPa 0,0 mm 0,1 km/h (0 Bft) S-SW 194 ° 0 min 0,000 mm 0,0 UV-I 0 W/m² 4,1 °C 5,0 °C 1,6 km/h (1 Bft)
09.05.2017 00:25 5,0 °C 5,1 °C 94 % 1017,5 hPa 0,0 mm 2,7 km/h (1 Bft) S-SW 194 ° 0 min 0,000 mm 0,0 UV-I 0 W/m² 4,1 °C 5,0 °C 4,8 km/h (1 Bft)
09.05.2017 00:26 5,0 °C 5,0 °C 94 % 1017,5 hPa 0,2 mm 3,0 km/h (1 Bft) S-SW 194 ° 0 min 0,000 mm 0,0 UV-I 0 W/m² 4,1 °C 5,0 °C 4,8 km/h (1 Bft)
09.05.2017 00:27 5,0 °C 5,0 °C 94 % 1017,5 hPa 0,0 mm 2,3 km/h (1 Bft) S-SW 194 ° 0 min 0,000 mm 0,0 UV-I 0 W/m² 4,1 °C 5,0 °C 3,2 km/h (1 Bft)
09.05.2017 00:28 5,0 °C 5,0 °C 94 % 1017,5 hPa 0,0 mm 3,6 km/h (1 Bft) S-SW 194 ° 0 min 0,000 mm 0,0 UV-I 0 W/m² 4,1 °C 5,0 °C 4,8 km/h (1 Bft)
09.05.2017 00:29 4,9 °C 5,0 °C 94 % 1017,5 hPa 0,0 mm 3,2 km/h (1 Bft) S-SW 194 ° 0 min 0,000 mm 0,0 UV-I 0 W/m² 4,0 °C 4,9 °C 4,8 km/h (1 Bft)
09.05.2017 00:30 4,9 °C 5,0 °C 94 % 1017,5 hPa 0,0 mm 2,1 km/h (1 Bft) S-SW 194 ° 0 min 0,000 mm 0,0 UV-I 0 W/m² 4,0 °C 4,9 °C 4,8 km/h (1 Bft)
09.05.2017 00:31 5,0 °C 5,0 °C 94 % 1017,5 hPa 0,0 mm 3,4 km/h (1 Bft) S-SW 194 ° 0 min 0,000 mm 0,0 UV-I 0 W/m² 4,1 °C 5,0 °C 4,8 km/h (1 Bft)
09.05.2017 00:32 5,0 °C 5,0 °C 94 % 1017,5 hPa 0,0 mm 2,3 km/h (1 Bft) S-SW 194 ° 0 min 0,000 mm 0,0 UV-I 0 W/m² 4,1 °C 5,0 °C 3,2 km/h (1 Bft)
09.05.2017 00:33 5,0 °C 5,0 °C 94 % 1017,6 hPa 0,0 mm 4,7 km/h (1 Bft) S 185 ° 0 min 0,000 mm 0,0 UV-I 0 W/m² 4,1 °C 4,2 °C 6,4 km/h (2 Bft)
09.05.2017 00:34 5,0 °C 5,0 °C 94 % 1017,5 hPa 0,0 mm 3,7 km/h (1 Bft) S 186 ° 0 min 0,000 mm 0,0 UV-I 0 W/m² 4,1 °C 5,0 °C 4,8 km/h (1 Bft)
09.05.2017 00:35 4,9 °C 5,0 °C 94 % 1017,5 hPa 0,0 mm 4,3 km/h (1 Bft) S 187 ° 0 min 0,000 mm 0,0 UV-I 0 W/m² 4,0 °C 4,9 °C 6,4 km/h (2 Bft)
09.05.2017 00:36 4,9 °C 4,9 °C 94 % 1017,6 hPa 0,0 mm 2,5 km/h (1 Bft) S 188 ° 0 min 0,000 mm 0,0 UV-I 0 W/m² 4,0 °C 4,9 °C 4,8 km/h (1 Bft)
09.05.2017 00:37 4,9 °C 5,0 °C 94 % 1017,5 hPa 0,0 mm 2,3 km/h (1 Bft) S 188 ° 0 min 0,000 mm 0,0 UV-I 0 W/m² 4,0 °C 4,9 °C 4,8 km/h (1 Bft)
09.05.2017 00:38 4,9 °C 4,9 °C 94 % 1017,5 hPa 0,0 mm 2,5 km/h (1 Bft) S 188 ° 0 min 0,000 mm 0,0 UV-I 0 W/m² 4,0 °C 4,9 °C 4,8 km/h (1 Bft)
09.05.2017 00:39 4,9 °C 4,9 °C 94 % 1017,5 hPa 0,0 mm 3,2 km/h (1 Bft) S 188 ° 0 min 0,000 mm 0,0 UV-I 0 W/m² 4,0 °C 4,9 °C 6,4 km/h (2 Bft)
09.05.2017 00:40 4,9 °C 4,9 °C 94 % 1017,5 hPa 0,2 mm 3,8 km/h (1 Bft) S 188 ° 0 min 0,000 mm 0,0 UV-I 0 W/m² 4,0 °C 4,9 °C 4,8 km/h (1 Bft)
09.05.2017 00:41 4,9 °C 4,9 °C 94 % 1017,5 hPa 0,0 mm 3,2 km/h (1 Bft) S 188 ° 0 min 0,000 mm 0,0 UV-I 0 W/m² 4,0 °C 4,9 °C 4,8 km/h (1 Bft)
09.05.2017 00:42 4,9 °C 4,9 °C 94 % 1017,5 hPa 0,0 mm 0,7 km/h (0 Bft) S 188 ° 0 min 0,000 mm 0,0 UV-I 0 W/m² 4,0 °C 4,9 °C 1,6 km/h (1 Bft)
09.05.2017 00:43 4,9 °C 4,9 °C 94 % 1017,5 hPa 0,0 mm 0,4 km/h (0 Bft) S 188 ° 0 min 0,000 mm 0,0 UV-I 0 W/m² 4,0 °C 4,9 °C 1,6 km/h (1 Bft)
09.05.2017 00:44 4,9 °C 4,9 °C 95 % 1017,5 hPa 0,0 mm 1,2 km/h (1 Bft) S 188 ° 0 min 0,000 mm 0,0 UV-I 0 W/m² 4,2 °C 4,9 °C 3,2 km/h (1 Bft)
09.05.2017 00:45 4,9 °C 4,9 °C 95 % 1017,5 hPa 0,0 mm 0,0 km/h (0 Bft) S 188 ° 0 min 0,000 mm 0,0 UV-I 0 W/m² 4,2 °C 4,9 °C 0,0 km/h (0 Bft)
09.05.2017 00:46 4,9 °C 4,9 °C 95 % 1017,5 hPa 0,0 mm 1,3 km/h (1 Bft) S 188 ° 0 min 0,000 mm 0,0 UV-I 0 W/m² 4,2 °C 4,9 °C 3,2 km/h (1 Bft)
09.05.2017 00:47 4,9 °C 4,9 °C 95 % 1017,5 hPa 0,0 mm 1,6 km/h (1 Bft) S 188 ° 0 min 0,000 mm 0,0 UV-I 0 W/m² 4,2 °C 4,9 °C 3,2 km/h (1 Bft)
09.05.2017 00:48 4,9 °C 4,9 °C 95 % 1017,5 hPa 0,0 mm 0,0 km/h (0 Bft) S 188 ° 0 min 0,000 mm 0,0 UV-I 0 W/m² 4,2 °C 4,9 °C 0,0 km/h (0 Bft)
09.05.2017 00:49 4,9 °C 4,9 °C 95 % 1017,5 hPa 0,0 mm 1,3 km/h (1 Bft) S 188 ° 0 min 0,000 mm 0,0 UV-I 0 W/m² 4,2 °C 4,9 °C 3,2 km/h (1 Bft)
09.05.2017 00:50 4,9 °C 4,9 °C 95 % 1017,4 hPa 0,0 mm 0,7 km/h (0 Bft) S 188 ° 0 min 0,000 mm 0,0 UV-I 0 W/m² 4,2 °C 4,9 °C 3,2 km/h (1 Bft)
09.05.2017 00:51 4,9 °C 4,9 °C 95 % 1017,4 hPa 0,0 mm 4,5 km/h (1 Bft) S-SW 192 ° 0 min 0,000 mm 0,0 UV-I 0 W/m² 4,2 °C 4,9 °C 6,4 km/h (2 Bft)
09.05.2017 00:52 4,9 °C 4,9 °C 95 % 1017,4 hPa 0,0 mm 2,6 km/h (1 Bft) S-SW 192 ° 0 min 0,000 mm 0,0 UV-I 0 W/m² 4,2 °C 4,9 °C 3,2 km/h (1 Bft)
09.05.2017 00:53 4,9 °C 4,9 °C 95 % 1017,4 hPa 0,0 mm 2,0 km/h (1 Bft) S-SW 192 ° 0 min 0,000 mm 0,0 UV-I 0 W/m² 4,2 °C 4,9 °C 4,8 km/h (1 Bft)
09.05.2017 00:54 4,9 °C 4,9 °C 95 % 1017,4 hPa 0,0 mm 4,2 km/h (1 Bft) S-SW 203 ° 0 min 0,000 mm 0,0 UV-I 0 W/m² 4,2 °C 4,9 °C 4,8 km/h (1 Bft)
09.05.2017 00:55 4,9 °C 4,9 °C 95 % 1017,4 hPa 0,0 mm 5,8 km/h (2 Bft) S-SW 205 ° 0 min 0,000 mm 0,0 UV-I 0 W/m² 4,2 °C 3,7 °C 8,0 km/h (2 Bft)
09.05.2017 00:56 4,9 °C 4,9 °C 95 % 1017,4 hPa 0,2 mm 4,8 km/h (1 Bft) S-SW 200 ° 0 min 0,000 mm 0,0 UV-I 0 W/m² 4,2 °C 4,0 °C 6,4 km/h (2 Bft)
09.05.2017 00:57 4,9 °C 4,9 °C 95 % 1017,4 hPa 0,0 mm 3,0 km/h (1 Bft) S-SW 193 ° 0 min 0,000 mm 0,0 UV-I 0 W/m² 4,2 °C 4,9 °C 4,8 km/h (1 Bft)
09.05.2017 00:58 4,9 °C 4,9 °C 95 % 1017,4 hPa 0,0 mm 2,9 km/h (1 Bft) S-SW 192 ° 0 min 0,000 mm 0,0 UV-I 0 W/m² 4,2 °C 4,9 °C 4,8 km/h (1 Bft)
09.05.2017 00:59 4,9 °C 4,9 °C 95 % 1017,4 hPa 0,0 mm 0,3 km/h (0 Bft) S-SW 192 ° 0 min 0,000 mm 0,0 UV-I 0 W/m² 4,2 °C 4,9 °C 1,6 km/h (1 Bft)
09.05.2017 01:00 4,9 °C 4,9 °C 95 % 1017,3 hPa 0,0 mm 1,9 km/h (1 Bft) S-SW 192 ° 0 min 0,000 mm 0,0 UV-I 0 W/m² 4,2 °C 4,9 °C 3,2 km/h (1 Bft)
09.05.2017 01:01 4,9 °C 4,9 °C 95 % 1017,3 hPa 0,0 mm 2,3 km/h (1 Bft) S-SW 192 ° 0 min 0,000 mm 0,0 UV-I 0 W/m² 4,2 °C 4,9 °C 4,8 km/h (1 Bft)
09.05.2017 01:02 4,9 °C 4,9 °C 95 % 1017,3 hPa 0,0 mm 4,3 km/h (1 Bft) S-SW 193 ° 0 min 0,000 mm 0,0 UV-I 0 W/m² 4,2 °C 4,9 °C 4,8 km/h (1 Bft)
09.05.2017 01:03 4,9 °C 4,9 °C 95 % 1017,3 hPa 0,0 mm 3,4 km/h (1 Bft) S-SW 193 ° 0 min 0,000 mm 0,0 UV-I 0 W/m² 4,2 °C 4,9 °C 4,8 km/h (1 Bft)
09.05.2017 01:04 4,9 °C 4,9 °C 95 % 1017,3 hPa 0,0 mm 3,2 km/h (1 Bft) S-SW 193 ° 0 min 0,000 mm 0,0 UV-I 0 W/m² 4,2 °C 4,9 °C 4,8 km/h (1 Bft)
09.05.2017 01:05 4,9 °C 4,9 °C 95 % 1017,3 hPa 0,0 mm 2,9 km/h (1 Bft) S-SW 193 ° 0 min 0,000 mm 0,0 UV-I 0 W/m² 4,2 °C 4,9 °C 4,8 km/h (1 Bft)
09.05.2017 01:06 4,9 °C 4,9 °C 95 % 1017,3 hPa 0,0 mm 2,7 km/h (1 Bft) S-SW 195 ° 0 min 0,000 mm 0,0 UV-I 0 W/m² 4,2 °C 4,9 °C 4,8 km/h (1 Bft)
09.05.2017 01:07 4,9 °C 4,9 °C 95 % 1017,3 hPa 0,0 mm 1,0 km/h (0 Bft) S-SW 195 ° 0 min 0,000 mm 0,0 UV-I 0 W/m² 4,2 °C 4,9 °C 3,2 km/h (1 Bft)
09.05.2017 01:08 4,9 °C 4,9 °C 95 % 1017,3 hPa 0,0 mm 1,8 km/h (1 Bft) S-SW 195 ° 0 min 0,000 mm 0,0 UV-I 0 W/m² 4,2 °C 4,9 °C 3,2 km/h (1 Bft)
09.05.2017 01:09 4,9 °C 4,9 °C 95 % 1017,3 hPa 0,0 mm 2,1 km/h (1 Bft) S-SW 195 ° 0 min 0,000 mm 0,0 UV-I 0 W/m² 4,2 °C 4,9 °C 4,8 km/h (1 Bft)
09.05.2017 01:10 4,8 °C 4,9 °C 95 % 1017,3 hPa 0,0 mm 5,1 km/h (1 Bft) S-SW 203 ° 0 min 0,000 mm 0,0 UV-I 0 W/m² 4,1 °C 3,8 °C 6,4 km/h (2 Bft)
09.05.2017 01:11 4,9 °C 4,9 °C 95 % 1017,4 hPa 0,0 mm 4,7 km/h (1 Bft) S-SW 198 ° 0 min 0,000 mm 0,0 UV-I 0 W/m² 4,2 °C 4,1 °C 6,4 km/h (2 Bft)
09.05.2017 01:12 4,8 °C 4,9 °C 95 % 1017,3 hPa 0,0 mm 3,4 km/h (1 Bft) S-SW 198 ° 0 min 0,000 mm 0,0 UV-I 0 W/m² 4,1 °C 4,8 °C 4,8 km/h (1 Bft)
09.05.2017 01:13 4,8 °C 4,8 °C 95 % 1017,3 hPa 0,0 mm 0,6 km/h (0 Bft) S-SW 198 ° 0 min 0,000 mm 0,0 UV-I 0 W/m² 4,1 °C 4,8 °C 3,2 km/h (1 Bft)
09.05.2017 01:14 4,8 °C 4,8 °C 95 % 1017,3 hPa 0,0 mm 1,0 km/h (0 Bft) S-SW 198 ° 0 min 0,000 mm 0,0 UV-I 0 W/m² 4,1 °C 4,8 °C 1,6 km/h (1 Bft)
09.05.2017 01:15 4,8 °C 4,8 °C 95 % 1017,3 hPa 0,2 mm 1,5 km/h (1 Bft) S-SW 198 ° 0 min 0,000 mm 0,0 UV-I 0 W/m² 4,1 °C 4,8 °C 3,2 km/h (1 Bft)
09.05.2017 01:16 4,8 °C 4,8 °C 95 % 1017,3 hPa 0,0 mm 0,1 km/h (0 Bft) S-SW 198 ° 0 min 0,000 mm 0,0 UV-I 0 W/m² 4,1 °C 4,8 °C 1,6 km/h (1 Bft)
09.05.2017 01:17 4,8 °C 4,8 °C 95 % 1017,3 hPa 0,0 mm 0,4 km/h (0 Bft) S-SW 198 ° 0 min 0,000 mm 0,0 UV-I 0 W/m² 4,1 °C 4,8 °C 1,6 km/h (1 Bft)
09.05.2017 01:18 4,8 °C 4,8 °C 95 % 1017,3 hPa 0,0 mm 0,0 km/h (0 Bft) S-SW 198 ° 0 min 0,000 mm 0,0 UV-I 0 W/m² 4,1 °C 4,8 °C 0,0 km/h (0 Bft)
09.05.2017 01:19 4,8 °C 4,8 °C 94 % 1017,3 hPa 0,0 mm 1,2 km/h (1 Bft) S-SW 198 ° 0 min 0,000 mm 0,0 UV-I 0 W/m² 3,9 °C 4,8 °C 3,2 km/h (1 Bft)
09.05.2017 01:20 4,8 °C 4,8 °C 95 % 1017,3 hPa 0,0 mm 3,6 km/h (1 Bft) S-SW 192 ° 0 min 0,000 mm 0,0 UV-I 0 W/m² 4,1 °C 4,8 °C 6,4 km/h (2 Bft)
09.05.2017 01:21 4,8 °C 4,8 °C 94 % 1017,2 hPa 0,0 mm 3,6 km/h (1 Bft) S-SW 198 ° 0 min 0,000 mm 0,0 UV-I 0 W/m² 3,9 °C 4,8 °C 8,0 km/h (2 Bft)
09.05.2017 01:22 4,8 °C 4,8 °C 95 % 1017,3 hPa 0,0 mm 5,1 km/h (1 Bft) S-SW 199 ° 0 min 0,000 mm 0,0 UV-I 0 W/m² 4,1 °C 3,8 °C 8,0 km/h (2 Bft)
09.05.2017 01:23 4,8 °C 4,8 °C 95 % 1017,2 hPa 0,0 mm 4,2 km/h (1 Bft) S-SW 204 ° 0 min 0,000 mm 0,0 UV-I 0 W/m² 4,1 °C 4,8 °C 6,4 km/h (2 Bft)
09.05.2017 01:24 4,8 °C 4,8 °C 95 % 1017,2 hPa 0,0 mm 4,6 km/h (1 Bft) S-SW 193 ° 0 min 0,000 mm 0,0 UV-I 0 W/m² 4,1 °C 4,0 °C 6,4 km/h (2 Bft)
09.05.2017 01:25 4,8 °C 4,8 °C 94 % 1017,2 hPa 0,0 mm 4,7 km/h (1 Bft) S-SW 206 ° 0 min 0,000 mm 0,0 UV-I 0 W/m² 3,9 °C 4,0 °C 8,0 km/h (2 Bft)
09.05.2017 01:26 4,8 °C 4,8 °C 95 % 1017,2 hPa 0,0 mm 4,4 km/h (1 Bft) S-SW 205 ° 0 min 0,000 mm 0,0 UV-I 0 W/m² 4,1 °C 4,8 °C 6,4 km/h (2 Bft)
09.05.2017 01:27 4,8 °C 4,8 °C 94 % 1017,2 hPa 0,0 mm 3,4 km/h (1 Bft) S-SW 205 ° 0 min 0,000 mm 0,0 UV-I 0 W/m² 3,9 °C 4,8 °C 4,8 km/h (1 Bft)
09.05.2017 01:28 4,8 °C 4,8 °C 94 % 1017,2 hPa 0,0 mm 5,6 km/h (1 Bft) S-SW 205 ° 0 min 0,000 mm 0,0 UV-I 0 W/m² 3,9 °C 3,6 °C 8,0 km/h (2 Bft)
09.05.2017 01:29 4,8 °C 4,8 °C 94 % 1017,2 hPa 0,2 mm 4,5 km/h (1 Bft) S-SW 204 ° 0 min 0,000 mm 0,0 UV-I 0 W/m² 3,9 °C 4,8 °C 4,8 km/h (1 Bft)
09.05.2017 01:30 4,8 °C 4,8 °C 94 % 1017,2 hPa 0,0 mm 3,3 km/h (1 Bft) S-SW 209 ° 0 min 0,000 mm 0,0 UV-I 0 W/m² 3,9 °C 4,8 °C 4,8 km/h (1 Bft)
09.05.2017 01:31 4,8 °C 4,8 °C 94 % 1017,1 hPa 0,0 mm 2,3 km/h (1 Bft) S-SW 209 ° 0 min 0,000 mm 0,0 UV-I 0 W/m² 3,9 °C 4,8 °C 4,8 km/h (1 Bft)
09.05.2017 01:32 4,8 °C 4,8 °C 94 % 1017,2 hPa 0,0 mm 4,1 km/h (1 Bft) S-SW 207 ° 0 min 0,000 mm 0,0 UV-I 0 W/m² 3,9 °C 4,8 °C 8,0 km/h (2 Bft)
09.05.2017 01:33 4,8 °C 4,8 °C 94 % 1017,1 hPa 0,0 mm 2,6 km/h (1 Bft) S-SW 204 ° 0 min 0,000 mm 0,0 UV-I 0 W/m² 3,9 °C 4,8 °C 3,2 km/h (1 Bft)
09.05.2017 01:34 4,8 °C 4,8 °C 94 % 1017,1 hPa 0,0 mm 4,9 km/h (1 Bft) S-SW 198 ° 0 min 0,000 mm 0,0 UV-I 0 W/m² 3,9 °C 3,9 °C 8,0 km/h (2 Bft)
09.05.2017 01:35 4,8 °C 4,8 °C 94 % 1017,1 hPa 0,0 mm 5,5 km/h (1 Bft) S-SW 200 ° 0 min 0,000 mm 0,0 UV-I 0 W/m² 3,9 °C 3,7 °C 8,0 km/h (2 Bft)
09.05.2017 01:36 4,8 °C 4,8 °C 94 % 1017,1 hPa 0,0 mm 4,6 km/h (1 Bft) S-SW 205 ° 0 min 0,000 mm 0,0 UV-I 0 W/m² 3,9 °C 4,0 °C 8,0 km/h (2 Bft)
09.05.2017 01:37 4,8 °C 4,8 °C 94 % 1017,1 hPa 0,0 mm 1,7 km/h (1 Bft) S-SW 207 ° 0 min 0,000 mm 0,0 UV-I 0 W/m² 3,9 °C 4,8 °C 3,2 km/h (1 Bft)
09.05.2017 01:38 4,8 °C 4,8 °C 94 % 1017,0 hPa 0,0 mm 3,7 km/h (1 Bft) SW 217 ° 0 min 0,000 mm 0,0 UV-I 0 W/m² 3,9 °C 4,8 °C 6,4 km/h (2 Bft)
09.05.2017 01:39 4,8 °C 4,8 °C 94 % 1017,0 hPa 0,0 mm 2,8 km/h (1 Bft) S 190 ° 0 min 0,000 mm 0,0 UV-I 0 W/m² 3,9 °C 4,8 °C 6,4 km/h (2 Bft)
09.05.2017 01:40 4,8 °C 4,8 °C 94 % 1017,1 hPa 0,0 mm 3,4 km/h (1 Bft) S-SW 212 ° 0 min 0,000 mm 0,0 UV-I 0 W/m² 3,9 °C 4,8 °C 4,8 km/h (1 Bft)
09.05.2017 01:41 4,7 °C 4,8 °C 94 % 1017,1 hPa 0,0 mm 4,6 km/h (1 Bft) S-SW 207 ° 0 min 0,000 mm 0,0 UV-I 0 W/m² 3,8 °C 3,9 °C 8,0 km/h (2 Bft)
09.05.2017 01:42 4,7 °C 4,7 °C 94 % 1017,1 hPa 0,0 mm 4,4 km/h (1 Bft) S-SW 200 ° 0 min 0,000 mm 0,0 UV-I 0 W/m² 3,8 °C 4,7 °C 9,7 km/h (2 Bft)
09.05.2017 01:43 4,7 °C 4,7 °C 94 % 1017,0 hPa 0,0 mm 3,7 km/h (1 Bft) S-SW 207 ° 0 min 0,000 mm 0,0 UV-I 0 W/m² 3,8 °C 4,7 °C 8,0 km/h (2 Bft)
09.05.2017 01:44 4,7 °C 4,7 °C 94 % 1017,0 hPa 0,0 mm 3,7 km/h (1 Bft) S-SW 207 ° 0 min 0,000 mm 0,0 UV-I 0 W/m² 3,8 °C 4,7 °C 4,8 km/h (1 Bft)
09.05.2017 01:45 4,7 °C 4,7 °C 94 % 1017,0 hPa 0,0 mm 3,1 km/h (1 Bft) S-SW 207 ° 0 min 0,000 mm 0,0 UV-I 0 W/m² 3,8 °C 4,7 °C 4,8 km/h (1 Bft)
09.05.2017 01:46 4,7 °C 4,7 °C 94 % 1017,1 hPa 0,2 mm 3,0 km/h (1 Bft) W-SW 246 ° 0 min 0,000 mm 0,0 UV-I 0 W/m² 3,8 °C 4,7 °C 6,4 km/h (2 Bft)
09.05.2017 01:47 4,7 °C 4,7 °C 94 % 1017,0 hPa 0,0 mm 2,1 km/h (1 Bft) W-SW 238 ° 0 min 0,000 mm 0,0 UV-I 0 W/m² 3,8 °C 4,7 °C 3,2 km/h (1 Bft)
09.05.2017 01:48 4,6 °C 4,7 °C 94 % 1017,0 hPa 0,0 mm 3,2 km/h (1 Bft) SW 219 ° 0 min 0,000 mm 0,0 UV-I 0 W/m² 3,7 °C 4,6 °C 4,8 km/h (1 Bft)
09.05.2017 01:49 4,6 °C 4,7 °C 94 % 1017,1 hPa 0,0 mm 3,2 km/h (1 Bft) S-SW 210 ° 0 min 0,000 mm 0,0 UV-I 0 W/m² 3,7 °C 4,6 °C 4,8 km/h (1 Bft)
09.05.2017 01:50 4,6 °C 4,6 °C 94 % 1017,0 hPa 0,0 mm 0,7 km/h (0 Bft) S-SW 210 ° 0 min 0,000 mm 0,0 UV-I 0 W/m² 3,7 °C 4,6 °C 3,2 km/h (1 Bft)
09.05.2017 01:51 4,6 °C 4,6 °C 94 % 1017,0 hPa 0,0 mm 1,7 km/h (1 Bft) SW 215 ° 0 min 0,000 mm 0,0 UV-I 0 W/m² 3,7 °C 4,6 °C 4,8 km/h (1 Bft)
09.05.2017 01:52 4,6 °C 4,6 °C 94 % 1017,0 hPa 0,0 mm 2,0 km/h (1 Bft) SW 215 ° 0 min 0,000 mm 0,0 UV-I 0 W/m² 3,7 °C 4,6 °C 3,2 km/h (1 Bft)
09.05.2017 01:53 4,6 °C 4,6 °C 94 % 1017,0 hPa 0,0 mm 1,4 km/h (1 Bft) SW 215 ° 0 min 0,000 mm 0,0 UV-I 0 W/m² 3,7 °C 4,6 °C 3,2 km/h (1 Bft)
09.05.2017 01:54 4,6 °C 4,6 °C 94 % 1017,0 hPa 0,0 mm 2,0 km/h (1 Bft) SW 215 ° 0 min 0,000 mm 0,0 UV-I 0 W/m² 3,7 °C 4,6 °C 3,2 km/h (1 Bft)
09.05.2017 01:55 4,6 °C 4,6 °C 94 % 1017,0 hPa 0,0 mm 0,5 km/h (0 Bft) SW 215 ° 0 min 0,000 mm 0,0 UV-I 0 W/m² 3,7 °C 4,6 °C 1,6 km/h (1 Bft)
09.05.2017 01:56 4,6 °C 4,6 °C 94 % 1017,0 hPa 0,0 mm 0,5 km/h (0 Bft) SW 215 ° 0 min 0,000 mm 0,0 UV-I 0 W/m² 3,7 °C 4,6 °C 3,2 km/h (1 Bft)
09.05.2017 01:57 4,5 °C 4,6 °C 94 % 1017,0 hPa 0,0 mm 2,4 km/h (1 Bft) SW 215 ° 0 min 0,000 mm 0,0 UV-I 0 W/m² 3,6 °C 4,5 °C 3,2 km/h (1 Bft)
09.05.2017 01:58 4,5 °C 4,6 °C 94 % 1017,0 hPa 0,0 mm 1,7 km/h (1 Bft) SW 215 ° 0 min 0,000 mm 0,0 UV-I 0 W/m² 3,6 °C 4,5 °C 3,2 km/h (1 Bft)
09.05.2017 01:59 4,5 °C 4,6 °C 94 % 1017,0 hPa 0,0 mm 1,8 km/h (1 Bft) SW 215 ° 0 min 0,000 mm 0,0 UV-I 0 W/m² 3,6 °C 4,5 °C 3,2 km/h (1 Bft)
09.05.2017 02:00 4,5 °C 4,5 °C 95 % 1017,0 hPa 0,0 mm 1,6 km/h (1 Bft) SW 215 ° 0 min 0,000 mm 0,0 UV-I 0 W/m² 3,8 °C 4,5 °C 4,8 km/h (1 Bft)
09.05.2017 02:01 4,5 °C 4,5 °C 94 % 1017,0 hPa 0,0 mm 2,0 km/h (1 Bft) SW 215 ° 0 min 0,000 mm 0,0 UV-I 0 W/m² 3,6 °C 4,5 °C 4,8 km/h (1 Bft)
09.05.2017 02:02 4,5 °C 4,5 °C 95 % 1017,0 hPa 0,0 mm 2,0 km/h (1 Bft) S-SW 207 ° 0 min 0,000 mm 0,0 UV-I 0 W/m² 3,8 °C 4,5 °C 3,2 km/h (1 Bft)
09.05.2017 02:03 4,4 °C 4,5 °C 95 % 1016,9 hPa 0,2 mm 3,6 km/h (1 Bft) SW 219 ° 0 min 0,000 mm 0,0 UV-I 0 W/m² 3,7 °C 4,4 °C 6,4 km/h (2 Bft)
09.05.2017 02:04 4,5 °C 4,5 °C 94 % 1017,0 hPa 0,0 mm 4,1 km/h (1 Bft) S-SW 205 ° 0 min 0,000 mm 0,0 UV-I 0 W/m² 3,6 °C 4,5 °C 6,4 km/h (2 Bft)
09.05.2017 02:05 4,4 °C 4,5 °C 95 % 1017,0 hPa 0,0 mm 4,3 km/h (1 Bft) S-SO 148 ° 0 min 0,000 mm 0,0 UV-I 0 W/m² 3,7 °C 4,4 °C 8,0 km/h (2 Bft)
09.05.2017 02:06 4,5 °C 4,5 °C 95 % 1016,9 hPa 0,0 mm 4,9 km/h (1 Bft) SW 217 ° 0 min 0,000 mm 0,0 UV-I 0 W/m² 3,8 °C 3,6 °C 6,4 km/h (2 Bft)
09.05.2017 02:07 4,4 °C 4,5 °C 94 % 1016,9 hPa 0,0 mm 2,3 km/h (1 Bft) SW 216 ° 0 min 0,000 mm 0,0 UV-I 0 W/m² 3,5 °C 4,4 °C 8,0 km/h (2 Bft)
09.05.2017 02:08 4,4 °C 4,4 °C 95 % 1016,9 hPa 0,0 mm 4,2 km/h (1 Bft) SW 227 ° 0 min 0,000 mm 0,0 UV-I 0 W/m² 3,7 °C 4,4 °C 8,0 km/h (2 Bft)
09.05.2017 02:09 4,4 °C 4,4 °C 94 % 1016,9 hPa 0,0 mm 4,3 km/h (1 Bft) S 190 ° 0 min 0,000 mm 0,0 UV-I 0 W/m² 3,5 °C 4,4 °C 6,4 km/h (2 Bft)
09.05.2017 02:10 4,4 °C 4,4 °C 94 % 1016,9 hPa 0,0 mm 2,0 km/h (1 Bft) S 191 ° 0 min 0,000 mm 0,0 UV-I 0 W/m² 3,5 °C 4,4 °C 3,2 km/h (1 Bft)
09.05.2017 02:11 4,4 °C 4,4 °C 94 % 1016,9 hPa 0,0 mm 2,6 km/h (1 Bft) S-SW 194 ° 0 min 0,000 mm 0,0 UV-I 0 W/m² 3,5 °C 4,4 °C 4,8 km/h (1 Bft)
09.05.2017 02:12 4,4 °C 4,4 °C 94 % 1016,9 hPa 0,0 mm 2,8 km/h (1 Bft) S-SW 196 ° 0 min 0,000 mm 0,0 UV-I 0 W/m² 3,5 °C 4,4 °C 6,4 km/h (2 Bft)
09.05.2017 02:13 4,4 °C 4,4 °C 94 % 1017,0 hPa 0,0 mm 1,9 km/h (1 Bft) SW 236 ° 0 min 0,000 mm 0,0 UV-I 0 W/m² 3,5 °C 4,4 °C 4,8 km/h (1 Bft)
09.05.2017 02:14 4,4 °C 4,4 °C 94 % 1017,0 hPa 0,2 mm 3,2 km/h (1 Bft) W-SW 251 ° 0 min 0,000 mm 0,0 UV-I 0 W/m² 3,5 °C 4,4 °C 4,8 km/h (1 Bft)
09.05.2017 02:15 4,4 °C 4,4 °C 95 % 1017,1 hPa 0,0 mm 3,5 km/h (1 Bft) W-NW 290 ° 0 min 0,000 mm 0,0 UV-I 0 W/m² 3,7 °C 4,4 °C 4,8 km/h (1 Bft)
09.05.2017 02:16 4,5 °C 4,5 °C 95 % 1017,0 hPa 0,0 mm 2,7 km/h (1 Bft) W-NW 290 ° 0 min 0,000 mm 0,0 UV-I 0 W/m² 3,8 °C 4,5 °C 3,2 km/h (1 Bft)
09.05.2017 02:17 4,5 °C 4,5 °C 95 % 1017,0 hPa 0,0 mm 1,9 km/h (1 Bft) W-NW 290 ° 0 min 0,000 mm 0,0 UV-I 0 W/m² 3,8 °C 4,5 °C 3,2 km/h (1 Bft)
09.05.2017 02:18 4,5 °C 4,5 °C 95 % 1017,0 hPa 0,2 mm 1,9 km/h (1 Bft) W-NW 290 ° 0 min 0,000 mm 0,0 UV-I 0 W/m² 3,8 °C 4,5 °C 3,2 km/h (1 Bft)
09.05.2017 02:19 4,6 °C 4,6 °C 95 % 1017,0 hPa 0,0 mm 0,1 km/h (0 Bft) W-NW 290 ° 0 min 0,000 mm 0,0 UV-I 0 W/m² 3,9 °C 4,6 °C 1,6 km/h (1 Bft)
09.05.2017 02:20 4,6 °C 4,6 °C 95 % 1017,0 hPa 0,0 mm 0,0 km/h (0 Bft) W-NW 290 ° 0 min 0,000 mm 0,0 UV-I 0 W/m² 3,9 °C 4,6 °C 0,0 km/h (0 Bft)
09.05.2017 02:21 4,6 °C 4,6 °C 95 % 1017,0 hPa 0,0 mm 0,0 km/h (0 Bft) W-NW 290 ° 0 min 0,000 mm 0,0 UV-I 0 W/m² 3,9 °C 4,6 °C 0,0 km/h (0 Bft)
09.05.2017 02:22 4,6 °C 4,6 °C 95 % 1017,0 hPa 0,0 mm 0,0 km/h (0 Bft) W-NW 290 ° 0 min 0,000 mm 0,0 UV-I 0 W/m² 3,9 °C 4,6 °C 0,0 km/h (0 Bft)
09.05.2017 02:23 4,6 °C 4,6 °C 95 % 1017,0 hPa 0,0 mm 0,0 km/h (0 Bft) W-NW 290 ° 0 min 0,000 mm 0,0 UV-I 0 W/m² 3,9 °C 4,6 °C 0,0 km/h (0 Bft)
09.05.2017 02:24 4,6 °C 4,6 °C 95 % 1017,0 hPa 0,0 mm 0,0 km/h (0 Bft) W-NW 290 ° 0 min 0,000 mm 0,0 UV-I 0 W/m² 3,9 °C 4,6 °C 0,0 km/h (0 Bft)
09.05.2017 02:25 4,6 °C 4,6 °C 95 % 1016,9 hPa 0,0 mm 0,0 km/h (0 Bft) W-NW 290 ° 0 min 0,000 mm 0,0 UV-I 0 W/m² 3,9 °C 4,6 °C 0,0 km/h (0 Bft)
09.05.2017 02:26 4,6 °C 4,6 °C 95 % 1016,9 hPa 0,2 mm 0,0 km/h (0 Bft) W-NW 290 ° 0 min 0,000 mm 0,0 UV-I 0 W/m² 3,9 °C 4,6 °C 0,0 km/h (0 Bft)
09.05.2017 02:27 4,6 °C 4,6 °C 95 % 1016,9 hPa 0,0 mm 0,6 km/h (0 Bft) W-NW 290 ° 0 min 0,000 mm 0,0 UV-I 0 W/m² 3,9 °C 4,6 °C 3,2 km/h (1 Bft)
09.05.2017 02:28 4,6 °C 4,6 °C 95 % 1016,9 hPa 0,0 mm 0,1 km/h (0 Bft) W-NW 290 ° 0 min 0,000 mm 0,0 UV-I 0 W/m² 3,9 °C 4,6 °C 1,6 km/h (1 Bft)
09.05.2017 02:29 4,6 °C 4,6 °C 95 % 1016,9 hPa 0,0 mm 0,0 km/h (0 Bft) W-NW 290 ° 0 min 0,000 mm 0,0 UV-I 0 W/m² 3,9 °C 4,6 °C 0,0 km/h (0 Bft)
09.05.2017 02:30 4,6 °C 4,6 °C 95 % 1016,9 hPa 0,0 mm 0,0 km/h (0 Bft) W-NW 290 ° 0 min 0,000 mm 0,0 UV-I 0 W/m² 3,9 °C 4,6 °C 0,0 km/h (0 Bft)
09.05.2017 02:31 4,6 °C 4,6 °C 95 % 1016,9 hPa 0,2 mm 0,0 km/h (0 Bft) W-NW 290 ° 0 min 0,000 mm 0,0 UV-I 0 W/m² 3,9 °C 4,6 °C 0,0 km/h (0 Bft)
09.05.2017 02:32 4,6 °C 4,6 °C 95 % 1016,9 hPa 0,0 mm 0,0 km/h (0 Bft) W-NW 290 ° 0 min 0,000 mm 0,0 UV-I 0 W/m² 3,9 °C 4,6 °C 0,0 km/h (0 Bft)
09.05.2017 02:33 4,6 °C 4,6 °C 95 % 1016,9 hPa 0,0 mm 0,0 km/h (0 Bft) W-NW 290 ° 0 min 0,000 mm 0,0 UV-I 0 W/m² 3,9 °C 4,6 °C 0,0 km/h (0 Bft)
09.05.2017 02:34 4,6 °C 4,6 °C 95 % 1016,9 hPa 0,0 mm 0,0 km/h (0 Bft) W-NW 290 ° 0 min 0,000 mm 0,0 UV-I 0 W/m² 3,9 °C 4,6 °C 0,0 km/h (0 Bft)
09.05.2017 02:35 4,6 °C 4,6 °C 95 % 1016,9 hPa 0,0 mm 0,0 km/h (0 Bft) W-NW 290 ° 0 min 0,000 mm 0,0 UV-I 0 W/m² 3,9 °C 4,6 °C 0,0 km/h (0 Bft)
09.05.2017 02:36 4,6 °C 4,6 °C 95 % 1016,8 hPa 0,0 mm 0,0 km/h (0 Bft) W-NW 290 ° 0 min 0,000 mm 0,0 UV-I 0 W/m² 3,9 °C 4,6 °C 0,0 km/h (0 Bft)
09.05.2017 02:37 4,6 °C 4,6 °C 95 % 1016,8 hPa 0,0 mm 0,0 km/h (0 Bft) W-NW 290 ° 0 min 0,000 mm 0,0 UV-I 0 W/m² 3,9 °C 4,6 °C 0,0 km/h (0 Bft)
09.05.2017 02:38 4,6 °C 4,6 °C 95 % 1016,8 hPa 0,0 mm 0,0 km/h (0 Bft) W-NW 290 ° 0 min 0,000 mm 0,0 UV-I 0 W/m² 3,9 °C 4,6 °C 0,0 km/h (0 Bft)
09.05.2017 02:39 4,6 °C 4,6 °C 95 % 1016,8 hPa 0,0 mm 0,0 km/h (0 Bft) W-NW 290 ° 0 min 0,000 mm 0,0 UV-I 0 W/m² 3,9 °C 4,6 °C 0,0 km/h (0 Bft)
09.05.2017 02:40 4,6 °C 4,6 °C 95 % 1016,8 hPa 0,2 mm 0,0 km/h (0 Bft) W-NW 290 ° 0 min 0,000 mm 0,0 UV-I 0 W/m² 3,9 °C 4,6 °C 0,0 km/h (0 Bft)
09.05.2017 02:41 4,6 °C 4,6 °C 95 % 1016,8 hPa 0,0 mm 0,0 km/h (0 Bft) W-NW 290 ° 0 min 0,000 mm 0,0 UV-I 0 W/m² 3,9 °C 4,6 °C 0,0 km/h (0 Bft)
09.05.2017 02:42 4,6 °C 4,6 °C 95 % 1016,9 hPa 0,0 mm 0,0 km/h (0 Bft) W-NW 290 ° 0 min 0,000 mm 0,0 UV-I 0 W/m² 3,9 °C 4,6 °C 0,0 km/h (0 Bft)
09.05.2017 02:43 4,6 °C 4,6 °C 95 % 1016,8 hPa 0,0 mm 0,0 km/h (0 Bft) W-NW 290 ° 0 min 0,000 mm 0,0 UV-I 0 W/m² 3,9 °C 4,6 °C 0,0 km/h (0 Bft)
09.05.2017 02:44 4,6 °C 4,6 °C 95 % 1016,8 hPa 0,0 mm 0,0 km/h (0 Bft) W-NW 290 ° 0 min 0,000 mm 0,0 UV-I 0 W/m² 3,9 °C 4,6 °C 0,0 km/h (0 Bft)
09.05.2017 02:45 4,6 °C 4,6 °C 95 % 1016,8 hPa 0,0 mm 0,0 km/h (0 Bft) W-NW 290 ° 0 min 0,000 mm 0,0 UV-I 0 W/m² 3,9 °C 4,6 °C 0,0 km/h (0 Bft)
09.05.2017 02:46 4,6 °C 4,6 °C 95 % 1016,8 hPa 0,0 mm 0,0 km/h (0 Bft) W-NW 290 ° 0 min 0,000 mm 0,0 UV-I 0 W/m² 3,9 °C 4,6 °C 0,0 km/h (0 Bft)
09.05.2017 02:47 4,6 °C 4,6 °C 95 % 1016,8 hPa 0,2 mm 1,1 km/h (1 Bft) W-NW 290 ° 0 min 0,000 mm 0,0 UV-I 0 W/m² 3,9 °C 4,6 °C 3,2 km/h (1 Bft)
09.05.2017 02:48 4,6 °C 4,6 °C 95 % 1016,8 hPa 0,0 mm 1,3 km/h (1 Bft) W-NW 290 ° 0 min 0,000 mm 0,0 UV-I 0 W/m² 3,9 °C 4,6 °C 1,6 km/h (1 Bft)
09.05.2017 02:49 4,5 °C 4,6 °C 95 % 1016,8 hPa 0,0 mm 1,5 km/h (1 Bft) W-NW 290 ° 0 min 0,000 mm 0,0 UV-I 0 W/m² 3,8 °C 4,5 °C 3,2 km/h (1 Bft)
09.05.2017 02:50 4,4 °C 4,5 °C 95 % 1016,7 hPa 0,0 mm 1,4 km/h (1 Bft) W-NW 290 ° 0 min 0,000 mm 0,0 UV-I 0 W/m² 3,7 °C 4,4 °C 3,2 km/h (1 Bft)
09.05.2017 02:51 4,5 °C 4,5 °C 95 % 1016,8 hPa 0,0 mm 2,2 km/h (1 Bft) W 276 ° 0 min 0,000 mm 0,0 UV-I 0 W/m² 3,8 °C 4,5 °C 3,2 km/h (1 Bft)
09.05.2017 02:52 4,4 °C 4,5 °C 95 % 1016,8 hPa 0,0 mm 1,0 km/h (0 Bft) W 276 ° 0 min 0,000 mm 0,0 UV-I 0 W/m² 3,7 °C 4,4 °C 3,2 km/h (1 Bft)
09.05.2017 02:53 4,4 °C 4,4 °C 95 % 1016,8 hPa 0,0 mm 1,0 km/h (0 Bft) W 275 ° 0 min 0,000 mm 0,0 UV-I 0 W/m² 3,7 °C 4,4 °C 3,2 km/h (1 Bft)
09.05.2017 02:54 4,4 °C 4,4 °C 95 % 1016,8 hPa 0,0 mm 0,8 km/h (0 Bft) W 275 ° 0 min 0,000 mm 0,0 UV-I 0 W/m² 3,7 °C 4,4 °C 1,6 km/h (1 Bft)
09.05.2017 02:55 4,4 °C 4,4 °C 95 % 1016,7 hPa 0,0 mm 1,6 km/h (1 Bft) W 275 ° 0 min 0,000 mm 0,0 UV-I 0 W/m² 3,7 °C 4,4 °C 3,2 km/h (1 Bft)
09.05.2017 02:56 4,4 °C 4,4 °C 95 % 1016,7 hPa 0,0 mm 0,2 km/h (0 Bft) W 275 ° 0 min 0,000 mm 0,0 UV-I 0 W/m² 3,7 °C 4,4 °C 1,6 km/h (1 Bft)
09.05.2017 02:57 4,4 °C 4,4 °C 95 % 1016,7 hPa 0,0 mm 0,9 km/h (0 Bft) W 275 ° 0 min 0,000 mm 0,0 UV-I 0 W/m² 3,7 °C 4,4 °C 1,6 km/h (1 Bft)
09.05.2017 02:58 4,3 °C 4,4 °C 95 % 1016,7 hPa 0,2 mm 0,6 km/h (0 Bft) W 275 ° 0 min 0,000 mm 0,0 UV-I 0 W/m² 3,6 °C 4,3 °C 1,6 km/h (1 Bft)
09.05.2017 02:59 4,3 °C 4,4 °C 95 % 1016,7 hPa 0,0 mm 0,0 km/h (0 Bft) W 275 ° 0 min 0,000 mm 0,0 UV-I 0 W/m² 3,6 °C 4,3 °C 0,0 km/h (0 Bft)
09.05.2017 03:00 4,3 °C 4,3 °C 95 % 1016,7 hPa 0,0 mm 0,3 km/h (0 Bft) W 275 ° 0 min 0,000 mm 0,0 UV-I 0 W/m² 3,6 °C 4,3 °C 1,6 km/h (1 Bft)
09.05.2017 03:01 4,3 °C 4,3 °C 95 % 1016,7 hPa 0,0 mm 2,5 km/h (1 Bft) W 274 ° 0 min 0,000 mm 0,0 UV-I 0 W/m² 3,6 °C 4,3 °C 3,2 km/h (1 Bft)
09.05.2017 03:02 4,3 °C 4,3 °C 95 % 1016,6 hPa 0,0 mm 1,9 km/h (1 Bft) W 274 ° 0 min 0,000 mm 0,0 UV-I 0 W/m² 3,6 °C 4,3 °C 3,2 km/h (1 Bft)
09.05.2017 03:03 4,3 °C 4,3 °C 95 % 1016,6 hPa 0,0 mm 2,9 km/h (1 Bft) W-SW 244 ° 0 min 0,000 mm 0,0 UV-I 0 W/m² 3,6 °C 4,3 °C 3,2 km/h (1 Bft)
09.05.2017 03:04 4,3 °C 4,3 °C 95 % 1016,7 hPa 0,0 mm 1,2 km/h (1 Bft) W-SW 244 ° 0 min 0,000 mm 0,0 UV-I 0 W/m² 3,6 °C 4,3 °C 3,2 km/h (1 Bft)
09.05.2017 03:05 4,3 °C 4,3 °C 95 % 1016,7 hPa 0,0 mm 3,4 km/h (1 Bft) W-SW 242 ° 0 min 0,000 mm 0,0 UV-I 0 W/m² 3,6 °C 4,3 °C 4,8 km/h (1 Bft)
09.05.2017 03:06 4,3 °C 4,3 °C 95 % 1016,7 hPa 0,0 mm 1,8 km/h (1 Bft) W-SW 242 ° 0 min 0,000 mm 0,0 UV-I 0 W/m² 3,6 °C 4,3 °C 4,8 km/h (1 Bft)
09.05.2017 03:07 4,3 °C 4,3 °C 95 % 1016,7 hPa 0,2 mm 0,6 km/h (0 Bft) W-SW 242 ° 0 min 0,000 mm 0,0 UV-I 0 W/m² 3,6 °C 4,3 °C 3,2 km/h (1 Bft)
09.05.2017 03:08 4,3 °C 4,3 °C 95 % 1016,7 hPa 0,0 mm 2,6 km/h (1 Bft) S-SW 196 ° 0 min 0,000 mm 0,0 UV-I 0 W/m² 3,6 °C 4,3 °C 4,8 km/h (1 Bft)
09.05.2017 03:09 4,3 °C 4,3 °C 95 % 1016,7 hPa 0,0 mm 3,8 km/h (1 Bft) S 180 ° 0 min 0,000 mm 0,0 UV-I 0 W/m² 3,6 °C 4,3 °C 6,4 km/h (2 Bft)
09.05.2017 03:10 4,3 °C 4,3 °C 95 % 1016,6 hPa 0,0 mm 4,8 km/h (1 Bft) S 190 ° 0 min 0,000 mm 0,0 UV-I 0 W/m² 3,6 °C 3,4 °C 8,0 km/h (2 Bft)
09.05.2017 03:11 4,3 °C 4,3 °C 95 % 1016,6 hPa 0,0 mm 3,2 km/h (1 Bft) S 190 ° 0 min 0,000 mm 0,0 UV-I 0 W/m² 3,6 °C 4,3 °C 4,8 km/h (1 Bft)
09.05.2017 03:12 4,3 °C 4,3 °C 95 % 1016,6 hPa 0,0 mm 2,1 km/h (1 Bft) S 190 ° 0 min 0,000 mm 0,0 UV-I 0 W/m² 3,6 °C 4,3 °C 3,2 km/h (1 Bft)
09.05.2017 03:13 4,3 °C 4,3 °C 95 % 1016,6 hPa 0,0 mm 3,2 km/h (1 Bft) S-SW 192 ° 0 min 0,000 mm 0,0 UV-I 0 W/m² 3,6 °C 4,3 °C 4,8 km/h (1 Bft)
09.05.2017 03:14 4,3 °C 4,3 °C 95 % 1016,6 hPa 0,0 mm 0,6 km/h (0 Bft) S-SW 192 ° 0 min 0,000 mm 0,0 UV-I 0 W/m² 3,6 °C 4,3 °C 3,2 km/h (1 Bft)
09.05.2017 03:15 4,3 °C 4,3 °C 95 % 1016,6 hPa 0,0 mm 2,7 km/h (1 Bft) S-SW 192 ° 0 min 0,000 mm 0,0 UV-I 0 W/m² 3,6 °C 4,3 °C 4,8 km/h (1 Bft)
09.05.2017 03:16 4,2 °C 4,3 °C 95 % 1016,6 hPa 0,0 mm 0,1 km/h (0 Bft) S-SW 192 ° 0 min 0,000 mm 0,0 UV-I 0 W/m² 3,5 °C 4,2 °C 1,6 km/h (1 Bft)
09.05.2017 03:17 4,2 °C 4,2 °C 95 % 1016,6 hPa 0,2 mm 0,2 km/h (0 Bft) S-SW 192 ° 0 min 0,000 mm 0,0 UV-I 0 W/m² 3,5 °C 4,2 °C 1,6 km/h (1 Bft)
09.05.2017 03:18 4,2 °C 4,3 °C 95 % 1016,7 hPa 0,0 mm 0,5 km/h (0 Bft) S-SW 192 ° 0 min 0,000 mm 0,0 UV-I 0 W/m² 3,5 °C 4,2 °C 1,6 km/h (1 Bft)
09.05.2017 03:19 4,2 °C 4,2 °C 95 % 1016,6 hPa 0,0 mm 0,3 km/h (0 Bft) S-SW 192 ° 0 min 0,000 mm 0,0 UV-I 0 W/m² 3,5 °C 4,2 °C 1,6 km/h (1 Bft)
09.05.2017 03:20 4,2 °C 4,2 °C 95 % 1016,6 hPa 0,0 mm 0,0 km/h (0 Bft) S-SW 192 ° 0 min 0,000 mm 0,0 UV-I 0 W/m² 3,5 °C 4,2 °C 0,0 km/h (0 Bft)
09.05.2017 03:21 4,3 °C 4,3 °C 95 % 1016,6 hPa 0,0 mm 0,0 km/h (0 Bft) S-SW 192 ° 0 min 0,000 mm 0,0 UV-I 0 W/m² 3,6 °C 4,3 °C 0,0 km/h (0 Bft)
09.05.2017 03:22 4,2 °C 4,3 °C 95 % 1016,6 hPa 0,0 mm 0,1 km/h (0 Bft) S-SW 192 ° 0 min 0,000 mm 0,0 UV-I 0 W/m² 3,5 °C 4,2 °C 1,6 km/h (1 Bft)
09.05.2017 03:23 4,2 °C 4,2 °C 95 % 1016,6 hPa 0,0 mm 2,9 km/h (1 Bft) S-SW 192 ° 0 min 0,000 mm 0,0 UV-I 0 W/m² 3,5 °C 4,2 °C 6,4 km/h (2 Bft)
09.05.2017 03:24 4,2 °C 4,2 °C 95 % 1016,6 hPa 0,0 mm 3,6 km/h (1 Bft) S-SW 192 ° 0 min 0,000 mm 0,0 UV-I 0 W/m² 3,5 °C 4,2 °C 6,4 km/h (2 Bft)
09.05.2017 03:25 4,2 °C 4,2 °C 95 % 1016,6 hPa 0,0 mm 2,7 km/h (1 Bft) S-SW 192 ° 0 min 0,000 mm 0,0 UV-I 0 W/m² 3,5 °C 4,2 °C 4,8 km/h (1 Bft)
09.05.2017 03:26 4,2 °C 4,2 °C 95 % 1016,6 hPa 0,0 mm 1,3 km/h (1 Bft) S-SW 199 ° 0 min 0,000 mm 0,0 UV-I 0 W/m² 3,5 °C 4,2 °C 4,8 km/h (1 Bft)
09.05.2017 03:27 4,2 °C 4,2 °C 95 % 1016,6 hPa 0,0 mm 2,1 km/h (1 Bft) S-SW 199 ° 0 min 0,000 mm 0,0 UV-I 0 W/m² 3,5 °C 4,2 °C 3,2 km/h (1 Bft)
09.05.2017 03:28 4,2 °C 4,2 °C 95 % 1016,6 hPa 0,0 mm 0,7 km/h (0 Bft) S-SW 199 ° 0 min 0,000 mm 0,0 UV-I 0 W/m² 3,5 °C 4,2 °C 1,6 km/h (1 Bft)
09.05.2017 03:29 4,2 °C 4,2 °C 95 % 1016,6 hPa 0,0 mm 1,5 km/h (1 Bft) S-SW 200 ° 0 min 0,000 mm 0,0 UV-I 0 W/m² 3,5 °C 4,2 °C 3,2 km/h (1 Bft)
09.05.2017 03:30 4,2 °C 4,2 °C 95 % 1016,5 hPa 0,0 mm 4,2 km/h (1 Bft) W-SW 251 ° 0 min 0,000 mm 0,0 UV-I 0 W/m² 3,5 °C 4,2 °C 4,8 km/h (1 Bft)
09.05.2017 03:31 4,2 °C 4,2 °C 95 % 1016,5 hPa 0,0 mm 2,7 km/h (1 Bft) W-SW 251 ° 0 min 0,000 mm 0,0 UV-I 0 W/m² 3,5 °C 4,2 °C 4,8 km/h (1 Bft)
09.05.2017 03:32 4,2 °C 4,2 °C 95 % 1016,6 hPa 0,0 mm 3,5 km/h (1 Bft) W-SW 241 ° 0 min 0,000 mm 0,0 UV-I 0 W/m² 3,5 °C 4,2 °C 6,4 km/h (2 Bft)
09.05.2017 03:33 4,2 °C 4,2 °C 95 % 1016,6 hPa 0,0 mm 1,5 km/h (1 Bft) W-SW 241 ° 0 min 0,000 mm 0,0 UV-I 0 W/m² 3,5 °C 4,2 °C 3,2 km/h (1 Bft)
09.05.2017 03:34 4,2 °C 4,2 °C 95 % 1016,6 hPa 0,0 mm 0,6 km/h (0 Bft) W-SW 241 ° 0 min 0,000 mm 0,0 UV-I 0 W/m² 3,5 °C 4,2 °C 1,6 km/h (1 Bft)
09.05.2017 03:35 4,2 °C 4,2 °C 95 % 1016,6 hPa 0,0 mm 0,9 km/h (0 Bft) SW 235 ° 0 min 0,000 mm 0,0 UV-I 0 W/m² 3,5 °C 4,2 °C 3,2 km/h (1 Bft)
09.05.2017 03:36 4,2 °C 4,2 °C 95 % 1016,6 hPa 0,0 mm 1,1 km/h (1 Bft) SW 235 ° 0 min 0,000 mm 0,0 UV-I 0 W/m² 3,5 °C 4,2 °C 1,6 km/h (1 Bft)
09.05.2017 03:37 4,2 °C 4,2 °C 95 % 1016,6 hPa 0,2 mm 0,0 km/h (0 Bft) SW 235 ° 0 min 0,000 mm 0,0 UV-I 0 W/m² 3,5 °C 4,2 °C 0,0 km/h (0 Bft)
09.05.2017 03:38 4,3 °C 4,3 °C 95 % 1016,6 hPa 0,0 mm 1,9 km/h (1 Bft) SW 235 ° 0 min 0,000 mm 0,0 UV-I 0 W/m² 3,6 °C 4,3 °C 3,2 km/h (1 Bft)
09.05.2017 03:39 4,2 °C 4,3 °C 95 % 1016,6 hPa 0,0 mm 0,8 km/h (0 Bft) SW 235 ° 0 min 0,000 mm 0,0 UV-I 0 W/m² 3,5 °C 4,2 °C 3,2 km/h (1 Bft)
09.05.2017 03:40 4,2 °C 4,2 °C 95 % 1016,6 hPa 0,0 mm 0,0 km/h (0 Bft) SW 235 ° 0 min 0,000 mm 0,0 UV-I 0 W/m² 3,5 °C 4,2 °C 0,0 km/h (0 Bft)
09.05.2017 03:41 4,3 °C 4,3 °C 95 % 1016,6 hPa 0,0 mm 0,0 km/h (0 Bft) SW 235 ° 0 min 0,000 mm 0,0 UV-I 0 W/m² 3,6 °C 4,3 °C 0,0 km/h (0 Bft)
09.05.2017 03:42 4,3 °C 4,3 °C 95 % 1016,6 hPa 0,0 mm 0,0 km/h (0 Bft) SW 235 ° 0 min 0,000 mm 0,0 UV-I 0 W/m² 3,6 °C 4,3 °C 0,0 km/h (0 Bft)
09.05.2017 03:43 4,3 °C 4,3 °C 95 % 1016,6 hPa 0,0 mm 1,5 km/h (1 Bft) SW 235 ° 0 min 0,000 mm 0,0 UV-I 0 W/m² 3,6 °C 4,3 °C 3,2 km/h (1 Bft)
09.05.2017 03:44 4,3 °C 4,3 °C 95 % 1016,6 hPa 0,0 mm 2,9 km/h (1 Bft) N 355 ° 0 min 0,000 mm 0,0 UV-I 0 W/m² 3,6 °C 4,3 °C 4,8 km/h (1 Bft)
09.05.2017 03:45 4,3 °C 4,3 °C 95 % 1016,7 hPa 0,0 mm 5,0 km/h (1 Bft) N-NO 17 ° 0 min 0,000 mm 0,0 UV-I 0 W/m² 3,6 °C 3,3 °C 6,4 km/h (2 Bft)
09.05.2017 03:46 4,3 °C 4,3 °C 95 % 1016,6 hPa 0,0 mm 4,4 km/h (1 Bft) N-NO 15 ° 0 min 0,000 mm 0,0 UV-I 0 W/m² 3,6 °C 4,3 °C 8,0 km/h (2 Bft)
09.05.2017 03:47 4,2 °C 4,3 °C 95 % 1016,6 hPa 0,0 mm 6,2 km/h (2 Bft) N-NO 19 ° 0 min 0,000 mm 0,0 UV-I 0 W/m² 3,5 °C 2,7 °C 9,7 km/h (2 Bft)
09.05.2017 03:48 4,1 °C 4,2 °C 95 % 1016,7 hPa 0,2 mm 5,6 km/h (1 Bft) N-NO 23 ° 0 min 0,000 mm 0,0 UV-I 0 W/m² 3,4 °C 2,8 °C 8,0 km/h (2 Bft)
09.05.2017 03:49 4,1 °C 4,1 °C 94 % 1016,7 hPa 0,0 mm 3,8 km/h (1 Bft) N 5 ° 0 min 0,000 mm 0,0 UV-I 0 W/m² 3,2 °C 4,1 °C 4,8 km/h (1 Bft)
09.05.2017 03:50 4,0 °C 4,1 °C 94 % 1016,6 hPa 0,0 mm 4,2 km/h (1 Bft) NW 319 ° 0 min 0,000 mm 0,0 UV-I 0 W/m² 3,1 °C 4,0 °C 6,4 km/h (2 Bft)
09.05.2017 03:51 3,9 °C 4,0 °C 95 % 1016,6 hPa 0,0 mm 4,7 km/h (1 Bft) NW 321 ° 0 min 0,000 mm 0,0 UV-I 0 W/m² 3,2 °C 3,0 °C 8,0 km/h (2 Bft)
09.05.2017 03:52 3,9 °C 3,9 °C 95 % 1016,6 hPa 0,0 mm 3,8 km/h (1 Bft) NW 325 ° 0 min 0,000 mm 0,0 UV-I 0 W/m² 3,2 °C 3,9 °C 6,4 km/h (2 Bft)
09.05.2017 03:53 3,9 °C 3,9 °C 95 % 1016,6 hPa 0,0 mm 3,4 km/h (1 Bft) N 10 ° 0 min 0,000 mm 0,0 UV-I 0 W/m² 3,2 °C 3,9 °C 4,8 km/h (1 Bft)
09.05.2017 03:54 3,9 °C 3,9 °C 95 % 1016,6 hPa 0,0 mm 3,2 km/h (1 Bft) NW 310 ° 0 min 0,000 mm 0,0 UV-I 0 W/m² 3,2 °C 3,9 °C 4,8 km/h (1 Bft)
09.05.2017 03:55 3,9 °C 3,9 °C 95 % 1016,6 hPa 0,0 mm 0,5 km/h (0 Bft) NW 310 ° 0 min 0,000 mm 0,0 UV-I 0 W/m² 3,2 °C 3,9 °C 1,6 km/h (1 Bft)
09.05.2017 03:56 3,8 °C 3,9 °C 94 % 1016,7 hPa 0,2 mm 2,8 km/h (1 Bft) NW 310 ° 0 min 0,000 mm 0,0 UV-I 0 W/m² 2,9 °C 3,8 °C 3,2 km/h (1 Bft)
09.05.2017 03:57 3,8 °C 3,8 °C 94 % 1016,6 hPa 0,0 mm 0,9 km/h (0 Bft) NW 310 ° 0 min 0,000 mm 0,0 UV-I 0 W/m² 2,9 °C 3,8 °C 1,6 km/h (1 Bft)
09.05.2017 03:58 3,8 °C 3,8 °C 95 % 1016,6 hPa 0,0 mm 3,4 km/h (1 Bft) NW 320 ° 0 min 0,000 mm 0,0 UV-I 0 W/m² 3,1 °C 3,8 °C 4,8 km/h (1 Bft)
09.05.2017 03:59 3,7 °C 3,8 °C 95 % 1016,6 hPa 0,0 mm 2,6 km/h (1 Bft) N 11 ° 0 min 0,000 mm 0,0 UV-I 0 W/m² 3,0 °C 3,7 °C 4,8 km/h (1 Bft)
09.05.2017 04:00 3,7 °C 3,8 °C 95 % 1016,6 hPa 0,0 mm 4,1 km/h (1 Bft) N-NW 327 ° 0 min 0,000 mm 0,0 UV-I 0 W/m² 3,0 °C 3,7 °C 6,4 km/h (2 Bft)
09.05.2017 04:01 3,7 °C 3,7 °C 95 % 1016,6 hPa 0,0 mm 3,4 km/h (1 Bft) N 355 ° 0 min 0,000 mm 0,0 UV-I 0 W/m² 3,0 °C 3,7 °C 4,8 km/h (1 Bft)
09.05.2017 04:02 3,7 °C 3,7 °C 95 % 1016,6 hPa 0,0 mm 2,6 km/h (1 Bft) N 355 ° 0 min 0,000 mm 0,0 UV-I 0 W/m² 3,0 °C 3,7 °C 4,8 km/h (1 Bft)
09.05.2017 04:03 3,7 °C 3,7 °C 95 % 1016,6 hPa 0,2 mm 3,1 km/h (1 Bft) N 355 ° 0 min 0,000 mm 0,0 UV-I 0 W/m² 3,0 °C 3,7 °C 4,8 km/h (1 Bft)
09.05.2017 04:04 3,7 °C 3,7 °C 95 % 1016,6 hPa 0,0 mm 1,6 km/h (1 Bft) N 355 ° 0 min 0,000 mm 0,0 UV-I 0 W/m² 3,0 °C 3,7 °C 3,2 km/h (1 Bft)
09.05.2017 04:05 3,7 °C 3,7 °C 95 % 1016,6 hPa 0,0 mm 1,2 km/h (1 Bft) N 355 ° 0 min 0,000 mm 0,0 UV-I 0 W/m² 3,0 °C 3,7 °C 1,6 km/h (1 Bft)
09.05.2017 04:06 3,7 °C 3,7 °C 95 % 1016,6 hPa 0,0 mm 0,0 km/h (0 Bft) N 355 ° 0 min 0,000 mm 0,0 UV-I 0 W/m² 3,0 °C 3,7 °C 0,0 km/h (0 Bft)
09.05.2017 04:07 3,8 °C 3,8 °C 95 % 1016,7 hPa 0,0 mm 1,3 km/h (1 Bft) NW 304 ° 0 min 0,000 mm 0,0 UV-I 0 W/m² 3,1 °C 3,8 °C 4,8 km/h (1 Bft)
09.05.2017 04:08 3,8 °C 3,8 °C 95 % 1016,7 hPa 0,0 mm 3,4 km/h (1 Bft) W-NW 288 ° 0 min 0,000 mm 0,0 UV-I 0 W/m² 3,1 °C 3,8 °C 6,4 km/h (2 Bft)
09.05.2017 04:09 3,8 °C 3,8 °C 95 % 1016,7 hPa 0,0 mm 3,2 km/h (1 Bft) W-NW 288 ° 0 min 0,000 mm 0,0 UV-I 0 W/m² 3,1 °C 3,8 °C 4,8 km/h (1 Bft)
09.05.2017 04:10 3,7 °C 3,8 °C 95 % 1016,7 hPa 0,0 mm 3,9 km/h (1 Bft) W-NW 288 ° 0 min 0,000 mm 0,0 UV-I 0 W/m² 3,0 °C 3,7 °C 4,8 km/h (1 Bft)
09.05.2017 04:11 3,7 °C 3,7 °C 95 % 1016,7 hPa 0,0 mm 4,5 km/h (1 Bft) NW 326 ° 0 min 0,000 mm 0,0 UV-I 0 W/m² 3,0 °C 3,7 °C 6,4 km/h (2 Bft)
09.05.2017 04:12 3,7 °C 3,7 °C 95 % 1016,7 hPa 0,0 mm 1,5 km/h (1 Bft) NW 325 ° 0 min 0,000 mm 0,0 UV-I 0 W/m² 3,0 °C 3,7 °C 3,2 km/h (1 Bft)
09.05.2017 04:13 3,6 °C 3,7 °C 95 % 1016,7 hPa 0,0 mm 4,7 km/h (1 Bft) W-NW 296 ° 0 min 0,000 mm 0,0 UV-I 0 W/m² 2,9 °C 2,6 °C 6,4 km/h (2 Bft)
09.05.2017 04:14 3,6 °C 3,7 °C 95 % 1016,7 hPa 0,0 mm 2,3 km/h (1 Bft) W-NW 296 ° 0 min 0,000 mm 0,0 UV-I 0 W/m² 2,9 °C 3,6 °C 4,8 km/h (1 Bft)
09.05.2017 04:15 3,6 °C 3,7 °C 95 % 1016,7 hPa 0,0 mm 0,4 km/h (0 Bft) W-NW 296 ° 0 min 0,000 mm 0,0 UV-I 0 W/m² 2,9 °C 3,6 °C 1,6 km/h (1 Bft)
09.05.2017 04:16 3,6 °C 3,6 °C 95 % 1016,7 hPa 0,2 mm 5,9 km/h (2 Bft) W 271 ° 0 min 0,000 mm 0,0 UV-I 0 W/m² 2,9 °C 2,1 °C 11,3 km/h (2 Bft)
09.05.2017 04:17 3,6 °C 3,6 °C 95 % 1016,7 hPa 0,0 mm 3,6 km/h (1 Bft) W-NW 291 ° 0 min 0,000 mm 0,0 UV-I 0 W/m² 2,9 °C 3,6 °C 4,8 km/h (1 Bft)
09.05.2017 04:18 3,6 °C 3,6 °C 95 % 1016,7 hPa 0,0 mm 5,7 km/h (1 Bft) W-NW 282 ° 0 min 0,000 mm 0,0 UV-I 0 W/m² 2,9 °C 2,2 °C 6,4 km/h (2 Bft)
09.05.2017 04:19 3,5 °C 3,6 °C 95 % 1016,7 hPa 0,0 mm 2,2 km/h (1 Bft) W-NW 301 ° 0 min 0,000 mm 0,0 UV-I 0 W/m² 2,8 °C 3,5 °C 6,4 km/h (2 Bft)
09.05.2017 04:20 3,4 °C 3,5 °C 95 % 1016,7 hPa 0,0 mm 3,4 km/h (1 Bft) W-NW 294 ° 0 min 0,000 mm 0,0 UV-I 0 W/m² 2,7 °C 3,4 °C 4,8 km/h (1 Bft)
09.05.2017 04:21 3,4 °C 3,5 °C 95 % 1016,7 hPa 0,0 mm 3,4 km/h (1 Bft) NW 306 ° 0 min 0,000 mm 0,0 UV-I 0 W/m² 2,7 °C 3,4 °C 6,4 km/h (2 Bft)
09.05.2017 04:22 3,4 °C 3,4 °C 95 % 1016,8 hPa 0,0 mm 3,0 km/h (1 Bft) NW 326 ° 0 min 0,000 mm 0,0 UV-I 0 W/m² 2,7 °C 3,4 °C 4,8 km/h (1 Bft)
09.05.2017 04:23 3,4 °C 3,4 °C 95 % 1016,8 hPa 0,0 mm 2,2 km/h (1 Bft) NW 326 ° 0 min 0,000 mm 0,0 UV-I 0 W/m² 2,7 °C 3,4 °C 3,2 km/h (1 Bft)
09.05.2017 04:24 3,4 °C 3,4 °C 95 % 1016,8 hPa 0,0 mm 0,0 km/h (0 Bft) NW 326 ° 0 min 0,000 mm 0,0 UV-I 0 W/m² 2,7 °C 3,4 °C 0,0 km/h (0 Bft)
09.05.2017 04:25 3,4 °C 3,4 °C 95 % 1016,7 hPa 0,0 mm 2,2 km/h (1 Bft) NW 317 ° 0 min 0,000 mm 0,0 UV-I 0 W/m² 2,7 °C 3,4 °C 3,2 km/h (1 Bft)
09.05.2017 04:26 3,3 °C 3,4 °C 95 % 1016,7 hPa 0,0 mm 2,4 km/h (1 Bft) NW 317 ° 0 min 0,000 mm 0,0 UV-I 0 W/m² 2,6 °C 3,3 °C 3,2 km/h (1 Bft)
09.05.2017 04:27 3,4 °C 3,4 °C 95 % 1016,7 hPa 0,0 mm 2,5 km/h (1 Bft) NW 317 ° 0 min 0,000 mm 0,0 UV-I 0 W/m² 2,7 °C 3,4 °C 3,2 km/h (1 Bft)
09.05.2017 04:28 3,3 °C 3,4 °C 95 % 1016,8 hPa 0,0 mm 3,3 km/h (1 Bft) NW 317 ° 0 min 0,000 mm 0,0 UV-I 0 W/m² 2,6 °C 3,3 °C 4,8 km/h (1 Bft)
09.05.2017 04:29 3,3 °C 3,3 °C 95 % 1016,7 hPa 0,0 mm 2,5 km/h (1 Bft) NW 317 ° 0 min 0,000 mm 0,0 UV-I 0 W/m² 2,6 °C 3,3 °C 3,2 km/h (1 Bft)
09.05.2017 04:30 3,3 °C 3,3 °C 95 % 1016,7 hPa 0,2 mm 2,3 km/h (1 Bft) NW 317 ° 0 min 0,000 mm 0,0 UV-I 0 W/m² 2,6 °C 3,3 °C 3,2 km/h (1 Bft)
09.05.2017 04:31 3,3 °C 3,3 °C 95 % 1016,7 hPa 0,0 mm 0,8 km/h (0 Bft) NW 317 ° 0 min 0,000 mm 0,0 UV-I 0 W/m² 2,6 °C 3,3 °C 1,6 km/h (1 Bft)
09.05.2017 04:32 3,3 °C 3,3 °C 95 % 1016,8 hPa 0,0 mm 0,9 km/h (0 Bft) NW 317 ° 0 min 0,000 mm 0,0 UV-I 0 W/m² 2,6 °C 3,3 °C 1,6 km/h (1 Bft)
09.05.2017 04:33 3,3 °C 3,3 °C 95 % 1016,8 hPa 0,0 mm 0,1 km/h (0 Bft) NW 317 ° 0 min 0,000 mm 0,0 UV-I 0 W/m² 2,6 °C 3,3 °C 1,6 km/h (1 Bft)
09.05.2017 04:34 3,3 °C 3,3 °C 95 % 1016,8 hPa 0,0 mm 1,3 km/h (1 Bft) NW 317 ° 0 min 0,000 mm 0,0 UV-I 0 W/m² 2,6 °C 3,3 °C 3,2 km/h (1 Bft)
09.05.2017 04:35 3,3 °C 3,3 °C 95 % 1016,7 hPa 0,0 mm 1,9 km/h (1 Bft) NW 317 ° 0 min 0,000 mm 0,0 UV-I 0 W/m² 2,6 °C 3,3 °C 3,2 km/h (1 Bft)
09.05.2017 04:36 3,3 °C 3,3 °C 95 % 1016,8 hPa 0,0 mm 1,0 km/h (0 Bft) NW 317 ° 0 min 0,000 mm 0,0 UV-I 0 W/m² 2,6 °C 3,3 °C 3,2 km/h (1 Bft)
09.05.2017 04:37 3,3 °C 3,3 °C 95 % 1016,8 hPa 0,0 mm 0,6 km/h (0 Bft) NW 317 ° 0 min 0,000 mm 0,0 UV-I 0 W/m² 2,6 °C 3,3 °C 1,6 km/h (1 Bft)
09.05.2017 04:38 3,3 °C 3,3 °C 95 % 1016,8 hPa 0,0 mm 0,5 km/h (0 Bft) NW 317 ° 0 min 0,000 mm 0,0 UV-I 0 W/m² 2,6 °C 3,3 °C 1,6 km/h (1 Bft)
09.05.2017 04:39 3,3 °C 3,3 °C 95 % 1016,8 hPa 0,0 mm 0,8 km/h (0 Bft) NW 317 ° 0 min 0,000 mm 0,0 UV-I 0 W/m² 2,6 °C 3,3 °C 1,6 km/h (1 Bft)
09.05.2017 04:40 3,3 °C 3,3 °C 95 % 1016,9 hPa 0,0 mm 0,4 km/h (0 Bft) NW 317 ° 0 min 0,000 mm 0,0 UV-I 0 W/m² 2,6 °C 3,3 °C 1,6 km/h (1 Bft)
09.05.2017 04:41 3,3 °C 3,3 °C 95 % 1016,8 hPa 0,0 mm 0,8 km/h (0 Bft) NW 317 ° 0 min 0,000 mm 0,0 UV-I 0 W/m² 2,6 °C 3,3 °C 1,6 km/h (1 Bft)
09.05.2017 04:42 3,3 °C 3,3 °C 95 % 1016,8 hPa 0,2 mm 0,1 km/h (0 Bft) NW 317 ° 0 min 0,000 mm 0,0 UV-I 0 W/m² 2,6 °C 3,3 °C 1,6 km/h (1 Bft)
09.05.2017 04:43 3,3 °C 3,3 °C 95 % 1016,8 hPa 0,0 mm 1,2 km/h (1 Bft) NW 317 ° 0 min 0,000 mm 0,0 UV-I 0 W/m² 2,6 °C 3,3 °C 3,2 km/h (1 Bft)
09.05.2017 04:44 3,2 °C 3,3 °C 95 % 1016,8 hPa 0,0 mm 0,6 km/h (0 Bft) NW 317 ° 0 min 0,000 mm 0,0 UV-I 0 W/m² 2,5 °C 3,2 °C 1,6 km/h (1 Bft)
09.05.2017 04:45 3,3 °C 3,3 °C 95 % 1016,8 hPa 0,0 mm 0,0 km/h (0 Bft) NW 317 ° 0 min 0,000 mm 0,0 UV-I 0 W/m² 2,6 °C 3,3 °C 0,0 km/h (0 Bft)
09.05.2017 04:46 3,3 °C 3,3 °C 95 % 1016,8 hPa 0,0 mm 0,0 km/h (0 Bft) NW 317 ° 0 min 0,000 mm 0,0 UV-I 0 W/m² 2,6 °C 3,3 °C 0,0 km/h (0 Bft)
09.05.2017 04:47 3,2 °C 3,3 °C 95 % 1016,8 hPa 0,0 mm 0,0 km/h (0 Bft) NW 317 ° 0 min 0,000 mm 0,0 UV-I 0 W/m² 2,5 °C 3,2 °C 0,0 km/h (0 Bft)
09.05.2017 04:48 3,3 °C 3,3 °C 95 % 1016,8 hPa 0,0 mm 0,0 km/h (0 Bft) NW 317 ° 0 min 0,000 mm 0,0 UV-I 0 W/m² 2,6 °C 3,3 °C 0,0 km/h (0 Bft)
09.05.2017 04:49 3,3 °C 3,3 °C 95 % 1016,8 hPa 0,0 mm 0,0 km/h (0 Bft) NW 317 ° 0 min 0,000 mm 0,0 UV-I 0 W/m² 2,6 °C 3,3 °C 0,0 km/h (0 Bft)
09.05.2017 04:50 3,2 °C 3,3 °C 95 % 1016,8 hPa 0,0 mm 0,0 km/h (0 Bft) NW 317 ° 0 min 0,000 mm 0,0 UV-I 0 W/m² 2,5 °C 3,2 °C 0,0 km/h (0 Bft)
09.05.2017 04:51 3,2 °C 3,2 °C 95 % 1016,8 hPa 0,0 mm 0,9 km/h (0 Bft) NW 317 ° 0 min 0,000 mm 0,0 UV-I 0 W/m² 2,5 °C 3,2 °C 3,2 km/h (1 Bft)
09.05.2017 04:52 3,2 °C 3,2 °C 95 % 1016,8 hPa 0,0 mm 2,4 km/h (1 Bft) NW 317 ° 0 min 0,000 mm 0,0 UV-I 0 W/m² 2,5 °C 3,2 °C 3,2 km/h (1 Bft)
09.05.2017 04:53 3,2 °C 3,2 °C 95 % 1016,8 hPa 0,0 mm 1,0 km/h (0 Bft) NW 317 ° 0 min 0,000 mm 0,0 UV-I 0 W/m² 2,5 °C 3,2 °C 1,6 km/h (1 Bft)
09.05.2017 04:54 3,2 °C 3,2 °C 95 % 1016,8 hPa 0,0 mm 0,0 km/h (0 Bft) NW 317 ° 0 min 0,000 mm 0,0 UV-I 0 W/m² 2,5 °C 3,2 °C 0,0 km/h (0 Bft)
09.05.2017 04:55 3,2 °C 3,2 °C 94 % 1016,8 hPa 0,0 mm 0,0 km/h (0 Bft) NW 317 ° 0 min 0,000 mm 0,0 UV-I 0 W/m² 2,3 °C 3,2 °C 0,0 km/h (0 Bft)
09.05.2017 04:56 3,2 °C 3,2 °C 94 % 1016,8 hPa 0,0 mm 0,6 km/h (0 Bft) NW 317 ° 0 min 0,000 mm 0,0 UV-I 0 W/m² 2,3 °C 3,2 °C 3,2 km/h (1 Bft)
09.05.2017 04:57 3,2 °C 3,2 °C 95 % 1016,8 hPa 0,0 mm 1,7 km/h (1 Bft) NW 317 ° 0 min 0,000 mm 0,0 UV-I 0 W/m² 2,5 °C 3,2 °C 3,2 km/h (1 Bft)
09.05.2017 04:58 3,2 °C 3,2 °C 95 % 1016,8 hPa 0,0 mm 0,7 km/h (0 Bft) NW 317 ° 0 min 0,000 mm 0,0 UV-I 0 W/m² 2,5 °C 3,2 °C 1,6 km/h (1 Bft)
09.05.2017 04:59 3,2 °C 3,2 °C 95 % 1016,9 hPa 0,0 mm 0,0 km/h (0 Bft) NW 317 ° 0 min 0,000 mm 0,0 UV-I 0 W/m² 2,5 °C 3,2 °C 0,0 km/h (0 Bft)
09.05.2017 05:00 3,2 °C 3,2 °C 95 % 1016,8 hPa 0,2 mm 0,0 km/h (0 Bft) NW 317 ° 0 min 0,000 mm 0,0 UV-I 0 W/m² 2,5 °C 3,2 °C 0,0 km/h (0 Bft)
09.05.2017 05:01 3,2 °C 3,2 °C 95 % 1016,9 hPa 0,0 mm 0,0 km/h (0 Bft) NW 317 ° 0 min 0,000 mm 0,0 UV-I 0 W/m² 2,5 °C 3,2 °C 0,0 km/h (0 Bft)
09.05.2017 05:02 3,2 °C 3,2 °C 95 % 1016,8 hPa 0,0 mm 0,0 km/h (0 Bft) NW 317 ° 0 min 0,000 mm 0,0 UV-I 0 W/m² 2,5 °C 3,2 °C 0,0 km/h (0 Bft)
09.05.2017 05:03 3,2 °C 3,2 °C 95 % 1016,9 hPa 0,0 mm 0,0 km/h (0 Bft) NW 317 ° 0 min 0,000 mm 0,0 UV-I 0 W/m² 2,5 °C 3,2 °C 0,0 km/h (0 Bft)
09.05.2017 05:04 3,2 °C 3,2 °C 95 % 1016,9 hPa 0,0 mm 0,5 km/h (0 Bft) NW 317 ° 0 min 0,000 mm 0,0 UV-I 0 W/m² 2,5 °C 3,2 °C 3,2 km/h (1 Bft)
09.05.2017 05:05 3,2 °C 3,2 °C 95 % 1016,8 hPa 0,0 mm 2,0 km/h (1 Bft) NW 317 ° 0 min 0,000 mm 0,0 UV-I 0 W/m² 2,5 °C 3,2 °C 3,2 km/h (1 Bft)
09.05.2017 05:06 3,2 °C 3,2 °C 95 % 1016,8 hPa 0,0 mm 2,0 km/h (1 Bft) NW 317 ° 0 min 0,000 mm 0,0 UV-I 0 W/m² 2,5 °C 3,2 °C 3,2 km/h (1 Bft)
09.05.2017 05:07 3,2 °C 3,2 °C 95 % 1016,9 hPa 0,0 mm 1,0 km/h (0 Bft) NW 317 ° 0 min 0,000 mm 0,0 UV-I 0 W/m² 2,5 °C 3,2 °C 1,6 km/h (1 Bft)
09.05.2017 05:08 3,2 °C 3,2 °C 95 % 1016,8 hPa 0,0 mm 1,0 km/h (0 Bft) NW 317 ° 0 min 0,000 mm 0,0 UV-I 0 W/m² 2,5 °C 3,2 °C 3,2 km/h (1 Bft)
09.05.2017 05:09 3,2 °C 3,2 °C 95 % 1016,8 hPa 0,0 mm 0,7 km/h (0 Bft) NW 317 ° 0 min 0,000 mm 0,0 UV-I 0 W/m² 2,5 °C 3,2 °C 1,6 km/h (1 Bft)
09.05.2017 05:10 3,2 °C 3,2 °C 95 % 1016,8 hPa 0,0 mm 1,9 km/h (1 Bft) NW 316 ° 0 min 0,000 mm 0,0 UV-I 0 W/m² 2,5 °C 3,2 °C 3,2 km/h (1 Bft)
09.05.2017 05:11 3,2 °C 3,2 °C 95 % 1016,8 hPa 0,0 mm 3,0 km/h (1 Bft) NW 315 ° 0 min 0,000 mm 0,0 UV-I 0 W/m² 2,5 °C 3,2 °C 3,2 km/h (1 Bft)
09.05.2017 05:12 3,2 °C 3,2 °C 95 % 1016,8 hPa 0,0 mm 3,1 km/h (1 Bft) SW 214 ° 0 min 0,000 mm 0,0 UV-I 0 W/m² 2,5 °C 3,2 °C 4,8 km/h (1 Bft)
09.05.2017 05:13 3,2 °C 3,2 °C 94 % 1016,8 hPa 0,0 mm 0,8 km/h (0 Bft) SW 214 ° 0 min 0,000 mm 0,0 UV-I 0 W/m² 2,3 °C 3,2 °C 1,6 km/h (1 Bft)
09.05.2017 05:14 3,2 °C 3,2 °C 94 % 1016,8 hPa 0,0 mm 1,5 km/h (1 Bft) S-SW 212 ° 0 min 0,000 mm 0,0 UV-I 0 W/m² 2,3 °C 3,2 °C 4,8 km/h (1 Bft)
09.05.2017 05:15 3,2 °C 3,2 °C 95 % 1016,8 hPa 0,2 mm 0,1 km/h (0 Bft) S-SW 212 ° 0 min 0,000 mm 0,0 UV-I 0 W/m² 2,5 °C 3,2 °C 1,6 km/h (1 Bft)
09.05.2017 05:16 3,1 °C 3,2 °C 95 % 1016,8 hPa 0,0 mm 0,1 km/h (0 Bft) S-SW 212 ° 0 min 0,000 mm 0,0 UV-I 0 W/m² 2,4 °C 3,1 °C 1,6 km/h (1 Bft)
09.05.2017 05:17 3,2 °C 3,2 °C 95 % 1016,8 hPa 0,0 mm 0,9 km/h (0 Bft) S-SW 212 ° 0 min 0,000 mm 0,0 UV-I 0 W/m² 2,5 °C 3,2 °C 1,6 km/h (1 Bft)
09.05.2017 05:18 3,1 °C 3,2 °C 94 % 1016,8 hPa 0,0 mm 0,7 km/h (0 Bft) S-SW 205 ° 0 min 0,000 mm 0,0 UV-I 0 W/m² 2,2 °C 3,1 °C 3,2 km/h (1 Bft)
09.05.2017 05:19 3,1 °C 3,1 °C 94 % 1016,8 hPa 0,0 mm 2,1 km/h (1 Bft) S-SW 204 ° 0 min 0,000 mm 0,0 UV-I 0 W/m² 2,2 °C 3,1 °C 4,8 km/h (1 Bft)
09.05.2017 05:20 3,1 °C 3,2 °C 94 % 1016,8 hPa 0,0 mm 1,5 km/h (1 Bft) S-SW 204 ° 0 min 0,000 mm 0,0 UV-I 0 W/m² 2,2 °C 3,1 °C 3,2 km/h (1 Bft)
09.05.2017 05:21 3,1 °C 3,1 °C 94 % 1016,8 hPa 0,0 mm 0,7 km/h (0 Bft) S-SW 204 ° 0 min 0,000 mm 0,0 UV-I 0 W/m² 2,2 °C 3,1 °C 1,6 km/h (1 Bft)
09.05.2017 05:22 3,1 °C 3,1 °C 94 % 1016,7 hPa 0,0 mm 1,0 km/h (0 Bft) S-SW 211 ° 0 min 0,000 mm 0,0 UV-I 0 W/m² 2,2 °C 3,1 °C 3,2 km/h (1 Bft)
09.05.2017 05:23 3,1 °C 3,1 °C 94 % 1016,7 hPa 0,0 mm 1,5 km/h (1 Bft) S-SW 211 ° 0 min 0,000 mm 0,0 UV-I 0 W/m² 2,2 °C 3,1 °C 3,2 km/h (1 Bft)
09.05.2017 05:24 3,1 °C 3,2 °C 94 % 1016,7 hPa 0,0 mm 3,4 km/h (1 Bft) S-SW 212 ° 0 min 0,000 mm 0,0 UV-I 0 W/m² 2,2 °C 3,1 °C 4,8 km/h (1 Bft)
09.05.2017 05:25 3,1 °C 3,1 °C 95 % 1016,8 hPa 0,0 mm 3,4 km/h (1 Bft) S-SW 203 ° 0 min 0,000 mm 0,0 UV-I 0 W/m² 2,4 °C 3,1 °C 4,8 km/h (1 Bft)
09.05.2017 05:26 3,1 °C 3,1 °C 94 % 1016,8 hPa 0,0 mm 5,6 km/h (1 Bft) S-SW 199 ° 0 min 0,000 mm 0,0 UV-I 0 W/m² 2,2 °C 1,7 °C 8,0 km/h (2 Bft)
09.05.2017 05:27 3,1 °C 3,1 °C 94 % 1016,8 hPa 0,0 mm 5,8 km/h (2 Bft) S-SW 197 ° 0 min 0,000 mm 0,0 UV-I 0 W/m² 2,2 °C 1,6 °C 8,0 km/h (2 Bft)
09.05.2017 05:28 3,1 °C 3,1 °C 94 % 1016,8 hPa 0,0 mm 5,9 km/h (2 Bft) SW 215 ° 0 min 0,000 mm 0,0 UV-I 0 W/m² 2,2 °C 1,6 °C 8,0 km/h (2 Bft)
09.05.2017 05:29 3,1 °C 3,1 °C 94 % 1016,8 hPa 0,0 mm 4,8 km/h (1 Bft) S-SW 202 ° 0 min 0,000 mm 0,0 UV-I 0 W/m² 2,2 °C 2,0 °C 8,0 km/h (2 Bft)
09.05.2017 05:30 3,1 °C 3,1 °C 94 % 1016,7 hPa 0,0 mm 4,5 km/h (1 Bft) S-SW 209 ° 0 min 0,000 mm 0,0 UV-I 0 W/m² 2,2 °C 3,1 °C 8,0 km/h (2 Bft)
09.05.2017 05:31 3,0 °C 3,1 °C 94 % 1016,8 hPa 0,0 mm 5,6 km/h (1 Bft) SW 225 ° 0 min 0,000 mm 0,0 UV-I 0 W/m² 2,1 °C 1,6 °C 8,0 km/h (2 Bft)
09.05.2017 05:32 3,1 °C 3,1 °C 94 % 1016,8 hPa 0,0 mm 5,8 km/h (2 Bft) SW 215 ° 0 min 0,000 mm 0,0 UV-I 0 W/m² 2,2 °C 1,6 °C 8,0 km/h (2 Bft)
09.05.2017 05:33 3,0 °C 3,1 °C 94 % 1016,7 hPa 0,0 mm 3,8 km/h (1 Bft) S-SW 210 ° 0 min 0,000 mm 0,0 UV-I 0 W/m² 2,1 °C 3,0 °C 6,4 km/h (2 Bft)
09.05.2017 05:34 3,1 °C 3,1 °C 94 % 1016,7 hPa 0,0 mm 3,3 km/h (1 Bft) S-SW 198 ° 0 min 0,000 mm 0,0 UV-I 0 W/m² 2,2 °C 3,1 °C 6,4 km/h (2 Bft)
09.05.2017 05:35 3,0 °C 3,1 °C 94 % 1016,8 hPa 0,0 mm 5,0 km/h (1 Bft) S-SW 207 ° 0 min 0,000 mm 0,0 UV-I 0 W/m² 2,1 °C 1,8 °C 8,0 km/h (2 Bft)
09.05.2017 05:36 3,1 °C 3,1 °C 94 % 1016,8 hPa 0,0 mm 4,3 km/h (1 Bft) S-SW 211 ° 0 min 0,000 mm 0,0 UV-I 0 W/m² 2,2 °C 3,1 °C 6,4 km/h (2 Bft)
09.05.2017 05:37 3,0 °C 3,1 °C 94 % 1016,8 hPa 0,0 mm 3,1 km/h (1 Bft) SW 219 ° 0 min 0,000 mm 0,0 UV-I 0 W/m² 2,1 °C 3,0 °C 4,8 km/h (1 Bft)
09.05.2017 05:38 3,0 °C 3,0 °C 94 % 1016,8 hPa 0,0 mm 3,1 km/h (1 Bft) S-SW 200 ° 0 min 0,000 mm 0,0 UV-I 0 W/m² 2,1 °C 3,0 °C 6,4 km/h (2 Bft)
09.05.2017 05:39 3,0 °C 3,0 °C 94 % 1016,8 hPa 0,0 mm 3,0 km/h (1 Bft) SW 232 ° 0 min 0,000 mm 0,0 UV-I 0 W/m² 2,1 °C 3,0 °C 4,8 km/h (1 Bft)
09.05.2017 05:40 3,0 °C 3,0 °C 94 % 1016,8 hPa 0,2 mm 3,6 km/h (1 Bft) S-SW 208 ° 0 min 0,000 mm 0,0 UV-I 0 W/m² 2,1 °C 3,0 °C 6,4 km/h (2 Bft)
09.05.2017 05:41 3,0 °C 3,0 °C 94 % 1016,8 hPa 0,0 mm 3,4 km/h (1 Bft) S-SW 209 ° 0 min 0,000 mm 0,0 UV-I 0 W/m² 2,1 °C 3,0 °C 4,8 km/h (1 Bft)
09.05.2017 05:42 3,0 °C 3,0 °C 94 % 1016,8 hPa 0,0 mm 2,6 km/h (1 Bft) S-SW 209 ° 0 min 0,000 mm 0,0 UV-I 0 W/m² 2,1 °C 3,0 °C 4,8 km/h (1 Bft)
09.05.2017 05:43 3,0 °C 3,0 °C 94 % 1016,8 hPa 0,0 mm 3,2 km/h (1 Bft) S-SW 213 ° 0 min 0,000 mm 0,0 UV-I 0 W/m² 2,1 °C 3,0 °C 4,8 km/h (1 Bft)
09.05.2017 05:44 3,0 °C 3,0 °C 94 % 1016,8 hPa 0,0 mm 3,1 km/h (1 Bft) SW 220 ° 0 min 0,000 mm 0,0 UV-I 0 W/m² 2,1 °C 3,0 °C 4,8 km/h (1 Bft)
09.05.2017 05:45 2,9 °C 3,0 °C 94 % 1016,8 hPa 0,0 mm 0,4 km/h (0 Bft) SW 220 ° 0 min 0,000 mm 0,0 UV-I 0 W/m² 2,0 °C 2,9 °C 1,6 km/h (1 Bft)
09.05.2017 05:46 2,9 °C 3,0 °C 94 % 1016,8 hPa 0,0 mm 2,6 km/h (1 Bft) SW 220 ° 0 min 0,000 mm 0,0 UV-I 0 W/m² 2,0 °C 2,9 °C 4,8 km/h (1 Bft)
09.05.2017 05:47 2,9 °C 3,0 °C 94 % 1016,8 hPa 0,0 mm 3,0 km/h (1 Bft) SW 221 ° 0 min 0,000 mm 0,0 UV-I 0 W/m² 2,0 °C 2,9 °C 4,8 km/h (1 Bft)
09.05.2017 05:48 2,9 °C 3,0 °C 94 % 1016,8 hPa 0,0 mm 0,7 km/h (0 Bft) SW 221 ° 0 min 0,000 mm 0,0 UV-I 0 W/m² 2,0 °C 2,9 °C 1,6 km/h (1 Bft)
09.05.2017 05:49 2,9 °C 2,9 °C 94 % 1016,7 hPa 0,0 mm 1,9 km/h (1 Bft) SW 221 ° 0 min 0,000 mm 0,0 UV-I 0 W/m² 2,0 °C 2,9 °C 3,2 km/h (1 Bft)
09.05.2017 05:50 2,9 °C 2,9 °C 94 % 1016,7 hPa 0,0 mm 2,7 km/h (1 Bft) SW 221 ° 0 min 0,000 mm 0,0 UV-I 0 W/m² 2,0 °C 2,9 °C 4,8 km/h (1 Bft)
09.05.2017 05:51 2,9 °C 2,9 °C 94 % 1016,7 hPa 0,0 mm 1,2 km/h (1 Bft) SW 221 ° 0 min 0,000 mm 0,0 UV-I 0 W/m² 2,0 °C 2,9 °C 1,6 km/h (1 Bft)
09.05.2017 05:52 2,9 °C 2,9 °C 94 % 1016,7 hPa 0,0 mm 0,7 km/h (0 Bft) SW 221 ° 0 min 0,000 mm 0,0 UV-I 0 W/m² 2,0 °C 2,9 °C 1,6 km/h (1 Bft)
09.05.2017 05:53 2,9 °C 2,9 °C 94 % 1016,7 hPa 0,0 mm 0,7 km/h (0 Bft) SW 221 ° 0 min 0,000 mm 0,0 UV-I 0 W/m² 2,0 °C 2,9 °C 1,6 km/h (1 Bft)
09.05.2017 05:54 2,9 °C 2,9 °C 94 % 1016,7 hPa 0,0 mm 0,0 km/h (0 Bft) SW 221 ° 0 min 0,000 mm 0,0 UV-I 0 W/m² 2,0 °C 2,9 °C 0,0 km/h (0 Bft)
09.05.2017 05:55 2,9 °C 2,9 °C 94 % 1016,7 hPa 0,0 mm 0,9 km/h (0 Bft) SW 221 ° 0 min 0,000 mm 0,0 UV-I 0 W/m² 2,0 °C 2,9 °C 3,2 km/h (1 Bft)
09.05.2017 05:56 2,9 °C 2,9 °C 94 % 1016,7 hPa 0,2 mm 2,3 km/h (1 Bft) SW 220 ° 0 min 0,000 mm 0,0 UV-I 0 W/m² 2,0 °C 2,9 °C 4,8 km/h (1 Bft)
09.05.2017 05:57 2,9 °C 2,9 °C 95 % 1016,7 hPa 0,0 mm 2,1 km/h (1 Bft) SW 220 ° 0 min 0,000 mm 0,0 UV-I 0 W/m² 2,2 °C 2,9 °C 4,8 km/h (1 Bft)
09.05.2017 05:58 2,9 °C 2,9 °C 94 % 1016,7 hPa 0,0 mm 1,7 km/h (1 Bft) SW 220 ° 0 min 0,000 mm 0,0 UV-I 0 W/m² 2,0 °C 2,9 °C 3,2 km/h (1 Bft)
09.05.2017 05:59 2,9 °C 2,9 °C 95 % 1016,7 hPa 0,0 mm 1,9 km/h (1 Bft) SW 220 ° 0 min 0,000 mm 0,0 UV-I 0 W/m² 2,2 °C 2,9 °C 3,2 km/h (1 Bft)
09.05.2017 06:00 2,9 °C 2,9 °C 95 % 1016,8 hPa 0,0 mm 2,0 km/h (1 Bft) SW 220 ° 0 min 0,000 mm 0,0 UV-I 0 W/m² 2,2 °C 2,9 °C 3,2 km/h (1 Bft)
09.05.2017 06:01 2,9 °C 2,9 °C 95 % 1016,8 hPa 0,0 mm 2,0 km/h (1 Bft) SW 220 ° 0 min 0,000 mm 0,0 UV-I 0 W/m² 2,2 °C 2,9 °C 3,2 km/h (1 Bft)
09.05.2017 06:02 2,9 °C 2,9 °C 95 % 1016,7 hPa 0,0 mm 0,9 km/h (0 Bft) SW 220 ° 0 min 0,000 mm 0,0 UV-I 0 W/m² 2,2 °C 2,9 °C 1,6 km/h (1 Bft)
09.05.2017 06:03 2,9 °C 2,9 °C 95 % 1016,8 hPa 0,0 mm 1,0 km/h (0 Bft) SW 220 ° 0 min 0,000 mm 0,0 UV-I 0 W/m² 2,2 °C 2,9 °C 3,2 km/h (1 Bft)
09.05.2017 06:04 2,9 °C 2,9 °C 95 % 1016,7 hPa 0,0 mm 0,5 km/h (0 Bft) SW 220 ° 0 min 0,000 mm 0,0 UV-I 0 W/m² 2,2 °C 2,9 °C 3,2 km/h (1 Bft)
09.05.2017 06:05 2,9 °C 2,9 °C 95 % 1016,7 hPa 0,0 mm 0,0 km/h (0 Bft) SW 220 ° 0 min 0,000 mm 0,0 UV-I 0 W/m² 2,2 °C 2,9 °C 0,0 km/h (0 Bft)
09.05.2017 06:06 2,9 °C 2,9 °C 95 % 1016,8 hPa 0,0 mm 1,8 km/h (1 Bft) SW 220 ° 0 min 0,000 mm 0,0 UV-I 0 W/m² 2,2 °C 2,9 °C 3,2 km/h (1 Bft)
09.05.2017 06:07 2,9 °C 2,9 °C 95 % 1016,7 hPa 0,0 mm 1,3 km/h (1 Bft) SW 220 ° 0 min 0,000 mm 0,0 UV-I 0 W/m² 2,2 °C 2,9 °C 3,2 km/h (1 Bft)
09.05.2017 06:08 2,9 °C 2,9 °C 95 % 1016,8 hPa 0,0 mm 2,4 km/h (1 Bft) SW 220 ° 0 min 0,000 mm 0,0 UV-I 0 W/m² 2,2 °C 2,9 °C 4,8 km/h (1 Bft)
09.05.2017 06:09 2,9 °C 2,9 °C 95 % 1016,7 hPa 0,0 mm 0,0 km/h (0 Bft) SW 220 ° 0 min 0,000 mm 0,0 UV-I 0 W/m² 2,2 °C 2,9 °C 0,0 km/h (0 Bft)
09.05.2017 06:10 2,9 °C 2,9 °C 95 % 1016,7 hPa 0,0 mm 2,5 km/h (1 Bft) SW 214 ° 0 min 0,000 mm 0,0 UV-I 0 W/m² 2,2 °C 2,9 °C 4,8 km/h (1 Bft)
09.05.2017 06:11 2,8 °C 2,9 °C 95 % 1016,8 hPa 0,0 mm 0,9 km/h (0 Bft) SW 214 ° 0 min 0,000 mm 0,0 UV-I 0 W/m² 2,1 °C 2,8 °C 3,2 km/h (1 Bft)
09.05.2017 06:12 2,9 °C 2,9 °C 95 % 1016,7 hPa 0,0 mm 2,0 km/h (1 Bft) SW 214 ° 0 min 0,000 mm 0,0 UV-I 0 W/m² 2,2 °C 2,9 °C 3,2 km/h (1 Bft)
09.05.2017 06:13 2,9 °C 2,9 °C 95 % 1016,7 hPa 0,0 mm 4,2 km/h (1 Bft) SW 214 ° 0 min 0,000 mm 0,0 UV-I 0 W/m² 2,2 °C 2,9 °C 4,8 km/h (1 Bft)
09.05.2017 06:14 2,9 °C 2,9 °C 95 % 1016,7 hPa 0,0 mm 2,9 km/h (1 Bft) S-SW 213 ° 0 min 0,000 mm 0,0 UV-I 0 W/m² 2,2 °C 2,9 °C 6,4 km/h (2 Bft)
09.05.2017 06:15 2,9 °C 2,9 °C 95 % 1016,7 hPa 0,0 mm 2,4 km/h (1 Bft) S-SW 213 ° 0 min 0,000 mm 0,0 UV-I 0 W/m² 2,2 °C 2,9 °C 3,2 km/h (1 Bft)
09.05.2017 06:16 2,9 °C 2,9 °C 95 % 1016,7 hPa 0,0 mm 1,3 km/h (1 Bft) S-SW 213 ° 0 min 0,000 mm 0,0 UV-I 5 W/m² 2,2 °C 2,9 °C 4,8 km/h (1 Bft)
09.05.2017 06:17 2,8 °C 2,9 °C 95 % 1016,7 hPa 0,0 mm 1,1 km/h (1 Bft) S-SW 213 ° 0 min 0,000 mm 0,0 UV-I 5 W/m² 2,1 °C 2,8 °C 3,2 km/h (1 Bft)
09.05.2017 06:18 2,9 °C 2,9 °C 95 % 1016,7 hPa 0,2 mm 1,7 km/h (1 Bft) S-SW 213 ° 0 min 0,000 mm 0,0 UV-I 5 W/m² 2,2 °C 2,9 °C 3,2 km/h (1 Bft)
09.05.2017 06:19 2,9 °C 2,9 °C 95 % 1016,7 hPa 0,0 mm 4,1 km/h (1 Bft) S-SW 208 ° 0 min 0,000 mm 0,0 UV-I 5 W/m² 2,2 °C 2,9 °C 6,4 km/h (2 Bft)
09.05.2017 06:20 2,8 °C 2,9 °C 95 % 1016,8 hPa 0,0 mm 4,8 km/h (1 Bft) S-SW 208 ° 0 min 0,000 mm 0,0 UV-I 5 W/m² 2,1 °C 1,7 °C 6,4 km/h (2 Bft)
09.05.2017 06:21 2,9 °C 2,9 °C 95 % 1016,7 hPa 0,0 mm 3,2 km/h (1 Bft) S-SW 208 ° 0 min 0,000 mm 0,0 UV-I 5 W/m² 2,2 °C 2,9 °C 4,8 km/h (1 Bft)
09.05.2017 06:22 2,9 °C 2,9 °C 95 % 1016,7 hPa 0,0 mm 3,4 km/h (1 Bft) S-SW 208 ° 0 min 0,000 mm 0,0 UV-I 5 W/m² 2,2 °C 2,9 °C 4,8 km/h (1 Bft)
09.05.2017 06:23 2,9 °C 2,9 °C 95 % 1016,7 hPa 0,0 mm 3,4 km/h (1 Bft) S-SW 207 ° 0 min 0,000 mm 0,0 UV-I 5 W/m² 2,2 °C 2,9 °C 4,8 km/h (1 Bft)
09.05.2017 06:24 2,9 °C 2,9 °C 94 % 1016,7 hPa 0,0 mm 6,8 km/h (2 Bft) S-SW 193 ° 0 min 0,000 mm 0,0 UV-I 5 W/m² 2,0 °C 1,0 °C 9,7 km/h (2 Bft)
09.05.2017 06:25 2,9 °C 2,9 °C 95 % 1016,7 hPa 0,0 mm 4,6 km/h (1 Bft) S-SW 194 ° 0 min 0,000 mm 0,0 UV-I 5 W/m² 2,2 °C 1,9 °C 6,4 km/h (2 Bft)
09.05.2017 06:26 2,9 °C 2,9 °C 95 % 1016,8 hPa 0,0 mm 4,4 km/h (1 Bft) S-SW 205 ° 0 min 0,000 mm 0,0 UV-I 7 W/m² 2,2 °C 2,9 °C 6,4 km/h (2 Bft)
09.05.2017 06:27 2,9 °C 2,9 °C 94 % 1016,7 hPa 0,0 mm 3,6 km/h (1 Bft) S-SW 206 ° 0 min 0,000 mm 0,0 UV-I 7 W/m² 2,0 °C 2,9 °C 4,8 km/h (1 Bft)
09.05.2017 06:28 2,9 °C 2,9 °C 94 % 1016,7 hPa 0,0 mm 3,2 km/h (1 Bft) S 182 ° 0 min 0,000 mm 0,0 UV-I 7 W/m² 2,0 °C 2,9 °C 6,4 km/h (2 Bft)
09.05.2017 06:29 2,9 °C 2,9 °C 94 % 1016,8 hPa 0,0 mm 4,1 km/h (1 Bft) S-SW 213 ° 0 min 0,000 mm 0,0 UV-I 7 W/m² 2,0 °C 2,9 °C 8,0 km/h (2 Bft)
09.05.2017 06:30 2,9 °C 2,9 °C 94 % 1016,8 hPa 0,0 mm 3,3 km/h (1 Bft) S-SW 213 ° 0 min 0,000 mm 0,0 UV-I 7 W/m² 2,0 °C 2,9 °C 6,4 km/h (2 Bft)
09.05.2017 06:31 2,9 °C 2,9 °C 94 % 1016,8 hPa 0,0 mm 4,2 km/h (1 Bft) S-SW 211 ° 0 min 0,000 mm 0,0 UV-I 7 W/m² 2,0 °C 2,9 °C 4,8 km/h (1 Bft)
09.05.2017 06:32 2,9 °C 2,9 °C 94 % 1016,7 hPa 0,0 mm 2,2 km/h (1 Bft) S-SW 200 ° 0 min 0,000 mm 0,0 UV-I 7 W/m² 2,0 °C 2,9 °C 4,8 km/h (1 Bft)
09.05.2017 06:33 2,9 °C 2,9 °C 94 % 1016,8 hPa 0,0 mm 3,8 km/h (1 Bft) S-SW 204 ° 0 min 0,000 mm 0,0 UV-I 7 W/m² 2,0 °C 2,9 °C 6,4 km/h (2 Bft)
09.05.2017 06:34 2,9 °C 2,9 °C 94 % 1016,8 hPa 0,0 mm 3,7 km/h (1 Bft) S-SW 204 ° 0 min 0,000 mm 0,0 UV-I 7 W/m² 2,0 °C 2,9 °C 4,8 km/h (1 Bft)
09.05.2017 06:35 2,9 °C 2,9 °C 94 % 1016,8 hPa 0,0 mm 3,0 km/h (1 Bft) S-SW 204 ° 0 min 0,000 mm 0,0 UV-I 7 W/m² 2,0 °C 2,9 °C 4,8 km/h (1 Bft)
09.05.2017 06:36 2,9 °C 2,9 °C 94 % 1016,8 hPa 0,0 mm 2,1 km/h (1 Bft) S-SW 204 ° 0 min 0,000 mm 0,0 UV-I 7 W/m² 2,0 °C 2,9 °C 3,2 km/h (1 Bft)
09.05.2017 06:37 2,9 °C 2,9 °C 94 % 1016,8 hPa 0,0 mm 2,6 km/h (1 Bft) S-SW 202 ° 0 min 0,000 mm 0,0 UV-I 7 W/m² 2,0 °C 2,9 °C 4,8 km/h (1 Bft)
09.05.2017 06:38 2,9 °C 2,9 °C 94 % 1016,8 hPa 0,2 mm 2,3 km/h (1 Bft) S-SW 202 ° 0 min 0,000 mm 0,0 UV-I 7 W/m² 2,0 °C 2,9 °C 4,8 km/h (1 Bft)
09.05.2017 06:39 2,9 °C 2,9 °C 94 % 1016,8 hPa 0,0 mm 3,4 km/h (1 Bft) S-SW 202 ° 0 min 0,000 mm 0,0 UV-I 7 W/m² 2,0 °C 2,9 °C 4,8 km/h (1 Bft)
09.05.2017 06:40 2,9 °C 2,9 °C 94 % 1016,8 hPa 0,0 mm 2,0 km/h (1 Bft) S-SW 202 ° 0 min 0,000 mm 0,0 UV-I 7 W/m² 2,0 °C 2,9 °C 4,8 km/h (1 Bft)
09.05.2017 06:41 2,9 °C 2,9 °C 94 % 1016,9 hPa 0,0 mm 2,1 km/h (1 Bft) S-SW 201 ° 0 min 0,000 mm 0,0 UV-I 7 W/m² 2,0 °C 2,9 °C 3,2 km/h (1 Bft)
09.05.2017 06:42 2,9 °C 2,9 °C 94 % 1016,8 hPa 0,0 mm 1,7 km/h (1 Bft) S-SW 201 ° 0 min 0,000 mm 0,0 UV-I 7 W/m² 2,0 °C 2,9 °C 3,2 km/h (1 Bft)
09.05.2017 06:43 2,9 °C 2,9 °C 94 % 1016,8 hPa 0,0 mm 0,7 km/h (0 Bft) S-SW 201 ° 0 min 0,000 mm 0,0 UV-I 7 W/m² 2,0 °C 2,9 °C 1,6 km/h (1 Bft)
09.05.2017 06:44 2,9 °C 2,9 °C 94 % 1016,8 hPa 0,0 mm 1,7 km/h (1 Bft) S-SW 201 ° 0 min 0,000 mm 0,0 UV-I 7 W/m² 2,0 °C 2,9 °C 3,2 km/h (1 Bft)
09.05.2017 06:45 2,9 °C 2,9 °C 94 % 1016,9 hPa 0,0 mm 3,0 km/h (1 Bft) S-SW 201 ° 0 min 0,000 mm 0,0 UV-I 7 W/m² 2,0 °C 2,9 °C 4,8 km/h (1 Bft)
09.05.2017 06:46 2,9 °C 2,9 °C 94 % 1016,9 hPa 0,0 mm 4,3 km/h (1 Bft) S-SW 201 ° 0 min 0,000 mm 0,0 UV-I 7 W/m² 2,0 °C 2,9 °C 6,4 km/h (2 Bft)
09.05.2017 06:47 2,9 °C 2,9 °C 94 % 1016,9 hPa 0,0 mm 4,0 km/h (1 Bft) S-SW 202 ° 0 min 0,000 mm 0,0 UV-I 7 W/m² 2,0 °C 2,9 °C 4,8 km/h (1 Bft)
09.05.2017 06:48 2,9 °C 2,9 °C 94 % 1016,9 hPa 0,0 mm 3,4 km/h (1 Bft) S-SW 202 ° 0 min 0,000 mm 0,0 UV-I 7 W/m² 2,0 °C 2,9 °C 4,8 km/h (1 Bft)
09.05.2017 06:49 2,9 °C 2,9 °C 94 % 1016,9 hPa 0,0 mm 4,0 km/h (1 Bft) S-SW 202 ° 0 min 0,000 mm 0,0 UV-I 7 W/m² 2,0 °C 2,9 °C 4,8 km/h (1 Bft)
09.05.2017 06:50 2,9 °C 2,9 °C 94 % 1016,9 hPa 0,0 mm 2,2 km/h (1 Bft) S-SW 202 ° 0 min 0,000 mm 0,0 UV-I 9 W/m² 2,0 °C 2,9 °C 3,2 km/h (1 Bft)
09.05.2017 06:51 2,9 °C 2,9 °C 94 % 1016,8 hPa 0,0 mm 1,3 km/h (1 Bft) S-SW 202 ° 0 min 0,000 mm 0,0 UV-I 7 W/m² 2,0 °C 2,9 °C 3,2 km/h (1 Bft)
09.05.2017 06:52 2,9 °C 3,0 °C 94 % 1016,9 hPa 0,0 mm 2,5 km/h (1 Bft) S-SW 205 ° 0 min 0,000 mm 0,0 UV-I 7 W/m² 2,0 °C 2,9 °C 6,4 km/h (2 Bft)
09.05.2017 06:53 2,9 °C 3,0 °C 94 % 1016,9 hPa 0,2 mm 2,7 km/h (1 Bft) S-SW 205 ° 0 min 0,000 mm 0,0 UV-I 9 W/m² 2,0 °C 2,9 °C 4,8 km/h (1 Bft)
09.05.2017 06:54 2,9 °C 3,0 °C 94 % 1016,9 hPa 0,0 mm 2,8 km/h (1 Bft) S-SW 205 ° 0 min 0,000 mm 0,0 UV-I 9 W/m² 2,0 °C 2,9 °C 4,8 km/h (1 Bft)
09.05.2017 06:55 2,9 °C 3,0 °C 94 % 1016,8 hPa 0,0 mm 2,5 km/h (1 Bft) S-SW 205 ° 0 min 0,000 mm 0,0 UV-I 11 W/m² 2,0 °C 2,9 °C 3,2 km/h (1 Bft)
09.05.2017 06:56 3,0 °C 3,0 °C 94 % 1016,8 hPa 0,0 mm 0,7 km/h (0 Bft) S-SW 205 ° 0 min 0,000 mm 0,0 UV-I 12 W/m² 2,1 °C 3,0 °C 1,6 km/h (1 Bft)
09.05.2017 06:57 2,9 °C 3,0 °C 94 % 1016,8 hPa 0,0 mm 1,5 km/h (1 Bft) S-SW 202 ° 0 min 0,000 mm 0,0 UV-I 12 W/m² 2,0 °C 2,9 °C 4,8 km/h (1 Bft)
09.05.2017 06:58 2,9 °C 3,0 °C 94 % 1016,8 hPa 0,0 mm 1,8 km/h (1 Bft) S-SW 206 ° 0 min 0,000 mm 0,0 UV-I 14 W/m² 2,0 °C 2,9 °C 3,2 km/h (1 Bft)
09.05.2017 06:59 2,9 °C 3,0 °C 94 % 1016,8 hPa 0,0 mm 1,8 km/h (1 Bft) S-SW 205 ° 0 min 0,000 mm 0,0 UV-I 19 W/m² 2,0 °C 2,9 °C 3,2 km/h (1 Bft)
09.05.2017 07:00 3,0 °C 3,0 °C 94 % 1016,8 hPa 0,0 mm 0,4 km/h (0 Bft) S-SW 205 ° 0 min 0,000 mm 0,0 UV-I 21 W/m² 2,1 °C 3,0 °C 3,2 km/h (1 Bft)
09.05.2017 07:01 3,0 °C 3,0 °C 94 % 1016,8 hPa 0,0 mm 1,7 km/h (1 Bft) S-SW 205 ° 0 min 0,000 mm 0,0 UV-I 23 W/m² 2,1 °C 3,0 °C 3,2 km/h (1 Bft)
09.05.2017 07:02 3,0 °C 3,0 °C 94 % 1016,8 hPa 0,0 mm 1,4 km/h (1 Bft) S-SW 205 ° 0 min 0,000 mm 0,0 UV-I 23 W/m² 2,1 °C 3,0 °C 3,2 km/h (1 Bft)
09.05.2017 07:03 3,0 °C 3,0 °C 94 % 1016,8 hPa 0,0 mm 0,9 km/h (0 Bft) S-SW 205 ° 0 min 0,000 mm 0,0 UV-I 23 W/m² 2,1 °C 3,0 °C 3,2 km/h (1 Bft)
09.05.2017 07:04 3,0 °C 3,0 °C 95 % 1016,8 hPa 0,0 mm 0,5 km/h (0 Bft) S-SW 205 ° 0 min 0,000 mm 0,0 UV-I 25 W/m² 2,3 °C 3,0 °C 3,2 km/h (1 Bft)
09.05.2017 07:05 3,0 °C 3,1 °C 95 % 1016,8 hPa 0,0 mm 1,5 km/h (1 Bft) S-SW 205 ° 0 min 0,000 mm 0,0 UV-I 25 W/m² 2,3 °C 3,0 °C 3,2 km/h (1 Bft)
09.05.2017 07:06 3,1 °C 3,1 °C 95 % 1016,8 hPa 0,0 mm 2,1 km/h (1 Bft) S-SW 205 ° 0 min 0,000 mm 0,0 UV-I 25 W/m² 2,4 °C 3,1 °C 3,2 km/h (1 Bft)
09.05.2017 07:07 3,1 °C 3,1 °C 95 % 1016,8 hPa 0,0 mm 2,2 km/h (1 Bft) S-SW 205 ° 0 min 0,000 mm 0,0 UV-I 25 W/m² 2,4 °C 3,1 °C 4,8 km/h (1 Bft)
09.05.2017 07:08 3,1 °C 3,1 °C 94 % 1016,8 hPa 0,0 mm 2,8 km/h (1 Bft) S-SW 205 ° 0 min 0,000 mm 0,0 UV-I 25 W/m² 2,2 °C 3,1 °C 3,2 km/h (1 Bft)
09.05.2017 07:09 3,1 °C 3,1 °C 94 % 1016,8 hPa 0,0 mm 1,2 km/h (1 Bft) S-SW 205 ° 0 min 0,000 mm 0,0 UV-I 25 W/m² 2,2 °C 3,1 °C 3,2 km/h (1 Bft)
09.05.2017 07:10 3,1 °C 3,1 °C 94 % 1016,8 hPa 0,0 mm 3,4 km/h (1 Bft) S-SW 207 ° 0 min 0,000 mm 0,0 UV-I 26 W/m² 2,2 °C 3,1 °C 6,4 km/h (2 Bft)
09.05.2017 07:11 3,1 °C 3,1 °C 94 % 1016,8 hPa 0,0 mm 3,4 km/h (1 Bft) S-SW 207 ° 0 min 0,000 mm 0,0 UV-I 25 W/m² 2,2 °C 3,1 °C 4,8 km/h (1 Bft)
09.05.2017 07:12 3,1 °C 3,1 °C 94 % 1016,8 hPa 0,0 mm 4,3 km/h (1 Bft) S 186 ° 0 min 0,000 mm 0,0 UV-I 25 W/m² 2,2 °C 3,1 °C 6,4 km/h (2 Bft)
09.05.2017 07:13 3,1 °C 3,1 °C 94 % 1016,7 hPa 0,0 mm 5,6 km/h (1 Bft) S-SW 211 ° 0 min 0,000 mm 0,0 UV-I 25 W/m² 2,2 °C 1,7 °C 8,0 km/h (2 Bft)
09.05.2017 07:14 3,1 °C 3,1 °C 94 % 1016,8 hPa 0,0 mm 5,0 km/h (1 Bft) S-SW 202 ° 0 min 0,000 mm 0,0 UV-I 25 W/m² 2,2 °C 1,9 °C 6,4 km/h (2 Bft)
09.05.2017 07:15 3,1 °C 3,1 °C 94 % 1016,8 hPa 0,0 mm 2,4 km/h (1 Bft) S-SW 202 ° 0 min 0,000 mm 0,0 UV-I 26 W/m² 2,2 °C 3,1 °C 3,2 km/h (1 Bft)
09.05.2017 07:16 3,1 °C 3,1 °C 94 % 1016,7 hPa 0,0 mm 2,8 km/h (1 Bft) S-SW 213 ° 0 min 0,000 mm 0,0 UV-I 26 W/m² 2,2 °C 3,1 °C 6,4 km/h (2 Bft)
09.05.2017 07:17 3,1 °C 3,1 °C 95 % 1016,8 hPa 0,0 mm 4,8 km/h (1 Bft) S-SW 204 ° 0 min 0,000 mm 0,0 UV-I 30 W/m² 2,4 °C 2,0 °C 6,4 km/h (2 Bft)
09.05.2017 07:18 3,1 °C 3,1 °C 94 % 1016,8 hPa 0,0 mm 4,5 km/h (1 Bft) S 184 ° 0 min 0,000 mm 0,0 UV-I 30 W/m² 2,2 °C 3,1 °C 6,4 km/h (2 Bft)
09.05.2017 07:19 3,1 °C 3,1 °C 95 % 1016,8 hPa 0,0 mm 3,8 km/h (1 Bft) SW 219 ° 0 min 0,000 mm 0,0 UV-I 32 W/m² 2,4 °C 3,1 °C 6,4 km/h (2 Bft)
09.05.2017 07:20 3,2 °C 3,2 °C 95 % 1016,7 hPa 0,0 mm 3,5 km/h (1 Bft) S 180 ° 0 min 0,000 mm 0,0 UV-I 33 W/m² 2,5 °C 3,2 °C 4,8 km/h (1 Bft)
09.05.2017 07:21 3,1 °C 3,2 °C 94 % 1016,8 hPa 0,0 mm 3,4 km/h (1 Bft) S 181 ° 0 min 0,000 mm 0,0 UV-I 35 W/m² 2,2 °C 3,1 °C 6,4 km/h (2 Bft)
09.05.2017 07:22 3,2 °C 3,2 °C 94 % 1016,8 hPa 0,0 mm 3,8 km/h (1 Bft) SW 219 ° 0 min 0,000 mm 0,0 UV-I 37 W/m² 2,3 °C 3,2 °C 8,0 km/h (2 Bft)
09.05.2017 07:23 3,2 °C 3,2 °C 94 % 1016,8 hPa 0,0 mm 3,0 km/h (1 Bft) S-SW 211 ° 0 min 0,000 mm 0,0 UV-I 39 W/m² 2,3 °C 3,2 °C 4,8 km/h (1 Bft)
09.05.2017 07:24 3,2 °C 3,2 °C 94 % 1016,8 hPa 0,0 mm 4,4 km/h (1 Bft) S-SW 196 ° 0 min 0,000 mm 0,0 UV-I 39 W/m² 2,3 °C 3,2 °C 8,0 km/h (2 Bft)
09.05.2017 07:25 3,2 °C 3,2 °C 94 % 1016,8 hPa 0,0 mm 5,0 km/h (1 Bft) S 188 ° 0 min 0,000 mm 0,0 UV-I 40 W/m² 2,3 °C 2,0 °C 8,0 km/h (2 Bft)
09.05.2017 07:26 3,2 °C 3,2 °C 94 % 1016,8 hPa 0,0 mm 4,3 km/h (1 Bft) S 187 ° 0 min 0,000 mm 0,0 UV-I 42 W/m² 2,3 °C 3,2 °C 4,8 km/h (1 Bft)
09.05.2017 07:27 3,2 °C 3,2 °C 94 % 1016,8 hPa 0,0 mm 3,3 km/h (1 Bft) S-SW 198 ° 0 min 0,000 mm 0,0 UV-I 42 W/m² 2,3 °C 3,2 °C 4,8 km/h (1 Bft)
09.05.2017 07:28 3,2 °C 3,2 °C 94 % 1016,8 hPa 0,0 mm 5,7 km/h (1 Bft) S 177 ° 0 min 0,000 mm 0,0 UV-I 46 W/m² 2,3 °C 1,8 °C 9,7 km/h (2 Bft)
09.05.2017 07:29 3,3 °C 3,3 °C 94 % 1016,8 hPa 0,0 mm 4,8 km/h (1 Bft) S-SW 196 ° 0 min 0,000 mm 0,0 UV-I 47 W/m² 2,4 °C 2,2 °C 6,4 km/h (2 Bft)
09.05.2017 07:30 3,2 °C 3,3 °C 94 % 1016,8 hPa 0,0 mm 3,5 km/h (1 Bft) SW 215 ° 0 min 0,000 mm 0,0 UV-I 49 W/m² 2,3 °C 3,2 °C 4,8 km/h (1 Bft)
09.05.2017 07:31 3,2 °C 3,3 °C 94 % 1016,8 hPa 0,0 mm 2,9 km/h (1 Bft) S 180 ° 0 min 0,000 mm 0,0 UV-I 49 W/m² 2,3 °C 3,2 °C 4,8 km/h (1 Bft)
09.05.2017 07:32 3,3 °C 3,3 °C 94 % 1016,8 hPa 0,0 mm 5,0 km/h (1 Bft) S-SW 195 ° 0 min 0,000 mm 0,0 UV-I 49 W/m² 2,4 °C 2,2 °C 8,0 km/h (2 Bft)
09.05.2017 07:33 3,3 °C 3,3 °C 94 % 1016,8 hPa 0,0 mm 7,5 km/h (2 Bft) S-SW 198 ° 0 min 0,000 mm 0,0 UV-I 49 W/m² 2,4 °C 1,3 °C 9,7 km/h (2 Bft)
09.05.2017 07:34 3,3 °C 3,3 °C 94 % 1016,8 hPa 0,0 mm 5,8 km/h (2 Bft) S-SW 192 ° 0 min 0,000 mm 0,0 UV-I 47 W/m² 2,4 °C 1,8 °C 8,0 km/h (2 Bft)
09.05.2017 07:35 3,3 °C 3,3 °C 94 % 1016,7 hPa 0,0 mm 6,4 km/h (2 Bft) S-SW 205 ° 0 min 0,000 mm 0,0 UV-I 47 W/m² 2,4 °C 1,6 °C 8,0 km/h (2 Bft)
09.05.2017 07:36 3,3 °C 3,3 °C 94 % 1016,7 hPa 0,0 mm 5,0 km/h (1 Bft) S-SW 193 ° 0 min 0,000 mm 0,0 UV-I 49 W/m² 2,4 °C 2,2 °C 6,4 km/h (2 Bft)
09.05.2017 07:37 3,3 °C 3,3 °C 94 % 1016,7 hPa 0,0 mm 3,8 km/h (1 Bft) S-SW 195 ° 0 min 0,000 mm 0,0 UV-I 51 W/m² 2,4 °C 3,3 °C 6,4 km/h (2 Bft)
09.05.2017 07:38 3,3 °C 3,3 °C 94 % 1016,7 hPa 0,0 mm 3,0 km/h (1 Bft) S-SW 198 ° 0 min 0,000 mm 0,0 UV-I 54 W/m² 2,4 °C 3,3 °C 6,4 km/h (2 Bft)
09.05.2017 07:39 3,3 °C 3,3 °C 94 % 1016,7 hPa 0,0 mm 2,2 km/h (1 Bft) S 188 ° 0 min 0,000 mm 0,0 UV-I 58 W/m² 2,4 °C 3,3 °C 6,4 km/h (2 Bft)
09.05.2017 07:40 3,4 °C 3,4 °C 94 % 1016,7 hPa 0,0 mm 2,7 km/h (1 Bft) S 190 ° 0 min 0,000 mm 0,0 UV-I 63 W/m² 2,5 °C 3,4 °C 6,4 km/h (2 Bft)
09.05.2017 07:41 3,4 °C 3,4 °C 94 % 1016,7 hPa 0,0 mm 4,0 km/h (1 Bft) S 190 ° 0 min 0,000 mm 0,0 UV-I 62 W/m² 2,5 °C 3,4 °C 6,4 km/h (2 Bft)
09.05.2017 07:42 3,4 °C 3,4 °C 94 % 1016,7 hPa 0,0 mm 4,0 km/h (1 Bft) S 190 ° 0 min 0,000 mm 0,0 UV-I 60 W/m² 2,5 °C 3,4 °C 4,8 km/h (1 Bft)
09.05.2017 07:43 3,4 °C 3,4 °C 94 % 1016,7 hPa 0,0 mm 2,2 km/h (1 Bft) S 190 ° 0 min 0,000 mm 0,0 UV-I 56 W/m² 2,5 °C 3,4 °C 3,2 km/h (1 Bft)
09.05.2017 07:44 3,4 °C 3,4 °C 94 % 1016,7 hPa 0,0 mm 1,5 km/h (1 Bft) S 190 ° 0 min 0,000 mm 0,0 UV-I 56 W/m² 2,5 °C 3,4 °C 3,2 km/h (1 Bft)
09.05.2017 07:45 3,5 °C 3,5 °C 94 % 1016,8 hPa 0,0 mm 2,0 km/h (1 Bft) S 190 ° 0 min 0,000 mm 0,0 UV-I 56 W/m² 2,6 °C 3,5 °C 4,8 km/h (1 Bft)
09.05.2017 07:46 3,4 °C 3,5 °C 94 % 1016,7 hPa 0,0 mm 2,3 km/h (1 Bft) S 190 ° 0 min 0,000 mm 0,0 UV-I 56 W/m² 2,5 °C 3,4 °C 4,8 km/h (1 Bft)
09.05.2017 07:47 3,5 °C 3,5 °C 94 % 1016,8 hPa 0,0 mm 2,3 km/h (1 Bft) S 191 ° 0 min 0,000 mm 0,0 UV-I 58 W/m² 2,6 °C 3,5 °C 4,8 km/h (1 Bft)
09.05.2017 07:48 3,5 °C 3,5 °C 94 % 1016,8 hPa 0,0 mm 3,0 km/h (1 Bft) W-SW 243 ° 0 min 0,000 mm 0,0 UV-I 58 W/m² 2,6 °C 3,5 °C 4,8 km/h (1 Bft)
09.05.2017 07:49 3,5 °C 3,5 °C 94 % 1016,8 hPa 0,0 mm 3,2 km/h (1 Bft) S-SW 199 ° 0 min 0,000 mm 0,0 UV-I 60 W/m² 2,6 °C 3,5 °C 6,4 km/h (2 Bft)
09.05.2017 07:50 3,6 °C 3,6 °C 94 % 1016,8 hPa 0,0 mm 3,4 km/h (1 Bft) S-SW 199 ° 0 min 0,000 mm 0,0 UV-I 60 W/m² 2,7 °C 3,6 °C 4,8 km/h (1 Bft)
09.05.2017 07:51 3,6 °C 3,6 °C 94 % 1016,8 hPa 0,0 mm 1,7 km/h (1 Bft) S-SW 199 ° 0 min 0,000 mm 0,0 UV-I 60 W/m² 2,7 °C 3,6 °C 3,2 km/h (1 Bft)
09.05.2017 07:52 3,6 °C 3,6 °C 94 % 1016,8 hPa 0,0 mm 1,2 km/h (1 Bft) S-SW 199 ° 0 min 0,000 mm 0,0 UV-I 56 W/m² 2,7 °C 3,6 °C 1,6 km/h (1 Bft)
09.05.2017 07:53 3,6 °C 3,6 °C 94 % 1016,8 hPa 0,0 mm 2,7 km/h (1 Bft) SW 221 ° 0 min 0,000 mm 0,0 UV-I 56 W/m² 2,7 °C 3,6 °C 4,8 km/h (1 Bft)
09.05.2017 07:54 3,6 °C 3,6 °C 94 % 1016,8 hPa 0,0 mm 3,1 km/h (1 Bft) SW 224 ° 0 min 0,000 mm 0,0 UV-I 58 W/m² 2,7 °C 3,6 °C 4,8 km/h (1 Bft)
09.05.2017 07:55 3,6 °C 3,6 °C 94 % 1016,8 hPa 0,0 mm 3,2 km/h (1 Bft) SW 226 ° 0 min 0,000 mm 0,0 UV-I 62 W/m² 2,7 °C 3,6 °C 4,8 km/h (1 Bft)
09.05.2017 07:56 3,6 °C 3,6 °C 94 % 1016,8 hPa 0,0 mm 3,3 km/h (1 Bft) SW 226 ° 0 min 0,000 mm 0,0 UV-I 63 W/m² 2,7 °C 3,6 °C 4,8 km/h (1 Bft)
09.05.2017 07:57 3,6 °C 3,6 °C 94 % 1016,8 hPa 0,0 mm 2,3 km/h (1 Bft) SW 226 ° 0 min 0,000 mm 0,0 UV-I 65 W/m² 2,7 °C 3,6 °C 3,2 km/h (1 Bft)
09.05.2017 07:58 3,6 °C 3,6 °C 94 % 1016,8 hPa 0,0 mm 3,0 km/h (1 Bft) SW 234 ° 0 min 0,000 mm 0,0 UV-I 72 W/m² 2,7 °C 3,6 °C 4,8 km/h (1 Bft)
09.05.2017 07:59 3,6 °C 3,6 °C 94 % 1016,8 hPa 0,0 mm 2,5 km/h (1 Bft) SW 234 ° 0 min 0,000 mm 0,5 UV-I 77 W/m² 2,7 °C 3,6 °C 4,8 km/h (1 Bft)
09.05.2017 08:00 3,6 °C 3,6 °C 94 % 1016,7 hPa 0,0 mm 3,6 km/h (1 Bft) W-SW 254 ° 0 min 0,000 mm 0,5 UV-I 83 W/m² 2,7 °C 3,6 °C 6,4 km/h (2 Bft)
09.05.2017 08:01 3,6 °C 3,6 °C 94 % 1016,8 hPa 0,0 mm 3,4 km/h (1 Bft) W-SW 240 ° 0 min 0,025 mm 0,5 UV-I 86 W/m² 2,7 °C 3,6 °C 4,8 km/h (1 Bft)
09.05.2017 08:02 3,6 °C 3,7 °C 94 % 1016,8 hPa 0,0 mm 3,0 km/h (1 Bft) SW 227 ° 0 min 0,000 mm 0,5 UV-I 90 W/m² 2,7 °C 3,6 °C 4,8 km/h (1 Bft)
09.05.2017 08:03 3,7 °C 3,7 °C 94 % 1016,7 hPa 0,0 mm 2,7 km/h (1 Bft) W-SW 245 ° 0 min 0,000 mm 0,6 UV-I 90 W/m² 2,8 °C 3,7 °C 4,8 km/h (1 Bft)
09.05.2017 08:04 3,7 °C 3,7 °C 94 % 1016,8 hPa 0,0 mm 2,3 km/h (1 Bft) W-SW 245 ° 0 min 0,000 mm 0,6 UV-I 90 W/m² 2,8 °C 3,7 °C 4,8 km/h (1 Bft)
09.05.2017 08:05 3,7 °C 3,7 °C 94 % 1016,8 hPa 0,0 mm 3,0 km/h (1 Bft) W-SW 255 ° 0 min 0,000 mm 0,6 UV-I 90 W/m² 2,8 °C 3,7 °C 4,8 km/h (1 Bft)
09.05.2017 08:06 3,7 °C 3,8 °C 94 % 1016,7 hPa 0,0 mm 5,0 km/h (1 Bft) W-SW 243 ° 0 min 0,000 mm 0,6 UV-I 91 W/m² 2,8 °C 2,6 °C 6,4 km/h (2 Bft)
09.05.2017 08:07 3,8 °C 3,8 °C 94 % 1016,8 hPa 0,0 mm 3,6 km/h (1 Bft) W-SW 247 ° 0 min 0,000 mm 0,6 UV-I 91 W/m² 2,9 °C 3,8 °C 6,4 km/h (2 Bft)
09.05.2017 08:08 3,8 °C 3,8 °C 94 % 1016,8 hPa 0,0 mm 3,8 km/h (1 Bft) W-SW 241 ° 0 min 0,000 mm 0,6 UV-I 91 W/m² 2,9 °C 3,8 °C 8,0 km/h (2 Bft)
09.05.2017 08:09 3,8 °C 3,8 °C 93 % 1016,7 hPa 0,0 mm 1,5 km/h (1 Bft) W-SW 242 ° 0 min 0,000 mm 0,6 UV-I 91 W/m² 2,8 °C 3,8 °C 4,8 km/h (1 Bft)
09.05.2017 08:10 3,8 °C 3,8 °C 93 % 1016,8 hPa 0,0 mm 3,4 km/h (1 Bft) W 259 ° 0 min 0,000 mm 0,6 UV-I 90 W/m² 2,8 °C 3,8 °C 4,8 km/h (1 Bft)
09.05.2017 08:11 3,8 °C 3,8 °C 93 % 1016,8 hPa 0,0 mm 6,6 km/h (2 Bft) W 277 ° 0 min 0,000 mm 0,6 UV-I 88 W/m² 2,8 °C 2,1 °C 9,7 km/h (2 Bft)
09.05.2017 08:12 3,8 °C 3,8 °C 93 % 1016,8 hPa 0,0 mm 4,2 km/h (1 Bft) W 269 ° 0 min 0,000 mm 0,6 UV-I 88 W/m² 2,8 °C 3,8 °C 6,4 km/h (2 Bft)
09.05.2017 08:13 3,8 °C 3,8 °C 93 % 1016,8 hPa 0,0 mm 2,4 km/h (1 Bft) W 269 ° 0 min 0,000 mm 0,6 UV-I 88 W/m² 2,8 °C 3,8 °C 4,8 km/h (1 Bft)
09.05.2017 08:14 3,8 °C 3,8 °C 93 % 1016,7 hPa 0,0 mm 2,0 km/h (1 Bft) W 269 ° 0 min 0,000 mm 0,6 UV-I 90 W/m² 2,8 °C 3,8 °C 4,8 km/h (1 Bft)
09.05.2017 08:15 3,8 °C 3,8 °C 93 % 1016,8 hPa 0,0 mm 2,9 km/h (1 Bft) W 269 ° 0 min 0,000 mm 0,6 UV-I 91 W/m² 2,8 °C 3,8 °C 4,8 km/h (1 Bft)
09.05.2017 08:16 3,8 °C 3,8 °C 93 % 1016,7 hPa 0,0 mm 2,8 km/h (1 Bft) W 269 ° 0 min 0,000 mm 0,6 UV-I 98 W/m² 2,8 °C 3,8 °C 3,2 km/h (1 Bft)
09.05.2017 08:17 3,8 °C 3,8 °C 93 % 1016,7 hPa 0,0 mm 3,0 km/h (1 Bft) W 269 ° 0 min 0,000 mm 0,7 UV-I 105 W/m² 2,8 °C 3,8 °C 4,8 km/h (1 Bft)
09.05.2017 08:18 3,8 °C 3,8 °C 93 % 1016,7 hPa 0,0 mm 3,0 km/h (1 Bft) W 269 ° 0 min 0,000 mm 0,7 UV-I 113 W/m² 2,8 °C 3,8 °C 4,8 km/h (1 Bft)
09.05.2017 08:19 3,8 °C 3,8 °C 93 % 1016,7 hPa 0,0 mm 3,8 km/h (1 Bft) W 269 ° 0 min 0,000 mm 0,7 UV-I 118 W/m² 2,8 °C 3,8 °C 6,4 km/h (2 Bft)
09.05.2017 08:20 3,9 °C 3,9 °C 93 % 1016,7 hPa 0,0 mm 3,0 km/h (1 Bft) W 269 ° 0 min 0,000 mm 0,7 UV-I 120 W/m² 2,9 °C 3,9 °C 3,2 km/h (1 Bft)
09.05.2017 08:21 3,9 °C 3,9 °C 93 % 1016,7 hPa 0,0 mm 1,7 km/h (1 Bft) W 269 ° 0 min 0,000 mm 0,8 UV-I 120 W/m² 2,9 °C 3,9 °C 3,2 km/h (1 Bft)
09.05.2017 08:22 3,9 °C 3,9 °C 93 % 1016,7 hPa 0,0 mm 2,2 km/h (1 Bft) W 269 ° 0 min 0,000 mm 0,8 UV-I 118 W/m² 2,9 °C 3,9 °C 4,8 km/h (1 Bft)
09.05.2017 08:23 3,9 °C 3,9 °C 93 % 1016,7 hPa 0,0 mm 2,3 km/h (1 Bft) W 269 ° 0 min 0,000 mm 0,8 UV-I 118 W/m² 2,9 °C 3,9 °C 3,2 km/h (1 Bft)
09.05.2017 08:24 3,9 °C 3,9 °C 93 % 1016,7 hPa 0,0 mm 2,3 km/h (1 Bft) W 269 ° 0 min 0,000 mm 0,8 UV-I 118 W/m² 2,9 °C 3,9 °C 4,8 km/h (1 Bft)
09.05.2017 08:25 3,9 °C 3,9 °C 93 % 1016,7 hPa 0,0 mm 3,7 km/h (1 Bft) W 270 ° 0 min 0,000 mm 0,8 UV-I 118 W/m² 2,9 °C 3,9 °C 4,8 km/h (1 Bft)
09.05.2017 08:26 4,0 °C 4,0 °C 93 % 1016,7 hPa 0,0 mm 2,7 km/h (1 Bft) W 270 ° 0 min 0,000 mm 0,8 UV-I 118 W/m² 3,0 °C 4,0 °C 4,8 km/h (1 Bft)
09.05.2017 08:27 4,1 °C 4,1 °C 93 % 1016,7 hPa 0,0 mm 2,2 km/h (1 Bft) W 269 ° 0 min 0,000 mm 0,8 UV-I 128 W/m² 3,1 °C 4,1 °C 4,8 km/h (1 Bft)
09.05.2017 08:28 4,1 °C 4,1 °C 93 % 1016,7 hPa 0,0 mm 4,0 km/h (1 Bft) W 265 ° 0 min 0,000 mm 0,9 UV-I 134 W/m² 3,1 °C 4,1 °C 6,4 km/h (2 Bft)
09.05.2017 08:29 4,1 °C 4,1 °C 93 % 1016,7 hPa 0,0 mm 5,2 km/h (1 Bft) W 266 ° 0 min 0,000 mm 0,9 UV-I 141 W/m² 3,1 °C 3,0 °C 6,4 km/h (2 Bft)
09.05.2017 08:30 4,1 °C 4,1 °C 93 % 1016,7 hPa 0,0 mm 4,7 km/h (1 Bft) W 267 ° 0 min 0,000 mm 0,9 UV-I 148 W/m² 3,1 °C 3,2 °C 6,4 km/h (2 Bft)
09.05.2017 08:31 4,1 °C 4,1 °C 93 % 1016,7 hPa 0,0 mm 0,8 km/h (0 Bft) W 267 ° 0 min 0,000 mm 1,0 UV-I 153 W/m² 3,1 °C 4,1 °C 3,2 km/h (1 Bft)
09.05.2017 08:32 4,1 °C 4,1 °C 93 % 1016,7 hPa 0,0 mm 3,0 km/h (1 Bft) W-SW 255 ° 0 min 0,000 mm 1,0 UV-I 155 W/m² 3,1 °C 4,1 °C 4,8 km/h (1 Bft)
09.05.2017 08:33 4,1 °C 4,1 °C 93 % 1016,8 hPa 0,0 mm 2,3 km/h (1 Bft) W 264 ° 0 min 0,000 mm 0,9 UV-I 141 W/m² 3,1 °C 4,1 °C 4,8 km/h (1 Bft)
09.05.2017 08:34 4,1 °C 4,2 °C 93 % 1016,8 hPa 0,0 mm 0,1 km/h (0 Bft) W 264 ° 0 min 0,000 mm 0,8 UV-I 128 W/m² 3,1 °C 4,1 °C 1,6 km/h (1 Bft)
09.05.2017 08:35 4,2 °C 4,2 °C 93 % 1016,7 hPa 0,0 mm 0,3 km/h (0 Bft) W 264 ° 0 min 0,000 mm 0,8 UV-I 116 W/m² 3,2 °C 4,2 °C 1,6 km/h (1 Bft)
09.05.2017 08:36 4,2 °C 4,2 °C 92 % 1016,8 hPa 0,0 mm 0,0 km/h (0 Bft) W 264 ° 0 min 0,000 mm 0,8 UV-I 107 W/m² 3,0 °C 4,2 °C 0,0 km/h (0 Bft)
09.05.2017 08:37 4,2 °C 4,2 °C 93 % 1016,8 hPa 0,0 mm 3,2 km/h (1 Bft) W 281 ° 0 min 0,000 mm 0,7 UV-I 104 W/m² 3,2 °C 4,2 °C 4,8 km/h (1 Bft)
09.05.2017 08:38 4,2 °C 4,2 °C 93 % 1016,8 hPa 0,0 mm 3,9 km/h (1 Bft) W 281 ° 0 min 0,000 mm 0,7 UV-I 105 W/m² 3,2 °C 4,2 °C 4,8 km/h (1 Bft)
09.05.2017 08:39 4,3 °C 4,3 °C 93 % 1016,8 hPa 0,0 mm 5,4 km/h (1 Bft) W-SW 252 ° 0 min 0,000 mm 0,7 UV-I 113 W/m² 3,3 °C 3,1 °C 6,4 km/h (2 Bft)
09.05.2017 08:40 4,2 °C 4,3 °C 92 % 1016,8 hPa 0,0 mm 9,8 km/h (2 Bft) W 260 ° 0 min 0,000 mm 0,7 UV-I 116 W/m² 3,0 °C 1,7 °C 14,5 km/h (3 Bft)
09.05.2017 08:41 4,3 °C 4,3 °C 93 % 1016,8 hPa 0,0 mm 8,5 km/h (2 Bft) W-SW 257 ° 0 min 0,000 mm 0,7 UV-I 116 W/m² 3,3 °C 2,2 °C 12,9 km/h (3 Bft)
09.05.2017 08:42 4,3 °C 4,3 °C 93 % 1016,8 hPa 0,0 mm 8,4 km/h (2 Bft) W-NW 284 ° 0 min 0,000 mm 0,7 UV-I 114 W/m² 3,3 °C 2,2 °C 11,3 km/h (2 Bft)
09.05.2017 08:43 4,3 °C 4,3 °C 93 % 1016,8 hPa 0,0 mm 4,0 km/h (1 Bft) W 275 ° 0 min 0,000 mm 0,6 UV-I 109 W/m² 3,3 °C 4,3 °C 6,4 km/h (2 Bft)
09.05.2017 08:44 4,3 °C 4,3 °C 93 % 1016,8 hPa 0,0 mm 6,0 km/h (2 Bft) W-NW 290 ° 0 min 0,000 mm 0,6 UV-I 105 W/m² 3,3 °C 2,9 °C 11,3 km/h (2 Bft)
09.05.2017 08:45 4,3 °C 4,3 °C 92 % 1016,8 hPa 0,0 mm 2,9 km/h (1 Bft) W 275 ° 0 min 0,000 mm 0,7 UV-I 107 W/m² 3,1 °C 4,3 °C 4,8 km/h (1 Bft)
09.05.2017 08:46 4,3 °C 4,3 °C 92 % 1016,8 hPa 0,0 mm 5,2 km/h (1 Bft) W 260 ° 0 min 0,000 mm 0,7 UV-I 114 W/m² 3,1 °C 3,2 °C 9,7 km/h (2 Bft)
09.05.2017 08:47 4,2 °C 4,3 °C 92 % 1016,8 hPa 0,0 mm 4,3 km/h (1 Bft) W 268 ° 0 min 0,000 mm 0,8 UV-I 123 W/m² 3,0 °C 4,2 °C 6,4 km/h (2 Bft)
09.05.2017 08:48 4,3 °C 4,3 °C 92 % 1016,8 hPa 0,0 mm 6,3 km/h (2 Bft) W-SW 257 ° 0 min 0,000 mm 0,8 UV-I 127 W/m² 3,1 °C 2,8 °C 9,7 km/h (2 Bft)
09.05.2017 08:49 4,3 °C 4,3 °C 93 % 1016,8 hPa 0,0 mm 6,4 km/h (2 Bft) W-SW 254 ° 0 min 0,000 mm 0,8 UV-I 125 W/m² 3,3 °C 2,8 °C 9,7 km/h (2 Bft)
09.05.2017 08:50 4,3 °C 4,3 °C 93 % 1016,8 hPa 0,0 mm 5,6 km/h (1 Bft) W 275 ° 0 min 0,000 mm 0,8 UV-I 121 W/m² 3,3 °C 3,1 °C 9,7 km/h (2 Bft)
09.05.2017 08:51 4,3 °C 4,3 °C 93 % 1016,8 hPa 0,0 mm 5,0 km/h (1 Bft) W 266 ° 0 min 0,000 mm 0,8 UV-I 120 W/m² 3,3 °C 3,3 °C 6,4 km/h (2 Bft)
09.05.2017 08:52 4,3 °C 4,3 °C 92 % 1016,8 hPa 0,0 mm 4,1 km/h (1 Bft) W 265 ° 0 min 0,000 mm 0,7 UV-I 114 W/m² 3,1 °C 4,3 °C 6,4 km/h (2 Bft)
09.05.2017 08:53 4,4 °C 4,4 °C 93 % 1016,8 hPa 0,0 mm 4,2 km/h (1 Bft) W 267 ° 0 min 0,000 mm 0,7 UV-I 102 W/m² 3,4 °C 4,4 °C 4,8 km/h (1 Bft)
09.05.2017 08:54 4,4 °C 4,4 °C 93 % 1016,8 hPa 0,0 mm 4,5 km/h (1 Bft) W 265 ° 0 min 0,000 mm 0,6 UV-I 95 W/m² 3,4 °C 4,4 °C 6,4 km/h (2 Bft)
09.05.2017 08:55 4,4 °C 4,4 °C 93 % 1016,9 hPa 0,0 mm 3,5 km/h (1 Bft) W 263 ° 0 min 0,000 mm 0,6 UV-I 91 W/m² 3,4 °C 4,4 °C 4,8 km/h (1 Bft)
09.05.2017 08:56 4,4 °C 4,4 °C 92 % 1016,8 hPa 0,0 mm 2,0 km/h (1 Bft) W 262 ° 0 min 0,000 mm 0,6 UV-I 84 W/m² 3,2 °C 4,4 °C 3,2 km/h (1 Bft)
09.05.2017 08:57 4,4 °C 4,4 °C 92 % 1016,8 hPa 0,0 mm 2,0 km/h (1 Bft) W 267 ° 0 min 0,000 mm 0,6 UV-I 83 W/m² 3,2 °C 4,4 °C 3,2 km/h (1 Bft)
09.05.2017 08:58 4,4 °C 4,4 °C 92 % 1016,8 hPa 0,0 mm 1,7 km/h (1 Bft) W 267 ° 0 min 0,000 mm 0,6 UV-I 84 W/m² 3,2 °C 4,4 °C 3,2 km/h (1 Bft)
09.05.2017 08:59 4,4 °C 4,4 °C 92 % 1016,8 hPa 0,0 mm 1,9 km/h (1 Bft) W 267 ° 0 min 0,000 mm 0,6 UV-I 88 W/m² 3,2 °C 4,4 °C 3,2 km/h (1 Bft)
09.05.2017 09:00 4,3 °C 4,4 °C 92 % 1016,8 hPa 0,0 mm 1,7 km/h (1 Bft) W 268 ° 0 min 0,000 mm 0,6 UV-I 91 W/m² 3,1 °C 4,3 °C 3,2 km/h (1 Bft)
09.05.2017 09:01 4,4 °C 4,4 °C 92 % 1016,8 hPa 0,0 mm 4,8 km/h (1 Bft) W-SW 258 ° 0 min 0,051 mm 0,6 UV-I 97 W/m² 3,2 °C 3,5 °C 6,4 km/h (2 Bft)
09.05.2017 09:02 4,4 °C 4,4 °C 92 % 1016,8 hPa 0,0 mm 4,0 km/h (1 Bft) W-SW 246 ° 0 min 0,000 mm 0,7 UV-I 98 W/m² 3,2 °C 4,4 °C 6,4 km/h (2 Bft)
09.05.2017 09:03 4,3 °C 4,4 °C 92 % 1016,8 hPa 0,0 mm 1,9 km/h (1 Bft) W-SW 246 ° 0 min 0,000 mm 0,7 UV-I 98 W/m² 3,1 °C 4,3 °C 3,2 km/h (1 Bft)
09.05.2017 09:04 4,3 °C 4,3 °C 92 % 1016,8 hPa 0,0 mm 2,6 km/h (1 Bft) W-SW 247 ° 0 min 0,000 mm 0,7 UV-I 97 W/m² 3,1 °C 4,3 °C 3,2 km/h (1 Bft)
09.05.2017 09:05 4,3 °C 4,3 °C 92 % 1016,8 hPa 0,0 mm 6,0 km/h (2 Bft) W 259 ° 0 min 0,000 mm 0,7 UV-I 93 W/m² 3,1 °C 2,9 °C 9,7 km/h (2 Bft)
09.05.2017 09:06 4,3 °C 4,3 °C 92 % 1016,8 hPa 0,0 mm 5,0 km/h (1 Bft) W 281 ° 0 min 0,000 mm 0,7 UV-I 90 W/m² 3,1 °C 3,3 °C 8,0 km/h (2 Bft)
09.05.2017 09:07 4,3 °C 4,3 °C 92 % 1016,8 hPa 0,0 mm 9,4 km/h (2 Bft) W 269 ° 0 min 0,000 mm 0,7 UV-I 86 W/m² 3,1 °C 2,0 °C 12,9 km/h (3 Bft)
09.05.2017 09:08 4,3 °C 4,3 °C 91 % 1016,8 hPa 0,0 mm 6,0 km/h (2 Bft) W 270 ° 0 min 0,000 mm 0,7 UV-I 86 W/m² 3,0 °C 2,9 °C 9,7 km/h (2 Bft)
09.05.2017 09:09 4,3 °C 4,3 °C 91 % 1016,8 hPa 0,0 mm 4,3 km/h (1 Bft) W 271 ° 0 min 0,000 mm 0,7 UV-I 90 W/m² 3,0 °C 4,3 °C 6,4 km/h (2 Bft)
09.05.2017 09:10 4,3 °C 4,3 °C 91 % 1016,8 hPa 0,0 mm 3,9 km/h (1 Bft) W 271 ° 0 min 0,000 mm 0,8 UV-I 98 W/m² 3,0 °C 4,3 °C 4,8 km/h (1 Bft)
09.05.2017 09:11 4,3 °C 4,3 °C 91 % 1016,8 hPa 0,0 mm 3,6 km/h (1 Bft) W 271 ° 0 min 0,000 mm 0,8 UV-I 109 W/m² 3,0 °C 4,3 °C 4,8 km/h (1 Bft)
09.05.2017 09:12 4,3 °C 4,3 °C 92 % 1016,8 hPa 0,0 mm 5,2 km/h (1 Bft) W 262 ° 0 min 0,000 mm 0,9 UV-I 116 W/m² 3,1 °C 3,2 °C 9,7 km/h (2 Bft)
09.05.2017 09:13 4,3 °C 4,4 °C 92 % 1016,8 hPa 0,0 mm 5,3 km/h (1 Bft) W-SW 254 ° 0 min 0,000 mm 0,9 UV-I 121 W/m² 3,1 °C 3,2 °C 9,7 km/h (2 Bft)
09.05.2017 09:14 4,3 °C 4,3 °C 91 % 1016,8 hPa 0,0 mm 2,2 km/h (1 Bft) W-SW 252 ° 0 min 0,000 mm 0,9 UV-I 127 W/m² 3,0 °C 4,3 °C 4,8 km/h (1 Bft)
09.05.2017 09:15 4,3 °C 4,3 °C 92 % 1016,8 hPa 0,0 mm 4,1 km/h (1 Bft) W 261 ° 0 min 0,000 mm 0,9 UV-I 125 W/m² 3,1 °C 4,3 °C 11,3 km/h (2 Bft)
09.05.2017 09:16 4,3 °C 4,3 °C 92 % 1016,8 hPa 0,0 mm 8,6 km/h (2 Bft) W-SW 253 ° 0 min 0,000 mm 0,8 UV-I 121 W/m² 3,1 °C 2,2 °C 12,9 km/h (3 Bft)
09.05.2017 09:17 4,3 °C 4,3 °C 92 % 1016,8 hPa 0,0 mm 4,7 km/h (1 Bft) W 259 ° 0 min 0,000 mm 0,8 UV-I 116 W/m² 3,1 °C 3,4 °C 6,4 km/h (2 Bft)
09.05.2017 09:18 4,4 °C 4,4 °C 92 % 1016,8 hPa 0,0 mm 5,3 km/h (1 Bft) W 269 ° 0 min 0,000 mm 0,8 UV-I 114 W/m² 3,2 °C 3,3 °C 9,7 km/h (2 Bft)
09.05.2017 09:19 4,4 °C 4,4 °C 93 % 1016,8 hPa 0,0 mm 3,5 km/h (1 Bft) W 259 ° 0 min 0,000 mm 0,8 UV-I 118 W/m² 3,4 °C 4,4 °C 6,4 km/h (2 Bft)
09.05.2017 09:20 4,4 °C 4,4 °C 92 % 1016,8 hPa 0,0 mm 2,7 km/h (1 Bft) W-SW 258 ° 0 min 0,000 mm 0,8 UV-I 127 W/m² 3,2 °C 4,4 °C 4,8 km/h (1 Bft)
09.05.2017 09:21 4,4 °C 4,4 °C 92 % 1016,8 hPa 0,0 mm 4,0 km/h (1 Bft) W 263 ° 0 min 0,000 mm 0,8 UV-I 128 W/m² 3,2 °C 4,4 °C 6,4 km/h (2 Bft)
09.05.2017 09:22 4,5 °C 4,5 °C 92 % 1016,7 hPa 0,0 mm 2,4 km/h (1 Bft) W 259 ° 0 min 0,000 mm 0,8 UV-I 128 W/m² 3,3 °C 4,5 °C 4,8 km/h (1 Bft)
09.05.2017 09:23 4,4 °C 4,5 °C 92 % 1016,8 hPa 0,0 mm 3,8 km/h (1 Bft) W 262 ° 0 min 0,000 mm 0,9 UV-I 130 W/m² 3,2 °C 4,4 °C 4,8 km/h (1 Bft)
09.05.2017 09:24 4,5 °C 4,5 °C 92 % 1016,7 hPa 0,0 mm 4,9 km/h (1 Bft) W 269 ° 0 min 0,000 mm 0,9 UV-I 132 W/m² 3,3 °C 3,6 °C 9,7 km/h (2 Bft)
09.05.2017 09:25 4,5 °C 4,5 °C 92 % 1016,7 hPa 0,0 mm 4,8 km/h (1 Bft) W 269 ° 0 min 0,000 mm 0,9 UV-I 128 W/m² 3,3 °C 3,6 °C 6,4 km/h (2 Bft)
09.05.2017 09:26 4,4 °C 4,5 °C 91 % 1016,7 hPa 0,0 mm 1,6 km/h (1 Bft) W 269 ° 0 min 0,000 mm 0,8 UV-I 111 W/m² 3,1 °C 4,4 °C 3,2 km/h (1 Bft)
09.05.2017 09:27 4,4 °C 4,4 °C 91 % 1016,8 hPa 0,0 mm 3,7 km/h (1 Bft) W 273 ° 0 min 0,000 mm 0,8 UV-I 105 W/m² 3,1 °C 4,4 °C 4,8 km/h (1 Bft)
09.05.2017 09:28 4,4 °C 4,4 °C 91 % 1016,8 hPa 0,0 mm 4,1 km/h (1 Bft) W 273 ° 0 min 0,000 mm 0,7 UV-I 102 W/m² 3,1 °C 4,4 °C 4,8 km/h (1 Bft)
09.05.2017 09:29 4,4 °C 4,5 °C 91 % 1016,7 hPa 0,0 mm 4,9 km/h (1 Bft) W 269 ° 0 min 0,000 mm 0,7 UV-I 104 W/m² 3,1 °C 3,4 °C 6,4 km/h (2 Bft)
09.05.2017 09:30 4,4 °C 4,4 °C 91 % 1016,7 hPa 0,0 mm 5,0 km/h (1 Bft) W 271 ° 0 min 0,000 mm 0,8 UV-I 111 W/m² 3,1 °C 3,4 °C 6,4 km/h (2 Bft)
09.05.2017 09:31 4,4 °C 4,4 °C 91 % 1016,8 hPa 0,0 mm 3,2 km/h (1 Bft) W 271 ° 0 min 0,000 mm 0,8 UV-I 120 W/m² 3,1 °C 4,4 °C 4,8 km/h (1 Bft)
09.05.2017 09:32 4,4 °C 4,5 °C 91 % 1016,8 hPa 0,0 mm 3,4 km/h (1 Bft) W 272 ° 0 min 0,000 mm 0,9 UV-I 139 W/m² 3,1 °C 4,4 °C 4,8 km/h (1 Bft)
09.05.2017 09:33 4,5 °C 4,5 °C 91 % 1016,8 hPa 0,0 mm 4,4 km/h (1 Bft) W 277 ° 0 min 0,000 mm 1,0 UV-I 142 W/m² 3,2 °C 4,5 °C 6,4 km/h (2 Bft)
09.05.2017 09:34 4,6 °C 4,6 °C 92 % 1016,8 hPa 0,0 mm 7,6 km/h (2 Bft) W-NW 294 ° 0 min 0,000 mm 1,0 UV-I 146 W/m² 3,4 °C 2,8 °C 12,9 km/h (3 Bft)
09.05.2017 09:35 4,6 °C 4,6 °C 91 % 1016,7 hPa 0,0 mm 5,7 km/h (1 Bft) W-NW 293 ° 0 min 0,000 mm 1,1 UV-I 153 W/m² 3,3 °C 3,4 °C 6,4 km/h (2 Bft)
09.05.2017 09:36 4,6 °C 4,6 °C 91 % 1016,8 hPa 0,0 mm 3,7 km/h (1 Bft) W 274 ° 0 min 0,000 mm 1,1 UV-I 158 W/m² 3,3 °C 4,6 °C 4,8 km/h (1 Bft)
09.05.2017 09:37 4,5 °C 4,6 °C 90 % 1016,8 hPa 0,0 mm 3,7 km/h (1 Bft) W 278 ° 0 min 0,000 mm 1,0 UV-I 149 W/m² 3,0 °C 4,5 °C 6,4 km/h (2 Bft)
09.05.2017 09:38 4,4 °C 4,5 °C 90 % 1016,8 hPa 0,0 mm 4,4 km/h (1 Bft) W-SW 254 ° 0 min 0,000 mm 0,9 UV-I 125 W/m² 2,9 °C 4,4 °C 8,0 km/h (2 Bft)
09.05.2017 09:39 4,4 °C 4,4 °C 90 % 1016,8 hPa 0,0 mm 4,4 km/h (1 Bft) W-NW 282 ° 0 min 0,000 mm 0,8 UV-I 114 W/m² 2,9 °C 4,4 °C 9,7 km/h (2 Bft)
09.05.2017 09:40 4,4 °C 4,4 °C 91 % 1016,7 hPa 0,0 mm 4,8 km/h (1 Bft) NW 312 ° 0 min 0,000 mm 0,7 UV-I 102 W/m² 3,1 °C 3,5 °C 6,4 km/h (2 Bft)
09.05.2017 09:41 4,5 °C 4,5 °C 91 % 1016,8 hPa 0,0 mm 5,2 km/h (1 Bft) W 279 ° 0 min 0,000 mm 0,7 UV-I 93 W/m² 3,2 °C 3,4 °C 9,7 km/h (2 Bft)
09.05.2017 09:42 4,5 °C 4,5 °C 91 % 1016,7 hPa 0,0 mm 4,0 km/h (1 Bft) W-NW 285 ° 0 min 0,000 mm 0,7 UV-I 91 W/m² 3,2 °C 4,5 °C 6,4 km/h (2 Bft)
09.05.2017 09:43 4,5 °C 4,5 °C 91 % 1016,8 hPa 0,0 mm 4,7 km/h (1 Bft) NW 317 ° 0 min 0,000 mm 0,7 UV-I 105 W/m² 3,2 °C 3,6 °C 9,7 km/h (2 Bft)
09.05.2017 09:44 4,5 °C 4,5 °C 91 % 1016,8 hPa 0,0 mm 3,2 km/h (1 Bft) W-NW 289 ° 0 min 0,000 mm 0,8 UV-I 114 W/m² 3,2 °C 4,5 °C 4,8 km/h (1 Bft)
09.05.2017 09:45 4,5 °C 4,5 °C 91 % 1016,8 hPa 0,0 mm 3,5 km/h (1 Bft) W-NW 290 ° 0 min 0,000 mm 0,9 UV-I 114 W/m² 3,2 °C 4,5 °C 4,8 km/h (1 Bft)
09.05.2017 09:46 4,5 °C 4,6 °C 91 % 1016,7 hPa 0,0 mm 3,4 km/h (1 Bft) W 259 ° 0 min 0,000 mm 0,8 UV-I 107 W/m² 3,2 °C 4,5 °C 9,7 km/h (2 Bft)
09.05.2017 09:47 4,5 °C 4,5 °C 91 % 1016,7 hPa 0,0 mm 2,8 km/h (1 Bft) W 269 ° 0 min 0,000 mm 0,7 UV-I 100 W/m² 3,2 °C 4,5 °C 6,4 km/h (2 Bft)
09.05.2017 09:48 4,5 °C 4,5 °C 91 % 1016,8 hPa 0,0 mm 7,7 km/h (2 Bft) W 269 ° 0 min 0,000 mm 0,7 UV-I 93 W/m² 3,2 °C 2,6 °C 12,9 km/h (3 Bft)
09.05.2017 09:49 4,5 °C 4,5 °C 92 % 1016,7 hPa 0,0 mm 3,7 km/h (1 Bft) W 267 ° 0 min 0,000 mm 0,7 UV-I 88 W/m² 3,3 °C 4,5 °C 6,4 km/h (2 Bft)
09.05.2017 09:50 4,5 °C 4,5 °C 92 % 1016,8 hPa 0,0 mm 3,4 km/h (1 Bft) W 267 ° 0 min 0,000 mm 0,7 UV-I 95 W/m² 3,3 °C 4,5 °C 4,8 km/h (1 Bft)
09.05.2017 09:51 4,5 °C 4,5 °C 92 % 1016,7 hPa 0,0 mm 4,1 km/h (1 Bft) W-NW 288 ° 0 min 0,000 mm 0,9 UV-I 114 W/m² 3,3 °C 4,5 °C 6,4 km/h (2 Bft)
09.05.2017 09:52 4,5 °C 4,6 °C 92 % 1016,7 hPa 0,0 mm 6,4 km/h (2 Bft) W-SW 252 ° 0 min 0,000 mm 1,0 UV-I 130 W/m² 3,3 °C 3,0 °C 11,3 km/h (2 Bft)
09.05.2017 09:53 4,5 °C 4,5 °C 92 % 1016,8 hPa 0,0 mm 7,2 km/h (2 Bft) W-SW 257 ° 0 min 0,000 mm 1,0 UV-I 135 W/m² 3,3 °C 2,8 °C 11,3 km/h (2 Bft)
09.05.2017 09:54 4,5 °C 4,5 °C 92 % 1016,7 hPa 0,0 mm 4,8 km/h (1 Bft) W-SW 249 ° 0 min 0,000 mm 1,0 UV-I 134 W/m² 3,3 °C 3,6 °C 8,0 km/h (2 Bft)
09.05.2017 09:55 4,5 °C 4,5 °C 92 % 1016,7 hPa 0,0 mm 5,4 km/h (1 Bft) W-SW 251 ° 0 min 0,000 mm 1,0 UV-I 128 W/m² 3,3 °C 3,4 °C 6,4 km/h (2 Bft)
09.05.2017 09:56 4,6 °C 4,6 °C 92 % 1016,7 hPa 0,0 mm 8,2 km/h (2 Bft) W-SW 256 ° 0 min 0,000 mm 0,9 UV-I 123 W/m² 3,4 °C 2,6 °C 11,3 km/h (2 Bft)
09.05.2017 09:57 4,6 °C 4,6 °C 92 % 1016,7 hPa 0,0 mm 8,0 km/h (2 Bft) W 265 ° 0 min 0,000 mm 0,9 UV-I 120 W/m² 3,4 °C 2,7 °C 11,3 km/h (2 Bft)
09.05.2017 09:58 4,6 °C 4,6 °C 92 % 1016,7 hPa 0,0 mm 4,2 km/h (1 Bft) W 277 ° 0 min 0,000 mm 0,9 UV-I 118 W/m² 3,4 °C 4,6 °C 6,4 km/h (2 Bft)
09.05.2017 09:59 4,6 °C 4,6 °C 92 % 1016,7 hPa 0,0 mm 6,2 km/h (2 Bft) W-SW 246 ° 0 min 0,000 mm 0,9 UV-I 118 W/m² 3,4 °C 3,2 °C 11,3 km/h (2 Bft)
09.05.2017 10:00 4,6 °C 4,6 °C 92 % 1016,7 hPa 0,0 mm 9,1 km/h (2 Bft) W 259 ° 0 min 0,000 mm 0,9 UV-I 116 W/m² 3,4 °C 2,4 °C 12,9 km/h (3 Bft)
09.05.2017 10:01 4,7 °C 4,7 °C 93 % 1016,7 hPa 0,0 mm 5,9 km/h (2 Bft) W 266 ° 0 min 0,051 mm 0,9 UV-I 116 W/m² 3,7 °C 3,4 °C 8,0 km/h (2 Bft)
09.05.2017 10:02 4,7 °C 4,7 °C 93 % 1016,7 hPa 0,0 mm 4,8 km/h (1 Bft) W 261 ° 0 min 0,000 mm 0,9 UV-I 116 W/m² 3,7 °C 3,8 °C 6,4 km/h (2 Bft)
09.05.2017 10:03 4,6 °C 4,7 °C 92 % 1016,8 hPa 0,0 mm 5,2 km/h (1 Bft) W 265 ° 0 min 0,000 mm 0,9 UV-I 116 W/m² 3,4 °C 3,6 °C 9,7 km/h (2 Bft)
09.05.2017 10:04 4,6 °C 4,6 °C 92 % 1016,7 hPa 0,0 mm 7,0 km/h (2 Bft) W 281 ° 0 min 0,000 mm 0,9 UV-I 120 W/m² 3,4 °C 2,9 °C 11,3 km/h (2 Bft)
09.05.2017 10:05 4,6 °C 4,6 °C 92 % 1016,7 hPa 0,0 mm 6,9 km/h (2 Bft) W 277 ° 0 min 0,000 mm 1,0 UV-I 127 W/m² 3,4 °C 3,0 °C 11,3 km/h (2 Bft)
09.05.2017 10:06 4,6 °C 4,7 °C 92 % 1016,7 hPa 0,0 mm 6,9 km/h (2 Bft) W-NW 288 ° 0 min 0,000 mm 1,1 UV-I 134 W/m² 3,4 °C 3,0 °C 9,7 km/h (2 Bft)
09.05.2017 10:07 4,6 °C 4,6 °C 91 % 1016,7 hPa 0,0 mm 7,1 km/h (2 Bft) W 261 ° 0 min 0,000 mm 1,1 UV-I 144 W/m² 3,3 °C 2,9 °C 9,7 km/h (2 Bft)
09.05.2017 10:08 4,6 °C 4,6 °C 92 % 1016,8 hPa 0,0 mm 9,5 km/h (2 Bft) W 270 ° 0 min 0,000 mm 1,1 UV-I 144 W/m² 3,4 °C 2,3 °C 12,9 km/h (3 Bft)
09.05.2017 10:09 4,6 °C 4,6 °C 91 % 1016,8 hPa 0,0 mm 6,3 km/h (2 Bft) W-NW 287 ° 0 min 0,000 mm 1,1 UV-I 142 W/m² 3,3 °C 3,2 °C 8,0 km/h (2 Bft)
09.05.2017 10:10 4,6 °C 4,6 °C 91 % 1016,8 hPa 0,0 mm 7,3 km/h (2 Bft) W 277 ° 0 min 0,000 mm 1,1 UV-I 139 W/m² 3,3 °C 2,9 °C 9,7 km/h (2 Bft)
09.05.2017 10:11 4,6 °C 4,6 °C 92 % 1016,8 hPa 0,0 mm 5,2 km/h (1 Bft) W-SW 253 ° 0 min 0,000 mm 1,1 UV-I 142 W/m² 3,4 °C 3,6 °C 8,0 km/h (2 Bft)
09.05.2017 10:12 4,6 °C 4,6 °C 92 % 1016,8 hPa 0,0 mm 7,0 km/h (2 Bft) W 267 ° 0 min 0,000 mm 1,2 UV-I 151 W/m² 3,4 °C 2,9 °C 11,3 km/h (2 Bft)
09.05.2017 10:13 4,6 °C 4,6 °C 92 % 1016,8 hPa 0,0 mm 4,4 km/h (1 Bft) W-SW 256 ° 0 min 0,000 mm 1,3 UV-I 158 W/m² 3,4 °C 4,6 °C 6,4 km/h (2 Bft)
09.05.2017 10:14 4,7 °C 4,7 °C 92 % 1016,8 hPa 0,0 mm 7,9 km/h (2 Bft) W 272 ° 0 min 0,000 mm 1,3 UV-I 158 W/m² 3,5 °C 2,8 °C 11,3 km/h (2 Bft)
09.05.2017 10:15 4,7 °C 4,7 °C 92 % 1016,8 hPa 0,0 mm 8,7 km/h (2 Bft) W-SW 254 ° 0 min 0,000 mm 1,3 UV-I 156 W/m² 3,5 °C 2,6 °C 11,3 km/h (2 Bft)
09.05.2017 10:16 4,7 °C 4,7 °C 92 % 1016,8 hPa 0,0 mm 8,9 km/h (2 Bft) W-NW 293 ° 0 min 0,000 mm 1,3 UV-I 155 W/m² 3,5 °C 2,6 °C 12,9 km/h (3 Bft)
09.05.2017 10:17 4,7 °C 4,7 °C 91 % 1016,8 hPa 0,0 mm 6,0 km/h (2 Bft) W-SW 257 ° 0 min 0,000 mm 1,3 UV-I 155 W/m² 3,4 °C 3,4 °C 12,9 km/h (3 Bft)
09.05.2017 10:18 4,7 °C 4,7 °C 92 % 1016,8 hPa 0,0 mm 7,4 km/h (2 Bft) W 265 ° 0 min 0,000 mm 1,3 UV-I 156 W/m² 3,5 °C 2,9 °C 12,9 km/h (3 Bft)
09.05.2017 10:19 4,7 °C 4,7 °C 92 % 1016,8 hPa 0,0 mm 5,1 km/h (1 Bft) W-SW 258 ° 0 min 0,000 mm 1,3 UV-I 167 W/m² 3,5 °C 3,7 °C 9,7 km/h (2 Bft)
09.05.2017 10:20 4,8 °C 4,8 °C 92 % 1016,8 hPa 0,0 mm 6,6 km/h (2 Bft) W 263 ° 0 min 0,000 mm 1,4 UV-I 172 W/m² 3,6 °C 3,3 °C 11,3 km/h (2 Bft)
09.05.2017 10:21 4,8 °C 4,8 °C 92 % 1016,8 hPa 0,0 mm 6,8 km/h (2 Bft) W 264 ° 0 min 0,000 mm 1,4 UV-I 174 W/m² 3,6 °C 3,2 °C 11,3 km/h (2 Bft)
09.05.2017 10:22 4,8 °C 4,8 °C 92 % 1016,8 hPa 0,0 mm 6,4 km/h (2 Bft) W 270 ° 0 min 0,000 mm 1,4 UV-I 174 W/m² 3,6 °C 3,4 °C 9,7 km/h (2 Bft)
09.05.2017 10:23 4,8 °C 4,8 °C 91 % 1016,8 hPa 0,0 mm 6,6 km/h (2 Bft) W 273 ° 0 min 0,000 mm 1,3 UV-I 167 W/m² 3,5 °C 3,3 °C 9,7 km/h (2 Bft)
09.05.2017 10:24 4,8 °C 4,8 °C 92 % 1016,8 hPa 0,0 mm 5,7 km/h (1 Bft) W 264 ° 0 min 0,000 mm 1,3 UV-I 148 W/m² 3,6 °C 3,6 °C 11,3 km/h (2 Bft)
09.05.2017 10:25 4,8 °C 4,8 °C 92 % 1016,8 hPa 0,0 mm 5,7 km/h (1 Bft) W 260 ° 0 min 0,000 mm 1,2 UV-I 141 W/m² 3,6 °C 3,6 °C 9,7 km/h (2 Bft)
09.05.2017 10:26 4,8 °C 4,8 °C 92 % 1016,8 hPa 0,0 mm 9,6 km/h (2 Bft) W 275 ° 0 min 0,000 mm 1,1 UV-I 137 W/m² 3,6 °C 2,5 °C 12,9 km/h (3 Bft)
09.05.2017 10:27 4,8 °C 4,8 °C 91 % 1016,8 hPa 0,0 mm 7,8 km/h (2 Bft) W 275 ° 0 min 0,000 mm 1,2 UV-I 141 W/m² 3,5 °C 3,0 °C 12,9 km/h (3 Bft)
09.05.2017 10:28 4,8 °C 4,8 °C 91 % 1016,8 hPa 0,0 mm 3,8 km/h (1 Bft) W-SW 251 ° 0 min 0,000 mm 1,2 UV-I 144 W/m² 3,5 °C 4,8 °C 4,8 km/h (1 Bft)
09.05.2017 10:29 4,7 °C 4,8 °C 91 % 1016,8 hPa 0,0 mm 8,6 km/h (2 Bft) W 265 ° 0 min 0,000 mm 1,2 UV-I 148 W/m² 3,4 °C 2,6 °C 12,9 km/h (3 Bft)
09.05.2017 10:30 4,7 °C 4,8 °C 91 % 1016,8 hPa 0,0 mm 5,2 km/h (1 Bft) W 276 ° 0 min 0,000 mm 1,2 UV-I 148 W/m² 3,4 °C 3,7 °C 6,4 km/h (2 Bft)
09.05.2017 10:31 4,8 °C 4,8 °C 91 % 1016,8 hPa 0,0 mm 9,8 km/h (2 Bft) W 267 ° 0 min 0,000 mm 1,1 UV-I 142 W/m² 3,5 °C 2,5 °C 12,9 km/h (3 Bft)
09.05.2017 10:32 4,7 °C 4,8 °C 91 % 1016,8 hPa 0,0 mm 10,7 km/h (2 Bft) W-SW 257 ° 0 min 0,000 mm 1,1 UV-I 137 W/m² 3,4 °C 2,2 °C 14,5 km/h (3 Bft)
09.05.2017 10:33 4,7 °C 4,7 °C 91 % 1016,8 hPa 0,0 mm 12,9 km/h (3 Bft) W 264 ° 0 min 0,000 mm 1,1 UV-I 128 W/m² 3,4 °C 1,7 °C 17,7 km/h (3 Bft)
09.05.2017 10:34 4,7 °C 4,7 °C 91 % 1016,8 hPa 0,0 mm 9,8 km/h (2 Bft) W 274 ° 0 min 0,000 mm 1,0 UV-I 121 W/m² 3,4 °C 2,3 °C 16,1 km/h (3 Bft)
09.05.2017 10:35 4,7 °C 4,7 °C 91 % 1016,8 hPa 0,0 mm 7,6 km/h (2 Bft) W 267 ° 0 min 0,000 mm 1,0 UV-I 114 W/m² 3,4 °C 2,9 °C 12,9 km/h (3 Bft)
09.05.2017 10:36 4,6 °C 4,7 °C 91 % 1016,8 hPa 0,0 mm 11,0 km/h (2 Bft) W 267 ° 0 min 0,000 mm 1,0 UV-I 114 W/m² 3,3 °C 2,0 °C 12,9 km/h (3 Bft)
09.05.2017 10:37 4,6 °C 4,7 °C 91 % 1016,8 hPa 0,0 mm 6,3 km/h (2 Bft) W 274 ° 0 min 0,000 mm 1,0 UV-I 121 W/m² 3,3 °C 3,2 °C 11,3 km/h (2 Bft)
09.05.2017 10:38 4,6 °C 4,7 °C 91 % 1016,8 hPa 0,0 mm 8,2 km/h (2 Bft) W-SW 252 ° 0 min 0,000 mm 1,1 UV-I 134 W/m² 3,3 °C 2,6 °C 14,5 km/h (3 Bft)
09.05.2017 10:39 4,6 °C 4,7 °C 91 % 1016,8 hPa 0,0 mm 8,2 km/h (2 Bft) W 260 ° 0 min 0,000 mm 1,2 UV-I 151 W/m² 3,3 °C 2,6 °C 12,9 km/h (3 Bft)
09.05.2017 10:40 4,6 °C 4,7 °C 91 % 1016,8 hPa 0,0 mm 5,7 km/h (1 Bft) W 265 ° 0 min 0,000 mm 1,3 UV-I 165 W/m² 3,3 °C 3,4 °C 6,4 km/h (2 Bft)
09.05.2017 10:41 4,7 °C 4,7 °C 92 % 1016,8 hPa 0,0 mm 6,8 km/h (2 Bft) W-NW 286 ° 0 min 0,000 mm 1,3 UV-I 172 W/m² 3,5 °C 3,1 °C 9,7 km/h (2 Bft)
09.05.2017 10:42 4,7 °C 4,7 °C 92 % 1016,8 hPa 0,0 mm 7,7 km/h (2 Bft) W-NW 284 ° 0 min 0,000 mm 1,3 UV-I 169 W/m² 3,5 °C 2,9 °C 11,3 km/h (2 Bft)
09.05.2017 10:43 4,8 °C 4,8 °C 92 % 1016,8 hPa 0,0 mm 6,4 km/h (2 Bft) W-SW 256 ° 0 min 0,000 mm 1,2 UV-I 160 W/m² 3,6 °C 3,4 °C 12,9 km/h (3 Bft)
09.05.2017 10:44 4,7 °C 4,8 °C 92 % 1016,8 hPa 0,0 mm 4,2 km/h (1 Bft) W-SW 238 ° 0 min 0,000 mm 1,2 UV-I 151 W/m² 3,5 °C 4,7 °C 6,4 km/h (2 Bft)
09.05.2017 10:45 4,7 °C 4,7 °C 90 % 1016,8 hPa 0,0 mm 3,1 km/h (1 Bft) W 261 ° 0 min 0,000 mm 1,1 UV-I 144 W/m² 3,2 °C 4,7 °C 6,4 km/h (2 Bft)
09.05.2017 10:46 4,7 °C 4,7 °C 91 % 1016,9 hPa 0,0 mm 5,7 km/h (1 Bft) W 281 ° 0 min 0,000 mm 1,1 UV-I 141 W/m² 3,4 °C 3,5 °C 11,3 km/h (2 Bft)
09.05.2017 10:47 4,7 °C 4,7 °C 92 % 1016,8 hPa 0,0 mm 5,9 km/h (2 Bft) W-SW 244 ° 0 min 0,000 mm 1,1 UV-I 137 W/m² 3,5 °C 3,4 °C 9,7 km/h (2 Bft)
09.05.2017 10:48 4,8 °C 4,8 °C 91 % 1016,9 hPa 0,0 mm 0,7 km/h (0 Bft) W-SW 244 ° 0 min 0,000 mm 1,0 UV-I 130 W/m² 3,5 °C 4,8 °C 1,6 km/h (1 Bft)
09.05.2017 10:49 4,8 °C 4,8 °C 92 % 1016,8 hPa 0,0 mm 3,1 km/h (1 Bft) W-NW 298 ° 0 min 0,000 mm 1,0 UV-I 128 W/m² 3,6 °C 4,8 °C 4,8 km/h (1 Bft)
09.05.2017 10:50 4,8 °C 4,8 °C 92 % 1016,8 hPa 0,0 mm 5,3 km/h (1 Bft) W 274 ° 0 min 0,000 mm 1,0 UV-I 130 W/m² 3,6 °C 3,7 °C 11,3 km/h (2 Bft)
09.05.2017 10:51 4,8 °C 4,8 °C 91 % 1016,9 hPa 0,0 mm 6,2 km/h (2 Bft) W 266 ° 0 min 0,000 mm 1,0 UV-I 127 W/m² 3,5 °C 3,4 °C 9,7 km/h (2 Bft)
09.05.2017 10:52 4,8 °C 4,8 °C 91 % 1016,8 hPa 0,0 mm 4,3 km/h (1 Bft) W 263 ° 0 min 0,000 mm 0,9 UV-I 118 W/m² 3,5 °C 4,8 °C 6,4 km/h (2 Bft)
09.05.2017 10:53 4,8 °C 4,8 °C 91 % 1016,8 hPa 0,0 mm 4,3 km/h (1 Bft) W-SW 256 ° 0 min 0,000 mm 0,9 UV-I 109 W/m² 3,5 °C 4,8 °C 8,0 km/h (2 Bft)
09.05.2017 10:54 4,8 °C 4,8 °C 91 % 1016,8 hPa 0,0 mm 4,6 km/h (1 Bft) W 271 ° 0 min 0,000 mm 0,8 UV-I 107 W/m² 3,5 °C 4,0 °C 11,3 km/h (2 Bft)
09.05.2017 10:55 4,8 °C 4,8 °C 91 % 1016,8 hPa 0,0 mm 3,9 km/h (1 Bft) W 262 ° 0 min 0,000 mm 0,9 UV-I 111 W/m² 3,5 °C 4,8 °C 9,7 km/h (2 Bft)
09.05.2017 10:56 4,8 °C 4,8 °C 91 % 1016,9 hPa 0,0 mm 7,2 km/h (2 Bft) W-SW 252 ° 0 min 0,000 mm 0,9 UV-I 114 W/m² 3,5 °C 3,1 °C 11,3 km/h (2 Bft)
09.05.2017 10:57 4,8 °C 4,8 °C 91 % 1016,8 hPa 0,0 mm 5,7 km/h (1 Bft) W 262 ° 0 min 0,000 mm 0,9 UV-I 116 W/m² 3,5 °C 3,6 °C 6,4 km/h (2 Bft)
09.05.2017 10:58 4,8 °C 4,8 °C 91 % 1016,8 hPa 0,0 mm 2,7 km/h (1 Bft) W 262 ° 0 min 0,000 mm 0,9 UV-I 113 W/m² 3,5 °C 4,8 °C 4,8 km/h (1 Bft)
09.05.2017 10:59 4,8 °C 4,8 °C 91 % 1016,8 hPa 0,0 mm 3,0 km/h (1 Bft) W 262 ° 0 min 0,000 mm 0,9 UV-I 111 W/m² 3,5 °C 4,8 °C 4,8 km/h (1 Bft)
09.05.2017 11:00 4,8 °C 4,8 °C 91 % 1016,8 hPa 0,0 mm 3,0 km/h (1 Bft) W 265 ° 0 min 0,000 mm 0,9 UV-I 109 W/m² 3,5 °C 4,8 °C 4,8 km/h (1 Bft)
09.05.2017 11:01 4,9 °C 4,9 °C 91 % 1016,9 hPa 0,0 mm 3,1 km/h (1 Bft) W-SW 256 ° 0 min 0,051 mm 0,9 UV-I 109 W/m² 3,6 °C 4,9 °C 6,4 km/h (2 Bft)
09.05.2017 11:02 4,9 °C 4,9 °C 91 % 1016,9 hPa 0,0 mm 5,1 km/h (1 Bft) W-SW 253 ° 0 min 0,000 mm 0,9 UV-I 109 W/m² 3,6 °C 3,9 °C 6,4 km/h (2 Bft)
09.05.2017 11:03 4,9 °C 4,9 °C 91 % 1016,9 hPa 0,0 mm 4,0 km/h (1 Bft) W 280 ° 0 min 0,000 mm 0,9 UV-I 109 W/m² 3,6 °C 4,9 °C 6,4 km/h (2 Bft)
09.05.2017 11:04 4,8 °C 4,9 °C 91 % 1016,9 hPa 0,0 mm 4,1 km/h (1 Bft) W 274 ° 0 min 0,000 mm 0,8 UV-I 105 W/m² 3,5 °C 4,8 °C 6,4 km/h (2 Bft)
09.05.2017 11:05 4,9 °C 4,9 °C 91 % 1016,9 hPa 0,0 mm 1,7 km/h (1 Bft) W 274 ° 0 min 0,000 mm 0,8 UV-I 102 W/m² 3,6 °C 4,9 °C 3,2 km/h (1 Bft)
09.05.2017 11:06 4,9 °C 4,9 °C 91 % 1016,9 hPa 0,0 mm 2,8 km/h (1 Bft) W-SW 250 ° 0 min 0,000 mm 0,8 UV-I 95 W/m² 3,6 °C 4,9 °C 8,0 km/h (2 Bft)
09.05.2017 11:07 4,9 °C 4,9 °C 91 % 1016,9 hPa 0,0 mm 5,0 km/h (1 Bft) W 268 ° 0 min 0,000 mm 0,7 UV-I 91 W/m² 3,6 °C 4,0 °C 11,3 km/h (2 Bft)
09.05.2017 11:08 4,9 °C 4,9 °C 91 % 1016,9 hPa 0,0 mm 6,8 km/h (2 Bft) W 273 ° 0 min 0,000 mm 0,7 UV-I 91 W/m² 3,6 °C 3,4 °C 11,3 km/h (2 Bft)
09.05.2017 11:09 4,8 °C 4,9 °C 91 % 1016,9 hPa 0,0 mm 9,7 km/h (2 Bft) W-SW 256 ° 0 min 0,000 mm 0,7 UV-I 91 W/m² 3,5 °C 2,5 °C 12,9 km/h (3 Bft)
09.05.2017 11:10 4,8 °C 4,9 °C 91 % 1016,9 hPa 0,0 mm 6,2 km/h (2 Bft) W-SW 256 ° 0 min 0,000 mm 0,7 UV-I 91 W/m² 3,5 °C 3,4 °C 9,7 km/h (2 Bft)
09.05.2017 11:11 4,8 °C 4,9 °C 91 % 1016,9 hPa 0,0 mm 4,6 km/h (1 Bft) W 264 ° 0 min 0,000 mm 0,7 UV-I 91 W/m² 3,5 °C 4,0 °C 9,7 km/h (2 Bft)
09.05.2017 11:12 4,8 °C 4,8 °C 90 % 1016,9 hPa 0,0 mm 7,4 km/h (2 Bft) W 276 ° 0 min 0,000 mm 0,7 UV-I 93 W/m² 3,3 °C 3,1 °C 9,7 km/h (2 Bft)
09.05.2017 11:13 4,8 °C 4,8 °C 90 % 1016,9 hPa 0,0 mm 1,8 km/h (1 Bft) W 276 ° 0 min 0,000 mm 0,7 UV-I 91 W/m² 3,3 °C 4,8 °C 3,2 km/h (1 Bft)
09.05.2017 11:14 4,9 °C 4,9 °C 91 % 1016,9 hPa 0,0 mm 4,4 km/h (1 Bft) W 264 ° 0 min 0,000 mm 0,8 UV-I 91 W/m² 3,6 °C 4,9 °C 6,4 km/h (2 Bft)
09.05.2017 11:15 4,9 °C 4,9 °C 91 % 1016,9 hPa 0,0 mm 2,7 km/h (1 Bft) W-NW 282 ° 0 min 0,000 mm 0,8 UV-I 93 W/m² 3,6 °C 4,9 °C 4,8 km/h (1 Bft)
09.05.2017 11:16 4,9 °C 4,9 °C 91 % 1017,0 hPa 0,0 mm 1,4 km/h (1 Bft) W-NW 284 ° 0 min 0,000 mm 0,8 UV-I 98 W/m² 3,6 °C 4,9 °C 3,2 km/h (1 Bft)
09.05.2017 11:17 4,9 °C 4,9 °C 91 % 1017,0 hPa 0,0 mm 2,7 km/h (1 Bft) W 270 ° 0 min 0,000 mm 0,8 UV-I 105 W/m² 3,6 °C 4,9 °C 4,8 km/h (1 Bft)
09.05.2017 11:18 4,9 °C 4,9 °C 91 % 1017,0 hPa 0,0 mm 2,7 km/h (1 Bft) W 263 ° 0 min 0,000 mm 0,8 UV-I 105 W/m² 3,6 °C 4,9 °C 6,4 km/h (2 Bft)
09.05.2017 11:19 4,9 °C 4,9 °C 90 % 1017,0 hPa 0,0 mm 3,7 km/h (1 Bft) W 262 ° 0 min 0,000 mm 0,8 UV-I 104 W/m² 3,4 °C 4,9 °C 6,4 km/h (2 Bft)
09.05.2017 11:20 4,9 °C 4,9 °C 90 % 1017,0 hPa 0,0 mm 5,2 km/h (1 Bft) W 273 ° 0 min 0,000 mm 0,8 UV-I 100 W/m² 3,4 °C 3,9 °C 6,4 km/h (2 Bft)
09.05.2017 11:21 4,9 °C 4,9 °C 90 % 1017,0 hPa 0,0 mm 6,7 km/h (2 Bft) W-NW 290 ° 0 min 0,000 mm 0,8 UV-I 95 W/m² 3,4 °C 3,4 °C 9,7 km/h (2 Bft)
09.05.2017 11:22 4,9 °C 4,9 °C 90 % 1017,0 hPa 0,0 mm 4,0 km/h (1 Bft) W-NW 290 ° 0 min 0,000 mm 0,8 UV-I 90 W/m² 3,4 °C 4,9 °C 6,4 km/h (2 Bft)
09.05.2017 11:23 4,9 °C 4,9 °C 90 % 1017,0 hPa 0,0 mm 4,0 km/h (1 Bft) W 273 ° 0 min 0,000 mm 0,7 UV-I 90 W/m² 3,4 °C 4,9 °C 6,4 km/h (2 Bft)
09.05.2017 11:24 4,9 °C 4,9 °C 90 % 1017,0 hPa 0,0 mm 5,3 km/h (1 Bft) W 261 ° 0 min 0,000 mm 0,8 UV-I 97 W/m² 3,4 °C 3,9 °C 11,3 km/h (2 Bft)
09.05.2017 11:25 4,9 °C 4,9 °C 89 % 1017,0 hPa 0,0 mm 7,8 km/h (2 Bft) W-SW 258 ° 0 min 0,000 mm 0,9 UV-I 105 W/m² 3,2 °C 3,1 °C 11,3 km/h (2 Bft)
09.05.2017 11:26 4,9 °C 4,9 °C 89 % 1017,0 hPa 0,0 mm 5,6 km/h (1 Bft) W-SW 257 ° 0 min 0,000 mm 1,0 UV-I 116 W/m² 3,2 °C 3,7 °C 8,0 km/h (2 Bft)
09.05.2017 11:27 4,8 °C 4,9 °C 90 % 1016,9 hPa 0,0 mm 3,6 km/h (1 Bft) W-SW 257 ° 0 min 0,000 mm 1,0 UV-I 125 W/m² 3,3 °C 4,8 °C 4,8 km/h (1 Bft)
09.05.2017 11:28 4,9 °C 4,9 °C 90 % 1016,9 hPa 0,0 mm 4,8 km/h (1 Bft) W-NW 296 ° 0 min 0,000 mm 1,1 UV-I 134 W/m² 3,4 °C 4,0 °C 8,0 km/h (2 Bft)
09.05.2017 11:29 4,9 °C 4,9 °C 91 % 1016,9 hPa 0,0 mm 4,2 km/h (1 Bft) W 271 ° 0 min 0,000 mm 1,2 UV-I 142 W/m² 3,6 °C 4,9 °C 6,4 km/h (2 Bft)
09.05.2017 11:30 4,9 °C 5,0 °C 90 % 1017,0 hPa 0,0 mm 4,9 km/h (1 Bft) W-SW 254 ° 0 min 0,000 mm 1,2 UV-I 139 W/m² 3,4 °C 4,0 °C 11,3 km/h (2 Bft)
09.05.2017 11:31 4,9 °C 4,9 °C 90 % 1016,9 hPa 0,0 mm 7,0 km/h (2 Bft) W 265 ° 0 min 0,000 mm 1,1 UV-I 134 W/m² 3,4 °C 3,3 °C 11,3 km/h (2 Bft)
09.05.2017 11:32 4,9 °C 4,9 °C 89 % 1017,0 hPa 0,0 mm 5,1 km/h (1 Bft) W-NW 284 ° 0 min 0,000 mm 1,0 UV-I 125 W/m² 3,2 °C 3,9 °C 11,3 km/h (2 Bft)
09.05.2017 11:33 4,9 °C 4,9 °C 90 % 1017,0 hPa 0,0 mm 4,1 km/h (1 Bft) W 264 ° 0 min 0,000 mm 1,0 UV-I 118 W/m² 3,4 °C 4,9 °C 6,4 km/h (2 Bft)
09.05.2017 11:34 4,9 °C 4,9 °C 89 % 1017,0 hPa 0,0 mm 7,1 km/h (2 Bft) W 271 ° 0 min 0,000 mm 0,9 UV-I 113 W/m² 3,2 °C 3,3 °C 9,7 km/h (2 Bft)
09.05.2017 11:35 4,9 °C 4,9 °C 89 % 1017,0 hPa 0,0 mm 4,7 km/h (1 Bft) W-NW 283 ° 0 min 0,000 mm 0,9 UV-I 107 W/m² 3,2 °C 4,1 °C 6,4 km/h (2 Bft)
09.05.2017 11:36 4,9 °C 4,9 °C 90 % 1017,0 hPa 0,0 mm 4,7 km/h (1 Bft) W 275 ° 0 min 0,000 mm 0,9 UV-I 109 W/m² 3,4 °C 4,1 °C 6,4 km/h (2 Bft)
09.05.2017 11:37 4,9 °C 4,9 °C 89 % 1017,0 hPa 0,0 mm 2,4 km/h (1 Bft) W 275 ° 0 min 0,000 mm 0,9 UV-I 111 W/m² 3,2 °C 4,9 °C 4,8 km/h (1 Bft)
09.05.2017 11:38 4,9 °C 4,9 °C 90 % 1017,0 hPa 0,0 mm 3,5 km/h (1 Bft) W-NW 287 ° 0 min 0,000 mm 0,9 UV-I 111 W/m² 3,4 °C 4,9 °C 6,4 km/h (2 Bft)
09.05.2017 11:39 4,9 °C 4,9 °C 91 % 1017,1 hPa 0,0 mm 4,1 km/h (1 Bft) W-NW 287 ° 0 min 0,000 mm 0,9 UV-I 109 W/m² 3,6 °C 4,9 °C 6,4 km/h (2 Bft)
09.05.2017 11:40 5,0 °C 5,0 °C 90 % 1017,1 hPa 0,0 mm 3,2 km/h (1 Bft) W-SW 254 ° 0 min 0,000 mm 0,9 UV-I 105 W/m² 3,5 °C 5,0 °C 6,4 km/h (2 Bft)
09.05.2017 11:41 5,0 °C 5,0 °C 90 % 1017,1 hPa 0,0 mm 1,5 km/h (1 Bft) W 277 ° 0 min 0,000 mm 0,8 UV-I 97 W/m² 3,5 °C 5,0 °C 3,2 km/h (1 Bft)
09.05.2017 11:42 4,9 °C 5,0 °C 90 % 1017,1 hPa 0,0 mm 2,2 km/h (1 Bft) W 279 ° 0 min 0,000 mm 0,8 UV-I 95 W/m² 3,4 °C 4,9 °C 4,8 km/h (1 Bft)
09.05.2017 11:43 5,0 °C 5,0 °C 89 % 1017,2 hPa 0,0 mm 4,2 km/h (1 Bft) W-NW 283 ° 0 min 0,000 mm 0,8 UV-I 97 W/m² 3,3 °C 5,0 °C 6,4 km/h (2 Bft)
09.05.2017 11:44 5,0 °C 5,0 °C 90 % 1017,1 hPa 0,0 mm 4,2 km/h (1 Bft) W 275 ° 0 min 0,000 mm 0,9 UV-I 104 W/m² 3,5 °C 5,0 °C 6,4 km/h (2 Bft)
09.05.2017 11:45 5,1 °C 5,1 °C 90 % 1017,1 hPa 0,0 mm 4,9 km/h (1 Bft) W 268 ° 0 min 0,000 mm 1,0 UV-I 116 W/m² 3,6 °C 4,2 °C 6,4 km/h (2 Bft)
09.05.2017 11:46 5,0 °C 5,1 °C 89 % 1017,2 hPa 0,0 mm 3,3 km/h (1 Bft) W 269 ° 0 min 0,000 mm 1,1 UV-I 128 W/m² 3,3 °C 5,0 °C 4,8 km/h (1 Bft)
09.05.2017 11:47 5,1 °C 5,1 °C 90 % 1017,2 hPa 0,0 mm 4,6 km/h (1 Bft) W-NW 286 ° 0 min 0,000 mm 1,1 UV-I 128 W/m² 3,6 °C 4,4 °C 6,4 km/h (2 Bft)
09.05.2017 11:48 5,1 °C 5,1 °C 90 % 1017,2 hPa 0,0 mm 4,7 km/h (1 Bft) W 267 ° 0 min 0,000 mm 0,9 UV-I 114 W/m² 3,6 °C 4,3 °C 9,7 km/h (2 Bft)
09.05.2017 11:49 5,1 °C 5,1 °C 90 % 1017,2 hPa 0,0 mm 7,5 km/h (2 Bft) W-NW 299 ° 0 min 0,000 mm 0,8 UV-I 102 W/m² 3,6 °C 3,4 °C 11,3 km/h (2 Bft)
09.05.2017 11:50 5,1 °C 5,1 °C 90 % 1017,2 hPa 0,0 mm 6,0 km/h (2 Bft) NW 304 ° 0 min 0,000 mm 0,8 UV-I 91 W/m² 3,6 °C 3,8 °C 11,3 km/h (2 Bft)
09.05.2017 11:51 5,1 °C 5,1 °C 90 % 1017,2 hPa 0,0 mm 2,3 km/h (1 Bft) NW 304 ° 0 min 0,000 mm 0,7 UV-I 86 W/m² 3,6 °C 5,1 °C 3,2 km/h (1 Bft)
09.05.2017 11:52 5,0 °C 5,1 °C 90 % 1017,2 hPa 0,0 mm 3,2 km/h (1 Bft) NW 304 ° 0 min 0,000 mm 0,7 UV-I 79 W/m² 3,5 °C 5,0 °C 4,8 km/h (1 Bft)
09.05.2017 11:53 5,0 °C 5,0 °C 90 % 1017,2 hPa 0,0 mm 4,4 km/h (1 Bft) W-NW 301 ° 0 min 0,000 mm 0,6 UV-I 77 W/m² 3,5 °C 5,0 °C 8,0 km/h (2 Bft)
09.05.2017 11:54 4,9 °C 5,0 °C 90 % 1017,2 hPa 0,0 mm 8,4 km/h (2 Bft) NW 305 ° 0 min 0,000 mm 0,6 UV-I 74 W/m² 3,4 °C 2,9 °C 12,9 km/h (3 Bft)
09.05.2017 11:55 4,9 °C 4,9 °C 90 % 1017,2 hPa 0,0 mm 7,0 km/h (2 Bft) NW 312 ° 0 min 0,000 mm 0,6 UV-I 72 W/m² 3,4 °C 3,3 °C 9,7 km/h (2 Bft)
09.05.2017 11:56 4,8 °C 4,9 °C 89 % 1017,3 hPa 0,0 mm 12,7 km/h (3 Bft) NW 318 ° 0 min 0,000 mm 0,6 UV-I 70 W/m² 3,1 °C 1,9 °C 16,1 km/h (3 Bft)
09.05.2017 11:57 4,7 °C 4,8 °C 89 % 1017,3 hPa 0,0 mm 7,1 km/h (2 Bft) NW 325 ° 0 min 0,000 mm 0,6 UV-I 70 W/m² 3,0 °C 3,0 °C 14,5 km/h (3 Bft)
09.05.2017 11:58 4,6 °C 4,7 °C 89 % 1017,3 hPa 0,0 mm 10,6 km/h (2 Bft) NW 318 ° 0 min 0,000 mm 0,6 UV-I 76 W/m² 2,9 °C 2,1 °C 14,5 km/h (3 Bft)
09.05.2017 11:59 4,5 °C 4,6 °C 89 % 1017,3 hPa 0,0 mm 6,6 km/h (2 Bft) N 360 ° 0 min 0,000 mm 0,6 UV-I 77 W/m² 2,8 °C 3,0 °C 12,9 km/h (3 Bft)
09.05.2017 12:00 4,3 °C 4,5 °C 89 % 1017,3 hPa 0,0 mm 4,3 km/h (1 Bft) N-NW 327 ° 0 min 0,000 mm 0,7 UV-I 81 W/m² 2,7 °C 4,3 °C 8,0 km/h (2 Bft)
09.05.2017 12:01 4,2 °C 4,3 °C 89 % 1017,3 hPa 0,0 mm 4,7 km/h (1 Bft) N-NW 328 ° 0 min 0,051 mm 0,7 UV-I 84 W/m² 2,6 °C 3,3 °C 8,0 km/h (2 Bft)
09.05.2017 12:02 4,1 °C 4,2 °C 90 % 1017,3 hPa 0,2 mm 5,4 km/h (1 Bft) N-NW 328 ° 0 min 0,000 mm 0,8 UV-I 84 W/m² 2,6 °C 2,9 °C 8,0 km/h (2 Bft)
09.05.2017 12:03 4,0 °C 4,1 °C 90 % 1017,3 hPa 0,0 mm 5,3 km/h (1 Bft) NW 315 ° 0 min 0,000 mm 0,8 UV-I 98 W/m² 2,5 °C 2,8 °C 6,4 km/h (2 Bft)
09.05.2017 12:04 3,9 °C 4,0 °C 90 % 1017,3 hPa 0,0 mm 3,8 km/h (1 Bft) NW 321 ° 0 min 0,000 mm 0,9 UV-I 104 W/m² 2,4 °C 3,9 °C 6,4 km/h (2 Bft)
09.05.2017 12:05 3,8 °C 3,9 °C 90 % 1017,3 hPa 0,0 mm 1,1 km/h (1 Bft) NW 321 ° 0 min 0,000 mm 0,9 UV-I 105 W/m² 2,3 °C 3,8 °C 3,2 km/h (1 Bft)
09.05.2017 12:06 3,8 °C 3,8 °C 91 % 1017,3 hPa 0,0 mm 3,6 km/h (1 Bft) N-NW 341 ° 0 min 0,000 mm 0,9 UV-I 105 W/m² 2,5 °C 3,8 °C 4,8 km/h (1 Bft)
09.05.2017 12:07 3,8 °C 3,8 °C 91 % 1017,3 hPa 0,2 mm 2,1 km/h (1 Bft) N-NW 341 ° 0 min 0,000 mm 0,9 UV-I 109 W/m² 2,5 °C 3,8 °C 3,2 km/h (1 Bft)
09.05.2017 12:08 3,8 °C 3,8 °C 91 % 1017,3 hPa 0,0 mm 1,7 km/h (1 Bft) W 276 ° 0 min 0,000 mm 1,0 UV-I 113 W/m² 2,5 °C 3,8 °C 4,8 km/h (1 Bft)
09.05.2017 12:09 3,8 °C 3,8 °C 92 % 1017,3 hPa 0,0 mm 4,2 km/h (1 Bft) W-NW 291 ° 0 min 0,000 mm 1,0 UV-I 118 W/m² 2,6 °C 3,8 °C 6,4 km/h (2 Bft)
09.05.2017 12:10 3,7 °C 3,8 °C 91 % 1017,3 hPa 0,2 mm 3,8 km/h (1 Bft) NW 306 ° 0 min 0,000 mm 1,1 UV-I 130 W/m² 2,4 °C 3,7 °C 6,4 km/h (2 Bft)
09.05.2017 12:11 3,7 °C 3,7 °C 91 % 1017,3 hPa 0,0 mm 2,5 km/h (1 Bft) NW 306 ° 0 min 0,000 mm 1,2 UV-I 142 W/m² 2,4 °C 3,7 °C 3,2 km/h (1 Bft)
09.05.2017 12:12 3,7 °C 3,7 °C 92 % 1017,3 hPa 0,0 mm 1,4 km/h (1 Bft) W-NW 300 ° 0 min 0,000 mm 1,3 UV-I 153 W/m² 2,5 °C 3,7 °C 3,2 km/h (1 Bft)
09.05.2017 12:13 3,7 °C 3,7 °C 91 % 1017,3 hPa 0,0 mm 0,3 km/h (0 Bft) W-NW 300 ° 0 min 0,000 mm 1,4 UV-I 162 W/m² 2,4 °C 3,7 °C 1,6 km/h (1 Bft)
09.05.2017 12:14 3,7 °C 3,7 °C 91 % 1017,3 hPa 0,2 mm 0,1 km/h (0 Bft) W-NW 300 ° 0 min 0,000 mm 1,4 UV-I 171 W/m² 2,4 °C 3,7 °C 1,6 km/h (1 Bft)
09.05.2017 12:15 3,7 °C 3,7 °C 92 % 1017,3 hPa 0,0 mm 0,1 km/h (0 Bft) W-NW 300 ° 0 min 0,000 mm 1,5 UV-I 178 W/m² 2,5 °C 3,7 °C 1,6 km/h (1 Bft)
09.05.2017 12:16 3,7 °C 3,7 °C 92 % 1017,3 hPa 0,0 mm 1,5 km/h (1 Bft) W-NW 300 ° 0 min 0,000 mm 1,5 UV-I 185 W/m² 2,5 °C 3,7 °C 1,6 km/h (1 Bft)
09.05.2017 12:17 3,7 °C 3,7 °C 91 % 1017,3 hPa 0,0 mm 2,4 km/h (1 Bft) W-NW 287 ° 0 min 0,000 mm 1,5 UV-I 186 W/m² 2,4 °C 3,7 °C 3,2 km/h (1 Bft)
09.05.2017 12:18 3,7 °C 3,7 °C 91 % 1017,3 hPa 0,0 mm 2,7 km/h (1 Bft) W-NW 286 ° 0 min 0,000 mm 1,6 UV-I 190 W/m² 2,4 °C 3,7 °C 4,8 km/h (1 Bft)
09.05.2017 12:19 3,7 °C 3,7 °C 91 % 1017,2 hPa 0,0 mm 3,2 km/h (1 Bft) W-NW 286 ° 0 min 0,000 mm 1,7 UV-I 202 W/m² 2,4 °C 3,7 °C 4,8 km/h (1 Bft)
09.05.2017 12:20 3,8 °C 3,8 °C 92 % 1017,2 hPa 0,0 mm 2,5 km/h (1 Bft) W-NW 286 ° 0 min 0,000 mm 1,8 UV-I 214 W/m² 2,6 °C 3,8 °C 3,2 km/h (1 Bft)
09.05.2017 12:21 3,9 °C 3,9 °C 92 % 1017,2 hPa 0,0 mm 2,9 km/h (1 Bft) W-NW 286 ° 0 min 0,000 mm 1,8 UV-I 225 W/m² 2,7 °C 3,9 °C 4,8 km/h (1 Bft)
09.05.2017 12:22 3,9 °C 3,9 °C 91 % 1017,2 hPa 0,0 mm 2,8 km/h (1 Bft) W-NW 286 ° 0 min 0,000 mm 1,9 UV-I 243 W/m² 2,6 °C 3,9 °C 3,2 km/h (1 Bft)
09.05.2017 12:23 3,9 °C 3,9 °C 90 % 1017,2 hPa 0,0 mm 2,7 km/h (1 Bft) W-NW 286 ° 0 min 0,000 mm 2,0 UV-I 251 W/m² 2,4 °C 3,9 °C 3,2 km/h (1 Bft)
09.05.2017 12:24 3,9 °C 3,9 °C 91 % 1017,2 hPa 0,2 mm 1,0 km/h (0 Bft) W-NW 286 ° 0 min 0,000 mm 2,1 UV-I 253 W/m² 2,6 °C 3,9 °C 3,2 km/h (1 Bft)
09.05.2017 12:25 4,0 °C 4,0 °C 92 % 1017,2 hPa 0,0 mm 0,0 km/h (0 Bft) W-NW 286 ° 0 min 0,000 mm 2,0 UV-I 250 W/m² 2,8 °C 4,0 °C 0,0 km/h (0 Bft)
09.05.2017 12:26 4,0 °C 4,0 °C 91 % 1017,2 hPa 0,0 mm 0,5 km/h (0 Bft) W-NW 286 ° 0 min 0,000 mm 2,0 UV-I 250 W/m² 2,7 °C 4,0 °C 1,6 km/h (1 Bft)
09.05.2017 12:27 4,0 °C 4,0 °C 90 % 1017,2 hPa 0,0 mm 2,1 km/h (1 Bft) W-NW 283 ° 0 min 0,000 mm 2,1 UV-I 250 W/m² 2,5 °C 4,0 °C 4,8 km/h (1 Bft)
09.05.2017 12:28 4,1 °C 4,1 °C 92 % 1017,2 hPa 0,0 mm 1,7 km/h (1 Bft) W-NW 283 ° 0 min 0,000 mm 2,1 UV-I 257 W/m² 2,9 °C 4,1 °C 3,2 km/h (1 Bft)
09.05.2017 12:29 4,1 °C 4,1 °C 91 % 1017,1 hPa 0,0 mm 2,0 km/h (1 Bft) W 278 ° 0 min 0,000 mm 2,2 UV-I 265 W/m² 2,8 °C 4,1 °C 3,2 km/h (1 Bft)
09.05.2017 12:30 4,2 °C 4,2 °C 92 % 1017,1 hPa 0,0 mm 3,6 km/h (1 Bft) W-NW 289 ° 0 min 0,000 mm 2,2 UV-I 274 W/m² 3,0 °C 4,2 °C 6,4 km/h (2 Bft)
09.05.2017 12:31 4,2 °C 4,2 °C 91 % 1017,1 hPa 0,0 mm 3,6 km/h (1 Bft) W-NW 288 ° 0 min 0,000 mm 2,3 UV-I 285 W/m² 2,9 °C 4,2 °C 4,8 km/h (1 Bft)
09.05.2017 12:32 4,3 °C 4,3 °C 92 % 1017,1 hPa 0,0 mm 2,4 km/h (1 Bft) W-NW 286 ° 1 min 0,000 mm 2,4 UV-I 301 W/m² 3,1 °C 4,3 °C 3,2 km/h (1 Bft)
09.05.2017 12:33 4,4 °C 4,4 °C 92 % 1017,1 hPa 0,0 mm 2,7 km/h (1 Bft) W 273 ° 1 min 0,000 mm 2,4 UV-I 301 W/m² 3,2 °C 4,4 °C 4,8 km/h (1 Bft)
09.05.2017 12:34 4,5 °C 4,6 °C 92 % 1017,1 hPa 0,0 mm 2,3 km/h (1 Bft) W 273 ° 1 min 0,000 mm 2,4 UV-I 302 W/m² 3,3 °C 4,5 °C 4,8 km/h (1 Bft)
09.05.2017 12:35 4,6 °C 4,6 °C 92 % 1017,1 hPa 0,0 mm 1,9 km/h (1 Bft) W 273 ° 1 min 0,000 mm 2,4 UV-I 301 W/m² 3,4 °C 4,6 °C 3,2 km/h (1 Bft)
09.05.2017 12:36 4,6 °C 4,6 °C 91 % 1017,1 hPa 0,0 mm 2,2 km/h (1 Bft) W-SW 256 ° 1 min 0,000 mm 2,3 UV-I 299 W/m² 3,3 °C 4,6 °C 3,2 km/h (1 Bft)
09.05.2017 12:37 4,5 °C 4,6 °C 90 % 1017,2 hPa 0,0 mm 2,7 km/h (1 Bft) SW 215 ° 0 min 0,000 mm 2,2 UV-I 272 W/m² 3,0 °C 4,5 °C 4,8 km/h (1 Bft)
09.05.2017 12:38 4,4 °C 4,5 °C 90 % 1017,1 hPa 0,0 mm 4,5 km/h (1 Bft) S-SW 192 ° 0 min 0,000 mm 2,1 UV-I 253 W/m² 2,9 °C 4,4 °C 8,0 km/h (2 Bft)
09.05.2017 12:39 4,4 °C 4,5 °C 90 % 1017,2 hPa 0,0 mm 3,1 km/h (1 Bft) S-SW 202 ° 0 min 0,000 mm 2,0 UV-I 244 W/m² 2,9 °C 4,4 °C 4,8 km/h (1 Bft)
09.05.2017 12:40 4,4 °C 4,4 °C 90 % 1017,1 hPa 0,0 mm 4,4 km/h (1 Bft) S 190 ° 0 min 0,000 mm 2,1 UV-I 251 W/m² 2,9 °C 4,4 °C 6,4 km/h (2 Bft)
09.05.2017 12:41 4,4 °C 4,4 °C 90 % 1017,1 hPa 0,0 mm 5,8 km/h (2 Bft) S-SW 197 ° 0 min 0,000 mm 2,2 UV-I 258 W/m² 2,9 °C 3,1 °C 6,4 km/h (2 Bft)
09.05.2017 12:42 4,4 °C 4,4 °C 90 % 1017,1 hPa 0,0 mm 2,9 km/h (1 Bft) S-SW 211 ° 0 min 0,000 mm 2,2 UV-I 262 W/m² 2,9 °C 4,4 °C 4,8 km/h (1 Bft)
09.05.2017 12:43 4,4 °C 4,4 °C 91 % 1017,1 hPa 0,0 mm 2,7 km/h (1 Bft) SW 218 ° 0 min 0,000 mm 2,2 UV-I 265 W/m² 3,1 °C 4,4 °C 3,2 km/h (1 Bft)
09.05.2017 12:44 4,4 °C 4,4 °C 91 % 1017,1 hPa 0,0 mm 2,5 km/h (1 Bft) SW 219 ° 0 min 0,000 mm 2,3 UV-I 271 W/m² 3,1 °C 4,4 °C 4,8 km/h (1 Bft)
09.05.2017 12:45 4,5 °C 4,5 °C 91 % 1017,1 hPa 0,0 mm 1,9 km/h (1 Bft) SW 219 ° 0 min 0,000 mm 2,4 UV-I 288 W/m² 3,2 °C 4,5 °C 3,2 km/h (1 Bft)
09.05.2017 12:46 4,6 °C 4,6 °C 92 % 1017,1 hPa 0,0 mm 2,7 km/h (1 Bft) W-SW 252 ° 1 min 0,000 mm 2,5 UV-I 292 W/m² 3,4 °C 4,6 °C 4,8 km/h (1 Bft)
09.05.2017 12:47 4,8 °C 4,8 °C 92 % 1017,1 hPa 0,0 mm 4,7 km/h (1 Bft) W 278 ° 1 min 0,000 mm 2,5 UV-I 295 W/m² 3,6 °C 4,0 °C 6,4 km/h (2 Bft)
09.05.2017 12:48 4,8 °C 4,8 °C 91 % 1017,1 hPa 0,0 mm 4,6 km/h (1 Bft) W 276 ° 1 min 0,000 mm 2,4 UV-I 295 W/m² 3,5 °C 4,0 °C 6,4 km/h (2 Bft)
09.05.2017 12:49 4,9 °C 4,9 °C 91 % 1017,1 hPa 0,0 mm 3,2 km/h (1 Bft) W 281 ° 0 min 0,000 mm 2,3 UV-I 287 W/m² 3,6 °C 4,9 °C 4,8 km/h (1 Bft)
09.05.2017 12:50 4,9 °C 4,9 °C 91 % 1017,1 hPa 0,0 mm 3,4 km/h (1 Bft) W-NW 285 ° 0 min 0,000 mm 2,2 UV-I 269 W/m² 3,6 °C 4,9 °C 4,8 km/h (1 Bft)
09.05.2017 12:51 4,8 °C 4,9 °C 89 % 1017,1 hPa 0,0 mm 3,4 km/h (1 Bft) W 275 ° 0 min 0,000 mm 2,1 UV-I 244 W/m² 3,1 °C 4,8 °C 4,8 km/h (1 Bft)
09.05.2017 12:52 4,9 °C 4,9 °C 90 % 1017,1 hPa 0,0 mm 3,2 km/h (1 Bft) W-SW 251 ° 0 min 0,000 mm 2,1 UV-I 243 W/m² 3,4 °C 4,9 °C 6,4 km/h (2 Bft)
09.05.2017 12:53 4,9 °C 4,9 °C 90 % 1017,1 hPa 0,0 mm 1,3 km/h (1 Bft) W-SW 251 ° 0 min 0,000 mm 2,2 UV-I 248 W/m² 3,4 °C 4,9 °C 3,2 km/h (1 Bft)
09.05.2017 12:54 4,9 °C 4,9 °C 91 % 1017,0 hPa 0,0 mm 1,2 km/h (1 Bft) W 264 ° 0 min 0,000 mm 2,2 UV-I 253 W/m² 3,6 °C 4,9 °C 4,8 km/h (1 Bft)
09.05.2017 12:55 4,9 °C 4,9 °C 90 % 1017,0 hPa 0,0 mm 4,2 km/h (1 Bft) W-SW 252 ° 0 min 0,000 mm 2,3 UV-I 262 W/m² 3,4 °C 4,9 °C 6,4 km/h (2 Bft)
09.05.2017 12:56 4,9 °C 4,9 °C 90 % 1017,0 hPa 0,0 mm 1,0 km/h (0 Bft) W-SW 252 ° 0 min 0,000 mm 2,3 UV-I 269 W/m² 3,4 °C 4,9 °C 3,2 km/h (1 Bft)
09.05.2017 12:57 5,1 °C 5,1 °C 89 % 1017,0 hPa 0,0 mm 0,0 km/h (0 Bft) W-SW 252 ° 0 min 0,000 mm 2,3 UV-I 265 W/m² 3,4 °C 5,1 °C 0,0 km/h (0 Bft)
09.05.2017 12:58 5,1 °C 5,1 °C 90 % 1017,0 hPa 0,0 mm 1,3 km/h (1 Bft) W-SW 252 ° 0 min 0,000 mm 2,1 UV-I 250 W/m² 3,6 °C 5,1 °C 3,2 km/h (1 Bft)
09.05.2017 12:59 5,1 °C 5,1 °C 89 % 1017,0 hPa 0,0 mm 2,3 km/h (1 Bft) W-SW 252 ° 0 min 0,000 mm 1,9 UV-I 229 W/m² 3,4 °C 5,1 °C 6,4 km/h (2 Bft)
09.05.2017 13:00 5,1 °C 5,1 °C 90 % 1017,0 hPa 0,0 mm 4,3 km/h (1 Bft) W-NW 288 ° 0 min 0,000 mm 1,8 UV-I 211 W/m² 3,6 °C 5,1 °C 4,8 km/h (1 Bft)
09.05.2017 13:01 5,1 °C 5,1 °C 89 % 1017,0 hPa 0,0 mm 4,3 km/h (1 Bft) W 279 ° 0 min 0,101 mm 1,7 UV-I 199 W/m² 3,4 °C 5,1 °C 4,8 km/h (1 Bft)
09.05.2017 13:02 5,1 °C 5,1 °C 88 % 1017,0 hPa 0,0 mm 2,8 km/h (1 Bft) W 280 ° 0 min 0,000 mm 1,7 UV-I 195 W/m² 3,3 °C 5,1 °C 4,8 km/h (1 Bft)
09.05.2017 13:03 5,1 °C 5,1 °C 89 % 1017,0 hPa 0,0 mm 4,2 km/h (1 Bft) NW 304 ° 0 min 0,000 mm 1,7 UV-I 202 W/m² 3,4 °C 5,1 °C 6,4 km/h (2 Bft)
09.05.2017 13:04 5,1 °C 5,1 °C 89 % 1017,0 hPa 0,0 mm 3,2 km/h (1 Bft) W 278 ° 0 min 0,000 mm 1,9 UV-I 213 W/m² 3,4 °C 5,1 °C 6,4 km/h (2 Bft)
09.05.2017 13:05 5,0 °C 5,1 °C 88 % 1017,0 hPa 0,0 mm 2,1 km/h (1 Bft) W 278 ° 0 min 0,000 mm 2,0 UV-I 230 W/m² 3,2 °C 5,0 °C 3,2 km/h (1 Bft)
09.05.2017 13:06 5,0 °C 5,1 °C 89 % 1016,9 hPa 0,0 mm 3,9 km/h (1 Bft) W-NW 285 ° 0 min 0,000 mm 2,2 UV-I 253 W/m² 3,3 °C 5,0 °C 4,8 km/h (1 Bft)
09.05.2017 13:07 5,1 °C 5,1 °C 89 % 1017,0 hPa 0,0 mm 4,1 km/h (1 Bft) W 271 ° 0 min 0,000 mm 2,3 UV-I 276 W/m² 3,4 °C 5,1 °C 6,4 km/h (2 Bft)
09.05.2017 13:08 5,1 °C 5,1 °C 88 % 1016,9 hPa 0,0 mm 3,2 km/h (1 Bft) NW 306 ° 1 min 0,000 mm 2,4 UV-I 295 W/m² 3,3 °C 5,1 °C 6,4 km/h (2 Bft)
09.05.2017 13:09 5,1 °C 5,1 °C 88 % 1016,9 hPa 0,0 mm 4,7 km/h (1 Bft) W-NW 289 ° 0 min 0,000 mm 2,4 UV-I 285 W/m² 3,3 °C 4,3 °C 6,4 km/h (2 Bft)
09.05.2017 13:10 5,1 °C 5,1 °C 88 % 1016,9 hPa 0,0 mm 4,6 km/h (1 Bft) W-SW 249 ° 0 min 0,000 mm 2,3 UV-I 279 W/m² 3,3 °C 4,4 °C 8,0 km/h (2 Bft)
09.05.2017 13:11 5,2 °C 5,2 °C 88 % 1017,0 hPa 0,0 mm 4,5 km/h (1 Bft) W-SW 248 ° 0 min 0,000 mm 2,2 UV-I 274 W/m² 3,4 °C 5,2 °C 6,4 km/h (2 Bft)
09.05.2017 13:12 5,3 °C 5,3 °C 90 % 1017,0 hPa 0,0 mm 2,6 km/h (1 Bft) W-SW 248 ° 0 min 0,000 mm 2,2 UV-I 262 W/m² 3,8 °C 5,3 °C 3,2 km/h (1 Bft)
09.05.2017 13:13 5,3 °C 5,3 °C 88 % 1017,0 hPa 0,0 mm 2,3 km/h (1 Bft) W-SW 248 ° 0 min 0,000 mm 2,1 UV-I 250 W/m² 3,5 °C 5,3 °C 3,2 km/h (1 Bft)
09.05.2017 13:14 5,4 °C 5,4 °C 89 % 1017,0 hPa 0,0 mm 3,4 km/h (1 Bft) W 259 ° 0 min 0,000 mm 2,0 UV-I 241 W/m² 3,7 °C 5,4 °C 6,4 km/h (2 Bft)
09.05.2017 13:15 5,4 °C 5,4 °C 88 % 1016,9 hPa 0,0 mm 4,8 km/h (1 Bft) W-SW 250 ° 0 min 0,000 mm 2,1 UV-I 248 W/m² 3,6 °C 4,6 °C 6,4 km/h (2 Bft)
09.05.2017 13:16 5,3 °C 5,4 °C 88 % 1016,9 hPa 0,0 mm 3,3 km/h (1 Bft) W-SW 255 ° 0 min 0,000 mm 2,2 UV-I 258 W/m² 3,5 °C 5,3 °C 4,8 km/h (1 Bft)
09.05.2017 13:17 5,4 °C 5,4 °C 89 % 1016,9 hPa 0,0 mm 4,0 km/h (1 Bft) W 261 ° 0 min 0,000 mm 2,3 UV-I 269 W/m² 3,7 °C 5,4 °C 4,8 km/h (1 Bft)
09.05.2017 13:18 5,4 °C 5,4 °C 87 % 1016,9 hPa 0,0 mm 4,3 km/h (1 Bft) W 267 ° 0 min 0,000 mm 2,3 UV-I 278 W/m² 3,4 °C 5,4 °C 6,4 km/h (2 Bft)
09.05.2017 13:19 5,4 °C 5,4 °C 89 % 1016,9 hPa 0,0 mm 5,7 km/h (1 Bft) W 264 ° 0 min 0,000 mm 2,4 UV-I 283 W/m² 3,7 °C 4,3 °C 6,4 km/h (2 Bft)
09.05.2017 13:20 5,4 °C 5,5 °C 88 % 1017,0 hPa 0,0 mm 3,2 km/h (1 Bft) W 263 ° 1 min 0,000 mm 2,4 UV-I 294 W/m² 3,6 °C 5,4 °C 6,4 km/h (2 Bft)
09.05.2017 13:21 5,5 °C 5,5 °C 89 % 1016,9 hPa 0,0 mm 2,3 km/h (1 Bft) W 263 ° 1 min 0,000 mm 2,5 UV-I 299 W/m² 3,8 °C 5,5 °C 3,2 km/h (1 Bft)
09.05.2017 13:22 5,6 °C 5,6 °C 88 % 1016,9 hPa 0,0 mm 3,6 km/h (1 Bft) W-SW 238 ° 1 min 0,000 mm 2,6 UV-I 302 W/m² 3,8 °C 5,6 °C 4,8 km/h (1 Bft)
09.05.2017 13:23 5,5 °C 5,6 °C 88 % 1016,8 hPa 0,0 mm 3,4 km/h (1 Bft) SW 234 ° 1 min 0,000 mm 2,5 UV-I 302 W/m² 3,7 °C 5,5 °C 4,8 km/h (1 Bft)
09.05.2017 13:24 5,6 °C 5,6 °C 88 % 1016,9 hPa 0,0 mm 2,3 km/h (1 Bft) W-SW 258 ° 1 min 0,000 mm 2,4 UV-I 294 W/m² 3,8 °C 5,6 °C 4,8 km/h (1 Bft)
09.05.2017 13:25 5,6 °C 5,6 °C 88 % 1016,8 hPa 0,0 mm 3,7 km/h (1 Bft) W 261 ° 0 min 0,000 mm 2,4 UV-I 285 W/m² 3,8 °C 5,6 °C 4,8 km/h (1 Bft)
09.05.2017 13:26 5,6 °C 5,6 °C 87 % 1016,8 hPa 0,0 mm 3,2 km/h (1 Bft) W 260 ° 0 min 0,000 mm 2,4 UV-I 283 W/m² 3,6 °C 5,6 °C 4,8 km/h (1 Bft)
09.05.2017 13:27 5,4 °C 5,6 °C 86 % 1016,8 hPa 0,0 mm 4,2 km/h (1 Bft) W 272 ° 0 min 0,000 mm 2,3 UV-I 281 W/m² 3,3 °C 5,4 °C 9,7 km/h (2 Bft)
09.05.2017 13:28 5,4 °C 5,5 °C 86 % 1016,9 hPa 0,0 mm 4,5 km/h (1 Bft) W 266 ° 0 min 0,000 mm 2,3 UV-I 278 W/m² 3,3 °C 5,4 °C 9,7 km/h (2 Bft)
09.05.2017 13:29 5,4 °C 5,4 °C 86 % 1016,9 hPa 0,0 mm 2,5 km/h (1 Bft) W 266 ° 0 min 0,000 mm 2,3 UV-I 276 W/m² 3,3 °C 5,4 °C 4,8 km/h (1 Bft)
09.05.2017 13:30 5,5 °C 5,5 °C 88 % 1016,8 hPa 0,0 mm 2,5 km/h (1 Bft) W 271 ° 0 min 0,000 mm 2,2 UV-I 272 W/m² 3,7 °C 5,5 °C 6,4 km/h (2 Bft)
09.05.2017 13:31 5,6 °C 5,6 °C 88 % 1016,9 hPa 0,0 mm 3,6 km/h (1 Bft) W 263 ° 0 min 0,000 mm 2,2 UV-I 264 W/m² 3,8 °C 5,6 °C 4,8 km/h (1 Bft)
09.05.2017 13:32 5,6 °C 5,6 °C 88 % 1016,8 hPa 0,0 mm 4,3 km/h (1 Bft) W-SW 257 ° 0 min 0,000 mm 2,1 UV-I 248 W/m² 3,8 °C 5,6 °C 6,4 km/h (2 Bft)
09.05.2017 13:33 5,7 °C 5,7 °C 88 % 1016,8 hPa 0,0 mm 4,8 km/h (1 Bft) W-SW 247 ° 0 min 0,000 mm 2,0 UV-I 244 W/m² 3,9 °C 5,0 °C 8,0 km/h (2 Bft)
09.05.2017 13:34 5,7 °C 5,7 °C 89 % 1016,8 hPa 0,0 mm 6,6 km/h (2 Bft) SW 236 ° 0 min 0,000 mm 2,0 UV-I 243 W/m² 4,0 °C 4,3 °C 9,7 km/h (2 Bft)
09.05.2017 13:35 5,6 °C 5,7 °C 86 % 1016,8 hPa 0,0 mm 2,6 km/h (1 Bft) W-SW 237 ° 0 min 0,000 mm 1,9 UV-I 237 W/m² 3,4 °C 5,6 °C 6,4 km/h (2 Bft)
09.05.2017 13:36 5,6 °C 5,6 °C 88 % 1016,8 hPa 0,0 mm 3,4 km/h (1 Bft) W 263 ° 0 min 0,000 mm 1,8 UV-I 229 W/m² 3,8 °C 5,6 °C 6,4 km/h (2 Bft)
09.05.2017 13:37 5,6 °C 5,6 °C 87 % 1016,8 hPa 0,0 mm 2,0 km/h (1 Bft) W 265 ° 0 min 0,000 mm 1,7 UV-I 218 W/m² 3,6 °C 5,6 °C 4,8 km/h (1 Bft)
09.05.2017 13:38 5,6 °C 5,6 °C 87 % 1016,8 hPa 0,0 mm 4,7 km/h (1 Bft) W 267 ° 0 min 0,000 mm 1,7 UV-I 202 W/m² 3,6 °C 4,9 °C 6,4 km/h (2 Bft)
09.05.2017 13:39 5,6 °C 5,6 °C 85 % 1016,8 hPa 0,0 mm 5,1 km/h (1 Bft) W-SW 252 ° 0 min 0,000 mm 1,6 UV-I 197 W/m² 3,3 °C 4,7 °C 8,0 km/h (2 Bft)
09.05.2017 13:40 5,6 °C 5,6 °C 87 % 1016,9 hPa 0,0 mm 6,0 km/h (2 Bft) W-NW 288 ° 0 min 0,000 mm 1,6 UV-I 193 W/m² 3,6 °C 4,4 °C 11,3 km/h (2 Bft)
09.05.2017 13:41 5,6 °C 5,6 °C 88 % 1016,8 hPa 0,0 mm 3,8 km/h (1 Bft) W 273 ° 0 min 0,000 mm 1,6 UV-I 195 W/m² 3,8 °C 5,6 °C 6,4 km/h (2 Bft)
09.05.2017 13:42 5,6 °C 5,6 °C 89 % 1016,8 hPa 0,0 mm 3,8 km/h (1 Bft) W 275 ° 0 min 0,000 mm 1,7 UV-I 204 W/m² 3,9 °C 5,6 °C 6,4 km/h (2 Bft)
09.05.2017 13:43 5,6 °C 5,7 °C 88 % 1016,8 hPa 0,0 mm 3,0 km/h (1 Bft) W 274 ° 0 min 0,000 mm 1,8 UV-I 237 W/m² 3,8 °C 5,6 °C 4,8 km/h (1 Bft)
09.05.2017 13:44 5,6 °C 5,6 °C 85 % 1016,8 hPa 0,0 mm 1,0 km/h (0 Bft) W 274 ° 0 min 0,000 mm 2,0 UV-I 250 W/m² 3,3 °C 5,6 °C 3,2 km/h (1 Bft)
09.05.2017 13:45 5,6 °C 5,6 °C 88 % 1016,8 hPa 0,0 mm 0,9 km/h (0 Bft) W 274 ° 0 min 0,000 mm 2,1 UV-I 257 W/m² 3,8 °C 5,6 °C 1,6 km/h (1 Bft)
09.05.2017 13:46 5,7 °C 5,7 °C 88 % 1016,8 hPa 0,0 mm 2,4 km/h (1 Bft) W 281 ° 0 min 0,000 mm 2,1 UV-I 255 W/m² 3,9 °C 5,7 °C 4,8 km/h (1 Bft)
09.05.2017 13:47 5,7 °C 5,7 °C 87 % 1016,8 hPa 0,0 mm 1,5 km/h (1 Bft) W 276 ° 0 min 0,000 mm 2,1 UV-I 251 W/m² 3,7 °C 5,7 °C 4,8 km/h (1 Bft)
09.05.2017 13:48 5,8 °C 5,8 °C 89 % 1016,8 hPa 0,0 mm 2,5 km/h (1 Bft) W 276 ° 0 min 0,000 mm 2,1 UV-I 250 W/m² 4,1 °C 5,8 °C 4,8 km/h (1 Bft)
09.05.2017 13:49 5,8 °C 5,8 °C 87 % 1016,8 hPa 0,0 mm 3,4 km/h (1 Bft) W-NW 284 ° 0 min 0,000 mm 2,1 UV-I 251 W/m² 3,8 °C 5,8 °C 4,8 km/h (1 Bft)
09.05.2017 13:50 5,8 °C 5,8 °C 87 % 1016,8 hPa 0,0 mm 4,6 km/h (1 Bft) W-NW 290 ° 0 min 0,000 mm 2,2 UV-I 257 W/m² 3,8 °C 5,1 °C 4,8 km/h (1 Bft)
09.05.2017 13:51 5,8 °C 5,8 °C 86 % 1016,8 hPa 0,0 mm 2,1 km/h (1 Bft) W-NW 292 ° 0 min 0,000 mm 2,2 UV-I 264 W/m² 3,6 °C 5,8 °C 4,8 km/h (1 Bft)
09.05.2017 13:52 5,8 °C 5,8 °C 86 % 1016,8 hPa 0,0 mm 5,0 km/h (1 Bft) W-NW 294 ° 0 min 0,000 mm 2,3 UV-I 271 W/m² 3,6 °C 5,0 °C 6,4 km/h (2 Bft)
09.05.2017 13:53 5,7 °C 5,8 °C 86 % 1016,8 hPa 0,0 mm 4,0 km/h (1 Bft) W-NW 291 ° 0 min 0,000 mm 2,3 UV-I 274 W/m² 3,5 °C 5,7 °C 4,8 km/h (1 Bft)
09.05.2017 13:54 5,7 °C 5,8 °C 87 % 1016,7 hPa 0,0 mm 3,3 km/h (1 Bft) W-NW 291 ° 0 min 0,000 mm 2,3 UV-I 276 W/m² 3,7 °C 5,7 °C 4,8 km/h (1 Bft)
09.05.2017 13:55 5,8 °C 5,8 °C 88 % 1016,7 hPa 0,0 mm 3,8 km/h (1 Bft) W-NW 288 ° 0 min 0,000 mm 2,3 UV-I 271 W/m² 4,0 °C 5,8 °C 6,4 km/h (2 Bft)
09.05.2017 13:56 5,8 °C 5,8 °C 88 % 1016,8 hPa 0,0 mm 4,2 km/h (1 Bft) W-NW 288 ° 0 min 0,000 mm 2,2 UV-I 265 W/m² 4,0 °C 5,8 °C 4,8 km/h (1 Bft)
09.05.2017 13:57 5,8 °C 5,8 °C 88 % 1016,8 hPa 0,0 mm 4,2 km/h (1 Bft) W 273 ° 0 min 0,000 mm 2,2 UV-I 258 W/m² 4,0 °C 5,8 °C 6,4 km/h (2 Bft)
09.05.2017 13:58 5,8 °C 5,8 °C 88 % 1016,7 hPa 0,0 mm 2,8 km/h (1 Bft) W 273 ° 0 min 0,000 mm 2,1 UV-I 250 W/m² 4,0 °C 5,8 °C 4,8 km/h (1 Bft)
09.05.2017 13:59 5,8 °C 5,8 °C 89 % 1016,7 hPa 0,0 mm 3,0 km/h (1 Bft) W 281 ° 0 min 0,000 mm 2,0 UV-I 241 W/m² 4,1 °C 5,8 °C 4,8 km/h (1 Bft)
09.05.2017 14:00 5,8 °C 5,8 °C 88 % 1016,7 hPa 0,0 mm 1,9 km/h (1 Bft) W 281 ° 0 min 0,000 mm 1,9 UV-I 232 W/m² 4,0 °C 5,8 °C 3,2 km/h (1 Bft)
09.05.2017 14:01 5,8 °C 5,8 °C 88 % 1016,7 hPa 0,0 mm 3,5 km/h (1 Bft) W-NW 296 ° 0 min 0,102 mm 1,9 UV-I 214 W/m² 4,0 °C 5,8 °C 4,8 km/h (1 Bft)
09.05.2017 14:02 5,8 °C 5,8 °C 88 % 1016,7 hPa 0,0 mm 5,4 km/h (1 Bft) W-NW 287 ° 0 min 0,000 mm 1,7 UV-I 207 W/m² 4,0 °C 4,8 °C 8,0 km/h (2 Bft)
09.05.2017 14:03 5,8 °C 5,8 °C 88 % 1016,7 hPa 0,0 mm 3,6 km/h (1 Bft) W-NW 287 ° 0 min 0,000 mm 1,6 UV-I 200 W/m² 4,0 °C 5,8 °C 4,8 km/h (1 Bft)
09.05.2017 14:04 5,8 °C 5,8 °C 86 % 1016,8 hPa 0,0 mm 1,5 km/h (1 Bft) W-NW 287 ° 0 min 0,000 mm 1,5 UV-I 192 W/m² 3,6 °C 5,8 °C 3,2 km/h (1 Bft)
09.05.2017 14:05 5,7 °C 5,8 °C 87 % 1016,7 hPa 0,0 mm 0,5 km/h (0 Bft) W-NW 287 ° 0 min 0,000 mm 1,4 UV-I 181 W/m² 3,7 °C 5,7 °C 3,2 km/h (1 Bft)
09.05.2017 14:06 5,7 °C 5,7 °C 86 % 1016,7 hPa 0,0 mm 1,1 km/h (1 Bft) W-NW 287 ° 0 min 0,000 mm 1,3 UV-I 169 W/m² 3,5 °C 5,7 °C 3,2 km/h (1 Bft)
09.05.2017 14:07 5,6 °C 5,7 °C 86 % 1016,7 hPa 0,0 mm 1,2 km/h (1 Bft) W-NW 287 ° 0 min 0,000 mm 1,2 UV-I 142 W/m² 3,4 °C 5,6 °C 4,8 km/h (1 Bft)
09.05.2017 14:08 5,7 °C 5,7 °C 88 % 1016,7 hPa 0,0 mm 2,4 km/h (1 Bft) W-NW 287 ° 0 min 0,000 mm 1,0 UV-I 130 W/m² 3,9 °C 5,7 °C 4,8 km/h (1 Bft)
09.05.2017 14:09 5,6 °C 5,7 °C 87 % 1016,7 hPa 0,0 mm 1,1 km/h (1 Bft) W-NW 292 ° 0 min 0,000 mm 0,9 UV-I 120 W/m² 3,6 °C 5,6 °C 3,2 km/h (1 Bft)
09.05.2017 14:10 5,6 °C 5,6 °C 88 % 1016,7 hPa 0,0 mm 5,2 km/h (1 Bft) NW 304 ° 0 min 0,000 mm 0,9 UV-I 113 W/m² 3,8 °C 4,7 °C 8,0 km/h (2 Bft)
09.05.2017 14:11 5,7 °C 5,7 °C 89 % 1016,7 hPa 0,0 mm 4,7 km/h (1 Bft) W-NW 297 ° 0 min 0,000 mm 0,9 UV-I 109 W/m² 4,0 °C 5,0 °C 8,0 km/h (2 Bft)
09.05.2017 14:12 5,7 °C 5,7 °C 88 % 1016,7 hPa 0,0 mm 5,8 km/h (2 Bft) NW 313 ° 0 min 0,000 mm 0,9 UV-I 111 W/m² 3,9 °C 4,6 °C 11,3 km/h (2 Bft)
09.05.2017 14:13 5,7 °C 5,7 °C 87 % 1016,7 hPa 0,0 mm 6,3 km/h (2 Bft) W-NW 294 ° 0 min 0,000 mm 0,9 UV-I 123 W/m² 3,7 °C 4,4 °C 11,3 km/h (2 Bft)
09.05.2017 14:14 5,7 °C 5,7 °C 87 % 1016,7 hPa 0,0 mm 8,4 km/h (2 Bft) W 267 ° 0 min 0,000 mm 1,0 UV-I 127 W/m² 3,7 °C 3,9 °C 12,9 km/h (3 Bft)
09.05.2017 14:15 5,6 °C 5,7 °C 86 % 1016,7 hPa 0,0 mm 5,0 km/h (1 Bft) NW 306 ° 0 min 0,000 mm 1,1 UV-I 132 W/m² 3,4 °C 4,8 °C 8,0 km/h (2 Bft)
09.05.2017 14:16 5,6 °C 5,6 °C 85 % 1016,7 hPa 0,0 mm 5,4 km/h (1 Bft) NW 312 ° 0 min 0,000 mm 1,1 UV-I 135 W/m² 3,3 °C 4,6 °C 8,0 km/h (2 Bft)
09.05.2017 14:17 5,6 °C 5,6 °C 85 % 1016,7 hPa 0,0 mm 7,8 km/h (2 Bft) W-NW 287 ° 0 min 0,000 mm 1,2 UV-I 144 W/m² 3,3 °C 3,9 °C 12,9 km/h (3 Bft)
09.05.2017 14:18 5,5 °C 5,6 °C 85 % 1016,7 hPa 0,0 mm 7,9 km/h (2 Bft) NW 308 ° 0 min 0,000 mm 1,3 UV-I 156 W/m² 3,2 °C 3,7 °C 11,3 km/h (2 Bft)
09.05.2017 14:19 5,4 °C 5,5 °C 85 % 1016,7 hPa 0,0 mm 5,2 km/h (1 Bft) NW 316 ° 0 min 0,000 mm 1,3 UV-I 169 W/m² 3,1 °C 4,5 °C 6,4 km/h (2 Bft)
09.05.2017 14:20 5,4 °C 5,4 °C 83 % 1016,7 hPa 0,0 mm 4,5 km/h (1 Bft) W-NW 292 ° 0 min 0,000 mm 1,6 UV-I 207 W/m² 2,7 °C 5,4 °C 6,4 km/h (2 Bft)
09.05.2017 14:21 5,3 °C 5,4 °C 83 % 1016,7 hPa 0,0 mm 5,4 km/h (1 Bft) N-NW 329 ° 0 min 0,000 mm 1,9 UV-I 241 W/m² 2,7 °C 4,3 °C 8,0 km/h (2 Bft)
09.05.2017 14:22 5,3 °C 5,3 °C 84 % 1016,7 hPa 0,0 mm 6,4 km/h (2 Bft) NW 320 ° 0 min 0,000 mm 2,1 UV-I 278 W/m² 2,8 °C 3,9 °C 11,3 km/h (2 Bft)
09.05.2017 14:23 5,4 °C 5,4 °C 84 % 1016,7 hPa 0,0 mm 6,6 km/h (2 Bft) NW 312 ° 1 min 0,000 mm 2,3 UV-I 308 W/m² 2,9 °C 4,0 °C 8,0 km/h (2 Bft)
09.05.2017 14:24 5,5 °C 5,5 °C 85 % 1016,7 hPa 0,0 mm 6,8 km/h (2 Bft) W 279 ° 1 min 0,000 mm 2,5 UV-I 325 W/m² 3,2 °C 4,1 °C 11,3 km/h (2 Bft)
09.05.2017 14:25 5,6 °C 5,6 °C 85 % 1016,7 hPa 0,0 mm 5,9 km/h (2 Bft) NW 323 ° 1 min 0,000 mm 2,6 UV-I 334 W/m² 3,3 °C 4,4 °C 8,0 km/h (2 Bft)
09.05.2017 14:26 5,6 °C 5,6 °C 83 % 1016,7 hPa 0,0 mm 3,5 km/h (1 Bft) NW 323 ° 1 min 0,000 mm 2,6 UV-I 325 W/m² 2,9 °C 5,6 °C 4,8 km/h (1 Bft)
09.05.2017 14:27 5,6 °C 5,6 °C 82 % 1016,7 hPa 0,0 mm 7,0 km/h (2 Bft) W-NW 289 ° 1 min 0,000 mm 2,8 UV-I 334 W/m² 2,8 °C 4,1 °C 11,3 km/h (2 Bft)
09.05.2017 14:28 5,6 °C 5,7 °C 81 % 1016,7 hPa 0,0 mm 6,2 km/h (2 Bft) W 265 ° 1 min 0,000 mm 2,9 UV-I 355 W/m² 2,6 °C 4,3 °C 9,7 km/h (2 Bft)
09.05.2017 14:29 5,7 °C 5,7 °C 83 % 1016,7 hPa 0,0 mm 5,2 km/h (1 Bft) W 259 ° 1 min 0,000 mm 3,1 UV-I 367 W/m² 3,0 °C 4,8 °C 8,0 km/h (2 Bft)
09.05.2017 14:30 5,8 °C 5,8 °C 85 % 1016,7 hPa 0,0 mm 4,3 km/h (1 Bft) W-SW 253 ° 1 min 0,000 mm 3,0 UV-I 366 W/m² 3,5 °C 5,8 °C 6,4 km/h (2 Bft)
09.05.2017 14:31 6,1 °C 6,1 °C 85 % 1016,6 hPa 0,0 mm 2,2 km/h (1 Bft) W-SW 253 ° 1 min 0,000 mm 3,1 UV-I 413 W/m² 3,8 °C 6,1 °C 3,2 km/h (1 Bft)
09.05.2017 14:32 6,2 °C 6,2 °C 86 % 1016,6 hPa 0,0 mm 7,1 km/h (2 Bft) W-SW 249 ° 1 min 0,000 mm 3,4 UV-I 415 W/m² 4,0 °C 4,8 °C 11,3 km/h (2 Bft)
09.05.2017 14:33 6,3 °C 6,3 °C 85 % 1016,6 hPa 0,0 mm 4,2 km/h (1 Bft) W-SW 257 ° 1 min 0,000 mm 3,5 UV-I 427 W/m² 4,0 °C 6,3 °C 6,4 km/h (2 Bft)
09.05.2017 14:34 6,3 °C 6,3 °C 81 % 1016,6 hPa 0,0 mm 4,2 km/h (1 Bft) W 275 ° 1 min 0,000 mm 3,5 UV-I 422 W/m² 3,3 °C 6,3 °C 4,8 km/h (1 Bft)
09.05.2017 14:35 6,3 °C 6,3 °C 81 % 1016,5 hPa 0,0 mm 2,3 km/h (1 Bft) W 275 ° 1 min 0,000 mm 3,6 UV-I 429 W/m² 3,3 °C 6,3 °C 3,2 km/h (1 Bft)
09.05.2017 14:36 6,3 °C 6,3 °C 82 % 1016,5 hPa 0,0 mm 2,1 km/h (1 Bft) W 275 ° 1 min 0,000 mm 3,8 UV-I 429 W/m² 3,5 °C 6,3 °C 3,2 km/h (1 Bft)
09.05.2017 14:37 6,3 °C 6,3 °C 83 % 1016,6 hPa 0,0 mm 1,1 km/h (1 Bft) W-NW 286 ° 1 min 0,000 mm 3,5 UV-I 399 W/m² 3,6 °C 6,3 °C 9,7 km/h (2 Bft)
09.05.2017 14:38 6,4 °C 6,4 °C 83 % 1016,5 hPa 0,0 mm 7,6 km/h (2 Bft) W 281 ° 1 min 0,000 mm 3,3 UV-I 387 W/m² 3,7 °C 4,9 °C 11,3 km/h (2 Bft)
09.05.2017 14:39 6,4 °C 6,4 °C 82 % 1016,5 hPa 0,0 mm 4,0 km/h (1 Bft) W-SW 248 ° 1 min 0,000 mm 3,2 UV-I 374 W/m² 3,6 °C 6,4 °C 6,4 km/h (2 Bft)
09.05.2017 14:40 6,4 °C 6,4 °C 80 % 1016,5 hPa 0,0 mm 3,6 km/h (1 Bft) W-NW 283 ° 1 min 0,000 mm 3,2 UV-I 367 W/m² 3,2 °C 6,4 °C 4,8 km/h (1 Bft)
09.05.2017 14:41 6,4 °C 6,4 °C 81 % 1016,5 hPa 0,0 mm 1,0 km/h (0 Bft) W-NW 283 ° 1 min 0,000 mm 3,1 UV-I 362 W/m² 3,4 °C 6,4 °C 3,2 km/h (1 Bft)
09.05.2017 14:42 6,4 °C 6,4 °C 81 % 1016,5 hPa 0,0 mm 4,9 km/h (1 Bft) W-NW 283 ° 1 min 0,000 mm 3,1 UV-I 352 W/m² 3,4 °C 5,7 °C 9,7 km/h (2 Bft)
09.05.2017 14:43 6,4 °C 6,4 °C 79 % 1016,5 hPa 0,0 mm 3,6 km/h (1 Bft) W 273 ° 1 min 0,000 mm 2,9 UV-I 346 W/m² 3,0 °C 6,4 °C 4,8 km/h (1 Bft)
09.05.2017 14:44 6,4 °C 6,4 °C 82 % 1016,5 hPa 0,0 mm 1,7 km/h (1 Bft) W 273 ° 1 min 0,000 mm 2,8 UV-I 339 W/m² 3,6 °C 6,4 °C 3,2 km/h (1 Bft)
09.05.2017 14:45 6,4 °C 6,4 °C 79 % 1016,5 hPa 0,0 mm 5,0 km/h (1 Bft) W-NW 296 ° 1 min 0,000 mm 2,7 UV-I 323 W/m² 3,0 °C 5,7 °C 6,4 km/h (2 Bft)
09.05.2017 14:46 6,4 °C 6,5 °C 79 % 1016,5 hPa 0,0 mm 3,7 km/h (1 Bft) W-NW 284 ° 1 min 0,000 mm 2,5 UV-I 308 W/m² 3,0 °C 6,4 °C 6,4 km/h (2 Bft)
09.05.2017 14:47 6,5 °C 6,5 °C 81 % 1016,5 hPa 0,0 mm 5,9 km/h (2 Bft) SW 221 ° 1 min 0,000 mm 2,4 UV-I 292 W/m² 3,5 °C 5,5 °C 8,0 km/h (2 Bft)
09.05.2017 14:48 6,5 °C 6,5 °C 81 % 1016,5 hPa 0,0 mm 3,7 km/h (1 Bft) SW 223 ° 0 min 0,000 mm 2,3 UV-I 276 W/m² 3,5 °C 6,5 °C 4,8 km/h (1 Bft)
09.05.2017 14:49 6,5 °C 6,5 °C 82 % 1016,4 hPa 0,0 mm 3,8 km/h (1 Bft) W-NW 286 ° 0 min 0,000 mm 2,3 UV-I 272 W/m² 3,7 °C 6,5 °C 4,8 km/h (1 Bft)
09.05.2017 14:50 6,4 °C 6,5 °C 79 % 1016,5 hPa 0,0 mm 6,2 km/h (2 Bft) W-NW 290 ° 0 min 0,000 mm 2,3 UV-I 272 W/m² 3,0 °C 5,3 °C 11,3 km/h (2 Bft)
09.05.2017 14:51 6,3 °C 6,4 °C 78 % 1016,5 hPa 0,0 mm 4,7 km/h (1 Bft) W-NW 284 ° 0 min 0,000 mm 2,3 UV-I 272 W/m² 2,8 °C 5,7 °C 6,4 km/h (2 Bft)
09.05.2017 14:52 6,3 °C 6,3 °C 80 % 1016,5 hPa 0,0 mm 3,0 km/h (1 Bft) W-NW 284 ° 0 min 0,000 mm 2,3 UV-I 274 W/m² 3,1 °C 6,3 °C 6,4 km/h (2 Bft)
09.05.2017 14:53 6,3 °C 6,3 °C 80 % 1016,5 hPa 0,0 mm 5,4 km/h (1 Bft) W-NW 286 ° 0 min 0,000 mm 2,2 UV-I 272 W/m² 3,1 °C 5,4 °C 9,7 km/h (2 Bft)
09.05.2017 14:54 6,2 °C 6,3 °C 78 % 1016,5 hPa 0,0 mm 3,4 km/h (1 Bft) W-NW 287 ° 0 min 0,000 mm 2,2 UV-I 265 W/m² 2,7 °C 6,2 °C 4,8 km/h (1 Bft)
09.05.2017 14:55 6,2 °C 6,3 °C 78 % 1016,5 hPa 0,0 mm 2,8 km/h (1 Bft) W-NW 282 ° 0 min 0,000 mm 2,2 UV-I 269 W/m² 2,7 °C 6,2 °C 3,2 km/h (1 Bft)
09.05.2017 14:56 6,2 °C 6,2 °C 78 % 1016,5 hPa 0,0 mm 3,0 km/h (1 Bft) W-NW 283 ° 0 min 0,000 mm 2,2 UV-I 278 W/m² 2,7 °C 6,2 °C 4,8 km/h (1 Bft)
09.05.2017 14:57 6,3 °C 6,3 °C 79 % 1016,4 hPa 0,0 mm 1,5 km/h (1 Bft) W-NW 283 ° 0 min 0,000 mm 2,2 UV-I 285 W/m² 2,9 °C 6,3 °C 3,2 km/h (1 Bft)
09.05.2017 14:58 6,3 °C 6,3 °C 80 % 1016,5 hPa 0,0 mm 1,6 km/h (1 Bft) W-NW 283 ° 0 min 0,000 mm 2,3 UV-I 288 W/m² 3,1 °C 6,3 °C 3,2 km/h (1 Bft)
09.05.2017 14:59 6,3 °C 6,3 °C 81 % 1016,5 hPa 0,0 mm 1,6 km/h (1 Bft) W-NW 288 ° 0 min 0,000 mm 2,3 UV-I 283 W/m² 3,3 °C 6,3 °C 6,4 km/h (2 Bft)
09.05.2017 15:00 6,4 °C 6,4 °C 81 % 1016,5 hPa 0,0 mm 2,8 km/h (1 Bft) NW 323 ° 0 min 0,000 mm 2,3 UV-I 269 W/m² 3,4 °C 6,4 °C 6,4 km/h (2 Bft)
09.05.2017 15:01 6,6 °C 6,6 °C 80 % 1016,4 hPa 0,0 mm 0,1 km/h (0 Bft) NW 323 ° 0 min 0,127 mm 2,2 UV-I 267 W/m² 3,4 °C 6,6 °C 1,6 km/h (1 Bft)
09.05.2017 15:02 6,6 °C 6,6 °C 82 % 1016,4 hPa 0,0 mm 1,8 km/h (1 Bft) W 275 ° 0 min 0,000 mm 2,2 UV-I 272 W/m² 3,8 °C 6,6 °C 3,2 km/h (1 Bft)
09.05.2017 15:03 6,6 °C 6,6 °C 82 % 1016,4 hPa 0,0 mm 2,1 km/h (1 Bft) W 275 ° 0 min 0,000 mm 2,2 UV-I 274 W/m² 3,8 °C 6,6 °C 4,8 km/h (1 Bft)
09.05.2017 15:04 6,6 °C 6,6 °C 79 % 1016,4 hPa 0,0 mm 1,1 km/h (1 Bft) W 275 ° 0 min 0,000 mm 2,2 UV-I 274 W/m² 3,2 °C 6,6 °C 3,2 km/h (1 Bft)
09.05.2017 15:05 6,6 °C 6,6 °C 82 % 1016,4 hPa 0,0 mm 0,9 km/h (0 Bft) W 275 ° 0 min 0,000 mm 2,1 UV-I 255 W/m² 3,8 °C 6,6 °C 1,6 km/h (1 Bft)
09.05.2017 15:06 6,6 °C 6,6 °C 81 % 1016,4 hPa 0,0 mm 3,7 km/h (1 Bft) W 271 ° 0 min 0,000 mm 2,0 UV-I 244 W/m² 3,6 °C 6,6 °C 6,4 km/h (2 Bft)
09.05.2017 15:07 6,6 °C 6,7 °C 83 % 1016,4 hPa 0,0 mm 8,0 km/h (2 Bft) SW 234 ° 0 min 0,000 mm 1,9 UV-I 237 W/m² 3,9 °C 5,0 °C 11,3 km/h (2 Bft)
09.05.2017 15:08 6,6 °C 6,7 °C 81 % 1016,4 hPa 0,0 mm 4,7 km/h (1 Bft) W 266 ° 0 min 0,000 mm 1,9 UV-I 243 W/m² 3,6 °C 6,0 °C 6,4 km/h (2 Bft)
09.05.2017 15:09 6,6 °C 6,6 °C 80 % 1016,4 hPa 0,0 mm 3,9 km/h (1 Bft) W-SW 254 ° 0 min 0,000 mm 2,0 UV-I 262 W/m² 3,4 °C 6,6 °C 4,8 km/h (1 Bft)
09.05.2017 15:10 6,6 °C 6,6 °C 81 % 1016,4 hPa 0,0 mm 1,8 km/h (1 Bft) W-SW 237 ° 1 min 0,000 mm 2,2 UV-I 290 W/m² 3,6 °C 6,6 °C 6,4 km/h (2 Bft)
09.05.2017 15:11 6,5 °C 6,6 °C 79 % 1016,4 hPa 0,0 mm 3,1 km/h (1 Bft) SW 224 ° 1 min 0,000 mm 2,5 UV-I 346 W/m² 3,1 °C 6,5 °C 6,4 km/h (2 Bft)
09.05.2017 15:12 6,4 °C 6,5 °C 79 % 1016,3 hPa 0,0 mm 0,3 km/h (0 Bft) SW 224 ° 1 min 0,000 mm 2,5 UV-I 341 W/m² 3,0 °C 6,4 °C 1,6 km/h (1 Bft)
09.05.2017 15:13 6,4 °C 6,4 °C 79 % 1016,3 hPa 0,0 mm 3,8 km/h (1 Bft) W 277 ° 1 min 0,000 mm 2,5 UV-I 334 W/m² 3,0 °C 6,4 °C 6,4 km/h (2 Bft)
09.05.2017 15:14 6,6 °C 6,6 °C 82 % 1016,3 hPa 0,0 mm 5,3 km/h (1 Bft) W 268 ° 1 min 0,000 mm 2,2 UV-I 297 W/m² 3,8 °C 5,8 °C 6,4 km/h (2 Bft)
09.05.2017 15:15 6,6 °C 6,6 °C 80 % 1016,2 hPa 0,0 mm 4,4 km/h (1 Bft) W 268 ° 0 min 0,000 mm 2,1 UV-I 274 W/m² 3,4 °C 6,6 °C 6,4 km/h (2 Bft)
09.05.2017 15:16 6,6 °C 6,6 °C 80 % 1016,2 hPa 0,0 mm 2,4 km/h (1 Bft) W-NW 293 ° 0 min 0,000 mm 2,0 UV-I 258 W/m² 3,4 °C 6,6 °C 4,8 km/h (1 Bft)
09.05.2017 15:17 6,7 °C 6,7 °C 82 % 1016,2 hPa 0,0 mm 3,7 km/h (1 Bft) W-NW 294 ° 0 min 0,000 mm 1,9 UV-I 236 W/m² 3,8 °C 6,7 °C 4,8 km/h (1 Bft)
09.05.2017 15:18 6,7 °C 6,7 °C 82 % 1016,2 hPa 0,0 mm 3,8 km/h (1 Bft) W-NW 294 ° 0 min 0,000 mm 1,8 UV-I 227 W/m² 3,8 °C 6,7 °C 4,8 km/h (1 Bft)
09.05.2017 15:19 6,7 °C 6,7 °C 80 % 1016,2 hPa 0,0 mm 6,8 km/h (2 Bft) W-SW 257 ° 0 min 0,000 mm 1,7 UV-I 218 W/m² 3,5 °C 5,4 °C 11,3 km/h (2 Bft)
09.05.2017 15:20 6,7 °C 6,7 °C 83 % 1016,2 hPa 0,0 mm 3,4 km/h (1 Bft) W-SW 248 ° 0 min 0,000 mm 1,6 UV-I 211 W/m² 4,0 °C 6,7 °C 6,4 km/h (2 Bft)
09.05.2017 15:21 6,6 °C 6,7 °C 78 % 1016,2 hPa 0,0 mm 0,4 km/h (0 Bft) W-SW 248 ° 0 min 0,000 mm 1,6 UV-I 204 W/m² 3,0 °C 6,6 °C 3,2 km/h (1 Bft)
09.05.2017 15:22 6,4 °C 6,6 °C 79 % 1016,2 hPa 0,0 mm 2,0 km/h (1 Bft) W-SW 248 ° 0 min 0,000 mm 1,5 UV-I 197 W/m² 3,0 °C 6,4 °C 4,8 km/h (1 Bft)
09.05.2017 15:23 6,4 °C 6,4 °C 81 % 1016,2 hPa 0,0 mm 3,0 km/h (1 Bft) W-NW 299 ° 0 min 0,000 mm 1,4 UV-I 181 W/m² 3,4 °C 6,4 °C 6,4 km/h (2 Bft)
09.05.2017 15:24 6,4 °C 6,4 °C 81 % 1016,2 hPa 0,0 mm 4,8 km/h (1 Bft) W-NW 285 ° 0 min 0,000 mm 1,3 UV-I 176 W/m² 3,4 °C 5,7 °C 6,4 km/h (2 Bft)
09.05.2017 15:25 6,3 °C 6,4 °C 80 % 1016,2 hPa 0,0 mm 3,9 km/h (1 Bft) W 279 ° 0 min 0,000 mm 1,3 UV-I 174 W/m² 3,1 °C 6,3 °C 6,4 km/h (2 Bft)
09.05.2017 15:26 6,3 °C 6,4 °C 82 % 1016,2 hPa 0,0 mm 4,6 km/h (1 Bft) W 266 ° 0 min 0,000 mm 1,3 UV-I 176 W/m² 3,5 °C 5,7 °C 6,4 km/h (2 Bft)
09.05.2017 15:27 6,3 °C 6,3 °C 80 % 1016,2 hPa 0,0 mm 6,5 km/h (2 Bft) W 265 ° 0 min 0,000 mm 1,4 UV-I 181 W/m² 3,1 °C 5,1 °C 9,7 km/h (2 Bft)
09.05.2017 15:28 6,3 °C 6,3 °C 80 % 1016,2 hPa 0,0 mm 3,6 km/h (1 Bft) W 275 ° 0 min 0,000 mm 1,4 UV-I 193 W/m² 3,1 °C 6,3 °C 4,8 km/h (1 Bft)
09.05.2017 15:29 6,3 °C 6,3 °C 82 % 1016,1 hPa 0,0 mm 0,9 km/h (0 Bft) W 275 ° 0 min 0,000 mm 1,5 UV-I 221 W/m² 3,5 °C 6,3 °C 3,2 km/h (1 Bft)
09.05.2017 15:30 6,3 °C 6,3 °C 81 % 1016,2 hPa 0,0 mm 3,5 km/h (1 Bft) W 275 ° 0 min 0,000 mm 1,8 UV-I 239 W/m² 3,3 °C 6,3 °C 4,8 km/h (1 Bft)
09.05.2017 15:31 6,3 °C 6,3 °C 81 % 1016,2 hPa 0,0 mm 1,0 km/h (0 Bft) W 275 ° 0 min 0,000 mm 1,9 UV-I 260 W/m² 3,3 °C 6,3 °C 3,2 km/h (1 Bft)
09.05.2017 15:32 6,3 °C 6,3 °C 82 % 1016,2 hPa 0,0 mm 1,7 km/h (1 Bft) W 275 ° 0 min 0,000 mm 2,1 UV-I 285 W/m² 3,5 °C 6,3 °C 4,8 km/h (1 Bft)
09.05.2017 15:33 6,4 °C 6,4 °C 83 % 1016,1 hPa 0,0 mm 2,5 km/h (1 Bft) W 272 ° 1 min 0,000 mm 2,3 UV-I 306 W/m² 3,7 °C 6,4 °C 4,8 km/h (1 Bft)
09.05.2017 15:34 6,4 °C 6,4 °C 81 % 1016,1 hPa 0,0 mm 5,4 km/h (1 Bft) W 264 ° 1 min 0,000 mm 2,4 UV-I 329 W/m² 3,4 °C 5,5 °C 6,4 km/h (2 Bft)
09.05.2017 15:35 6,5 °C 6,5 °C 79 % 1016,1 hPa 0,0 mm 4,8 km/h (1 Bft) W 266 ° 1 min 0,000 mm 2,6 UV-I 376 W/m² 3,1 °C 5,9 °C 6,4 km/h (2 Bft)
09.05.2017 15:36 6,6 °C 6,6 °C 80 % 1016,1 hPa 0,0 mm 4,4 km/h (1 Bft) W 263 ° 1 min 0,000 mm 2,8 UV-I 378 W/m² 3,4 °C 6,6 °C 9,7 km/h (2 Bft)
09.05.2017 15:37 6,7 °C 6,7 °C 80 % 1016,1 hPa 0,0 mm 5,7 km/h (1 Bft) W 263 ° 1 min 0,000 mm 2,7 UV-I 366 W/m² 3,5 °C 5,8 °C 9,7 km/h (2 Bft)
09.05.2017 15:38 6,7 °C 6,7 °C 76 % 1016,0 hPa 0,0 mm 4,4 km/h (1 Bft) W 263 ° 1 min 0,000 mm 2,6 UV-I 350 W/m² 2,8 °C 6,7 °C 6,4 km/h (2 Bft)
09.05.2017 15:39 6,7 °C 6,7 °C 77 % 1016,0 hPa 0,0 mm 2,2 km/h (1 Bft) W 263 ° 1 min 0,000 mm 2,6 UV-I 343 W/m² 3,0 °C 6,7 °C 3,2 km/h (1 Bft)
09.05.2017 15:40 6,6 °C 6,7 °C 76 % 1016,0 hPa 0,0 mm 0,0 km/h (0 Bft) W 263 ° 1 min 0,000 mm 2,6 UV-I 362 W/m² 2,7 °C 6,6 °C 0,0 km/h (0 Bft)
09.05.2017 15:41 6,5 °C 6,6 °C 75 % 1016,0 hPa 0,0 mm 0,6 km/h (0 Bft) W 262 ° 1 min 0,000 mm 2,7 UV-I 383 W/m² 2,4 °C 6,5 °C 1,6 km/h (1 Bft)
09.05.2017 15:42 6,5 °C 6,5 °C 74 % 1016,0 hPa 0,0 mm 0,3 km/h (0 Bft) W 262 ° 1 min 0,000 mm 2,9 UV-I 415 W/m² 2,2 °C 6,5 °C 1,6 km/h (1 Bft)
09.05.2017 15:43 6,5 °C 6,5 °C 75 % 1016,0 hPa 0,0 mm 0,7 km/h (0 Bft) W 262 ° 1 min 0,000 mm 2,8 UV-I 397 W/m² 2,4 °C 6,5 °C 4,8 km/h (1 Bft)
09.05.2017 15:44 6,6 °C 6,6 °C 80 % 1015,9 hPa 0,0 mm 1,6 km/h (1 Bft) W 269 ° 1 min 0,000 mm 2,8 UV-I 388 W/m² 3,4 °C 6,6 °C 6,4 km/h (2 Bft)
09.05.2017 15:45 6,7 °C 6,7 °C 80 % 1015,9 hPa 0,0 mm 4,5 km/h (1 Bft) W-SW 242 ° 1 min 0,000 mm 2,7 UV-I 371 W/m² 3,5 °C 6,7 °C 6,4 km/h (2 Bft)
09.05.2017 15:46 6,8 °C 6,8 °C 80 % 1015,9 hPa 0,0 mm 2,5 km/h (1 Bft) W-SW 242 ° 1 min 0,000 mm 2,7 UV-I 362 W/m² 3,6 °C 6,8 °C 4,8 km/h (1 Bft)
09.05.2017 15:47 6,8 °C 6,8 °C 77 % 1015,9 hPa 0,0 mm 3,0 km/h (1 Bft) S-SW 208 ° 1 min 0,000 mm 2,6 UV-I 367 W/m² 3,1 °C 6,8 °C 4,8 km/h (1 Bft)
09.05.2017 15:48 6,8 °C 6,8 °C 79 % 1015,9 hPa 0,0 mm 2,8 km/h (1 Bft) S 185 ° 1 min 0,000 mm 2,8 UV-I 383 W/m² 3,4 °C 6,8 °C 4,8 km/h (1 Bft)
09.05.2017 15:49 6,8 °C 6,8 °C 78 % 1015,9 hPa 0,0 mm 1,4 km/h (1 Bft) SW 232 ° 1 min 0,000 mm 2,8 UV-I 404 W/m² 3,2 °C 6,8 °C 4,8 km/h (1 Bft)
09.05.2017 15:50 6,8 °C 6,8 °C 77 % 1015,9 hPa 0,0 mm 4,8 km/h (1 Bft) S 182 ° 1 min 0,000 mm 2,9 UV-I 408 W/m² 3,1 °C 6,2 °C 6,4 km/h (2 Bft)
09.05.2017 15:51 6,9 °C 6,9 °C 80 % 1015,9 hPa 0,0 mm 5,4 km/h (1 Bft) W 263 ° 1 min 0,000 mm 2,8 UV-I 401 W/m² 3,7 °C 6,1 °C 6,4 km/h (2 Bft)
09.05.2017 15:52 7,0 °C 7,0 °C 81 % 1015,9 hPa 0,0 mm 3,6 km/h (1 Bft) W-SW 248 ° 1 min 0,000 mm 2,8 UV-I 385 W/m² 4,0 °C 7,0 °C 6,4 km/h (2 Bft)
09.05.2017 15:53 7,0 °C 7,0 °C 77 % 1015,9 hPa 0,0 mm 2,0 km/h (1 Bft) W 279 ° 1 min 0,000 mm 2,8 UV-I 373 W/m² 3,2 °C 7,0 °C 6,4 km/h (2 Bft)
09.05.2017 15:54 7,0 °C 7,0 °C 78 % 1015,8 hPa 0,0 mm 3,3 km/h (1 Bft) W 278 ° 1 min 0,000 mm 2,9 UV-I 392 W/m² 3,4 °C 7,0 °C 6,4 km/h (2 Bft)
09.05.2017 15:55 6,9 °C 7,0 °C 75 % 1015,8 hPa 0,0 mm 1,8 km/h (1 Bft) W 266 ° 1 min 0,000 mm 2,8 UV-I 396 W/m² 2,8 °C 6,9 °C 4,8 km/h (1 Bft)
09.05.2017 15:56 7,0 °C 7,0 °C 80 % 1015,9 hPa 0,0 mm 4,5 km/h (1 Bft) NW 310 ° 1 min 0,000 mm 2,7 UV-I 367 W/m² 3,8 °C 7,0 °C 8,0 km/h (2 Bft)
09.05.2017 15:57 7,1 °C 7,1 °C 77 % 1015,8 hPa 0,0 mm 7,5 km/h (2 Bft) W 276 ° 1 min 0,000 mm 2,6 UV-I 366 W/m² 3,3 °C 5,7 °C 11,3 km/h (2 Bft)
09.05.2017 15:58 7,1 °C 7,1 °C 77 % 1015,8 hPa 0,0 mm 4,0 km/h (1 Bft) W 275 ° 1 min 0,000 mm 2,6 UV-I 374 W/m² 3,3 °C 7,1 °C 6,4 km/h (2 Bft)
09.05.2017 15:59 6,9 °C 7,1 °C 76 % 1015,8 hPa 0,0 mm 1,7 km/h (1 Bft) W 275 ° 1 min 0,000 mm 2,7 UV-I 388 W/m² 3,0 °C 6,9 °C 3,2 km/h (1 Bft)
09.05.2017 16:00 6,8 °C 6,9 °C 76 % 1015,7 hPa 0,0 mm 2,0 km/h (1 Bft) N-NW 329 ° 1 min 0,000 mm 2,7 UV-I 385 W/m² 2,9 °C 6,8 °C 4,8 km/h (1 Bft)
09.05.2017 16:01 6,9 °C 6,9 °C 76 % 1015,7 hPa 0,0 mm 1,4 km/h (1 Bft) N-NW 329 ° 1 min 0,127 mm 2,8 UV-I 397 W/m² 3,0 °C 6,9 °C 1,6 km/h (1 Bft)
09.05.2017 16:02 6,9 °C 6,9 °C 78 % 1015,7 hPa 0,0 mm 1,1 km/h (1 Bft) N-NW 329 ° 1 min 0,000 mm 2,9 UV-I 422 W/m² 3,3 °C 6,9 °C 3,2 km/h (1 Bft)
09.05.2017 16:03 6,9 °C 6,9 °C 77 % 1015,7 hPa 0,0 mm 1,1 km/h (1 Bft) N-NW 329 ° 1 min 0,000 mm 3,1 UV-I 482 W/m² 3,2 °C 6,9 °C 3,2 km/h (1 Bft)
09.05.2017 16:04 7,0 °C 7,0 °C 79 % 1015,7 hPa 0,0 mm 2,2 km/h (1 Bft) S-SW 195 ° 1 min 0,000 mm 3,1 UV-I 480 W/m² 3,6 °C 7,0 °C 3,2 km/h (1 Bft)
09.05.2017 16:05 7,1 °C 7,1 °C 80 % 1015,7 hPa 0,0 mm 1,8 km/h (1 Bft) S-SW 193 ° 1 min 0,000 mm 3,1 UV-I 464 W/m² 3,9 °C 7,1 °C 3,2 km/h (1 Bft)
09.05.2017 16:06 7,3 °C 7,3 °C 80 % 1015,7 hPa 0,0 mm 4,4 km/h (1 Bft) W 267 ° 1 min 0,000 mm 4,4 UV-I 464 W/m² 4,1 °C 7,3 °C 6,4 km/h (2 Bft)
09.05.2017 16:07 7,3 °C 7,3 °C 78 % 1015,7 hPa 0,0 mm 6,1 km/h (2 Bft) W 267 ° 1 min 0,000 mm 3,1 UV-I 464 W/m² 3,7 °C 6,3 °C 9,7 km/h (2 Bft)
09.05.2017 16:08 7,3 °C 7,3 °C 76 % 1015,7 hPa 0,0 mm 5,7 km/h (1 Bft) W 269 ° 1 min 0,000 mm 3,0 UV-I 441 W/m² 3,4 °C 6,5 °C 9,7 km/h (2 Bft)
09.05.2017 16:09 7,2 °C 7,3 °C 75 % 1015,7 hPa 0,0 mm 3,2 km/h (1 Bft) W 265 ° 1 min 0,000 mm 3,5 UV-I 534 W/m² 3,1 °C 7,2 °C 6,4 km/h (2 Bft)
09.05.2017 16:10 7,0 °C 7,2 °C 74 % 1015,7 hPa 0,0 mm 0,9 km/h (0 Bft) W 265 ° 1 min 0,000 mm 3,3 UV-I 446 W/m² 2,7 °C 7,0 °C 3,2 km/h (1 Bft)
09.05.2017 16:11 6,9 °C 7,0 °C 75 % 1015,6 hPa 0,0 mm 2,5 km/h (1 Bft) S-SW 209 ° 1 min 0,000 mm 2,9 UV-I 413 W/m² 2,8 °C 6,9 °C 3,2 km/h (1 Bft)
09.05.2017 16:12 6,8 °C 6,9 °C 75 % 1015,6 hPa 0,0 mm 3,2 km/h (1 Bft) S-SW 192 ° 1 min 0,000 mm 3,1 UV-I 438 W/m² 2,7 °C 6,8 °C 4,8 km/h (1 Bft)
09.05.2017 16:13 6,8 °C 6,9 °C 77 % 1015,6 hPa 0,0 mm 1,5 km/h (1 Bft) S-SW 192 ° 1 min 0,000 mm 3,1 UV-I 429 W/m² 3,1 °C 6,8 °C 3,2 km/h (1 Bft)
09.05.2017 16:14 7,0 °C 7,0 °C 81 % 1015,6 hPa 0,0 mm 1,5 km/h (1 Bft) S 172 ° 1 min 0,000 mm 3,1 UV-I 508 W/m² 4,0 °C 7,0 °C 3,2 km/h (1 Bft)
09.05.2017 16:15 7,3 °C 7,3 °C 82 % 1015,6 hPa 0,0 mm 3,6 km/h (1 Bft) W 260 ° 1 min 0,000 mm 3,1 UV-I 480 W/m² 4,4 °C 7,3 °C 6,4 km/h (2 Bft)
09.05.2017 16:16 7,5 °C 7,5 °C 79 % 1015,6 hPa 0,0 mm 6,4 km/h (2 Bft) W-SW 238 ° 1 min 0,000 mm 3,0 UV-I 399 W/m² 4,1 °C 6,5 °C 9,7 km/h (2 Bft)
09.05.2017 16:17 7,4 °C 7,5 °C 77 % 1015,6 hPa 0,0 mm 3,9 km/h (1 Bft) W-SW 253 ° 1 min 0,000 mm 2,8 UV-I 396 W/m² 3,6 °C 7,4 °C 6,4 km/h (2 Bft)
09.05.2017 16:18 7,4 °C 7,4 °C 75 % 1015,6 hPa 0,0 mm 2,0 km/h (1 Bft) W-SW 248 ° 1 min 0,000 mm 2,8 UV-I 385 W/m² 3,3 °C 7,4 °C 6,4 km/h (2 Bft)
09.05.2017 16:19 7,3 °C 7,4 °C 76 % 1015,5 hPa 0,0 mm 3,0 km/h (1 Bft) W-SW 254 ° 1 min 0,000 mm 2,8 UV-I 387 W/m² 3,4 °C 7,3 °C 6,4 km/h (2 Bft)
09.05.2017 16:20 7,4 °C 7,4 °C 78 % 1015,5 hPa 0,0 mm 2,1 km/h (1 Bft) W-SW 254 ° 1 min 0,000 mm 3,0 UV-I 471 W/m² 3,8 °C 7,4 °C 4,8 km/h (1 Bft)
09.05.2017 16:21 7,4 °C 7,4 °C 77 % 1015,5 hPa 0,0 mm 0,1 km/h (0 Bft) W-SW 254 ° 1 min 0,000 mm 3,2 UV-I 515 W/m² 3,6 °C 7,4 °C 1,6 km/h (1 Bft)
09.05.2017 16:22 7,6 °C 7,6 °C 80 % 1015,5 hPa 0,0 mm 4,0 km/h (1 Bft) NW 309 ° 1 min 0,000 mm 2,7 UV-I 376 W/m² 4,4 °C 7,6 °C 11,3 km/h (2 Bft)
09.05.2017 16:23 7,8 °C 7,8 °C 79 % 1015,5 hPa 0,0 mm 6,1 km/h (2 Bft) N-NW 331 ° 1 min 0,000 mm 2,8 UV-I 369 W/m² 4,4 °C 6,9 °C 8,0 km/h (2 Bft)
09.05.2017 16:24 7,8 °C 7,8 °C 76 % 1015,5 hPa 0,0 mm 4,6 km/h (1 Bft) NW 310 ° 1 min 0,000 mm 2,7 UV-I 371 W/m² 3,8 °C 7,4 °C 6,4 km/h (2 Bft)
09.05.2017 16:25 7,8 °C 7,9 °C 77 % 1015,5 hPa 0,0 mm 5,1 km/h (1 Bft) NW 313 ° 1 min 0,000 mm 2,8 UV-I 394 W/m² 4,0 °C 7,2 °C 6,4 km/h (2 Bft)
09.05.2017 16:26 7,9 °C 7,9 °C 77 % 1015,6 hPa 0,0 mm 4,7 km/h (1 Bft) W-NW 292 ° 1 min 0,000 mm 2,5 UV-I 367 W/m² 4,1 °C 7,5 °C 9,7 km/h (2 Bft)
09.05.2017 16:27 8,0 °C 8,0 °C 76 % 1015,5 hPa 0,0 mm 5,4 km/h (1 Bft) NW 310 ° 1 min 0,000 mm 2,7 UV-I 443 W/m² 4,0 °C 7,4 °C 6,4 km/h (2 Bft)
09.05.2017 16:28 8,0 °C 8,0 °C 76 % 1015,5 hPa 0,0 mm 5,6 km/h (1 Bft) W-SW 258 ° 0 min 0,000 mm 2,3 UV-I 279 W/m² 4,0 °C 7,3 °C 9,7 km/h (2 Bft)
09.05.2017 16:29 7,9 °C 8,0 °C 76 % 1015,6 hPa 0,0 mm 3,8 km/h (1 Bft) W 270 ° 0 min 0,000 mm 2,1 UV-I 272 W/m² 3,9 °C 7,9 °C 9,7 km/h (2 Bft)
09.05.2017 16:30 7,8 °C 7,9 °C 73 % 1015,5 hPa 0,0 mm 1,9 km/h (1 Bft) W 269 ° 0 min 0,000 mm 2,1 UV-I 279 W/m² 3,3 °C 7,8 °C 3,2 km/h (1 Bft)
09.05.2017 16:31 7,6 °C 7,8 °C 73 % 1015,5 hPa 0,0 mm 0,8 km/h (0 Bft) W 279 ° 1 min 0,000 mm 2,2 UV-I 299 W/m² 3,1 °C 7,6 °C 1,6 km/h (1 Bft)
09.05.2017 16:32 7,6 °C 7,6 °C 76 % 1015,5 hPa 0,0 mm 1,8 km/h (1 Bft) N-NW 327 ° 1 min 0,000 mm 2,2 UV-I 329 W/m² 3,6 °C 7,6 °C 3,2 km/h (1 Bft)
09.05.2017 16:33 7,5 °C 7,6 °C 75 % 1015,5 hPa 0,0 mm 1,3 km/h (1 Bft) N-NW 337 ° 1 min 0,000 mm 2,2 UV-I 315 W/m² 3,4 °C 7,5 °C 3,2 km/h (1 Bft)
09.05.2017 16:34 7,4 °C 7,5 °C 75 % 1015,5 hPa 0,0 mm 4,2 km/h (1 Bft) N-NW 341 ° 1 min 0,000 mm 2,0 UV-I 297 W/m² 3,3 °C 7,4 °C 6,4 km/h (2 Bft)
09.05.2017 16:35 7,4 °C 7,5 °C 75 % 1015,5 hPa 0,0 mm 5,0 km/h (1 Bft) N 355 ° 0 min 0,000 mm 1,9 UV-I 278 W/m² 3,3 °C 6,8 °C 6,4 km/h (2 Bft)
09.05.2017 16:36 7,4 °C 7,4 °C 74 % 1015,5 hPa 0,0 mm 5,4 km/h (1 Bft) N 11 ° 0 min 0,000 mm 1,8 UV-I 265 W/m² 3,1 °C 6,7 °C 8,0 km/h (2 Bft)
09.05.2017 16:37 7,5 °C 7,5 °C 75 % 1015,5 hPa 0,0 mm 3,7 km/h (1 Bft) N-NW 344 ° 0 min 0,000 mm 1,7 UV-I 251 W/m² 3,4 °C 7,5 °C 4,8 km/h (1 Bft)
09.05.2017 16:38 7,5 °C 7,5 °C 75 % 1015,4 hPa 0,0 mm 4,3 km/h (1 Bft) W-NW 296 ° 0 min 0,000 mm 1,6 UV-I 239 W/m² 3,4 °C 7,5 °C 4,8 km/h (1 Bft)
09.05.2017 16:39 7,4 °C 7,5 °C 74 % 1015,4 hPa 0,0 mm 0,4 km/h (0 Bft) W-NW 296 ° 0 min 0,000 mm 1,5 UV-I 204 W/m² 3,1 °C 7,4 °C 1,6 km/h (1 Bft)
09.05.2017 16:40 7,4 °C 7,4 °C 75 % 1015,4 hPa 0,0 mm 1,5 km/h (1 Bft) W-NW 296 ° 0 min 0,000 mm 1,3 UV-I 188 W/m² 3,3 °C 7,4 °C 3,2 km/h (1 Bft)
09.05.2017 16:41 7,4 °C 7,4 °C 76 % 1015,4 hPa 0,0 mm 2,0 km/h (1 Bft) W 265 ° 0 min 0,000 mm 1,3 UV-I 176 W/m² 3,5 °C 7,4 °C 4,8 km/h (1 Bft)
09.05.2017 16:42 7,4 °C 7,4 °C 75 % 1015,4 hPa 0,0 mm 0,7 km/h (0 Bft) W 265 ° 0 min 0,000 mm 1,2 UV-I 165 W/m² 3,3 °C 7,4 °C 1,6 km/h (1 Bft)
09.05.2017 16:43 7,4 °C 7,4 °C 76 % 1015,4 hPa 0,0 mm 0,8 km/h (0 Bft) W 265 ° 0 min 0,000 mm 1,2 UV-I 158 W/m² 3,5 °C 7,4 °C 3,2 km/h (1 Bft)
09.05.2017 16:44 7,4 °C 7,4 °C 76 % 1015,4 hPa 0,0 mm 1,1 km/h (1 Bft) W 265 ° 0 min 0,000 mm 1,1 UV-I 155 W/m² 3,5 °C 7,4 °C 1,6 km/h (1 Bft)
09.05.2017 16:45 7,4 °C 7,4 °C 78 % 1015,4 hPa 0,0 mm 1,7 km/h (1 Bft) W 265 ° 0 min 0,000 mm 1,1 UV-I 149 W/m² 3,8 °C 7,4 °C 4,8 km/h (1 Bft)
09.05.2017 16:46 7,5 °C 7,5 °C 77 % 1015,4 hPa 0,0 mm 0,9 km/h (0 Bft) W 265 ° 0 min 0,000 mm 1,1 UV-I 149 W/m² 3,7 °C 7,5 °C 1,6 km/h (1 Bft)
09.05.2017 16:47 7,5 °C 7,6 °C 77 % 1015,4 hPa 0,0 mm 1,1 km/h (1 Bft) W 265 ° 0 min 0,000 mm 1,1 UV-I 149 W/m² 3,7 °C 7,5 °C 3,2 km/h (1 Bft)
09.05.2017 16:48 7,6 °C 7,6 °C 78 % 1015,3 hPa 0,0 mm 3,6 km/h (1 Bft) W-NW 292 ° 0 min 0,000 mm 1,1 UV-I 149 W/m² 4,0 °C 7,6 °C 4,8 km/h (1 Bft)
09.05.2017 16:49 7,6 °C 7,6 °C 77 % 1015,4 hPa 0,0 mm 2,4 km/h (1 Bft) W-NW 292 ° 0 min 0,000 mm 1,1 UV-I 149 W/m² 3,8 °C 7,6 °C 4,8 km/h (1 Bft)
09.05.2017 16:50 7,6 °C 7,6 °C 76 % 1015,4 hPa 0,0 mm 2,6 km/h (1 Bft) W-NW 284 ° 0 min 0,000 mm 1,0 UV-I 151 W/m² 3,6 °C 7,6 °C 4,8 km/h (1 Bft)
09.05.2017 16:51 7,5 °C 7,6 °C 75 % 1015,4 hPa 0,0 mm 3,1 km/h (1 Bft) W 276 ° 0 min 0,000 mm 1,0 UV-I 156 W/m² 3,4 °C 7,5 °C 4,8 km/h (1 Bft)
09.05.2017 16:52 7,4 °C 7,5 °C 75 % 1015,4 hPa 0,0 mm 3,9 km/h (1 Bft) W-NW 294 ° 0 min 0,000 mm 1,0 UV-I 160 W/m² 3,3 °C 7,4 °C 4,8 km/h (1 Bft)
09.05.2017 16:53 7,4 °C 7,4 °C 76 % 1015,4 hPa 0,0 mm 1,5 km/h (1 Bft) W-NW 300 ° 0 min 0,000 mm 1,0 UV-I 162 W/m² 3,5 °C 7,4 °C 4,8 km/h (1 Bft)
09.05.2017 16:54 7,4 °C 7,4 °C 75 % 1015,4 hPa 0,0 mm 5,3 km/h (1 Bft) W-NW 290 ° 0 min 0,000 mm 1,0 UV-I 162 W/m² 3,3 °C 6,7 °C 6,4 km/h (2 Bft)
09.05.2017 16:55 7,4 °C 7,4 °C 76 % 1015,4 hPa 0,0 mm 3,2 km/h (1 Bft) W-NW 302 ° 0 min 0,000 mm 1,0 UV-I 167 W/m² 3,5 °C 7,4 °C 4,8 km/h (1 Bft)
09.05.2017 16:56 7,4 °C 7,4 °C 76 % 1015,5 hPa 0,0 mm 5,4 km/h (1 Bft) NW 306 ° 0 min 0,000 mm 1,1 UV-I 174 W/m² 3,5 °C 6,7 °C 6,4 km/h (2 Bft)
09.05.2017 16:57 7,4 °C 7,4 °C 74 % 1015,4 hPa 0,0 mm 2,5 km/h (1 Bft) NW 306 ° 0 min 0,000 mm 1,2 UV-I 206 W/m² 3,1 °C 7,4 °C 4,8 km/h (1 Bft)
09.05.2017 16:58 7,4 °C 7,4 °C 75 % 1015,4 hPa 0,0 mm 3,4 km/h (1 Bft) NW 316 ° 0 min 0,000 mm 1,3 UV-I 213 W/m² 3,3 °C 7,4 °C 4,8 km/h (1 Bft)
09.05.2017 16:59 7,4 °C 7,4 °C 76 % 1015,4 hPa 0,0 mm 3,4 km/h (1 Bft) NW 316 ° 0 min 0,000 mm 1,3 UV-I 195 W/m² 3,5 °C 7,4 °C 4,8 km/h (1 Bft)
09.05.2017 17:00 7,4 °C 7,4 °C 75 % 1015,5 hPa 0,0 mm 2,6 km/h (1 Bft) W-NW 283 ° 0 min 0,000 mm 1,2 UV-I 167 W/m² 3,3 °C 7,4 °C 4,8 km/h (1 Bft)
09.05.2017 17:01 7,4 °C 7,5 °C 73 % 1015,4 hPa 0,0 mm 2,4 km/h (1 Bft) W-NW 283 ° 0 min 0,152 mm 1,1 UV-I 146 W/m² 2,9 °C 7,4 °C 3,2 km/h (1 Bft)
09.05.2017 17:02 7,4 °C 7,4 °C 73 % 1015,4 hPa 0,0 mm 3,5 km/h (1 Bft) W 279 ° 0 min 0,000 mm 1,1 UV-I 135 W/m² 2,9 °C 7,4 °C 4,8 km/h (1 Bft)
09.05.2017 17:03 7,4 °C 7,4 °C 73 % 1015,4 hPa 0,0 mm 6,6 km/h (2 Bft) N-NW 337 ° 0 min 0,000 mm 1,1 UV-I 137 W/m² 2,9 °C 6,3 °C 8,0 km/h (2 Bft)
09.05.2017 17:04 7,4 °C 7,4 °C 75 % 1015,4 hPa 0,0 mm 7,3 km/h (2 Bft) N-NW 340 ° 0 min 0,000 mm 1,1 UV-I 142 W/m² 3,3 °C 6,1 °C 9,7 km/h (2 Bft)
09.05.2017 17:05 7,5 °C 7,5 °C 75 % 1015,4 hPa 0,0 mm 6,9 km/h (2 Bft) NW 319 ° 0 min 0,000 mm 1,1 UV-I 148 W/m² 3,4 °C 6,3 °C 9,7 km/h (2 Bft)
09.05.2017 17:06 7,4 °C 7,5 °C 75 % 1015,4 hPa 0,0 mm 5,0 km/h (1 Bft) NW 317 ° 0 min 0,000 mm 1,1 UV-I 151 W/m² 3,3 °C 6,8 °C 6,4 km/h (2 Bft)
09.05.2017 17:07 7,5 °C 7,5 °C 75 % 1015,4 hPa 0,0 mm 2,4 km/h (1 Bft) W-NW 298 ° 0 min 0,000 mm 1,1 UV-I 149 W/m² 3,4 °C 7,5 °C 4,8 km/h (1 Bft)
09.05.2017 17:08 7,4 °C 7,5 °C 76 % 1015,4 hPa 0,0 mm 3,2 km/h (1 Bft) NW 311 ° 0 min 0,000 mm 1,1 UV-I 144 W/m² 3,5 °C 7,4 °C 6,4 km/h (2 Bft)
09.05.2017 17:09 7,5 °C 7,5 °C 73 % 1015,5 hPa 0,0 mm 4,8 km/h (1 Bft) NW 321 ° 0 min 0,000 mm 1,1 UV-I 132 W/m² 3,0 °C 7,0 °C 8,0 km/h (2 Bft)
09.05.2017 17:10 7,4 °C 7,5 °C 73 % 1015,4 hPa 0,0 mm 4,3 km/h (1 Bft) W-NW 285 ° 0 min 0,000 mm 0,9 UV-I 127 W/m² 2,9 °C 7,4 °C 6,4 km/h (2 Bft)
09.05.2017 17:11 7,4 °C 7,5 °C 75 % 1015,4 hPa 0,0 mm 5,1 km/h (1 Bft) N 355 ° 0 min 0,000 mm 0,9 UV-I 121 W/m² 3,3 °C 6,8 °C 6,4 km/h (2 Bft)
09.05.2017 17:12 7,4 °C 7,5 °C 74 % 1015,4 hPa 0,0 mm 5,4 km/h (1 Bft) N 350 ° 0 min 0,000 mm 0,8 UV-I 114 W/m² 3,1 °C 6,7 °C 8,0 km/h (2 Bft)
09.05.2017 17:13 7,4 °C 7,4 °C 73 % 1015,4 hPa 0,0 mm 2,2 km/h (1 Bft) N 350 ° 0 min 0,000 mm 0,8 UV-I 107 W/m² 2,9 °C 7,4 °C 4,8 km/h (1 Bft)
09.05.2017 17:14 7,4 °C 7,4 °C 73 % 1015,4 hPa 0,0 mm 1,3 km/h (1 Bft) N 350 ° 0 min 0,000 mm 0,7 UV-I 102 W/m² 2,9 °C 7,4 °C 3,2 km/h (1 Bft)
09.05.2017 17:15 7,4 °C 7,4 °C 74 % 1015,4 hPa 0,0 mm 2,7 km/h (1 Bft) N 350 ° 0 min 0,000 mm 0,7 UV-I 91 W/m² 3,1 °C 7,4 °C 3,2 km/h (1 Bft)
09.05.2017 17:16 7,4 °C 7,4 °C 75 % 1015,4 hPa 0,0 mm 3,1 km/h (1 Bft) NW 313 ° 0 min 0,000 mm 0,6 UV-I 90 W/m² 3,3 °C 7,4 °C 4,8 km/h (1 Bft)
09.05.2017 17:17 7,4 °C 7,4 °C 76 % 1015,4 hPa 0,0 mm 6,6 km/h (2 Bft) NW 315 ° 0 min 0,000 mm 0,6 UV-I 90 W/m² 3,5 °C 6,3 °C 11,3 km/h (2 Bft)
09.05.2017 17:18 7,4 °C 7,4 °C 75 % 1015,4 hPa 0,0 mm 3,5 km/h (1 Bft) NW 322 ° 0 min 0,000 mm 0,6 UV-I 90 W/m² 3,3 °C 7,4 °C 6,4 km/h (2 Bft)
09.05.2017 17:19 7,3 °C 7,4 °C 75 % 1015,5 hPa 0,0 mm 1,9 km/h (1 Bft) NW 322 ° 0 min 0,000 mm 0,6 UV-I 90 W/m² 3,2 °C 7,3 °C 3,2 km/h (1 Bft)
09.05.2017 17:20 7,3 °C 7,3 °C 75 % 1015,4 hPa 0,0 mm 4,0 km/h (1 Bft) N-NW 339 ° 0 min 0,000 mm 0,6 UV-I 95 W/m² 3,2 °C 7,3 °C 6,4 km/h (2 Bft)
09.05.2017 17:21 7,3 °C 7,3 °C 75 % 1015,4 hPa 0,0 mm 5,0 km/h (1 Bft) N 360 ° 0 min 0,000 mm 0,6 UV-I 98 W/m² 3,2 °C 6,7 °C 8,0 km/h (2 Bft)
09.05.2017 17:22 7,3 °C 7,3 °C 75 % 1015,4 hPa 0,0 mm 4,8 km/h (1 Bft) NW 324 ° 0 min 0,000 mm 0,6 UV-I 104 W/m² 3,2 °C 6,8 °C 6,4 km/h (2 Bft)
09.05.2017 17:23 7,3 °C 7,3 °C 75 % 1015,4 hPa 0,0 mm 2,5 km/h (1 Bft) N-NW 344 ° 0 min 0,000 mm 0,7 UV-I 109 W/m² 3,2 °C 7,3 °C 4,8 km/h (1 Bft)
09.05.2017 17:24 7,2 °C 7,3 °C 77 % 1015,4 hPa 0,0 mm 4,4 km/h (1 Bft) NW 312 ° 0 min 0,000 mm 0,7 UV-I 114 W/m² 3,4 °C 7,2 °C 6,4 km/h (2 Bft)
09.05.2017 17:25 7,2 °C 7,2 °C 76 % 1015,4 hPa 0,0 mm 6,2 km/h (2 Bft) NW 309 ° 0 min 0,000 mm 0,8 UV-I 121 W/m² 3,3 °C 6,2 °C 8,0 km/h (2 Bft)
09.05.2017 17:26 7,2 °C 7,2 °C 77 % 1015,4 hPa 0,0 mm 6,0 km/h (2 Bft) N 350 ° 0 min 0,000 mm 0,8 UV-I 125 W/m² 3,4 °C 6,3 °C 9,7 km/h (2 Bft)
09.05.2017 17:27 7,2 °C 7,3 °C 77 % 1015,4 hPa 0,0 mm 3,3 km/h (1 Bft) N-NW 346 ° 0 min 0,000 mm 0,9 UV-I 127 W/m² 3,4 °C 7,2 °C 4,8 km/h (1 Bft)
09.05.2017 17:28 7,3 °C 7,3 °C 78 % 1015,4 hPa 0,0 mm 3,8 km/h (1 Bft) NW 321 ° 0 min 0,000 mm 0,9 UV-I 127 W/m² 3,7 °C 7,3 °C 6,4 km/h (2 Bft)
09.05.2017 17:29 7,3 °C 7,3 °C 76 % 1015,4 hPa 0,0 mm 1,3 km/h (1 Bft) NW 321 ° 0 min 0,000 mm 0,9 UV-I 130 W/m² 3,4 °C 7,3 °C 3,2 km/h (1 Bft)
09.05.2017 17:30 7,3 °C 7,3 °C 78 % 1015,4 hPa 0,0 mm 5,7 km/h (1 Bft) N-NW 331 ° 0 min 0,000 mm 0,9 UV-I 132 W/m² 3,7 °C 6,5 °C 9,7 km/h (2 Bft)
09.05.2017 17:31 7,2 °C 7,3 °C 76 % 1015,4 hPa 0,0 mm 3,8 km/h (1 Bft) NW 325 ° 0 min 0,000 mm 0,9 UV-I 132 W/m² 3,3 °C 7,2 °C 4,8 km/h (1 Bft)
09.05.2017 17:32 7,2 °C 7,2 °C 77 % 1015,4 hPa 0,0 mm 3,0 km/h (1 Bft) N 355 ° 0 min 0,000 mm 0,9 UV-I 123 W/m² 3,4 °C 7,2 °C 4,8 km/h (1 Bft)
09.05.2017 17:33 7,2 °C 7,2 °C 76 % 1015,5 hPa 0,0 mm 6,4 km/h (2 Bft) N-NO 17 ° 0 min 0,000 mm 0,8 UV-I 120 W/m² 3,3 °C 6,1 °C 8,0 km/h (2 Bft)
09.05.2017 17:34 7,2 °C 7,2 °C 77 % 1015,5 hPa 0,0 mm 4,7 km/h (1 Bft) N 355 ° 0 min 0,000 mm 0,8 UV-I 114 W/m² 3,4 °C 6,7 °C 6,4 km/h (2 Bft)
09.05.2017 17:35 7,2 °C 7,2 °C 76 % 1015,4 hPa 0,0 mm 2,7 km/h (1 Bft) N 355 ° 0 min 0,000 mm 0,7 UV-I 109 W/m² 3,3 °C 7,2 °C 4,8 km/h (1 Bft)
09.05.2017 17:36 7,2 °C 7,3 °C 78 % 1015,5 hPa 0,0 mm 3,4 km/h (1 Bft) NW 317 ° 0 min 0,000 mm 0,7 UV-I 102 W/m² 3,6 °C 7,2 °C 6,4 km/h (2 Bft)
09.05.2017 17:37 7,3 °C 7,3 °C 78 % 1015,4 hPa 0,0 mm 6,0 km/h (2 Bft) NW 319 ° 0 min 0,000 mm 0,6 UV-I 95 W/m² 3,7 °C 6,4 °C 8,0 km/h (2 Bft)
09.05.2017 17:38 7,2 °C 7,3 °C 77 % 1015,5 hPa 0,0 mm 4,0 km/h (1 Bft) N-NW 337 ° 0 min 0,000 mm 0,6 UV-I 88 W/m² 3,4 °C 7,2 °C 4,8 km/h (1 Bft)
09.05.2017 17:39 7,2 °C 7,2 °C 77 % 1015,4 hPa 0,0 mm 2,8 km/h (1 Bft) N-NW 337 ° 0 min 0,000 mm 0,6 UV-I 88 W/m² 3,4 °C 7,2 °C 3,2 km/h (1 Bft)
09.05.2017 17:40 7,2 °C 7,2 °C 77 % 1015,4 hPa 0,0 mm 4,3 km/h (1 Bft) N-NW 329 ° 0 min 0,000 mm 0,6 UV-I 88 W/m² 3,4 °C 7,2 °C 4,8 km/h (1 Bft)
09.05.2017 17:41 7,1 °C 7,2 °C 78 % 1015,4 hPa 0,0 mm 4,8 km/h (1 Bft) N 355 ° 0 min 0,000 mm 0,6 UV-I 86 W/m² 3,5 °C 6,5 °C 8,0 km/h (2 Bft)
09.05.2017 17:42 7,2 °C 7,2 °C 78 % 1015,4 hPa 0,0 mm 4,8 km/h (1 Bft) N 355 ° 0 min 0,000 mm 0,6 UV-I 84 W/m² 3,6 °C 6,7 °C 6,4 km/h (2 Bft)
09.05.2017 17:43 7,1 °C 7,2 °C 77 % 1015,4 hPa 0,0 mm 4,6 km/h (1 Bft) NW 311 ° 0 min 0,000 mm 0,6 UV-I 84 W/m² 3,3 °C 6,6 °C 6,4 km/h (2 Bft)
09.05.2017 17:44 7,1 °C 7,1 °C 77 % 1015,4 hPa 0,0 mm 4,0 km/h (1 Bft) NW 311 ° 0 min 0,000 mm 0,6 UV-I 91 W/m² 3,3 °C 7,1 °C 4,8 km/h (1 Bft)
09.05.2017 17:45 7,1 °C 7,1 °C 78 % 1015,4 hPa 0,0 mm 3,2 km/h (1 Bft) NW 312 ° 0 min 0,000 mm 0,6 UV-I 93 W/m² 3,5 °C 7,1 °C 6,4 km/h (2 Bft)
09.05.2017 17:46 7,1 °C 7,1 °C 78 % 1015,4 hPa 0,0 mm 4,2 km/h (1 Bft) NW 313 ° 0 min 0,000 mm 0,6 UV-I 93 W/m² 3,5 °C 7,1 °C 6,4 km/h (2 Bft)
09.05.2017 17:47 7,1 °C 7,1 °C 78 % 1015,4 hPa 0,0 mm 4,3 km/h (1 Bft) N-NW 342 ° 0 min 0,000 mm 0,6 UV-I 91 W/m² 3,5 °C 7,1 °C 6,4 km/h (2 Bft)
09.05.2017 17:48 7,1 °C 7,1 °C 77 % 1015,4 hPa 0,0 mm 2,8 km/h (1 Bft) N-NW 342 ° 0 min 0,000 mm 0,6 UV-I 90 W/m² 3,3 °C 7,1 °C 4,8 km/h (1 Bft)
09.05.2017 17:49 7,1 °C 7,1 °C 78 % 1015,3 hPa 0,0 mm 1,6 km/h (1 Bft) N-NW 342 ° 0 min 0,000 mm 0,5 UV-I 88 W/m² 3,5 °C 7,1 °C 1,6 km/h (1 Bft)
09.05.2017 17:50 7,1 °C 7,1 °C 79 % 1015,4 hPa 0,0 mm 3,1 km/h (1 Bft) N-NW 333 ° 0 min 0,000 mm 0,5 UV-I 79 W/m² 3,7 °C 7,1 °C 4,8 km/h (1 Bft)
09.05.2017 17:51 7,1 °C 7,1 °C 78 % 1015,4 hPa 0,0 mm 2,2 km/h (1 Bft) N-NW 333 ° 0 min 0,000 mm 0,5 UV-I 79 W/m² 3,5 °C 7,1 °C 4,8 km/h (1 Bft)
09.05.2017 17:52 7,1 °C 7,1 °C 78 % 1015,4 hPa 0,0 mm 3,7 km/h (1 Bft) NW 308 ° 0 min 0,000 mm 0,5 UV-I 81 W/m² 3,5 °C 7,1 °C 6,4 km/h (2 Bft)
09.05.2017 17:53 7,1 °C 7,1 °C 79 % 1015,3 hPa 0,0 mm 2,7 km/h (1 Bft) N-NW 327 ° 0 min 0,000 mm 0,5 UV-I 81 W/m² 3,7 °C 7,1 °C 4,8 km/h (1 Bft)
09.05.2017 17:54 7,1 °C 7,1 °C 79 % 1015,4 hPa 0,0 mm 2,7 km/h (1 Bft) NW 320 ° 0 min 0,000 mm 0,5 UV-I 83 W/m² 3,7 °C 7,1 °C 4,8 km/h (1 Bft)
09.05.2017 17:55 7,1 °C 7,1 °C 79 % 1015,3 hPa 0,0 mm 3,4 km/h (1 Bft) NW 313 ° 0 min 0,000 mm 0,5 UV-I 91 W/m² 3,7 °C 7,1 °C 4,8 km/h (1 Bft)
09.05.2017 17:56 7,1 °C 7,1 °C 79 % 1015,4 hPa 0,0 mm 3,0 km/h (1 Bft) NW 315 ° 0 min 0,000 mm 0,5 UV-I 97 W/m² 3,7 °C 7,1 °C 4,8 km/h (1 Bft)
09.05.2017 17:57 7,1 °C 7,1 °C 78 % 1015,3 hPa 0,0 mm 2,8 km/h (1 Bft) N-NW 333 ° 0 min 0,000 mm 0,6 UV-I 104 W/m² 3,5 °C 7,1 °C 4,8 km/h (1 Bft)
09.05.2017 17:58 7,1 °C 7,1 °C 79 % 1015,3 hPa 0,0 mm 1,7 km/h (1 Bft) N-NW 332 ° 0 min 0,000 mm 0,6 UV-I 109 W/m² 3,7 °C 7,1 °C 3,2 km/h (1 Bft)
09.05.2017 17:59 7,1 °C 7,1 °C 79 % 1015,3 hPa 0,0 mm 1,5 km/h (1 Bft) N-NW 332 ° 0 min 0,000 mm 0,7 UV-I 116 W/m² 3,7 °C 7,1 °C 4,8 km/h (1 Bft)
09.05.2017 18:00 7,1 °C 7,1 °C 77 % 1015,3 hPa 0,0 mm 4,1 km/h (1 Bft) N-NW 327 ° 0 min 0,000 mm 0,7 UV-I 120 W/m² 3,3 °C 7,1 °C 6,4 km/h (2 Bft)
09.05.2017 18:01 7,1 °C 7,1 °C 78 % 1015,3 hPa 0,0 mm 1,3 km/h (1 Bft) N-NW 327 ° 0 min 0,051 mm 0,8 UV-I 123 W/m² 3,5 °C 7,1 °C 4,8 km/h (1 Bft)
09.05.2017 18:02 7,1 °C 7,1 °C 79 % 1015,2 hPa 0,0 mm 1,6 km/h (1 Bft) N-NW 327 ° 0 min 0,000 mm 0,8 UV-I 120 W/m² 3,7 °C 7,1 °C 3,2 km/h (1 Bft)
09.05.2017 18:03 7,1 °C 7,1 °C 77 % 1015,2 hPa 0,0 mm 2,1 km/h (1 Bft) N-NW 327 ° 0 min 0,000 mm 0,8 UV-I 118 W/m² 3,3 °C 7,1 °C 3,2 km/h (1 Bft)
09.05.2017 18:04 7,1 °C 7,1 °C 75 % 1015,2 hPa 0,0 mm 2,4 km/h (1 Bft) N-NW 327 ° 0 min 0,000 mm 0,8 UV-I 116 W/m² 3,0 °C 7,1 °C 3,2 km/h (1 Bft)
09.05.2017 18:05 7,1 °C 7,1 °C 78 % 1015,2 hPa 0,0 mm 3,3 km/h (1 Bft) N-NW 327 ° 0 min 0,000 mm 0,8 UV-I 113 W/m² 3,5 °C 7,1 °C 4,8 km/h (1 Bft)
09.05.2017 18:06 7,1 °C 7,1 °C 76 % 1015,2 hPa 0,0 mm 2,2 km/h (1 Bft) N-NW 327 ° 0 min 0,000 mm 0,8 UV-I 111 W/m² 3,2 °C 7,1 °C 4,8 km/h (1 Bft)
09.05.2017 18:07 7,1 °C 7,1 °C 76 % 1015,2 hPa 0,0 mm 3,2 km/h (1 Bft) N-NW 327 ° 0 min 0,000 mm 0,7 UV-I 100 W/m² 3,2 °C 7,1 °C 4,8 km/h (1 Bft)
09.05.2017 18:08 7,1 °C 7,1 °C 76 % 1015,2 hPa 0,0 mm 2,7 km/h (1 Bft) N-NW 327 ° 0 min 0,000 mm 0,6 UV-I 91 W/m² 3,2 °C 7,1 °C 3,2 km/h (1 Bft)
09.05.2017 18:09 7,1 °C 7,1 °C 76 % 1015,2 hPa 0,0 mm 2,1 km/h (1 Bft) N-NW 327 ° 0 min 0,000 mm 0,6 UV-I 84 W/m² 3,2 °C 7,1 °C 3,2 km/h (1 Bft)
09.05.2017 18:10 7,1 °C 7,1 °C 75 % 1015,2 hPa 0,0 mm 1,7 km/h (1 Bft) N-NW 327 ° 0 min 0,000 mm 0,5 UV-I 77 W/m² 3,0 °C 7,1 °C 3,2 km/h (1 Bft)
09.05.2017 18:11 7,1 °C 7,2 °C 77 % 1015,3 hPa 0,0 mm 0,0 km/h (0 Bft) N-NW 327 ° 0 min 0,000 mm 0,5 UV-I 72 W/m² 3,3 °C 7,1 °C 0,0 km/h (0 Bft)
09.05.2017 18:12 7,1 °C 7,1 °C 75 % 1015,3 hPa 0,0 mm 1,0 km/h (0 Bft) N-NW 327 ° 0 min 0,000 mm 0,0 UV-I 67 W/m² 3,0 °C 7,1 °C 1,6 km/h (1 Bft)
09.05.2017 18:13 7,1 °C 7,1 °C 76 % 1015,3 hPa 0,0 mm 3,4 km/h (1 Bft) N-NW 327 ° 0 min 0,000 mm 0,0 UV-I 63 W/m² 3,2 °C 7,1 °C 4,8 km/h (1 Bft)
09.05.2017 18:14 7,1 °C 7,1 °C 77 % 1015,2 hPa 0,0 mm 2,8 km/h (1 Bft) W-NW 300 ° 0 min 0,000 mm 0,0 UV-I 63 W/m² 3,3 °C 7,1 °C 4,8 km/h (1 Bft)
09.05.2017 18:15 6,9 °C 7,1 °C 76 % 1015,2 hPa 0,0 mm 3,4 km/h (1 Bft) W-NW 300 ° 0 min 0,000 mm 0,0 UV-I 67 W/m² 3,0 °C 6,9 °C 4,8 km/h (1 Bft)
09.05.2017 18:16 7,0 °C 7,0 °C 75 % 1015,2 hPa 0,0 mm 4,1 km/h (1 Bft) W-NW 300 ° 0 min 0,000 mm 0,0 UV-I 70 W/m² 2,9 °C 7,0 °C 4,8 km/h (1 Bft)
09.05.2017 18:17 6,9 °C 7,0 °C 76 % 1015,2 hPa 0,0 mm 3,7 km/h (1 Bft) W-NW 282 ° 0 min 0,000 mm 0,0 UV-I 79 W/m² 3,0 °C 6,9 °C 6,4 km/h (2 Bft)
09.05.2017 18:18 6,9 °C 6,9 °C 76 % 1015,2 hPa 0,0 mm 3,0 km/h (1 Bft) W-NW 283 ° 0 min 0,000 mm 0,5 UV-I 91 W/m² 3,0 °C 6,9 °C 4,8 km/h (1 Bft)
09.05.2017 18:19 6,9 °C 6,9 °C 76 % 1015,2 hPa 0,0 mm 0,8 km/h (0 Bft) W-NW 283 ° 0 min 0,000 mm 0,6 UV-I 114 W/m² 3,0 °C 6,9 °C 3,2 km/h (1 Bft)
09.05.2017 18:20 6,9 °C 6,9 °C 76 % 1015,2 hPa 0,0 mm 1,5 km/h (1 Bft) W-NW 283 ° 0 min 0,000 mm 0,6 UV-I 125 W/m² 3,0 °C 6,9 °C 3,2 km/h (1 Bft)
09.05.2017 18:21 6,9 °C 6,9 °C 76 % 1015,2 hPa 0,0 mm 0,4 km/h (0 Bft) W-NW 283 ° 0 min 0,000 mm 0,7 UV-I 130 W/m² 3,0 °C 6,9 °C 1,6 km/h (1 Bft)
09.05.2017 18:22 6,9 °C 6,9 °C 74 % 1015,2 hPa 0,0 mm 0,9 km/h (0 Bft) W-NW 283 ° 0 min 0,000 mm 0,8 UV-I 128 W/m² 2,6 °C 6,9 °C 3,2 km/h (1 Bft)
09.05.2017 18:23 6,9 °C 6,9 °C 75 % 1015,2 hPa 0,0 mm 3,0 km/h (1 Bft) W-NW 284 ° 0 min 0,000 mm 0,8 UV-I 125 W/m² 2,8 °C 6,9 °C 3,2 km/h (1 Bft)
09.05.2017 18:24 6,9 °C 6,9 °C 76 % 1015,2 hPa 0,0 mm 0,9 km/h (0 Bft) W-NW 284 ° 0 min 0,000 mm 0,8 UV-I 121 W/m² 3,0 °C 6,9 °C 3,2 km/h (1 Bft)
09.05.2017 18:25 6,9 °C 6,9 °C 75 % 1015,2 hPa 0,0 mm 0,4 km/h (0 Bft) W-NW 284 ° 0 min 0,000 mm 0,7 UV-I 113 W/m² 2,8 °C 6,9 °C 1,6 km/h (1 Bft)
09.05.2017 18:26 6,9 °C 6,9 °C 77 % 1015,3 hPa 0,0 mm 2,7 km/h (1 Bft) W-NW 294 ° 0 min 0,000 mm 0,7 UV-I 105 W/m² 3,2 °C 6,9 °C 4,8 km/h (1 Bft)
09.05.2017 18:27 7,0 °C 7,0 °C 77 % 1015,2 hPa 0,0 mm 1,5 km/h (1 Bft) W-NW 301 ° 0 min 0,000 mm 0,7 UV-I 102 W/m² 3,2 °C 7,0 °C 3,2 km/h (1 Bft)
09.05.2017 18:28 7,1 °C 7,1 °C 77 % 1015,2 hPa 0,0 mm 2,6 km/h (1 Bft) W-NW 301 ° 0 min 0,000 mm 0,7 UV-I 97 W/m² 3,3 °C 7,1 °C 4,8 km/h (1 Bft)
09.05.2017 18:29 7,1 °C 7,1 °C 76 % 1015,2 hPa 0,0 mm 2,0 km/h (1 Bft) W-NW 301 ° 0 min 0,000 mm 0,7 UV-I 95 W/m² 3,2 °C 7,1 °C 3,2 km/h (1 Bft)
09.05.2017 18:30 7,1 °C 7,1 °C 74 % 1015,2 hPa 0,0 mm 0,9 km/h (0 Bft) W-NW 301 ° 0 min 0,000 mm 0,6 UV-I 91 W/m² 2,8 °C 7,1 °C 3,2 km/h (1 Bft)
09.05.2017 18:31 7,1 °C 7,1 °C 75 % 1015,2 hPa 0,0 mm 0,9 km/h (0 Bft) W-NW 301 ° 0 min 0,000 mm 0,6 UV-I 91 W/m² 3,0 °C 7,1 °C 3,2 km/h (1 Bft)
09.05.2017 18:32 7,1 °C 7,1 °C 75 % 1015,2 hPa 0,0 mm 1,9 km/h (1 Bft) W-NW 301 ° 0 min 0,000 mm 0,6 UV-I 90 W/m² 3,0 °C 7,1 °C 3,2 km/h (1 Bft)
09.05.2017 18:33 7,1 °C 7,1 °C 75 % 1015,2 hPa 0,0 mm 3,2 km/h (1 Bft) W-NW 301 ° 0 min 0,000 mm 0,6 UV-I 86 W/m² 3,0 °C 7,1 °C 4,8 km/h (1 Bft)
09.05.2017 18:34 7,1 °C 7,1 °C 75 % 1015,2 hPa 0,0 mm 2,9 km/h (1 Bft) W-NW 301 ° 0 min 0,000 mm 0,6 UV-I 83 W/m² 3,0 °C 7,1 °C 3,2 km/h (1 Bft)
09.05.2017 18:35 7,1 °C 7,1 °C 75 % 1015,2 hPa 0,0 mm 2,5 km/h (1 Bft) W-NW 301 ° 0 min 0,000 mm 0,5 UV-I 77 W/m² 3,0 °C 7,1 °C 3,2 km/h (1 Bft)
09.05.2017 18:36 7,1 °C 7,1 °C 75 % 1015,2 hPa 0,0 mm 2,3 km/h (1 Bft) W-NW 301 ° 0 min 0,000 mm 0,5 UV-I 74 W/m² 3,0 °C 7,1 °C 3,2 km/h (1 Bft)
09.05.2017 18:37 7,1 °C 7,1 °C 74 % 1015,2 hPa 0,0 mm 2,3 km/h (1 Bft) W-NW 301 ° 0 min 0,000 mm 0,5 UV-I 72 W/m² 2,8 °C 7,1 °C 3,2 km/h (1 Bft)
09.05.2017 18:38 7,0 °C 7,1 °C 73 % 1015,2 hPa 0,0 mm 1,5 km/h (1 Bft) W-NW 301 ° 0 min 0,000 mm 0,0 UV-I 72 W/m² 2,5 °C 7,0 °C 3,2 km/h (1 Bft)
09.05.2017 18:39 7,0 °C 7,0 °C 73 % 1015,2 hPa 0,0 mm 1,2 km/h (1 Bft) W-NW 301 ° 0 min 0,000 mm 0,0 UV-I 72 W/m² 2,5 °C 7,0 °C 1,6 km/h (1 Bft)
09.05.2017 18:40 6,9 °C 7,0 °C 73 % 1015,2 hPa 0,0 mm 1,3 km/h (1 Bft) W-NW 301 ° 0 min 0,000 mm 0,0 UV-I 72 W/m² 2,4 °C 6,9 °C 1,6 km/h (1 Bft)
09.05.2017 18:41 6,9 °C 6,9 °C 72 % 1015,2 hPa 0,0 mm 0,0 km/h (0 Bft) W-NW 301 ° 0 min 0,000 mm 0,0 UV-I 70 W/m² 2,2 °C 6,9 °C 0,0 km/h (0 Bft)
09.05.2017 18:42 6,9 °C 6,9 °C 73 % 1015,2 hPa 0,0 mm 2,8 km/h (1 Bft) W-NW 301 ° 0 min 0,000 mm 0,0 UV-I 69 W/m² 2,4 °C 6,9 °C 3,2 km/h (1 Bft)
09.05.2017 18:43 6,9 °C 6,9 °C 74 % 1015,2 hPa 0,0 mm 1,6 km/h (1 Bft) W-NW 301 ° 0 min 0,000 mm 0,0 UV-I 67 W/m² 2,6 °C 6,9 °C 3,2 km/h (1 Bft)
09.05.2017 18:44 6,9 °C 6,9 °C 72 % 1015,2 hPa 0,0 mm 0,1 km/h (0 Bft) W-NW 301 ° 0 min 0,000 mm 0,0 UV-I 65 W/m² 2,2 °C 6,9 °C 1,6 km/h (1 Bft)
09.05.2017 18:45 6,9 °C 6,9 °C 72 % 1015,1 hPa 0,0 mm 0,0 km/h (0 Bft) W-NW 301 ° 0 min 0,000 mm 0,0 UV-I 62 W/m² 2,2 °C 6,9 °C 0,0 km/h (0 Bft)
09.05.2017 18:46 6,9 °C 6,9 °C 73 % 1015,2 hPa 0,0 mm 0,0 km/h (0 Bft) W-NW 301 ° 0 min 0,000 mm 0,0 UV-I 62 W/m² 2,4 °C 6,9 °C 0,0 km/h (0 Bft)
09.05.2017 18:47 6,9 °C 6,9 °C 72 % 1015,1 hPa 0,0 mm 0,0 km/h (0 Bft) W-NW 301 ° 0 min 0,000 mm 0,0 UV-I 54 W/m² 2,2 °C 6,9 °C 0,0 km/h (0 Bft)
09.05.2017 18:48 6,9 °C 6,9 °C 71 % 1015,1 hPa 0,0 mm 0,0 km/h (0 Bft) W-NW 301 ° 0 min 0,000 mm 0,0 UV-I 53 W/m² 2,0 °C 6,9 °C 0,0 km/h (0 Bft)
09.05.2017 18:49 6,8 °C 6,9 °C 71 % 1015,1 hPa 0,0 mm 0,0 km/h (0 Bft) W-NW 301 ° 0 min 0,000 mm 0,0 UV-I 53 W/m² 1,9 °C 6,8 °C 0,0 km/h (0 Bft)
09.05.2017 18:50 6,8 °C 6,9 °C 72 % 1015,1 hPa 0,0 mm 0,0 km/h (0 Bft) W-NW 301 ° 0 min 0,000 mm 0,0 UV-I 51 W/m² 2,1 °C 6,8 °C 0,0 km/h (0 Bft)
09.05.2017 18:51 6,8 °C 6,8 °C 72 % 1015,1 hPa 0,0 mm 0,0 km/h (0 Bft) W-NW 301 ° 0 min 0,000 mm 0,0 UV-I 51 W/m² 2,1 °C 6,8 °C 0,0 km/h (0 Bft)
09.05.2017 18:52 6,8 °C 6,8 °C 73 % 1015,1 hPa 0,0 mm 0,9 km/h (0 Bft) W-NW 301 ° 0 min 0,000 mm 0,0 UV-I 49 W/m² 2,3 °C 6,8 °C 3,2 km/h (1 Bft)
09.05.2017 18:53 6,8 °C 6,8 °C 74 % 1015,0 hPa 0,0 mm 1,4 km/h (1 Bft) W-NW 301 ° 0 min 0,000 mm 0,0 UV-I 47 W/m² 2,5 °C 6,8 °C 3,2 km/h (1 Bft)
09.05.2017 18:54 6,8 °C 6,8 °C 75 % 1015,0 hPa 0,0 mm 1,7 km/h (1 Bft) W-NW 301 ° 0 min 0,000 mm 0,0 UV-I 46 W/m² 2,7 °C 6,8 °C 3,2 km/h (1 Bft)
09.05.2017 18:55 6,9 °C 6,9 °C 74 % 1015,1 hPa 0,0 mm 0,8 km/h (0 Bft) W-NW 301 ° 0 min 0,000 mm 0,0 UV-I 46 W/m² 2,6 °C 6,9 °C 1,6 km/h (1 Bft)
09.05.2017 18:56 6,8 °C 6,9 °C 73 % 1015,0 hPa 0,0 mm 0,3 km/h (0 Bft) W-NW 301 ° 0 min 0,000 mm 0,0 UV-I 47 W/m² 2,3 °C 6,8 °C 1,6 km/h (1 Bft)
09.05.2017 18:57 6,8 °C 6,8 °C 76 % 1015,0 hPa 0,0 mm 0,0 km/h (0 Bft) W-NW 301 ° 0 min 0,000 mm 0,0 UV-I 51 W/m² 2,9 °C 6,8 °C 0,0 km/h (0 Bft)
09.05.2017 18:58 6,8 °C 6,8 °C 72 % 1015,0 hPa 0,0 mm 0,7 km/h (0 Bft) W-NW 301 ° 0 min 0,000 mm 0,0 UV-I 54 W/m² 2,1 °C 6,8 °C 1,6 km/h (1 Bft)
09.05.2017 18:59 6,8 °C 6,8 °C 76 % 1015,0 hPa 0,0 mm 0,3 km/h (0 Bft) W-NW 301 ° 0 min 0,000 mm 0,0 UV-I 60 W/m² 2,9 °C 6,8 °C 1,6 km/h (1 Bft)
09.05.2017 19:00 6,8 °C 6,8 °C 77 % 1014,9 hPa 0,0 mm 0,0 km/h (0 Bft) W-NW 301 ° 0 min 0,000 mm 0,0 UV-I 69 W/m² 3,1 °C 6,8 °C 0,0 km/h (0 Bft)
09.05.2017 19:01 6,7 °C 6,8 °C 78 % 1015,0 hPa 0,0 mm 0,0 km/h (0 Bft) W-NW 301 ° 0 min 0,051 mm 0,0 UV-I 74 W/m² 3,1 °C 6,7 °C 0,0 km/h (0 Bft)
09.05.2017 19:02 6,6 °C 6,7 °C 79 % 1015,0 hPa 0,0 mm 0,0 km/h (0 Bft) W-NW 301 ° 0 min 0,000 mm 0,0 UV-I 79 W/m² 3,2 °C 6,6 °C 0,0 km/h (0 Bft)
09.05.2017 19:03 6,4 °C 6,6 °C 80 % 1014,9 hPa 0,0 mm 0,0 km/h (0 Bft) W-NW 301 ° 0 min 0,000 mm 0,0 UV-I 83 W/m² 3,2 °C 6,4 °C 0,0 km/h (0 Bft)
09.05.2017 19:04 6,4 °C 6,4 °C 81 % 1014,9 hPa 0,0 mm 0,0 km/h (0 Bft) W-NW 301 ° 0 min 0,000 mm 0,0 UV-I 83 W/m² 3,4 °C 6,4 °C 0,0 km/h (0 Bft)
09.05.2017 19:05 6,3 °C 6,4 °C 79 % 1014,9 hPa 0,0 mm 0,7 km/h (0 Bft) W-NW 301 ° 0 min 0,000 mm 0,0 UV-I 81 W/m² 2,9 °C 6,3 °C 1,6 km/h (1 Bft)
09.05.2017 19:06 6,3 °C 6,3 °C 81 % 1014,9 hPa 0,0 mm 0,1 km/h (0 Bft) W-NW 301 ° 0 min 0,000 mm 0,0 UV-I 79 W/m² 3,3 °C 6,3 °C 1,6 km/h (1 Bft)
09.05.2017 19:07 6,4 °C 6,4 °C 80 % 1014,9 hPa 0,0 mm 0,0 km/h (0 Bft) W-NW 301 ° 0 min 0,000 mm 0,0 UV-I 81 W/m² 3,2 °C 6,4 °C 0,0 km/h (0 Bft)
09.05.2017 19:08 6,4 °C 6,4 °C 82 % 1014,9 hPa 0,0 mm 0,0 km/h (0 Bft) W-NW 301 ° 0 min 0,000 mm 0,0 UV-I 83 W/m² 3,6 °C 6,4 °C 0,0 km/h (0 Bft)
09.05.2017 19:09 6,4 °C 6,4 °C 82 % 1014,9 hPa 0,0 mm 0,0 km/h (0 Bft) W-NW 301 ° 0 min 0,000 mm 0,0 UV-I 83 W/m² 3,6 °C 6,4 °C 0,0 km/h (0 Bft)
09.05.2017 19:10 6,4 °C 6,4 °C 83 % 1014,9 hPa 0,0 mm 0,0 km/h (0 Bft) W-NW 301 ° 0 min 0,000 mm 0,0 UV-I 81 W/m² 3,7 °C 6,4 °C 0,0 km/h (0 Bft)
09.05.2017 19:11 6,4 °C 6,4 °C 82 % 1014,9 hPa 0,0 mm 0,1 km/h (0 Bft) W-NW 301 ° 0 min 0,000 mm 0,0 UV-I 72 W/m² 3,6 °C 6,4 °C 1,6 km/h (1 Bft)
09.05.2017 19:12 6,4 °C 6,4 °C 82 % 1014,9 hPa 0,0 mm 0,5 km/h (0 Bft) W-NW 301 ° 0 min 0,000 mm 0,0 UV-I 69 W/m² 3,6 °C 6,4 °C 1,6 km/h (1 Bft)
09.05.2017 19:13 6,4 °C 6,5 °C 83 % 1014,9 hPa 0,0 mm 0,6 km/h (0 Bft) W-NW 301 ° 0 min 0,000 mm 0,0 UV-I 65 W/m² 3,7 °C 6,4 °C 1,6 km/h (1 Bft)
09.05.2017 19:14 6,5 °C 6,5 °C 83 % 1014,9 hPa 0,0 mm 1,8 km/h (1 Bft) W-NW 301 ° 0 min 0,000 mm 0,0 UV-I 63 W/m² 3,8 °C 6,5 °C 3,2 km/h (1 Bft)
09.05.2017 19:15 6,5 °C 6,5 °C 84 % 1014,9 hPa 0,0 mm 1,8 km/h (1 Bft) W-NW 301 ° 0 min 0,000 mm 0,0 UV-I 62 W/m² 4,0 °C 6,5 °C 3,2 km/h (1 Bft)
09.05.2017 19:16 6,5 °C 6,6 °C 82 % 1014,9 hPa 0,0 mm 1,7 km/h (1 Bft) W-NW 301 ° 0 min 0,000 mm 0,0 UV-I 63 W/m² 3,7 °C 6,5 °C 3,2 km/h (1 Bft)
09.05.2017 19:17 6,6 °C 6,6 °C 82 % 1015,0 hPa 0,0 mm 2,1 km/h (1 Bft) W-NW 301 ° 0 min 0,000 mm 0,0 UV-I 69 W/m² 3,8 °C 6,6 °C 3,2 km/h (1 Bft)
09.05.2017 19:18 6,6 °C 6,6 °C 81 % 1014,9 hPa 0,0 mm 1,4 km/h (1 Bft) W-NW 301 ° 0 min 0,000 mm 0,0 UV-I 70 W/m² 3,6 °C 6,6 °C 3,2 km/h (1 Bft)
09.05.2017 19:19 6,6 °C 6,6 °C 82 % 1014,9 hPa 0,0 mm 1,0 km/h (0 Bft) W-NW 301 ° 0 min 0,000 mm 0,0 UV-I 72 W/m² 3,8 °C 6,6 °C 3,2 km/h (1 Bft)
09.05.2017 19:20 6,6 °C 6,6 °C 83 % 1014,9 hPa 0,0 mm 0,2 km/h (0 Bft) W-NW 301 ° 0 min 0,000 mm 0,0 UV-I 69 W/m² 3,9 °C 6,6 °C 1,6 km/h (1 Bft)
09.05.2017 19:21 6,6 °C 6,6 °C 84 % 1014,8 hPa 0,0 mm 0,0 km/h (0 Bft) W-NW 301 ° 0 min 0,000 mm 0,0 UV-I 65 W/m² 4,1 °C 6,6 °C 0,0 km/h (0 Bft)
09.05.2017 19:22 6,6 °C 6,6 °C 84 % 1014,8 hPa 0,0 mm 0,0 km/h (0 Bft) W-NW 301 ° 0 min 0,000 mm 0,0 UV-I 60 W/m² 4,1 °C 6,6 °C 0,0 km/h (0 Bft)
09.05.2017 19:23 6,6 °C 6,6 °C 84 % 1014,9 hPa 0,0 mm 0,0 km/h (0 Bft) W-NW 301 ° 0 min 0,000 mm 0,0 UV-I 56 W/m² 4,1 °C 6,6 °C 0,0 km/h (0 Bft)
09.05.2017 19:24 6,5 °C 6,6 °C 85 % 1014,9 hPa 0,0 mm 0,0 km/h (0 Bft) W-NW 301 ° 0 min 0,000 mm 0,0 UV-I 53 W/m² 4,2 °C 6,5 °C 0,0 km/h (0 Bft)
09.05.2017 19:25 6,6 °C 6,6 °C 86 % 1014,9 hPa 0,0 mm 0,0 km/h (0 Bft) W-NW 301 ° 0 min 0,000 mm 0,0 UV-I 53 W/m² 4,4 °C 6,6 °C 0,0 km/h (0 Bft)
09.05.2017 19:26 6,5 °C 6,6 °C 86 % 1014,9 hPa 0,0 mm 0,6 km/h (0 Bft) W-NW 301 ° 0 min 0,000 mm 0,0 UV-I 53 W/m² 4,3 °C 6,5 °C 1,6 km/h (1 Bft)
09.05.2017 19:27 6,5 °C 6,6 °C 85 % 1014,9 hPa 0,0 mm 0,7 km/h (0 Bft) W-NW 301 ° 0 min 0,000 mm 0,0 UV-I 53 W/m² 4,2 °C 6,5 °C 1,6 km/h (1 Bft)
09.05.2017 19:28 6,5 °C 6,6 °C 83 % 1014,9 hPa 0,0 mm 0,3 km/h (0 Bft) W-NW 301 ° 0 min 0,000 mm 0,0 UV-I 54 W/m² 3,8 °C 6,5 °C 1,6 km/h (1 Bft)
09.05.2017 19:29 6,6 °C 6,6 °C 83 % 1014,9 hPa 0,0 mm 2,5 km/h (1 Bft) W-NW 301 ° 0 min 0,000 mm 0,0 UV-I 56 W/m² 3,9 °C 6,6 °C 3,2 km/h (1 Bft)
09.05.2017 19:30 6,6 °C 6,6 °C 83 % 1014,9 hPa 0,0 mm 1,3 km/h (1 Bft) W-NW 301 ° 0 min 0,000 mm 0,0 UV-I 58 W/m² 3,9 °C 6,6 °C 1,6 km/h (1 Bft)
09.05.2017 19:31 6,6 °C 6,6 °C 83 % 1014,9 hPa 0,0 mm 0,7 km/h (0 Bft) W-NW 301 ° 0 min 0,000 mm 0,0 UV-I 58 W/m² 3,9 °C 6,6 °C 1,6 km/h (1 Bft)
09.05.2017 19:32 6,6 °C 6,6 °C 84 % 1014,9 hPa 0,0 mm 0,0 km/h (0 Bft) W-NW 301 ° 0 min 0,000 mm 0,0 UV-I 56 W/m² 4,1 °C 6,6 °C 0,0 km/h (0 Bft)
09.05.2017 19:33 6,5 °C 6,6 °C 85 % 1014,9 hPa 0,0 mm 0,0 km/h (0 Bft) W-NW 301 ° 0 min 0,000 mm 0,0 UV-I 56 W/m² 4,2 °C 6,5 °C 0,0 km/h (0 Bft)
09.05.2017 19:34 6,5 °C 6,6 °C 85 % 1014,9 hPa 0,0 mm 0,0 km/h (0 Bft) W-NW 301 ° 0 min 0,000 mm 0,0 UV-I 56 W/m² 4,2 °C 6,5 °C 0,0 km/h (0 Bft)
09.05.2017 19:35 6,5 °C 6,5 °C 86 % 1014,9 hPa 0,0 mm 0,0 km/h (0 Bft) W-NW 301 ° 0 min 0,000 mm 0,0 UV-I 56 W/m² 4,3 °C 6,5 °C 0,0 km/h (0 Bft)
09.05.2017 19:36 6,4 °C 6,5 °C 85 % 1014,9 hPa 0,0 mm 0,0 km/h (0 Bft) W-NW 301 ° 0 min 0,000 mm 0,0 UV-I 54 W/m² 4,1 °C 6,4 °C 0,0 km/h (0 Bft)
09.05.2017 19:37 6,4 °C 6,4 °C 84 % 1014,9 hPa 0,0 mm 0,0 km/h (0 Bft) W-NW 301 ° 0 min 0,000 mm 0,0 UV-I 51 W/m² 3,9 °C 6,4 °C 0,0 km/h (0 Bft)
09.05.2017 19:38 6,4 °C 6,4 °C 85 % 1014,9 hPa 0,0 mm 0,0 km/h (0 Bft) W-NW 301 ° 0 min 0,000 mm 0,0 UV-I 51 W/m² 4,1 °C 6,4 °C 0,0 km/h (0 Bft)
09.05.2017 19:39 6,4 °C 6,4 °C 85 % 1014,9 hPa 0,0 mm 0,1 km/h (0 Bft) W-NW 301 ° 0 min 0,000 mm 0,0 UV-I 49 W/m² 4,1 °C 6,4 °C 1,6 km/h (1 Bft)
09.05.2017 19:40 6,3 °C 6,4 °C 86 % 1014,8 hPa 0,0 mm 0,0 km/h (0 Bft) W-NW 301 ° 0 min 0,000 mm 0,0 UV-I 49 W/m² 4,1 °C 6,3 °C 0,0 km/h (0 Bft)
09.05.2017 19:41 6,3 °C 6,3 °C 86 % 1014,9 hPa 0,0 mm 0,0 km/h (0 Bft) W-NW 301 ° 0 min 0,000 mm 0,0 UV-I 47 W/m² 4,1 °C 6,3 °C 0,0 km/h (0 Bft)
09.05.2017 19:42 6,3 °C 6,3 °C 86 % 1014,8 hPa 0,0 mm 0,0 km/h (0 Bft) W-NW 301 ° 0 min 0,000 mm 0,0 UV-I 47 W/m² 4,1 °C 6,3 °C 0,0 km/h (0 Bft)
09.05.2017 19:43 6,2 °C 6,3 °C 86 % 1014,9 hPa 0,0 mm 0,0 km/h (0 Bft) W-NW 301 ° 0 min 0,000 mm 0,0 UV-I 46 W/m² 4,0 °C 6,2 °C 0,0 km/h (0 Bft)
09.05.2017 19:44 6,2 °C 6,2 °C 85 % 1014,9 hPa 0,0 mm 0,0 km/h (0 Bft) W-NW 301 ° 0 min 0,000 mm 0,0 UV-I 46 W/m² 3,9 °C 6,2 °C 0,0 km/h (0 Bft)
09.05.2017 19:45 6,2 °C 6,2 °C 86 % 1014,9 hPa 0,0 mm 0,0 km/h (0 Bft) W-NW 301 ° 0 min 0,000 mm 0,0 UV-I 44 W/m² 4,0 °C 6,2 °C 0,0 km/h (0 Bft)
09.05.2017 19:46 6,2 °C 6,2 °C 85 % 1014,8 hPa 0,0 mm 0,0 km/h (0 Bft) W-NW 301 ° 0 min 0,000 mm 0,0 UV-I 42 W/m² 3,9 °C 6,2 °C 0,0 km/h (0 Bft)
09.05.2017 19:47 6,2 °C 6,2 °C 85 % 1014,9 hPa 0,0 mm 0,0 km/h (0 Bft) W-NW 301 ° 0 min 0,000 mm 0,0 UV-I 40 W/m² 3,9 °C 6,2 °C 0,0 km/h (0 Bft)
09.05.2017 19:48 6,2 °C 6,2 °C 85 % 1014,9 hPa 0,0 mm 0,0 km/h (0 Bft) W-NW 301 ° 0 min 0,000 mm 0,0 UV-I 39 W/m² 3,9 °C 6,2 °C 0,0 km/h (0 Bft)
09.05.2017 19:49 6,2 °C 6,2 °C 86 % 1014,8 hPa 0,0 mm 0,0 km/h (0 Bft) W-NW 301 ° 0 min 0,000 mm 0,0 UV-I 37 W/m² 4,0 °C 6,2 °C 0,0 km/h (0 Bft)
09.05.2017 19:50 6,1 °C 6,2 °C 85 % 1014,8 hPa 0,0 mm 0,0 km/h (0 Bft) W-NW 301 ° 0 min 0,000 mm 0,0 UV-I 35 W/m² 3,8 °C 6,1 °C 0,0 km/h (0 Bft)
09.05.2017 19:51 6,1 °C 6,1 °C 86 % 1014,8 hPa 0,0 mm 0,0 km/h (0 Bft) W-NW 301 ° 0 min 0,000 mm 0,0 UV-I 32 W/m² 3,9 °C 6,1 °C 0,0 km/h (0 Bft)
09.05.2017 19:52 6,1 °C 6,1 °C 85 % 1014,9 hPa 0,0 mm 0,0 km/h (0 Bft) W-NW 301 ° 0 min 0,000 mm 0,0 UV-I 28 W/m² 3,8 °C 6,1 °C 0,0 km/h (0 Bft)
09.05.2017 19:53 6,1 °C 6,1 °C 85 % 1014,8 hPa 0,0 mm 0,0 km/h (0 Bft) W-NW 301 ° 0 min 0,000 mm 0,0 UV-I 28 W/m² 3,8 °C 6,1 °C 0,0 km/h (0 Bft)
09.05.2017 19:54 6,1 °C 6,1 °C 86 % 1014,9 hPa 0,0 mm 0,0 km/h (0 Bft) W-NW 301 ° 0 min 0,000 mm 0,0 UV-I 26 W/m² 3,9 °C 6,1 °C 0,0 km/h (0 Bft)
09.05.2017 19:55 6,1 °C 6,1 °C 86 % 1014,9 hPa 0,0 mm 0,0 km/h (0 Bft) W-NW 301 ° 0 min 0,000 mm 0,0 UV-I 26 W/m² 3,9 °C 6,1 °C 0,0 km/h (0 Bft)
09.05.2017 19:56 6,0 °C 6,1 °C 86 % 1014,8 hPa 0,0 mm 0,0 km/h (0 Bft) W-NW 301 ° 0 min 0,000 mm 0,0 UV-I 26 W/m² 3,8 °C 6,0 °C 0,0 km/h (0 Bft)
09.05.2017 19:57 6,0 °C 6,0 °C 85 % 1014,9 hPa 0,0 mm 0,0 km/h (0 Bft) W-NW 301 ° 0 min 0,000 mm 0,0 UV-I 25 W/m² 3,7 °C 6,0 °C 0,0 km/h (0 Bft)
09.05.2017 19:58 6,0 °C 6,0 °C 85 % 1014,8 hPa 0,0 mm 0,0 km/h (0 Bft) W-NW 301 ° 0 min 0,000 mm 0,0 UV-I 23 W/m² 3,7 °C 6,0 °C 0,0 km/h (0 Bft)
09.05.2017 19:59 5,9 °C 6,0 °C 85 % 1014,9 hPa 0,0 mm 0,0 km/h (0 Bft) W-NW 301 ° 0 min 0,000 mm 0,0 UV-I 19 W/m² 3,6 °C 5,9 °C 0,0 km/h (0 Bft)
09.05.2017 20:00 5,9 °C 5,9 °C 86 % 1014,8 hPa 0,0 mm 0,0 km/h (0 Bft) W-NW 301 ° 0 min 0,000 mm 0,0 UV-I 18 W/m² 3,7 °C 5,9 °C 0,0 km/h (0 Bft)
09.05.2017 20:01 5,9 °C 5,9 °C 86 % 1014,9 hPa 0,0 mm 0,0 km/h (0 Bft) W-NW 301 ° 0 min 0,025 mm 0,0 UV-I 18 W/m² 3,7 °C 5,9 °C 0,0 km/h (0 Bft)
09.05.2017 20:02 5,9 °C 5,9 °C 86 % 1014,9 hPa 0,0 mm 0,0 km/h (0 Bft) W-NW 301 ° 0 min 0,000 mm 0,0 UV-I 18 W/m² 3,7 °C 5,9 °C 0,0 km/h (0 Bft)
09.05.2017 20:03 5,9 °C 5,9 °C 88 % 1014,9 hPa 0,0 mm 0,0 km/h (0 Bft) W-NW 301 ° 0 min 0,000 mm 0,0 UV-I 18 W/m² 4,1 °C 5,9 °C 0,0 km/h (0 Bft)
09.05.2017 20:04 5,8 °C 5,9 °C 88 % 1014,9 hPa 0,0 mm 0,0 km/h (0 Bft) W-NW 301 ° 0 min 0,000 mm 0,0 UV-I 19 W/m² 4,0 °C 5,8 °C 0,0 km/h (0 Bft)
09.05.2017 20:05 5,8 °C 5,8 °C 88 % 1014,9 hPa 0,0 mm 0,0 km/h (0 Bft) W-NW 301 ° 0 min 0,000 mm 0,0 UV-I 19 W/m² 4,0 °C 5,8 °C 0,0 km/h (0 Bft)
09.05.2017 20:06 5,8 °C 5,8 °C 87 % 1014,8 hPa 0,0 mm 0,0 km/h (0 Bft) W-NW 301 ° 0 min 0,000 mm 0,0 UV-I 16 W/m² 3,8 °C 5,8 °C 0,0 km/h (0 Bft)
09.05.2017 20:07 5,8 °C 5,8 °C 87 % 1014,9 hPa 0,0 mm 0,0 km/h (0 Bft) W-NW 301 ° 0 min 0,000 mm 0,0 UV-I 14 W/m² 3,8 °C 5,8 °C 0,0 km/h (0 Bft)
09.05.2017 20:08 5,8 °C 5,8 °C 87 % 1014,8 hPa 0,0 mm 0,0 km/h (0 Bft) W-NW 301 ° 0 min 0,000 mm 0,0 UV-I 14 W/m² 3,8 °C 5,8 °C 0,0 km/h (0 Bft)
09.05.2017 20:09 5,8 °C 5,8 °C 88 % 1014,8 hPa 0,0 mm 0,0 km/h (0 Bft) W-NW 301 ° 0 min 0,000 mm 0,0 UV-I 14 W/m² 4,0 °C 5,8 °C 0,0 km/h (0 Bft)
09.05.2017 20:10 5,8 °C 5,8 °C 88 % 1014,8 hPa 0,0 mm 0,0 km/h (0 Bft) W-NW 301 ° 0 min 0,000 mm 0,0 UV-I 14 W/m² 4,0 °C 5,8 °C 0,0 km/h (0 Bft)
09.05.2017 20:11 5,7 °C 5,8 °C 88 % 1014,8 hPa 0,0 mm 0,0 km/h (0 Bft) W-NW 301 ° 0 min 0,000 mm 0,0 UV-I 16 W/m² 3,9 °C 5,7 °C 0,0 km/h (0 Bft)
09.05.2017 20:12 5,7 °C 5,7 °C 88 % 1014,9 hPa 0,0 mm 0,0 km/h (0 Bft) W-NW 301 ° 0 min 0,000 mm 0,0 UV-I 16 W/m² 3,9 °C 5,7 °C 0,0 km/h (0 Bft)
09.05.2017 20:13 5,7 °C 5,7 °C 89 % 1014,8 hPa 0,0 mm 0,0 km/h (0 Bft) W-NW 301 ° 0 min 0,000 mm 0,0 UV-I 16 W/m² 4,0 °C 5,7 °C 0,0 km/h (0 Bft)
09.05.2017 20:14 5,7 °C 5,7 °C 89 % 1014,8 hPa 0,0 mm 0,0 km/h (0 Bft) W-NW 301 ° 0 min 0,000 mm 0,0 UV-I 14 W/m² 4,0 °C 5,7 °C 0,0 km/h (0 Bft)
09.05.2017 20:15 5,6 °C 5,7 °C 89 % 1014,8 hPa 0,0 mm 0,0 km/h (0 Bft) W-NW 301 ° 0 min 0,000 mm 0,0 UV-I 14 W/m² 3,9 °C 5,6 °C 0,0 km/h (0 Bft)
09.05.2017 20:16 5,6 °C 5,7 °C 89 % 1014,8 hPa 0,0 mm 0,0 km/h (0 Bft) W-NW 301 ° 0 min 0,000 mm 0,0 UV-I 12 W/m² 3,9 °C 5,6 °C 0,0 km/h (0 Bft)
09.05.2017 20:17 5,6 °C 5,6 °C 89 % 1014,8 hPa 0,0 mm 0,0 km/h (0 Bft) W-NW 301 ° 0 min 0,000 mm 0,0 UV-I 12 W/m² 3,9 °C 5,6 °C 0,0 km/h (0 Bft)
09.05.2017 20:18 5,6 °C 5,6 °C 89 % 1014,8 hPa 0,0 mm 0,0 km/h (0 Bft) W-NW 301 ° 0 min 0,000 mm 0,0 UV-I 12 W/m² 3,9 °C 5,6 °C 0,0 km/h (0 Bft)
09.05.2017 20:19 5,6 °C 5,6 °C 89 % 1014,8 hPa 0,0 mm 0,0 km/h (0 Bft) W-NW 301 ° 0 min 0,000 mm 0,0 UV-I 12 W/m² 3,9 °C 5,6 °C 0,0 km/h (0 Bft)
09.05.2017 20:20 5,6 °C 5,6 °C 90 % 1014,8 hPa 0,0 mm 0,0 km/h (0 Bft) W-NW 301 ° 0 min 0,000 mm 0,0 UV-I 11 W/m² 4,1 °C 5,6 °C 0,0 km/h (0 Bft)
09.05.2017 20:21 5,5 °C 5,6 °C 90 % 1014,8 hPa 0,0 mm 0,0 km/h (0 Bft) W-NW 301 ° 0 min 0,000 mm 0,0 UV-I 11 W/m² 4,0 °C 5,5 °C 0,0 km/h (0 Bft)
09.05.2017 20:22 5,6 °C 5,6 °C 90 % 1014,8 hPa 0,0 mm 0,0 km/h (0 Bft) W-NW 301 ° 0 min 0,000 mm 0,0 UV-I 9 W/m² 4,1 °C 5,6 °C 0,0 km/h (0 Bft)
09.05.2017 20:23 5,5 °C 5,6 °C 90 % 1014,8 hPa 0,0 mm 0,0 km/h (0 Bft) W-NW 301 ° 0 min 0,000 mm 0,0 UV-I 9 W/m² 4,0 °C 5,5 °C 0,0 km/h (0 Bft)
09.05.2017 20:24 5,5 °C 5,5 °C 90 % 1014,8 hPa 0,0 mm 0,0 km/h (0 Bft) W-NW 301 ° 0 min 0,000 mm 0,0 UV-I 9 W/m² 4,0 °C 5,5 °C 0,0 km/h (0 Bft)
09.05.2017 20:25 5,5 °C 5,5 °C 89 % 1014,8 hPa 0,0 mm 0,0 km/h (0 Bft) W-NW 301 ° 0 min 0,000 mm 0,0 UV-I 7 W/m² 3,8 °C 5,5 °C 0,0 km/h (0 Bft)
09.05.2017 20:26 5,4 °C 5,5 °C 89 % 1014,8 hPa 0,0 mm 0,0 km/h (0 Bft) W-NW 301 ° 0 min 0,000 mm 0,0 UV-I 7 W/m² 3,7 °C 5,4 °C 0,0 km/h (0 Bft)
09.05.2017 20:27 5,5 °C 5,5 °C 90 % 1014,7 hPa 0,0 mm 0,4 km/h (0 Bft) W-NW 301 ° 0 min 0,000 mm 0,0 UV-I 7 W/m² 4,0 °C 5,5 °C 1,6 km/h (1 Bft)
09.05.2017 20:28 5,5 °C 5,5 °C 90 % 1014,7 hPa 0,0 mm 1,4 km/h (1 Bft) W-NW 301 ° 0 min 0,000 mm 0,0 UV-I 7 W/m² 4,0 °C 5,5 °C 3,2 km/h (1 Bft)
09.05.2017 20:29 5,4 °C 5,5 °C 90 % 1014,7 hPa 0,0 mm 1,8 km/h (1 Bft) W-NW 301 ° 0 min 0,000 mm 0,0 UV-I 5 W/m² 3,9 °C 5,4 °C 3,2 km/h (1 Bft)
09.05.2017 20:30 5,4 °C 5,4 °C 90 % 1014,7 hPa 0,0 mm 0,8 km/h (0 Bft) W-NW 301 ° 0 min 0,000 mm 0,0 UV-I 5 W/m² 3,9 °C 5,4 °C 1,6 km/h (1 Bft)
09.05.2017 20:31 5,4 °C 5,4 °C 90 % 1014,6 hPa 0,0 mm 1,6 km/h (1 Bft) W-NW 301 ° 0 min 0,000 mm 0,0 UV-I 5 W/m² 3,9 °C 5,4 °C 3,2 km/h (1 Bft)
09.05.2017 20:32 5,4 °C 5,4 °C 90 % 1014,6 hPa 0,0 mm 1,5 km/h (1 Bft) W-NW 301 ° 0 min 0,000 mm 0,0 UV-I 5 W/m² 3,9 °C 5,4 °C 1,6 km/h (1 Bft)
09.05.2017 20:33 5,4 °C 5,4 °C 90 % 1014,6 hPa 0,0 mm 2,0 km/h (1 Bft) W-NW 301 ° 0 min 0,000 mm 0,0 UV-I 5 W/m² 3,9 °C 5,4 °C 3,2 km/h (1 Bft)
09.05.2017 20:34 5,3 °C 5,4 °C 90 % 1014,7 hPa 0,0 mm 2,1 km/h (1 Bft) W-NW 301 ° 0 min 0,000 mm 0,0 UV-I 5 W/m² 3,8 °C 5,3 °C 3,2 km/h (1 Bft)
09.05.2017 20:35 5,3 °C 5,3 °C 90 % 1014,6 hPa 0,0 mm 1,8 km/h (1 Bft) W-NW 301 ° 0 min 0,000 mm 0,0 UV-I 0 W/m² 3,8 °C 5,3 °C 3,2 km/h (1 Bft)
09.05.2017 20:36 5,3 °C 5,3 °C 90 % 1014,6 hPa 0,0 mm 1,3 km/h (1 Bft) W-NW 301 ° 0 min 0,000 mm 0,0 UV-I 0 W/m² 3,8 °C 5,3 °C 3,2 km/h (1 Bft)
09.05.2017 20:37 5,3 °C 5,3 °C 90 % 1014,7 hPa 0,0 mm 1,1 km/h (1 Bft) W-NW 301 ° 0 min 0,000 mm 0,0 UV-I 0 W/m² 3,8 °C 5,3 °C 1,6 km/h (1 Bft)
09.05.2017 20:38 5,2 °C 5,3 °C 90 % 1014,7 hPa 0,0 mm 0,4 km/h (0 Bft) W-NW 301 ° 0 min 0,000 mm 0,0 UV-I 0 W/m² 3,7 °C 5,2 °C 1,6 km/h (1 Bft)
09.05.2017 20:39 5,2 °C 5,2 °C 90 % 1014,6 hPa 0,0 mm 0,0 km/h (0 Bft) W-NW 301 ° 0 min 0,000 mm 0,0 UV-I 0 W/m² 3,7 °C 5,2 °C 0,0 km/h (0 Bft)
09.05.2017 20:40 5,2 °C 5,2 °C 90 % 1014,8 hPa 0,0 mm 0,0 km/h (0 Bft) W-NW 301 ° 0 min 0,000 mm 0,0 UV-I 0 W/m² 3,7 °C 5,2 °C 0,0 km/h (0 Bft)
09.05.2017 20:41 5,2 °C 5,2 °C 90 % 1014,7 hPa 0,0 mm 0,2 km/h (0 Bft) W-NW 301 ° 0 min 0,000 mm 0,0 UV-I 0 W/m² 3,7 °C 5,2 °C 1,6 km/h (1 Bft)
09.05.2017 20:42 5,1 °C 5,2 °C 90 % 1014,8 hPa 0,0 mm 0,0 km/h (0 Bft) W-NW 301 ° 0 min 0,000 mm 0,0 UV-I 0 W/m² 3,6 °C 5,1 °C 0,0 km/h (0 Bft)
09.05.2017 20:43 5,1 °C 5,1 °C 90 % 1014,8 hPa 0,0 mm 0,0 km/h (0 Bft) W-NW 301 ° 0 min 0,000 mm 0,0 UV-I 0 W/m² 3,6 °C 5,1 °C 0,0 km/h (0 Bft)
09.05.2017 20:44 5,1 °C 5,1 °C 90 % 1014,8 hPa 0,0 mm 0,0 km/h (0 Bft) W-NW 301 ° 0 min 0,000 mm 0,0 UV-I 0 W/m² 3,6 °C 5,1 °C 0,0 km/h (0 Bft)
09.05.2017 20:45 5,1 °C 5,1 °C 90 % 1014,8 hPa 0,0 mm 0,0 km/h (0 Bft) W-NW 301 ° 0 min 0,000 mm 0,0 UV-I 0 W/m² 3,6 °C 5,1 °C 0,0 km/h (0 Bft)
09.05.2017 20:46 5,1 °C 5,1 °C 90 % 1014,8 hPa 0,0 mm 0,0 km/h (0 Bft) W-NW 301 ° 0 min 0,000 mm 0,0 UV-I 0 W/m² 3,6 °C 5,1 °C 0,0 km/h (0 Bft)
09.05.2017 20:47 5,0 °C 5,1 °C 90 % 1014,8 hPa 0,0 mm 0,0 km/h (0 Bft) W-NW 301 ° 0 min 0,000 mm 0,0 UV-I 0 W/m² 3,5 °C 5,0 °C 0,0 km/h (0 Bft)
09.05.2017 20:48 5,0 °C 5,0 °C 91 % 1014,8 hPa 0,0 mm 0,0 km/h (0 Bft) W-NW 301 ° 0 min 0,000 mm 0,0 UV-I 0 W/m² 3,7 °C 5,0 °C 0,0 km/h (0 Bft)
09.05.2017 20:49 4,9 °C 5,0 °C 91 % 1014,7 hPa 0,0 mm 0,0 km/h (0 Bft) W-NW 301 ° 0 min 0,000 mm 0,0 UV-I 0 W/m² 3,6 °C 4,9 °C 0,0 km/h (0 Bft)
09.05.2017 20:50 4,9 °C 4,9 °C 91 % 1014,8 hPa 0,0 mm 0,0 km/h (0 Bft) W-NW 301 ° 0 min 0,000 mm 0,0 UV-I 0 W/m² 3,6 °C 4,9 °C 0,0 km/h (0 Bft)
09.05.2017 20:51 4,9 °C 4,9 °C 91 % 1014,8 hPa 0,0 mm 0,0 km/h (0 Bft) W-NW 301 ° 0 min 0,000 mm 0,0 UV-I 0 W/m² 3,6 °C 4,9 °C 0,0 km/h (0 Bft)
09.05.2017 20:52 4,9 °C 4,9 °C 91 % 1014,8 hPa 0,0 mm 0,0 km/h (0 Bft) W-NW 301 ° 0 min 0,000 mm 0,0 UV-I 0 W/m² 3,6 °C 4,9 °C 0,0 km/h (0 Bft)
09.05.2017 20:53 4,9 °C 4,9 °C 91 % 1014,8 hPa 0,0 mm 0,0 km/h (0 Bft) W-NW 301 ° 0 min 0,000 mm 0,0 UV-I 0 W/m² 3,6 °C 4,9 °C 0,0 km/h (0 Bft)
09.05.2017 20:54 4,9 °C 4,9 °C 91 % 1014,8 hPa 0,0 mm 0,0 km/h (0 Bft) W-NW 301 ° 0 min 0,000 mm 0,0 UV-I 0 W/m² 3,6 °C 4,9 °C 0,0 km/h (0 Bft)
09.05.2017 20:55 4,9 °C 4,9 °C 91 % 1014,8 hPa 0,0 mm 0,0 km/h (0 Bft) W-NW 301 ° 0 min 0,000 mm 0,0 UV-I 0 W/m² 3,6 °C 4,9 °C 0,0 km/h (0 Bft)
09.05.2017 20:56 4,9 °C 4,9 °C 91 % 1014,8 hPa 0,0 mm 0,0 km/h (0 Bft) W-NW 301 ° 0 min 0,000 mm 0,0 UV-I 0 W/m² 3,6 °C 4,9 °C 0,0 km/h (0 Bft)
09.05.2017 20:57 4,9 °C 4,9 °C 91 % 1014,8 hPa 0,0 mm 0,0 km/h (0 Bft) W-NW 301 ° 0 min 0,000 mm 0,0 UV-I 0 W/m² 3,6 °C 4,9 °C 0,0 km/h (0 Bft)
09.05.2017 20:58 4,9 °C 4,9 °C 91 % 1014,8 hPa 0,0 mm 0,0 km/h (0 Bft) W-NW 301 ° 0 min 0,000 mm 0,0 UV-I 0 W/m² 3,6 °C 4,9 °C 0,0 km/h (0 Bft)
09.05.2017 20:59 4,9 °C 4,9 °C 91 % 1014,8 hPa 0,0 mm 0,0 km/h (0 Bft) W-NW 301 ° 0 min 0,000 mm 0,0 UV-I 0 W/m² 3,6 °C 4,9 °C 0,0 km/h (0 Bft)
09.05.2017 21:00 4,9 °C 4,9 °C 91 % 1014,8 hPa 0,0 mm 0,0 km/h (0 Bft) W-NW 301 ° 0 min 0,000 mm 0,0 UV-I 0 W/m² 3,6 °C 4,9 °C 0,0 km/h (0 Bft)
09.05.2017 21:01 4,9 °C 4,9 °C 91 % 1014,8 hPa 0,0 mm 0,0 km/h (0 Bft) W-NW 301 ° 0 min 0,000 mm 0,0 UV-I 0 W/m² 3,6 °C 4,9 °C 0,0 km/h (0 Bft)
09.05.2017 21:02 4,9 °C 4,9 °C 91 % 1014,8 hPa 0,0 mm 0,0 km/h (0 Bft) W-NW 301 ° 0 min 0,000 mm 0,0 UV-I 0 W/m² 3,6 °C 4,9 °C 0,0 km/h (0 Bft)
09.05.2017 21:03 4,9 °C 4,9 °C 91 % 1014,7 hPa 0,0 mm 0,0 km/h (0 Bft) W-NW 301 ° 0 min 0,000 mm 0,0 UV-I 0 W/m² 3,6 °C 4,9 °C 0,0 km/h (0 Bft)
09.05.2017 21:04 4,9 °C 4,9 °C 91 % 1014,7 hPa 0,0 mm 0,0 km/h (0 Bft) W-NW 301 ° 0 min 0,000 mm 0,0 UV-I 0 W/m² 3,6 °C 4,9 °C 0,0 km/h (0 Bft)
09.05.2017 21:05 4,9 °C 4,9 °C 91 % 1014,8 hPa 0,0 mm 0,0 km/h (0 Bft) W-NW 301 ° 0 min 0,000 mm 0,0 UV-I 0 W/m² 3,6 °C 4,9 °C 0,0 km/h (0 Bft)
09.05.2017 21:06 4,8 °C 4,9 °C 91 % 1014,8 hPa 0,0 mm 0,0 km/h (0 Bft) W-NW 301 ° 0 min 0,000 mm 0,0 UV-I 0 W/m² 3,5 °C 4,8 °C 0,0 km/h (0 Bft)
09.05.2017 21:07 4,8 °C 4,8 °C 91 % 1014,8 hPa 0,0 mm 0,0 km/h (0 Bft) W-NW 301 ° 0 min 0,000 mm 0,0 UV-I 0 W/m² 3,5 °C 4,8 °C 0,0 km/h (0 Bft)
09.05.2017 21:08 4,8 °C 4,9 °C 91 % 1014,8 hPa 0,0 mm 0,0 km/h (0 Bft) W-NW 301 ° 0 min 0,000 mm 0,0 UV-I 0 W/m² 3,5 °C 4,8 °C 0,0 km/h (0 Bft)
09.05.2017 21:09 4,8 °C 4,8 °C 91 % 1014,7 hPa 0,0 mm 0,0 km/h (0 Bft) W-NW 301 ° 0 min 0,000 mm 0,0 UV-I 0 W/m² 3,5 °C 4,8 °C 0,0 km/h (0 Bft)
09.05.2017 21:10 4,8 °C 4,8 °C 91 % 1014,8 hPa 0,0 mm 0,0 km/h (0 Bft) W-NW 301 ° 0 min 0,000 mm 0,0 UV-I 0 W/m² 3,5 °C 4,8 °C 0,0 km/h (0 Bft)
09.05.2017 21:11 4,8 °C 4,8 °C 91 % 1014,8 hPa 0,0 mm 0,0 km/h (0 Bft) W-NW 301 ° 0 min 0,000 mm 0,0 UV-I 0 W/m² 3,5 °C 4,8 °C 0,0 km/h (0 Bft)
09.05.2017 21:12 4,8 °C 4,8 °C 92 % 1014,8 hPa 0,0 mm 0,0 km/h (0 Bft) W-NW 301 ° 0 min 0,000 mm 0,0 UV-I 0 W/m² 3,6 °C 4,8 °C 0,0 km/h (0 Bft)
09.05.2017 21:13 4,8 °C 4,8 °C 91 % 1014,7 hPa 0,0 mm 0,0 km/h (0 Bft) W-NW 301 ° 0 min 0,000 mm 0,0 UV-I 0 W/m² 3,5 °C 4,8 °C 0,0 km/h (0 Bft)
09.05.2017 21:14 4,8 °C 4,8 °C 91 % 1014,7 hPa 0,0 mm 0,0 km/h (0 Bft) W-NW 301 ° 0 min 0,000 mm 0,0 UV-I 0 W/m² 3,5 °C 4,8 °C 0,0 km/h (0 Bft)
09.05.2017 21:15 4,8 °C 4,8 °C 91 % 1014,7 hPa 0,0 mm 0,0 km/h (0 Bft) W-NW 301 ° 0 min 0,000 mm 0,0 UV-I 0 W/m² 3,5 °C 4,8 °C 0,0 km/h (0 Bft)
09.05.2017 21:16 4,8 °C 4,8 °C 91 % 1014,7 hPa 0,0 mm 0,0 km/h (0 Bft) W-NW 301 ° 0 min 0,000 mm 0,0 UV-I 0 W/m² 3,5 °C 4,8 °C 0,0 km/h (0 Bft)
09.05.2017 21:17 4,8 °C 4,8 °C 91 % 1014,7 hPa 0,0 mm 0,0 km/h (0 Bft) W-NW 301 ° 0 min 0,000 mm 0,0 UV-I 0 W/m² 3,5 °C 4,8 °C 0,0 km/h (0 Bft)
09.05.2017 21:18 4,8 °C 4,8 °C 91 % 1014,7 hPa 0,0 mm 0,0 km/h (0 Bft) W-NW 301 ° 0 min 0,000 mm 0,0 UV-I 0 W/m² 3,5 °C 4,8 °C 0,0 km/h (0 Bft)
09.05.2017 21:19 4,8 °C 4,8 °C 91 % 1014,7 hPa 0,0 mm 0,0 km/h (0 Bft) W-NW 301 ° 0 min 0,000 mm 0,0 UV-I 0 W/m² 3,5 °C 4,8 °C 0,0 km/h (0 Bft)
09.05.2017 21:20 4,8 °C 4,8 °C 91 % 1014,6 hPa 0,0 mm 0,0 km/h (0 Bft) W-NW 301 ° 0 min 0,000 mm 0,0 UV-I 0 W/m² 3,5 °C 4,8 °C 0,0 km/h (0 Bft)
09.05.2017 21:21 4,8 °C 4,8 °C 91 % 1014,6 hPa 0,0 mm 0,0 km/h (0 Bft) W-NW 301 ° 0 min 0,000 mm 0,0 UV-I 0 W/m² 3,5 °C 4,8 °C 0,0 km/h (0 Bft)
09.05.2017 21:22 4,8 °C 4,8 °C 91 % 1014,6 hPa 0,0 mm 0,0 km/h (0 Bft) W-NW 301 ° 0 min 0,000 mm 0,0 UV-I 0 W/m² 3,5 °C 4,8 °C 0,0 km/h (0 Bft)
09.05.2017 21:23 4,8 °C 4,8 °C 92 % 1014,7 hPa 0,0 mm 0,0 km/h (0 Bft) W-NW 301 ° 0 min 0,000 mm 0,0 UV-I 0 W/m² 3,6 °C 4,8 °C 0,0 km/h (0 Bft)
09.05.2017 21:24 4,7 °C 4,8 °C 92 % 1014,6 hPa 0,0 mm 0,0 km/h (0 Bft) W-NW 301 ° 0 min 0,000 mm 0,0 UV-I 0 W/m² 3,5 °C 4,7 °C 0,0 km/h (0 Bft)
09.05.2017 21:25 4,7 °C 4,8 °C 92 % 1014,7 hPa 0,0 mm 0,0 km/h (0 Bft) W-NW 301 ° 0 min 0,000 mm 0,0 UV-I 0 W/m² 3,5 °C 4,7 °C 0,0 km/h (0 Bft)
09.05.2017 21:26 4,7 °C 4,7 °C 92 % 1014,7 hPa 0,0 mm 0,0 km/h (0 Bft) W-NW 301 ° 0 min 0,000 mm 0,0 UV-I 0 W/m² 3,5 °C 4,7 °C 0,0 km/h (0 Bft)
09.05.2017 21:27 4,7 °C 4,7 °C 92 % 1014,7 hPa 0,0 mm 0,0 km/h (0 Bft) W-NW 301 ° 0 min 0,000 mm 0,0 UV-I 0 W/m² 3,5 °C 4,7 °C 0,0 km/h (0 Bft)
09.05.2017 21:28 4,7 °C 4,7 °C 92 % 1014,7 hPa 0,0 mm 0,0 km/h (0 Bft) W-NW 301 ° 0 min 0,000 mm 0,0 UV-I 0 W/m² 3,5 °C 4,7 °C 0,0 km/h (0 Bft)
09.05.2017 21:29 4,7 °C 4,7 °C 92 % 1014,7 hPa 0,0 mm 0,0 km/h (0 Bft) W-NW 301 ° 0 min 0,000 mm 0,0 UV-I 0 W/m² 3,5 °C 4,7 °C 0,0 km/h (0 Bft)
09.05.2017 21:30 4,7 °C 4,7 °C 92 % 1014,7 hPa 0,0 mm 0,0 km/h (0 Bft) W-NW 301 ° 0 min 0,000 mm 0,0 UV-I 0 W/m² 3,5 °C 4,7 °C 0,0 km/h (0 Bft)
09.05.2017 21:31 4,7 °C 4,7 °C 92 % 1014,7 hPa 0,0 mm 0,0 km/h (0 Bft) W-NW 301 ° 0 min 0,000 mm 0,0 UV-I 0 W/m² 3,5 °C 4,7 °C 0,0 km/h (0 Bft)
09.05.2017 21:32 4,7 °C 4,7 °C 92 % 1014,7 hPa 0,0 mm 0,0 km/h (0 Bft) W-NW 301 ° 0 min 0,000 mm 0,0 UV-I 0 W/m² 3,5 °C 4,7 °C 0,0 km/h (0 Bft)
09.05.2017 21:33 4,7 °C 4,7 °C 92 % 1014,6 hPa 0,0 mm 0,0 km/h (0 Bft) W-NW 301 ° 0 min 0,000 mm 0,0 UV-I 0 W/m² 3,5 °C 4,7 °C 0,0 km/h (0 Bft)
09.05.2017 21:34 4,7 °C 4,7 °C 92 % 1014,6 hPa 0,0 mm 0,0 km/h (0 Bft) W-NW 301 ° 0 min 0,000 mm 0,0 UV-I 0 W/m² 3,5 °C 4,7 °C 0,0 km/h (0 Bft)
09.05.2017 21:35 4,7 °C 4,7 °C 92 % 1014,7 hPa 0,0 mm 0,0 km/h (0 Bft) W-NW 301 ° 0 min 0,000 mm 0,0 UV-I 0 W/m² 3,5 °C 4,7 °C 0,0 km/h (0 Bft)
09.05.2017 21:36 4,7 °C 4,7 °C 92 % 1014,6 hPa 0,0 mm 0,0 km/h (0 Bft) W-NW 301 ° 0 min 0,000 mm 0,0 UV-I 0 W/m² 3,5 °C 4,7 °C 0,0 km/h (0 Bft)
09.05.2017 21:37 4,7 °C 4,7 °C 92 % 1014,7 hPa 0,0 mm 0,0 km/h (0 Bft) W-NW 301 ° 0 min 0,000 mm 0,0 UV-I 0 W/m² 3,5 °C 4,7 °C 0,0 km/h (0 Bft)
09.05.2017 21:38 4,6 °C 4,7 °C 91 % 1014,7 hPa 0,0 mm 0,0 km/h (0 Bft) W-NW 301 ° 0 min 0,000 mm 0,0 UV-I 0 W/m² 3,3 °C 4,6 °C 0,0 km/h (0 Bft)
09.05.2017 21:39 4,6 °C 4,7 °C 91 % 1014,7 hPa 0,0 mm 0,0 km/h (0 Bft) W-NW 301 ° 0 min 0,000 mm 0,0 UV-I 0 W/m² 3,3 °C 4,6 °C 0,0 km/h (0 Bft)
09.05.2017 21:40 4,6 °C 4,6 °C 91 % 1014,7 hPa 0,0 mm 0,0 km/h (0 Bft) W-NW 301 ° 0 min 0,000 mm 0,0 UV-I 0 W/m² 3,3 °C 4,6 °C 0,0 km/h (0 Bft)
09.05.2017 21:41 4,6 °C 4,6 °C 91 % 1014,7 hPa 0,0 mm 0,0 km/h (0 Bft) W-NW 301 ° 0 min 0,000 mm 0,0 UV-I 0 W/m² 3,3 °C 4,6 °C 0,0 km/h (0 Bft)
09.05.2017 21:42 4,7 °C 4,7 °C 92 % 1014,7 hPa 0,0 mm 0,0 km/h (0 Bft) W-NW 301 ° 0 min 0,000 mm 0,0 UV-I 0 W/m² 3,5 °C 4,7 °C 0,0 km/h (0 Bft)
09.05.2017 21:43 4,6 °C 4,7 °C 92 % 1014,7 hPa 0,0 mm 0,0 km/h (0 Bft) W-NW 301 ° 0 min 0,000 mm 0,0 UV-I 0 W/m² 3,4 °C 4,6 °C 0,0 km/h (0 Bft)
09.05.2017 21:44 4,7 °C 4,7 °C 92 % 1014,7 hPa 0,0 mm 0,0 km/h (0 Bft) W-NW 301 ° 0 min 0,000 mm 0,0 UV-I 0 W/m² 3,5 °C 4,7 °C 0,0 km/h (0 Bft)
09.05.2017 21:45 4,7 °C 4,7 °C 92 % 1014,6 hPa 0,0 mm 0,0 km/h (0 Bft) W-NW 301 ° 0 min 0,000 mm 0,0 UV-I 0 W/m² 3,5 °C 4,7 °C 0,0 km/h (0 Bft)
09.05.2017 21:46 4,7 °C 4,7 °C 92 % 1014,7 hPa 0,0 mm 0,0 km/h (0 Bft) W-NW 301 ° 0 min 0,000 mm 0,0 UV-I 0 W/m² 3,5 °C 4,7 °C 0,0 km/h (0 Bft)
09.05.2017 21:47 4,7 °C 4,7 °C 92 % 1014,7 hPa 0,0 mm 0,0 km/h (0 Bft) W-NW 301 ° 0 min 0,000 mm 0,0 UV-I 0 W/m² 3,5 °C 4,7 °C 0,0 km/h (0 Bft)
09.05.2017 21:48 4,7 °C 4,7 °C 91 % 1014,6 hPa 0,0 mm 0,0 km/h (0 Bft) W-NW 301 ° 0 min 0,000 mm 0,0 UV-I 0 W/m² 3,4 °C 4,7 °C 0,0 km/h (0 Bft)
09.05.2017 21:49 4,6 °C 4,7 °C 91 % 1014,6 hPa 0,0 mm 0,0 km/h (0 Bft) W-NW 301 ° 0 min 0,000 mm 0,0 UV-I 0 W/m² 3,3 °C 4,6 °C 0,0 km/h (0 Bft)
09.05.2017 21:50 4,6 °C 4,6 °C 91 % 1014,6 hPa 0,0 mm 0,0 km/h (0 Bft) W-NW 301 ° 0 min 0,000 mm 0,0 UV-I 0 W/m² 3,3 °C 4,6 °C 0,0 km/h (0 Bft)
09.05.2017 21:51 4,6 °C 4,6 °C 92 % 1014,6 hPa 0,0 mm 0,0 km/h (0 Bft) W-NW 301 ° 0 min 0,000 mm 0,0 UV-I 0 W/m² 3,4 °C 4,6 °C 0,0 km/h (0 Bft)
09.05.2017 21:52 4,6 °C 4,6 °C 92 % 1014,6 hPa 0,0 mm 0,0 km/h (0 Bft) W-NW 301 ° 0 min 0,000 mm 0,0 UV-I 0 W/m² 3,4 °C 4,6 °C 0,0 km/h (0 Bft)
09.05.2017 21:53 4,6 °C 4,6 °C 92 % 1014,6 hPa 0,0 mm 0,0 km/h (0 Bft) W-NW 301 ° 0 min 0,000 mm 0,0 UV-I 0 W/m² 3,4 °C 4,6 °C 0,0 km/h (0 Bft)
09.05.2017 21:54 4,6 °C 4,6 °C 92 % 1014,6 hPa 0,0 mm 0,0 km/h (0 Bft) W-NW 301 ° 0 min 0,000 mm 0,0 UV-I 0 W/m² 3,4 °C 4,6 °C 0,0 km/h (0 Bft)
09.05.2017 21:55 4,6 °C 4,6 °C 92 % 1014,6 hPa 0,0 mm 0,0 km/h (0 Bft) W-NW 301 ° 0 min 0,000 mm 0,0 UV-I 0 W/m² 3,4 °C 4,6 °C 0,0 km/h (0 Bft)
09.05.2017 21:56 4,5 °C 4,6 °C 92 % 1014,6 hPa 0,0 mm 0,0 km/h (0 Bft) W-NW 301 ° 0 min 0,000 mm 0,0 UV-I 0 W/m² 3,3 °C 4,5 °C 0,0 km/h (0 Bft)
09.05.2017 21:57 4,5 °C 4,6 °C 92 % 1014,6 hPa 0,0 mm 0,0 km/h (0 Bft) W-NW 301 ° 0 min 0,000 mm 0,0 UV-I 0 W/m² 3,3 °C 4,5 °C 0,0 km/h (0 Bft)
09.05.2017 21:58 4,5 °C 4,5 °C 92 % 1014,5 hPa 0,0 mm 0,0 km/h (0 Bft) W-NW 301 ° 0 min 0,000 mm 0,0 UV-I 0 W/m² 3,3 °C 4,5 °C 0,0 km/h (0 Bft)
09.05.2017 21:59 4,5 °C 4,5 °C 92 % 1014,6 hPa 0,0 mm 0,0 km/h (0 Bft) W-NW 301 ° 0 min 0,000 mm 0,0 UV-I 0 W/m² 3,3 °C 4,5 °C 0,0 km/h (0 Bft)
09.05.2017 22:00 4,5 °C 4,5 °C 92 % 1014,5 hPa 0,0 mm 0,0 km/h (0 Bft) W-NW 301 ° 0 min 0,000 mm 0,0 UV-I 0 W/m² 3,3 °C 4,5 °C 0,0 km/h (0 Bft)
09.05.2017 22:01 4,5 °C 4,5 °C 92 % 1014,5 hPa 0,0 mm 0,0 km/h (0 Bft) W-NW 301 ° 0 min 0,000 mm 0,0 UV-I 0 W/m² 3,3 °C 4,5 °C 0,0 km/h (0 Bft)
09.05.2017 22:02 4,4 °C 4,5 °C 92 % 1014,6 hPa 0,0 mm 0,5 km/h (0 Bft) W-NW 301 ° 0 min 0,000 mm 0,0 UV-I 0 W/m² 3,2 °C 4,4 °C 1,6 km/h (1 Bft)
09.05.2017 22:03 4,4 °C 4,5 °C 92 % 1014,5 hPa 0,0 mm 0,1 km/h (0 Bft) W-NW 301 ° 0 min 0,000 mm 0,0 UV-I 0 W/m² 3,2 °C 4,4 °C 1,6 km/h (1 Bft)
09.05.2017 22:04 4,4 °C 4,4 °C 92 % 1014,6 hPa 0,0 mm 0,0 km/h (0 Bft) W-NW 301 ° 0 min 0,000 mm 0,0 UV-I 0 W/m² 3,2 °C 4,4 °C 0,0 km/h (0 Bft)
09.05.2017 22:05 4,4 °C 4,4 °C 91 % 1014,7 hPa 0,0 mm 0,0 km/h (0 Bft) W-NW 301 ° 0 min 0,000 mm 0,0 UV-I 0 W/m² 3,1 °C 4,4 °C 0,0 km/h (0 Bft)
09.05.2017 22:06 4,4 °C 4,4 °C 91 % 1014,6 hPa 0,0 mm 1,5 km/h (1 Bft) W-NW 301 ° 0 min 0,000 mm 0,0 UV-I 0 W/m² 3,1 °C 4,4 °C 3,2 km/h (1 Bft)
09.05.2017 22:07 4,4 °C 4,4 °C 91 % 1014,6 hPa 0,0 mm 1,2 km/h (1 Bft) W-NW 301 ° 0 min 0,000 mm 0,0 UV-I 0 W/m² 3,1 °C 4,4 °C 3,2 km/h (1 Bft)
09.05.2017 22:08 4,4 °C 4,4 °C 91 % 1014,6 hPa 0,0 mm 2,3 km/h (1 Bft) W-NW 301 ° 0 min 0,000 mm 0,0 UV-I 0 W/m² 3,1 °C 4,4 °C 4,8 km/h (1 Bft)
09.05.2017 22:09 4,4 °C 4,4 °C 91 % 1014,7 hPa 0,0 mm 2,7 km/h (1 Bft) W-NW 301 ° 0 min 0,000 mm 0,0 UV-I 0 W/m² 3,1 °C 4,4 °C 4,8 km/h (1 Bft)
09.05.2017 22:10 4,4 °C 4,4 °C 91 % 1014,7 hPa 0,0 mm 0,4 km/h (0 Bft) W-NW 301 ° 0 min 0,000 mm 0,0 UV-I 0 W/m² 3,1 °C 4,4 °C 1,6 km/h (1 Bft)
09.05.2017 22:11 4,4 °C 4,4 °C 92 % 1014,6 hPa 0,0 mm 0,1 km/h (0 Bft) W-NW 301 ° 0 min 0,000 mm 0,0 UV-I 0 W/m² 3,2 °C 4,4 °C 1,6 km/h (1 Bft)
09.05.2017 22:12 4,4 °C 4,4 °C 91 % 1014,6 hPa 0,0 mm 0,0 km/h (0 Bft) W-NW 301 ° 0 min 0,000 mm 0,0 UV-I 0 W/m² 3,1 °C 4,4 °C 0,0 km/h (0 Bft)
09.05.2017 22:13 4,4 °C 4,4 °C 91 % 1014,6 hPa 0,0 mm 0,0 km/h (0 Bft) W-NW 301 ° 0 min 0,000 mm 0,0 UV-I 0 W/m² 3,1 °C 4,4 °C 0,0 km/h (0 Bft)
09.05.2017 22:14 4,4 °C 4,4 °C 91 % 1014,6 hPa 0,0 mm 0,0 km/h (0 Bft) W-NW 301 ° 0 min 0,000 mm 0,0 UV-I 0 W/m² 3,1 °C 4,4 °C 0,0 km/h (0 Bft)
09.05.2017 22:15 4,4 °C 4,4 °C 91 % 1014,6 hPa 0,0 mm 0,0 km/h (0 Bft) W-NW 301 ° 0 min 0,000 mm 0,0 UV-I 0 W/m² 3,1 °C 4,4 °C 0,0 km/h (0 Bft)
09.05.2017 22:16 4,4 °C 4,4 °C 92 % 1014,5 hPa 0,0 mm 0,0 km/h (0 Bft) W-NW 301 ° 0 min 0,000 mm 0,0 UV-I 0 W/m² 3,2 °C 4,4 °C 0,0 km/h (0 Bft)
09.05.2017 22:17 4,4 °C 4,4 °C 92 % 1014,6 hPa 0,0 mm 0,0 km/h (0 Bft) W-NW 301 ° 0 min 0,000 mm 0,0 UV-I 0 W/m² 3,2 °C 4,4 °C 0,0 km/h (0 Bft)
09.05.2017 22:18 4,4 °C 4,4 °C 92 % 1014,6 hPa 0,0 mm 0,0 km/h (0 Bft) W-NW 301 ° 0 min 0,000 mm 0,0 UV-I 0 W/m² 3,2 °C 4,4 °C 0,0 km/h (0 Bft)
09.05.2017 22:19 4,4 °C 4,5 °C 92 % 1014,6 hPa 0,0 mm 0,0 km/h (0 Bft) W-NW 301 ° 0 min 0,000 mm 0,0 UV-I 0 W/m² 3,2 °C 4,4 °C 0,0 km/h (0 Bft)
09.05.2017 22:20 4,4 °C 4,5 °C 92 % 1014,6 hPa 0,0 mm 0,0 km/h (0 Bft) W-NW 301 ° 0 min 0,000 mm 0,0 UV-I 0 W/m² 3,2 °C 4,4 °C 0,0 km/h (0 Bft)
09.05.2017 22:21 4,4 °C 4,5 °C 92 % 1014,6 hPa 0,0 mm 0,0 km/h (0 Bft) W-NW 301 ° 0 min 0,000 mm 0,0 UV-I 0 W/m² 3,2 °C 4,4 °C 0,0 km/h (0 Bft)
09.05.2017 22:22 4,4 °C 4,4 °C 91 % 1014,6 hPa 0,0 mm 0,0 km/h (0 Bft) W-NW 301 ° 0 min 0,000 mm 0,0 UV-I 0 W/m² 3,1 °C 4,4 °C 0,0 km/h (0 Bft)
09.05.2017 22:23 4,4 °C 4,4 °C 91 % 1014,6 hPa 0,0 mm 0,0 km/h (0 Bft) W-NW 301 ° 0 min 0,000 mm 0,0 UV-I 0 W/m² 3,1 °C 4,4 °C 0,0 km/h (0 Bft)
09.05.2017 22:24 4,4 °C 4,4 °C 91 % 1014,6 hPa 0,0 mm 0,0 km/h (0 Bft) W-NW 301 ° 0 min 0,000 mm 0,0 UV-I 0 W/m² 3,1 °C 4,4 °C 0,0 km/h (0 Bft)
09.05.2017 22:25 4,4 °C 4,4 °C 91 % 1014,6 hPa 0,0 mm 0,0 km/h (0 Bft) W-NW 301 ° 0 min 0,000 mm 0,0 UV-I 0 W/m² 3,1 °C 4,4 °C 0,0 km/h (0 Bft)
09.05.2017 22:26 4,4 °C 4,4 °C 91 % 1014,5 hPa 0,0 mm 0,0 km/h (0 Bft) W-NW 301 ° 0 min 0,000 mm 0,0 UV-I 0 W/m² 3,1 °C 4,4 °C 0,0 km/h (0 Bft)
09.05.2017 22:27 4,4 °C 4,4 °C 91 % 1014,5 hPa 0,0 mm 0,0 km/h (0 Bft) W-NW 301 ° 0 min 0,000 mm 0,0 UV-I 0 W/m² 3,1 °C 4,4 °C 0,0 km/h (0 Bft)
09.05.2017 22:28 4,4 °C 4,4 °C 91 % 1014,6 hPa 0,0 mm 0,0 km/h (0 Bft) W-NW 301 ° 0 min 0,000 mm 0,0 UV-I 0 W/m² 3,1 °C 4,4 °C 0,0 km/h (0 Bft)
09.05.2017 22:29 4,3 °C 4,4 °C 92 % 1014,6 hPa 0,0 mm 0,0 km/h (0 Bft) W-NW 301 ° 0 min 0,000 mm 0,0 UV-I 0 W/m² 3,1 °C 4,3 °C 0,0 km/h (0 Bft)
09.05.2017 22:30 4,3 °C 4,4 °C 92 % 1014,5 hPa 0,0 mm 0,0 km/h (0 Bft) W-NW 301 ° 0 min 0,000 mm 0,0 UV-I 0 W/m² 3,1 °C 4,3 °C 0,0 km/h (0 Bft)
09.05.2017 22:31 4,4 °C 4,4 °C 91 % 1014,6 hPa 0,0 mm 0,0 km/h (0 Bft) W-NW 301 ° 0 min 0,000 mm 0,0 UV-I 0 W/m² 3,1 °C 4,4 °C 0,0 km/h (0 Bft)
09.05.2017 22:32 4,3 °C 4,4 °C 91 % 1014,5 hPa 0,0 mm 0,0 km/h (0 Bft) W-NW 301 ° 0 min 0,000 mm 0,0 UV-I 0 W/m² 3,0 °C 4,3 °C 0,0 km/h (0 Bft)
09.05.2017 22:33 4,3 °C 4,3 °C 91 % 1014,5 hPa 0,0 mm 0,0 km/h (0 Bft) W-NW 301 ° 0 min 0,000 mm 0,0 UV-I 0 W/m² 3,0 °C 4,3 °C 0,0 km/h (0 Bft)
09.05.2017 22:34 4,3 °C 4,3 °C 91 % 1014,5 hPa 0,0 mm 0,0 km/h (0 Bft) W-NW 301 ° 0 min 0,000 mm 0,0 UV-I 0 W/m² 3,0 °C 4,3 °C 0,0 km/h (0 Bft)
09.05.2017 22:35 4,3 °C 4,3 °C 92 % 1014,4 hPa 0,0 mm 0,0 km/h (0 Bft) W-NW 301 ° 0 min 0,000 mm 0,0 UV-I 0 W/m² 3,1 °C 4,3 °C 0,0 km/h (0 Bft)
09.05.2017 22:36 4,2 °C 4,3 °C 92 % 1014,4 hPa 0,0 mm 0,0 km/h (0 Bft) W-NW 301 ° 0 min 0,000 mm 0,0 UV-I 0 W/m² 3,0 °C 4,2 °C 0,0 km/h (0 Bft)
09.05.2017 22:37 4,2 °C 4,2 °C 92 % 1014,4 hPa 0,0 mm 0,0 km/h (0 Bft) W-NW 301 ° 0 min 0,000 mm 0,0 UV-I 0 W/m² 3,0 °C 4,2 °C 0,0 km/h (0 Bft)
09.05.2017 22:38 4,2 °C 4,2 °C 92 % 1014,5 hPa 0,0 mm 0,0 km/h (0 Bft) W-NW 301 ° 0 min 0,000 mm 0,0 UV-I 0 W/m² 3,0 °C 4,2 °C 0,0 km/h (0 Bft)
09.05.2017 22:39 4,2 °C 4,2 °C 92 % 1014,4 hPa 0,0 mm 0,0 km/h (0 Bft) W-NW 301 ° 0 min 0,000 mm 0,0 UV-I 0 W/m² 3,0 °C 4,2 °C 0,0 km/h (0 Bft)
09.05.2017 22:40 4,1 °C 4,2 °C 92 % 1014,4 hPa 0,0 mm 0,0 km/h (0 Bft) W-NW 301 ° 0 min 0,000 mm 0,0 UV-I 0 W/m² 2,9 °C 4,1 °C 0,0 km/h (0 Bft)
09.05.2017 22:41 4,2 °C 4,2 °C 92 % 1014,4 hPa 0,0 mm 0,0 km/h (0 Bft) W-NW 301 ° 0 min 0,000 mm 0,0 UV-I 0 W/m² 3,0 °C 4,2 °C 0,0 km/h (0 Bft)
09.05.2017 22:42 4,2 °C 4,2 °C 92 % 1014,4 hPa 0,0 mm 0,0 km/h (0 Bft) W-NW 301 ° 0 min 0,000 mm 0,0 UV-I 0 W/m² 3,0 °C 4,2 °C 0,0 km/h (0 Bft)
09.05.2017 22:43 4,2 °C 4,2 °C 92 % 1014,4 hPa 0,0 mm 0,0 km/h (0 Bft) W-NW 301 ° 0 min 0,000 mm 0,0 UV-I 0 W/m² 3,0 °C 4,2 °C 0,0 km/h (0 Bft)
09.05.2017 22:44 4,2 °C 4,2 °C 92 % 1014,4 hPa 0,0 mm 0,0 km/h (0 Bft) W-NW 301 ° 0 min 0,000 mm 0,0 UV-I 0 W/m² 3,0 °C 4,2 °C 0,0 km/h (0 Bft)
09.05.2017 22:45 4,2 °C 4,2 °C 92 % 1014,4 hPa 0,0 mm 0,0 km/h (0 Bft) W-NW 301 ° 0 min 0,000 mm 0,0 UV-I 0 W/m² 3,0 °C 4,2 °C 0,0 km/h (0 Bft)
09.05.2017 22:46 4,2 °C 4,2 °C 92 % 1014,4 hPa 0,0 mm 0,0 km/h (0 Bft) W-NW 301 ° 0 min 0,000 mm 0,0 UV-I 0 W/m² 3,0 °C 4,2 °C 0,0 km/h (0 Bft)
09.05.2017 22:47 4,2 °C 4,2 °C 92 % 1014,3 hPa 0,0 mm 0,0 km/h (0 Bft) W-NW 301 ° 0 min 0,000 mm 0,0 UV-I 0 W/m² 3,0 °C 4,2 °C 0,0 km/h (0 Bft)
09.05.2017 22:48 4,2 °C 4,2 °C 92 % 1014,3 hPa 0,0 mm 0,0 km/h (0 Bft) W-NW 301 ° 0 min 0,000 mm 0,0 UV-I 0 W/m² 3,0 °C 4,2 °C 0,0 km/h (0 Bft)
09.05.2017 22:49 4,1 °C 4,2 °C 92 % 1014,3 hPa 0,0 mm 0,0 km/h (0 Bft) W-NW 301 ° 0 min 0,000 mm 0,0 UV-I 0 W/m² 2,9 °C 4,1 °C 0,0 km/h (0 Bft)
09.05.2017 22:50 4,1 °C 4,1 °C 92 % 1014,3 hPa 0,0 mm 0,0 km/h (0 Bft) W-NW 301 ° 0 min 0,000 mm 0,0 UV-I 0 W/m² 2,9 °C 4,1 °C 0,0 km/h (0 Bft)
09.05.2017 22:51 4,1 °C 4,1 °C 92 % 1014,3 hPa 0,0 mm 0,0 km/h (0 Bft) W-NW 301 ° 0 min 0,000 mm 0,0 UV-I 0 W/m² 2,9 °C 4,1 °C 0,0 km/h (0 Bft)
09.05.2017 22:52 4,0 °C 4,1 °C 92 % 1014,2 hPa 0,0 mm 0,0 km/h (0 Bft) W-NW 301 ° 0 min 0,000 mm 0,0 UV-I 0 W/m² 2,8 °C 4,0 °C 0,0 km/h (0 Bft)
09.05.2017 22:53 4,0 °C 4,1 °C 92 % 1014,2 hPa 0,0 mm 0,0 km/h (0 Bft) W-NW 301 ° 0 min 0,000 mm 0,0 UV-I 0 W/m² 2,8 °C 4,0 °C 0,0 km/h (0 Bft)
09.05.2017 22:54 4,0 °C 4,0 °C 92 % 1014,2 hPa 0,0 mm 0,0 km/h (0 Bft) W-NW 301 ° 0 min 0,000 mm 0,0 UV-I 0 W/m² 2,8 °C 4,0 °C 0,0 km/h (0 Bft)
09.05.2017 22:55 4,0 °C 4,0 °C 92 % 1014,2 hPa 0,0 mm 0,0 km/h (0 Bft) W-NW 301 ° 0 min 0,000 mm 0,0 UV-I 0 W/m² 2,8 °C 4,0 °C 0,0 km/h (0 Bft)
09.05.2017 22:56 4,0 °C 4,0 °C 92 % 1014,2 hPa 0,0 mm 0,0 km/h (0 Bft) W-NW 301 ° 0 min 0,000 mm 0,0 UV-I 0 W/m² 2,8 °C 4,0 °C 0,0 km/h (0 Bft)
09.05.2017 22:57 4,0 °C 4,0 °C 92 % 1014,2 hPa 0,0 mm 0,0 km/h (0 Bft) W-NW 301 ° 0 min 0,000 mm 0,0 UV-I 0 W/m² 2,8 °C 4,0 °C 0,0 km/h (0 Bft)
09.05.2017 22:58 4,0 °C 4,0 °C 92 % 1014,2 hPa 0,0 mm 0,0 km/h (0 Bft) W-NW 301 ° 0 min 0,000 mm 0,0 UV-I 0 W/m² 2,8 °C 4,0 °C 0,0 km/h (0 Bft)
09.05.2017 22:59 3,9 °C 4,0 °C 92 % 1014,1 hPa 0,0 mm 0,0 km/h (0 Bft) W-NW 301 ° 0 min 0,000 mm 0,0 UV-I 0 W/m² 2,7 °C 3,9 °C 0,0 km/h (0 Bft)
09.05.2017 23:00 3,9 °C 3,9 °C 92 % 1014,2 hPa 0,0 mm 0,0 km/h (0 Bft) W-NW 301 ° 0 min 0,000 mm 0,0 UV-I 0 W/m² 2,7 °C 3,9 °C 0,0 km/h (0 Bft)
09.05.2017 23:01 3,9 °C 3,9 °C 92 % 1014,2 hPa 0,0 mm 0,0 km/h (0 Bft) W-NW 301 ° 0 min 0,000 mm 0,0 UV-I 0 W/m² 2,7 °C 3,9 °C 0,0 km/h (0 Bft)
09.05.2017 23:02 3,9 °C 3,9 °C 93 % 1014,2 hPa 0,0 mm 0,0 km/h (0 Bft) W-NW 301 ° 0 min 0,000 mm 0,0 UV-I 0 W/m² 2,9 °C 3,9 °C 0,0 km/h (0 Bft)
09.05.2017 23:03 3,9 °C 3,9 °C 92 % 1014,1 hPa 0,0 mm 0,0 km/h (0 Bft) W-NW 301 ° 0 min 0,000 mm 0,0 UV-I 0 W/m² 2,7 °C 3,9 °C 0,0 km/h (0 Bft)
09.05.2017 23:04 3,9 °C 3,9 °C 92 % 1014,2 hPa 0,0 mm 0,0 km/h (0 Bft) W-NW 301 ° 0 min 0,000 mm 0,0 UV-I 0 W/m² 2,7 °C 3,9 °C 0,0 km/h (0 Bft)
09.05.2017 23:05 3,9 °C 3,9 °C 92 % 1014,1 hPa 0,0 mm 0,0 km/h (0 Bft) W-NW 301 ° 0 min 0,000 mm 0,0 UV-I 0 W/m² 2,7 °C 3,9 °C 0,0 km/h (0 Bft)
09.05.2017 23:06 3,9 °C 3,9 °C 92 % 1014,2 hPa 0,0 mm 0,0 km/h (0 Bft) W-NW 301 ° 0 min 0,000 mm 0,0 UV-I 0 W/m² 2,7 °C 3,9 °C 0,0 km/h (0 Bft)
09.05.2017 23:07 3,9 °C 3,9 °C 92 % 1014,2 hPa 0,0 mm 0,0 km/h (0 Bft) W-NW 301 ° 0 min 0,000 mm 0,0 UV-I 0 W/m² 2,7 °C 3,9 °C 0,0 km/h (0 Bft)
09.05.2017 23:08 3,9 °C 3,9 °C 93 % 1014,2 hPa 0,0 mm 0,0 km/h (0 Bft) W-NW 301 ° 0 min 0,000 mm 0,0 UV-I 0 W/m² 2,9 °C 3,9 °C 0,0 km/h (0 Bft)
09.05.2017 23:09 3,9 °C 3,9 °C 92 % 1014,2 hPa 0,0 mm 0,0 km/h (0 Bft) W-NW 301 ° 0 min 0,000 mm 0,0 UV-I 0 W/m² 2,7 °C 3,9 °C 0,0 km/h (0 Bft)
09.05.2017 23:10 3,9 °C 3,9 °C 92 % 1014,1 hPa 0,0 mm 0,0 km/h (0 Bft) W-NW 301 ° 0 min 0,000 mm 0,0 UV-I 0 W/m² 2,7 °C 3,9 °C 0,0 km/h (0 Bft)
09.05.2017 23:11 3,9 °C 3,9 °C 92 % 1014,2 hPa 0,0 mm 0,0 km/h (0 Bft) W-NW 301 ° 0 min 0,000 mm 0,0 UV-I 0 W/m² 2,7 °C 3,9 °C 0,0 km/h (0 Bft)
09.05.2017 23:12 3,8 °C 3,9 °C 92 % 1014,2 hPa 0,0 mm 0,0 km/h (0 Bft) W-NW 301 ° 0 min 0,000 mm 0,0 UV-I 0 W/m² 2,6 °C 3,8 °C 0,0 km/h (0 Bft)
09.05.2017 23:13 3,8 °C 3,9 °C 92 % 1014,1 hPa 0,0 mm 0,0 km/h (0 Bft) W-NW 301 ° 0 min 0,000 mm 0,0 UV-I 0 W/m² 2,6 °C 3,8 °C 0,0 km/h (0 Bft)
09.05.2017 23:14 3,8 °C 3,8 °C 92 % 1014,2 hPa 0,0 mm 0,0 km/h (0 Bft) W-NW 301 ° 0 min 0,000 mm 0,0 UV-I 0 W/m² 2,6 °C 3,8 °C 0,0 km/h (0 Bft)
09.05.2017 23:15 3,7 °C 3,8 °C 92 % 1014,2 hPa 0,0 mm 0,0 km/h (0 Bft) W-NW 301 ° 0 min 0,000 mm 0,0 UV-I 0 W/m² 2,5 °C 3,7 °C 0,0 km/h (0 Bft)
09.05.2017 23:16 3,7 °C 3,8 °C 92 % 1014,1 hPa 0,0 mm 0,0 km/h (0 Bft) W-NW 301 ° 0 min 0,000 mm 0,0 UV-I 0 W/m² 2,5 °C 3,7 °C 0,0 km/h (0 Bft)
09.05.2017 23:17 3,7 °C 3,7 °C 92 % 1014,2 hPa 0,0 mm 0,0 km/h (0 Bft) W-NW 301 ° 0 min 0,000 mm 0,0 UV-I 0 W/m² 2,5 °C 3,7 °C 0,0 km/h (0 Bft)
09.05.2017 23:18 3,7 °C 3,7 °C 92 % 1014,2 hPa 0,0 mm 0,0 km/h (0 Bft) W-NW 301 ° 0 min 0,000 mm 0,0 UV-I 0 W/m² 2,5 °C 3,7 °C 0,0 km/h (0 Bft)
09.05.2017 23:19 3,6 °C 3,7 °C 93 % 1014,1 hPa 0,0 mm 0,0 km/h (0 Bft) W-NW 301 ° 0 min 0,000 mm 0,0 UV-I 0 W/m² 2,6 °C 3,6 °C 0,0 km/h (0 Bft)
09.05.2017 23:20 3,6 °C 3,6 °C 93 % 1014,1 hPa 0,0 mm 0,0 km/h (0 Bft) W-NW 301 ° 0 min 0,000 mm 0,0 UV-I 0 W/m² 2,6 °C 3,6 °C 0,0 km/h (0 Bft)
09.05.2017 23:21 3,6 °C 3,6 °C 93 % 1014,1 hPa 0,0 mm 0,0 km/h (0 Bft) W-NW 301 ° 0 min 0,000 mm 0,0 UV-I 0 W/m² 2,6 °C 3,6 °C 0,0 km/h (0 Bft)
09.05.2017 23:22 3,6 °C 3,6 °C 93 % 1014,2 hPa 0,0 mm 0,0 km/h (0 Bft) W-NW 301 ° 0 min 0,000 mm 0,0 UV-I 0 W/m² 2,6 °C 3,6 °C 0,0 km/h (0 Bft)
09.05.2017 23:23 3,6 °C 3,6 °C 92 % 1014,1 hPa 0,0 mm 0,0 km/h (0 Bft) W-NW 301 ° 0 min 0,000 mm 0,0 UV-I 0 W/m² 2,4 °C 3,6 °C 0,0 km/h (0 Bft)
09.05.2017 23:24 3,5 °C 3,6 °C 92 % 1014,2 hPa 0,0 mm 0,0 km/h (0 Bft) W-NW 301 ° 0 min 0,000 mm 0,0 UV-I 0 W/m² 2,3 °C 3,5 °C 0,0 km/h (0 Bft)
09.05.2017 23:25 3,5 °C 3,6 °C 93 % 1014,1 hPa 0,0 mm 0,0 km/h (0 Bft) W-NW 301 ° 0 min 0,000 mm 0,0 UV-I 0 W/m² 2,5 °C 3,5 °C 0,0 km/h (0 Bft)
09.05.2017 23:26 3,4 °C 3,5 °C 92 % 1014,2 hPa 0,0 mm 0,0 km/h (0 Bft) W-NW 301 ° 0 min 0,000 mm 0,0 UV-I 0 W/m² 2,2 °C 3,4 °C 0,0 km/h (0 Bft)
09.05.2017 23:27 3,4 °C 3,4 °C 93 % 1014,2 hPa 0,0 mm 0,0 km/h (0 Bft) W-NW 301 ° 0 min 0,000 mm 0,0 UV-I 0 W/m² 2,4 °C 3,4 °C 0,0 km/h (0 Bft)
09.05.2017 23:28 3,5 °C 3,5 °C 93 % 1014,1 hPa 0,0 mm 0,0 km/h (0 Bft) W-NW 301 ° 0 min 0,000 mm 0,0 UV-I 0 W/m² 2,5 °C 3,5 °C 0,0 km/h (0 Bft)
09.05.2017 23:29 3,6 °C 3,6 °C 93 % 1014,1 hPa 0,0 mm 0,0 km/h (0 Bft) W-NW 301 ° 0 min 0,000 mm 0,0 UV-I 0 W/m² 2,6 °C 3,6 °C 0,0 km/h (0 Bft)
09.05.2017 23:31 3,6 °C 3,6 °C 93 % 1014,1 hPa 0,0 mm 0,0 km/h (0 Bft) W-NW 301 ° 0 min 0,000 mm 0,0 UV-I 0 W/m² 2,6 °C 3,6 °C 0,0 km/h (0 Bft)
09.05.2017 23:32 3,6 °C 3,6 °C 93 % 1014,1 hPa 0,0 mm 0,0 km/h (0 Bft) W-NW 301 ° 0 min 0,000 mm 0,0 UV-I 0 W/m² 2,6 °C 3,6 °C 0,0 km/h (0 Bft)
09.05.2017 23:33 3,7 °C 3,7 °C 92 % 1014,0 hPa 0,0 mm 0,0 km/h (0 Bft) W-NW 301 ° 0 min 0,000 mm 0,0 UV-I 0 W/m² 2,5 °C 3,7 °C 0,0 km/h (0 Bft)
09.05.2017 23:34 3,7 °C 3,7 °C 92 % 1014,1 hPa 0,0 mm 0,0 km/h (0 Bft) W-NW 301 ° 0 min 0,000 mm 0,0 UV-I 0 W/m² 2,5 °C 3,7 °C 0,0 km/h (0 Bft)
09.05.2017 23:35 3,6 °C 3,7 °C 92 % 1014,1 hPa 0,0 mm 0,0 km/h (0 Bft) W-NW 301 ° 0 min 0,000 mm 0,0 UV-I 0 W/m² 2,4 °C 3,6 °C 0,0 km/h (0 Bft)
09.05.2017 23:36 3,6 °C 3,7 °C 92 % 1014,0 hPa 0,0 mm 0,0 km/h (0 Bft) W-NW 301 ° 0 min 0,000 mm 0,0 UV-I 0 W/m² 2,4 °C 3,6 °C 0,0 km/h (0 Bft)
09.05.2017 23:37 3,5 °C 3,6 °C 92 % 1014,0 hPa 0,0 mm 0,0 km/h (0 Bft) W-NW 301 ° 0 min 0,000 mm 0,0 UV-I 0 W/m² 2,3 °C 3,5 °C 0,0 km/h (0 Bft)
09.05.2017 23:38 3,4 °C 3,5 °C 92 % 1014,0 hPa 0,0 mm 0,0 km/h (0 Bft) W-NW 301 ° 0 min 0,000 mm 0,0 UV-I 0 W/m² 2,2 °C 3,4 °C 0,0 km/h (0 Bft)
09.05.2017 23:39 3,4 °C 3,4 °C 92 % 1014,0 hPa 0,0 mm 0,0 km/h (0 Bft) W-NW 301 ° 0 min 0,000 mm 0,0 UV-I 0 W/m² 2,2 °C 3,4 °C 0,0 km/h (0 Bft)
09.05.2017 23:40 3,3 °C 3,4 °C 92 % 1014,0 hPa 0,0 mm 0,0 km/h (0 Bft) W-NW 301 ° 0 min 0,000 mm 0,0 UV-I 0 W/m² 2,1 °C 3,3 °C 0,0 km/h (0 Bft)
09.05.2017 23:41 3,2 °C 3,3 °C 92 % 1014,0 hPa 0,0 mm 0,0 km/h (0 Bft) W-NW 301 ° 0 min 0,000 mm 0,0 UV-I 0 W/m² 2,0 °C 3,2 °C 0,0 km/h (0 Bft)
09.05.2017 23:42 3,2 °C 3,2 °C 92 % 1014,0 hPa 0,0 mm 0,0 km/h (0 Bft) W-NW 301 ° 0 min 0,000 mm 0,0 UV-I 0 W/m² 2,0 °C 3,2 °C 0,0 km/h (0 Bft)
09.05.2017 23:43 3,2 °C 3,2 °C 92 % 1014,0 hPa 0,0 mm 0,0 km/h (0 Bft) W-NW 301 ° 0 min 0,000 mm 0,0 UV-I 0 W/m² 2,0 °C 3,2 °C 0,0 km/h (0 Bft)
09.05.2017 23:44 3,2 °C 3,2 °C 92 % 1013,9 hPa 0,0 mm 0,0 km/h (0 Bft) W-NW 301 ° 0 min 0,000 mm 0,0 UV-I 0 W/m² 2,0 °C 3,2 °C 0,0 km/h (0 Bft)
09.05.2017 23:45 3,1 °C 3,2 °C 92 % 1014,0 hPa 0,0 mm 0,0 km/h (0 Bft) W-NW 301 ° 0 min 0,000 mm 0,0 UV-I 0 W/m² 1,9 °C 3,1 °C 0,0 km/h (0 Bft)
09.05.2017 23:46 3,0 °C 3,1 °C 92 % 1013,9 hPa 0,0 mm 0,0 km/h (0 Bft) W-NW 301 ° 0 min 0,000 mm 0,0 UV-I 0 W/m² 1,8 °C 3,0 °C 0,0 km/h (0 Bft)
09.05.2017 23:47 2,9 °C 3,0 °C 92 % 1014,0 hPa 0,0 mm 0,0 km/h (0 Bft) W-NW 301 ° 0 min 0,000 mm 0,0 UV-I 0 W/m² 1,7 °C 2,9 °C 0,0 km/h (0 Bft)
09.05.2017 23:48 2,9 °C 2,9 °C 92 % 1014,0 hPa 0,0 mm 0,0 km/h (0 Bft) W-NW 301 ° 0 min 0,000 mm 0,0 UV-I 0 W/m² 1,7 °C 2,9 °C 0,0 km/h (0 Bft)
09.05.2017 23:49 2,8 °C 2,9 °C 92 % 1013,9 hPa 0,0 mm 0,0 km/h (0 Bft) W-NW 301 ° 0 min 0,000 mm 0,0 UV-I 0 W/m² 1,6 °C 2,8 °C 0,0 km/h (0 Bft)
09.05.2017 23:50 2,8 °C 2,8 °C 92 % 1014,0 hPa 0,0 mm 0,0 km/h (0 Bft) W-NW 301 ° 0 min 0,000 mm 0,0 UV-I 0 W/m² 1,6 °C 2,8 °C 0,0 km/h (0 Bft)
09.05.2017 23:51 2,8 °C 2,8 °C 92 % 1014,0 hPa 0,0 mm 0,0 km/h (0 Bft) W-NW 301 ° 0 min 0,000 mm 0,0 UV-I 0 W/m² 1,6 °C 2,8 °C 0,0 km/h (0 Bft)
09.05.2017 23:52 2,7 °C 2,8 °C 92 % 1014,0 hPa 0,0 mm 0,0 km/h (0 Bft) W-NW 301 ° 0 min 0,000 mm 0,0 UV-I 0 W/m² 1,5 °C 2,7 °C 0,0 km/h (0 Bft)
09.05.2017 23:53 2,8 °C 2,8 °C 93 % 1014,0 hPa 0,0 mm 0,0 km/h (0 Bft) W-NW 301 ° 0 min 0,000 mm 0,0 UV-I 0 W/m² 1,8 °C 2,8 °C 0,0 km/h (0 Bft)
09.05.2017 23:54 2,7 °C 2,8 °C 93 % 1014,0 hPa 0,0 mm 0,0 km/h (0 Bft) W-NW 301 ° 0 min 0,000 mm 0,0 UV-I 0 W/m² 1,7 °C 2,7 °C 0,0 km/h (0 Bft)
09.05.2017 23:55 2,7 °C 2,7 °C 92 % 1014,0 hPa 0,0 mm 0,0 km/h (0 Bft) W-NW 301 ° 0 min 0,000 mm 0,0 UV-I 0 W/m² 1,5 °C 2,7 °C 0,0 km/h (0 Bft)
09.05.2017 23:56 2,7 °C 2,7 °C 93 % 1014,0 hPa 0,0 mm 0,0 km/h (0 Bft) W-NW 301 ° 0 min 0,000 mm 0,0 UV-I 0 W/m² 1,7 °C 2,7 °C 0,0 km/h (0 Bft)
09.05.2017 23:57 2,7 °C 2,7 °C 93 % 1013,9 hPa 0,0 mm 0,0 km/h (0 Bft) W-NW 301 ° 0 min 0,000 mm 0,0 UV-I 0 W/m² 1,7 °C 2,7 °C 0,0 km/h (0 Bft)
09.05.2017 23:58 2,7 °C 2,7 °C 93 % 1013,9 hPa 0,0 mm 0,0 km/h (0 Bft) W-NW 301 ° 0 min 0,000 mm 0,0 UV-I 0 W/m² 1,7 °C 2,7 °C 0,0 km/h (0 Bft)
09.05.2017 23:59 2,8 °C 2,8 °C 93 % 1013,9 hPa 0,0 mm 0,0 km/h (0 Bft) W-NW 301 ° 0 min 0,000 mm 0,0 UV-I 0 W/m² 1,8 °C 2,8 °C 0,0 km/h (0 Bft)
_ Min-Zeit 23:58 23:58 18:49 23:59 - 23:59 - - - - - - 23:55 06:24 23:59
Minimum _ 2,7 °C 2,7 °C 71 % 1013,9 hPa - 0,0 km/h (0 Bft) - - - - - - 1,5 °C 1,0 °C 0,0 km/h (0 Bft)
_ Max-Zeit 16:28 16:29 07:20 00:36 12:24 10:33 - - 16:34 17:01 16:06 16:09 16:15 16:29 10:33
Maximum _ 8,0 °C 8,0 °C 95 % 1017,6 hPa 0,2 mm 12,9 km/h
W (3 Bft)
- - 1 min 0,152 mm 4,4 UV-I 534 W/m² 4,4 °C 7,9 °C 17,7 km/h
W (3 Bft)
Durchschnitt _ 4,9 °C 4,9 °C 89 % 1016,2 hPa #7,4 mm 2,5 km/h (1 Bft) W - #1:43 h #0,965 mm 1,4 UV-I 89 W/m² 3,2 °C 4,7 °C 4,2 km/h (1 Bft)